<?xml version="1.0" encoding="UTF-8" standalone="no" ?>
<gpx xmlns="http://www.topografix.com/GPX/1/1" xmlns:xsi="http://www.w3.org/2001/XMLSchema-instance" xsi:schemaLocation="http://www.topografix.com/GPX/1/1 http://www.topografix.com/GPX/1/1/gpx.xsd" version="1.1" creator="VisuGPX - https://www.visugpx.com">
  <metadata>
    <name>Raid des Dentelles 2011 / 2e jour (Isa &amp; Aurel)</name>
    <desc><![CDATA[CO   VTT\'O..]]></desc>
  </metadata>
  <trk>
    <name><![CDATA[Raid Dentelles de Montmirail (2e journée / 2)]]></name>
    <trkseg>
      <trkpt lat="44.1847" lon="5.2741">
        <ele>1423.1999511719</ele>
        <time>2011-04-17T03:59:44.000Z</time>
      </trkpt>
      <trkpt lat="44.18476" lon="5.2742">
        <ele>1422.8000488281</ele>
        <time>2011-04-17T03:59:51.000Z</time>
      </trkpt>
      <trkpt lat="44.18482" lon="5.27424">
        <ele>1421.8000488281</ele>
        <time>2011-04-17T03:59:56.000Z</time>
      </trkpt>
      <trkpt lat="44.1849" lon="5.2743">
        <ele>1420.8000488281</ele>
        <time>2011-04-17T04:00:02.000Z</time>
      </trkpt>
      <trkpt lat="44.18493" lon="5.27444">
        <ele>1420.1999511719</ele>
        <time>2011-04-17T04:00:08.000Z</time>
      </trkpt>
      <trkpt lat="44.18494" lon="5.27464">
        <ele>1419.4000244141</ele>
        <time>2011-04-17T04:00:17.000Z</time>
      </trkpt>
      <trkpt lat="44.18494" lon="5.27463">
        <ele>1419.5999755859</ele>
        <time>2011-04-17T04:00:21.000Z</time>
      </trkpt>
      <trkpt lat="44.18494" lon="5.27463">
        <ele>1419.5999755859</ele>
        <time>2011-04-17T04:00:35.000Z</time>
      </trkpt>
      <trkpt lat="44.18493" lon="5.27463">
        <ele>1419.8000488281</ele>
        <time>2011-04-17T04:01:03.000Z</time>
      </trkpt>
      <trkpt lat="44.18491" lon="5.27463">
        <ele>1419.8000488281</ele>
        <time>2011-04-17T04:01:10.000Z</time>
      </trkpt>
      <trkpt lat="44.18491" lon="5.27462">
        <ele>1420</ele>
        <time>2011-04-17T04:01:21.000Z</time>
      </trkpt>
      <trkpt lat="44.18491" lon="5.27455">
        <ele>1420.1999511719</ele>
        <time>2011-04-17T04:01:28.000Z</time>
      </trkpt>
      <trkpt lat="44.1849" lon="5.27443">
        <ele>1420.4000244141</ele>
        <time>2011-04-17T04:01:37.000Z</time>
      </trkpt>
      <trkpt lat="44.1849" lon="5.27436">
        <ele>1420.5999755859</ele>
        <time>2011-04-17T04:01:42.000Z</time>
      </trkpt>
      <trkpt lat="44.18489" lon="5.27418">
        <ele>1421.1999511719</ele>
        <time>2011-04-17T04:01:52.000Z</time>
      </trkpt>
      <trkpt lat="44.18488" lon="5.27401">
        <ele>1420.5999755859</ele>
        <time>2011-04-17T04:02:01.000Z</time>
      </trkpt>
      <trkpt lat="44.18486" lon="5.27384">
        <ele>1420</ele>
        <time>2011-04-17T04:02:10.000Z</time>
      </trkpt>
      <trkpt lat="44.18485" lon="5.27368">
        <ele>1419.4000244141</ele>
        <time>2011-04-17T04:02:18.000Z</time>
      </trkpt>
      <trkpt lat="44.18483" lon="5.27355">
        <ele>1419</ele>
        <time>2011-04-17T04:02:25.000Z</time>
      </trkpt>
      <trkpt lat="44.18481" lon="5.2734">
        <ele>1418.5999755859</ele>
        <time>2011-04-17T04:02:31.000Z</time>
      </trkpt>
      <trkpt lat="44.18477" lon="5.27319">
        <ele>1418</ele>
        <time>2011-04-17T04:02:37.000Z</time>
      </trkpt>
      <trkpt lat="44.18473" lon="5.273">
        <ele>1417.5999755859</ele>
        <time>2011-04-17T04:02:42.000Z</time>
      </trkpt>
      <trkpt lat="44.1847" lon="5.27282">
        <ele>1417.1999511719</ele>
        <time>2011-04-17T04:02:47.000Z</time>
      </trkpt>
      <trkpt lat="44.18464" lon="5.27252">
        <ele>1416.8000488281</ele>
        <time>2011-04-17T04:02:55.000Z</time>
      </trkpt>
      <trkpt lat="44.18461" lon="5.27234">
        <ele>1416.1999511719</ele>
        <time>2011-04-17T04:03:00.000Z</time>
      </trkpt>
      <trkpt lat="44.18456" lon="5.27209">
        <ele>1415.5999755859</ele>
        <time>2011-04-17T04:03:07.000Z</time>
      </trkpt>
      <trkpt lat="44.18454" lon="5.2719">
        <ele>1415.1999511719</ele>
        <time>2011-04-17T04:03:12.000Z</time>
      </trkpt>
      <trkpt lat="44.18451" lon="5.2717">
        <ele>1414.5999755859</ele>
        <time>2011-04-17T04:03:17.000Z</time>
      </trkpt>
      <trkpt lat="44.18447" lon="5.27151">
        <ele>1413.4000244141</ele>
        <time>2011-04-17T04:03:22.000Z</time>
      </trkpt>
      <trkpt lat="44.18445" lon="5.27136">
        <ele>1412.4000244141</ele>
        <time>2011-04-17T04:03:26.000Z</time>
      </trkpt>
      <trkpt lat="44.18441" lon="5.27117">
        <ele>1411.1999511719</ele>
        <time>2011-04-17T04:03:31.000Z</time>
      </trkpt>
      <trkpt lat="44.18437" lon="5.27094">
        <ele>1409.8000488281</ele>
        <time>2011-04-17T04:03:37.000Z</time>
      </trkpt>
      <trkpt lat="44.18435" lon="5.27073">
        <ele>1408</ele>
        <time>2011-04-17T04:03:43.000Z</time>
      </trkpt>
      <trkpt lat="44.18431" lon="5.27051">
        <ele>1406</ele>
        <time>2011-04-17T04:03:49.000Z</time>
      </trkpt>
      <trkpt lat="44.18428" lon="5.27029">
        <ele>1404.4000244141</ele>
        <time>2011-04-17T04:03:55.000Z</time>
      </trkpt>
      <trkpt lat="44.18425" lon="5.27007">
        <ele>1402.4000244141</ele>
        <time>2011-04-17T04:04:01.000Z</time>
      </trkpt>
      <trkpt lat="44.18423" lon="5.2699">
        <ele>1401.8000488281</ele>
        <time>2011-04-17T04:04:06.000Z</time>
      </trkpt>
      <trkpt lat="44.18421" lon="5.2697">
        <ele>1401.5999755859</ele>
        <time>2011-04-17T04:04:12.000Z</time>
      </trkpt>
      <trkpt lat="44.18418" lon="5.26947">
        <ele>1401.4000244141</ele>
        <time>2011-04-17T04:04:18.000Z</time>
      </trkpt>
      <trkpt lat="44.18415" lon="5.26925">
        <ele>1401.4000244141</ele>
        <time>2011-04-17T04:04:24.000Z</time>
      </trkpt>
      <trkpt lat="44.18413" lon="5.26908">
        <ele>1401.5999755859</ele>
        <time>2011-04-17T04:04:29.000Z</time>
      </trkpt>
      <trkpt lat="44.18408" lon="5.26886">
        <ele>1402.5999755859</ele>
        <time>2011-04-17T04:04:35.000Z</time>
      </trkpt>
      <trkpt lat="44.18407" lon="5.26872">
        <ele>1402.8000488281</ele>
        <time>2011-04-17T04:04:39.000Z</time>
      </trkpt>
      <trkpt lat="44.18405" lon="5.26859">
        <ele>1403</ele>
        <time>2011-04-17T04:04:43.000Z</time>
      </trkpt>
      <trkpt lat="44.18404" lon="5.26835">
        <ele>1403</ele>
        <time>2011-04-17T04:04:52.000Z</time>
      </trkpt>
      <trkpt lat="44.18402" lon="5.26823">
        <ele>1402.5999755859</ele>
        <time>2011-04-17T04:05:00.000Z</time>
      </trkpt>
      <trkpt lat="44.18401" lon="5.26808">
        <ele>1402</ele>
        <time>2011-04-17T04:05:08.000Z</time>
      </trkpt>
      <trkpt lat="44.18397" lon="5.2679">
        <ele>1401.5999755859</ele>
        <time>2011-04-17T04:05:17.000Z</time>
      </trkpt>
      <trkpt lat="44.18395" lon="5.26769">
        <ele>1400.5999755859</ele>
        <time>2011-04-17T04:05:27.000Z</time>
      </trkpt>
      <trkpt lat="44.18394" lon="5.26755">
        <ele>1400</ele>
        <time>2011-04-17T04:05:32.000Z</time>
      </trkpt>
      <trkpt lat="44.18391" lon="5.26736">
        <ele>1399.4000244141</ele>
        <time>2011-04-17T04:05:38.000Z</time>
      </trkpt>
      <trkpt lat="44.18388" lon="5.26713">
        <ele>1398.5999755859</ele>
        <time>2011-04-17T04:05:45.000Z</time>
      </trkpt>
      <trkpt lat="44.18386" lon="5.26694">
        <ele>1397.8000488281</ele>
        <time>2011-04-17T04:05:51.000Z</time>
      </trkpt>
      <trkpt lat="44.18383" lon="5.26668">
        <ele>1396.8000488281</ele>
        <time>2011-04-17T04:05:59.000Z</time>
      </trkpt>
      <trkpt lat="44.1838" lon="5.2664">
        <ele>1395</ele>
        <time>2011-04-17T04:06:07.000Z</time>
      </trkpt>
      <trkpt lat="44.18378" lon="5.26623">
        <ele>1393.8000488281</ele>
        <time>2011-04-17T04:06:12.000Z</time>
      </trkpt>
      <trkpt lat="44.18374" lon="5.26597">
        <ele>1392.1999511719</ele>
        <time>2011-04-17T04:06:19.000Z</time>
      </trkpt>
      <trkpt lat="44.1837" lon="5.26574">
        <ele>1391</ele>
        <time>2011-04-17T04:06:25.000Z</time>
      </trkpt>
      <trkpt lat="44.18369" lon="5.26567">
        <ele>1391</ele>
        <time>2011-04-17T04:06:27.000Z</time>
      </trkpt>
      <trkpt lat="44.18366" lon="5.26551">
        <ele>1390.5999755859</ele>
        <time>2011-04-17T04:06:31.000Z</time>
      </trkpt>
      <trkpt lat="44.18363" lon="5.26535">
        <ele>1390.1999511719</ele>
        <time>2011-04-17T04:06:35.000Z</time>
      </trkpt>
      <trkpt lat="44.18362" lon="5.26528">
        <ele>1390</ele>
        <time>2011-04-17T04:06:37.000Z</time>
      </trkpt>
      <trkpt lat="44.1836" lon="5.26504">
        <ele>1389.1999511719</ele>
        <time>2011-04-17T04:06:44.000Z</time>
      </trkpt>
      <trkpt lat="44.18357" lon="5.26484">
        <ele>1389.5999755859</ele>
        <time>2011-04-17T04:06:50.000Z</time>
      </trkpt>
      <trkpt lat="44.18355" lon="5.2647">
        <ele>1390</ele>
        <time>2011-04-17T04:06:54.000Z</time>
      </trkpt>
      <trkpt lat="44.18355" lon="5.26467">
        <ele>1390</ele>
        <time>2011-04-17T04:06:55.000Z</time>
      </trkpt>
      <trkpt lat="44.18352" lon="5.2645">
        <ele>1390.5999755859</ele>
        <time>2011-04-17T04:07:00.000Z</time>
      </trkpt>
      <trkpt lat="44.18351" lon="5.26443">
        <ele>1390.8000488281</ele>
        <time>2011-04-17T04:07:02.000Z</time>
      </trkpt>
      <trkpt lat="44.18348" lon="5.26426">
        <ele>1391.5999755859</ele>
        <time>2011-04-17T04:07:07.000Z</time>
      </trkpt>
      <trkpt lat="44.18345" lon="5.26404">
        <ele>1391.4000244141</ele>
        <time>2011-04-17T04:07:14.000Z</time>
      </trkpt>
      <trkpt lat="44.18344" lon="5.26392">
        <ele>1390.8000488281</ele>
        <time>2011-04-17T04:07:18.000Z</time>
      </trkpt>
      <trkpt lat="44.18343" lon="5.26374">
        <ele>1389.8000488281</ele>
        <time>2011-04-17T04:07:24.000Z</time>
      </trkpt>
      <trkpt lat="44.18342" lon="5.26361">
        <ele>1389.1999511719</ele>
        <time>2011-04-17T04:07:29.000Z</time>
      </trkpt>
      <trkpt lat="44.18341" lon="5.26346">
        <ele>1388.5999755859</ele>
        <time>2011-04-17T04:07:36.000Z</time>
      </trkpt>
      <trkpt lat="44.1834" lon="5.26327">
        <ele>1388</ele>
        <time>2011-04-17T04:07:46.000Z</time>
      </trkpt>
      <trkpt lat="44.18338" lon="5.26311">
        <ele>1388.1999511719</ele>
        <time>2011-04-17T04:07:54.000Z</time>
      </trkpt>
      <trkpt lat="44.18337" lon="5.26297">
        <ele>1388</ele>
        <time>2011-04-17T04:08:01.000Z</time>
      </trkpt>
      <trkpt lat="44.18334" lon="5.2628">
        <ele>1388.1999511719</ele>
        <time>2011-04-17T04:08:09.000Z</time>
      </trkpt>
      <trkpt lat="44.18332" lon="5.2626">
        <ele>1388.1999511719</ele>
        <time>2011-04-17T04:08:19.000Z</time>
      </trkpt>
      <trkpt lat="44.18332" lon="5.26239">
        <ele>1388.4000244141</ele>
        <time>2011-04-17T04:08:30.000Z</time>
      </trkpt>
      <trkpt lat="44.18331" lon="5.26225">
        <ele>1389.1999511719</ele>
        <time>2011-04-17T04:08:37.000Z</time>
      </trkpt>
      <trkpt lat="44.18327" lon="5.26216">
        <ele>1389.8000488281</ele>
        <time>2011-04-17T04:08:43.000Z</time>
      </trkpt>
      <trkpt lat="44.18325" lon="5.26208">
        <ele>1390.4000244141</ele>
        <time>2011-04-17T04:08:50.000Z</time>
      </trkpt>
      <trkpt lat="44.18326" lon="5.26206">
        <ele>1390.4000244141</ele>
        <time>2011-04-17T04:09:03.000Z</time>
      </trkpt>
      <trkpt lat="44.18327" lon="5.26208">
        <ele>1390.1999511719</ele>
        <time>2011-04-17T04:09:22.000Z</time>
      </trkpt>
      <trkpt lat="44.18325" lon="5.26201">
        <ele>1390.5999755859</ele>
        <time>2011-04-17T04:09:35.000Z</time>
      </trkpt>
      <trkpt lat="44.18325" lon="5.26199">
        <ele>1390.5999755859</ele>
        <time>2011-04-17T04:09:36.000Z</time>
      </trkpt>
      <trkpt lat="44.18324" lon="5.26191">
        <ele>1391</ele>
        <time>2011-04-17T04:09:40.000Z</time>
      </trkpt>
      <trkpt lat="44.18322" lon="5.26173">
        <ele>1391.8000488281</ele>
        <time>2011-04-17T04:09:47.000Z</time>
      </trkpt>
      <trkpt lat="44.1832" lon="5.26157">
        <ele>1393</ele>
        <time>2011-04-17T04:09:54.000Z</time>
      </trkpt>
      <trkpt lat="44.18317" lon="5.26135">
        <ele>1395.1999511719</ele>
        <time>2011-04-17T04:10:04.000Z</time>
      </trkpt>
      <trkpt lat="44.18314" lon="5.26121">
        <ele>1396.5999755859</ele>
        <time>2011-04-17T04:10:11.000Z</time>
      </trkpt>
      <trkpt lat="44.18313" lon="5.26099">
        <ele>1398.5999755859</ele>
        <time>2011-04-17T04:10:21.000Z</time>
      </trkpt>
      <trkpt lat="44.1831" lon="5.26084">
        <ele>1400</ele>
        <time>2011-04-17T04:10:28.000Z</time>
      </trkpt>
      <trkpt lat="44.18308" lon="5.26068">
        <ele>1401.5999755859</ele>
        <time>2011-04-17T04:10:36.000Z</time>
      </trkpt>
      <trkpt lat="44.18306" lon="5.2605">
        <ele>1403.5999755859</ele>
        <time>2011-04-17T04:10:45.000Z</time>
      </trkpt>
      <trkpt lat="44.18304" lon="5.26029">
        <ele>1405.5999755859</ele>
        <time>2011-04-17T04:10:55.000Z</time>
      </trkpt>
      <trkpt lat="44.18302" lon="5.26012">
        <ele>1407.4000244141</ele>
        <time>2011-04-17T04:11:04.000Z</time>
      </trkpt>
      <trkpt lat="44.18301" lon="5.25998">
        <ele>1408.5999755859</ele>
        <time>2011-04-17T04:11:11.000Z</time>
      </trkpt>
      <trkpt lat="44.18298" lon="5.25982">
        <ele>1409.1999511719</ele>
        <time>2011-04-17T04:11:19.000Z</time>
      </trkpt>
      <trkpt lat="44.18292" lon="5.2596">
        <ele>1409.8000488281</ele>
        <time>2011-04-17T04:11:30.000Z</time>
      </trkpt>
      <trkpt lat="44.18288" lon="5.25946">
        <ele>1410.1999511719</ele>
        <time>2011-04-17T04:11:38.000Z</time>
      </trkpt>
      <trkpt lat="44.18287" lon="5.25936">
        <ele>1410.4000244141</ele>
        <time>2011-04-17T04:11:43.000Z</time>
      </trkpt>
      <trkpt lat="44.1828" lon="5.25915">
        <ele>1410.8000488281</ele>
        <time>2011-04-17T04:11:54.000Z</time>
      </trkpt>
      <trkpt lat="44.18276" lon="5.25903">
        <ele>1411.4000244141</ele>
        <time>2011-04-17T04:12:01.000Z</time>
      </trkpt>
      <trkpt lat="44.18271" lon="5.2589">
        <ele>1412</ele>
        <time>2011-04-17T04:12:08.000Z</time>
      </trkpt>
      <trkpt lat="44.18266" lon="5.25875">
        <ele>1412.8000488281</ele>
        <time>2011-04-17T04:12:17.000Z</time>
      </trkpt>
      <trkpt lat="44.18258" lon="5.25858">
        <ele>1413.5999755859</ele>
        <time>2011-04-17T04:12:27.000Z</time>
      </trkpt>
      <trkpt lat="44.18248" lon="5.2584">
        <ele>1414.5999755859</ele>
        <time>2011-04-17T04:12:38.000Z</time>
      </trkpt>
      <trkpt lat="44.1824" lon="5.25823">
        <ele>1415.4000244141</ele>
        <time>2011-04-17T04:12:48.000Z</time>
      </trkpt>
      <trkpt lat="44.18233" lon="5.2581">
        <ele>1415.8000488281</ele>
        <time>2011-04-17T04:12:57.000Z</time>
      </trkpt>
      <trkpt lat="44.18223" lon="5.25793">
        <ele>1416.1999511719</ele>
        <time>2011-04-17T04:13:09.000Z</time>
      </trkpt>
      <trkpt lat="44.18216" lon="5.25781">
        <ele>1416.5999755859</ele>
        <time>2011-04-17T04:13:17.000Z</time>
      </trkpt>
      <trkpt lat="44.18206" lon="5.25765">
        <ele>1417</ele>
        <time>2011-04-17T04:13:28.000Z</time>
      </trkpt>
      <trkpt lat="44.18201" lon="5.25756">
        <ele>1417.4000244141</ele>
        <time>2011-04-17T04:13:34.000Z</time>
      </trkpt>
      <trkpt lat="44.18192" lon="5.25738">
        <ele>1417.4000244141</ele>
        <time>2011-04-17T04:13:44.000Z</time>
      </trkpt>
      <trkpt lat="44.18182" lon="5.25721">
        <ele>1417.4000244141</ele>
        <time>2011-04-17T04:13:54.000Z</time>
      </trkpt>
      <trkpt lat="44.18174" lon="5.25706">
        <ele>1417.4000244141</ele>
        <time>2011-04-17T04:14:03.000Z</time>
      </trkpt>
      <trkpt lat="44.18165" lon="5.25687">
        <ele>1417.5999755859</ele>
        <time>2011-04-17T04:14:13.000Z</time>
      </trkpt>
      <trkpt lat="44.18158" lon="5.25667">
        <ele>1418.1999511719</ele>
        <time>2011-04-17T04:14:21.000Z</time>
      </trkpt>
      <trkpt lat="44.18153" lon="5.2565">
        <ele>1418.8000488281</ele>
        <time>2011-04-17T04:14:26.000Z</time>
      </trkpt>
      <trkpt lat="44.18149" lon="5.2563">
        <ele>1419</ele>
        <time>2011-04-17T04:14:32.000Z</time>
      </trkpt>
      <trkpt lat="44.18145" lon="5.25613">
        <ele>1419.4000244141</ele>
        <time>2011-04-17T04:14:37.000Z</time>
      </trkpt>
      <trkpt lat="44.18141" lon="5.25593">
        <ele>1419.5999755859</ele>
        <time>2011-04-17T04:14:43.000Z</time>
      </trkpt>
      <trkpt lat="44.18136" lon="5.25574">
        <ele>1419.8000488281</ele>
        <time>2011-04-17T04:14:49.000Z</time>
      </trkpt>
      <trkpt lat="44.18131" lon="5.25558">
        <ele>1419.8000488281</ele>
        <time>2011-04-17T04:14:55.000Z</time>
      </trkpt>
      <trkpt lat="44.18126" lon="5.25543">
        <ele>1419.8000488281</ele>
        <time>2011-04-17T04:15:00.000Z</time>
      </trkpt>
      <trkpt lat="44.18119" lon="5.25525">
        <ele>1419.8000488281</ele>
        <time>2011-04-17T04:15:07.000Z</time>
      </trkpt>
      <trkpt lat="44.1811" lon="5.25508">
        <ele>1420</ele>
        <time>2011-04-17T04:15:16.000Z</time>
      </trkpt>
      <trkpt lat="44.18105" lon="5.25501">
        <ele>1420.4000244141</ele>
        <time>2011-04-17T04:15:21.000Z</time>
      </trkpt>
      <trkpt lat="44.18101" lon="5.25494">
        <ele>1420</ele>
        <time>2011-04-17T04:15:26.000Z</time>
      </trkpt>
      <trkpt lat="44.18099" lon="5.25493">
        <ele>1420</ele>
        <time>2011-04-17T04:15:28.000Z</time>
      </trkpt>
      <trkpt lat="44.18101" lon="5.25485">
        <ele>1418.4000244141</ele>
        <time>2011-04-17T04:15:32.000Z</time>
      </trkpt>
      <trkpt lat="44.18104" lon="5.25482">
        <ele>1417.5999755859</ele>
        <time>2011-04-17T04:15:34.000Z</time>
      </trkpt>
      <trkpt lat="44.18102" lon="5.25467">
        <ele>1415.1999511719</ele>
        <time>2011-04-17T04:15:40.000Z</time>
      </trkpt>
      <trkpt lat="44.18102" lon="5.25465">
        <ele>1414.8000488281</ele>
        <time>2011-04-17T04:15:41.000Z</time>
      </trkpt>
      <trkpt lat="44.18103" lon="5.25462">
        <ele>1414</ele>
        <time>2011-04-17T04:15:43.000Z</time>
      </trkpt>
      <trkpt lat="44.18103" lon="5.25459">
        <ele>1413.5999755859</ele>
        <time>2011-04-17T04:15:48.000Z</time>
      </trkpt>
      <trkpt lat="44.18102" lon="5.25458">
        <ele>1413.5999755859</ele>
        <time>2011-04-17T04:15:56.000Z</time>
      </trkpt>
      <trkpt lat="44.18104" lon="5.25459">
        <ele>1413.5999755859</ele>
        <time>2011-04-17T04:16:00.000Z</time>
      </trkpt>
      <trkpt lat="44.18101" lon="5.25467">
        <ele>1415.1999511719</ele>
        <time>2011-04-17T04:16:06.000Z</time>
      </trkpt>
      <trkpt lat="44.18103" lon="5.25472">
        <ele>1416</ele>
        <time>2011-04-17T04:16:10.000Z</time>
      </trkpt>
      <trkpt lat="44.18103" lon="5.25483">
        <ele>1417.5999755859</ele>
        <time>2011-04-17T04:16:17.000Z</time>
      </trkpt>
      <trkpt lat="44.181" lon="5.25486">
        <ele>1418.5999755859</ele>
        <time>2011-04-17T04:16:21.000Z</time>
      </trkpt>
      <trkpt lat="44.181" lon="5.25493">
        <ele>1419.8000488281</ele>
        <time>2011-04-17T04:16:28.000Z</time>
      </trkpt>
      <trkpt lat="44.181" lon="5.25494">
        <ele>1420</ele>
        <time>2011-04-17T04:16:33.000Z</time>
      </trkpt>
      <trkpt lat="44.18098" lon="5.25495">
        <ele>1420.5999755859</ele>
        <time>2011-04-17T04:17:02.000Z</time>
      </trkpt>
      <trkpt lat="44.18097" lon="5.25495">
        <ele>1420.8000488281</ele>
        <time>2011-04-17T04:17:03.000Z</time>
      </trkpt>
      <trkpt lat="44.18086" lon="5.25501">
        <ele>1423.5999755859</ele>
        <time>2011-04-17T04:17:11.000Z</time>
      </trkpt>
      <trkpt lat="44.18081" lon="5.25508">
        <ele>1425.5999755859</ele>
        <time>2011-04-17T04:17:16.000Z</time>
      </trkpt>
      <trkpt lat="44.18077" lon="5.25519">
        <ele>1428</ele>
        <time>2011-04-17T04:17:23.000Z</time>
      </trkpt>
      <trkpt lat="44.18076" lon="5.25521">
        <ele>1428.4000244141</ele>
        <time>2011-04-17T04:17:24.000Z</time>
      </trkpt>
      <trkpt lat="44.18073" lon="5.25527">
        <ele>1430.1999511719</ele>
        <time>2011-04-17T04:17:31.000Z</time>
      </trkpt>
      <trkpt lat="44.1807" lon="5.2553">
        <ele>1431.5999755859</ele>
        <time>2011-04-17T04:17:36.000Z</time>
      </trkpt>
      <trkpt lat="44.18067" lon="5.25535">
        <ele>1433.1999511719</ele>
        <time>2011-04-17T04:17:44.000Z</time>
      </trkpt>
      <trkpt lat="44.18065" lon="5.25541">
        <ele>1434.5999755859</ele>
        <time>2011-04-17T04:17:49.000Z</time>
      </trkpt>
      <trkpt lat="44.1806" lon="5.25547">
        <ele>1436.8000488281</ele>
        <time>2011-04-17T04:17:57.000Z</time>
      </trkpt>
      <trkpt lat="44.18058" lon="5.25551">
        <ele>1438</ele>
        <time>2011-04-17T04:18:02.000Z</time>
      </trkpt>
      <trkpt lat="44.18054" lon="5.2555">
        <ele>1439.5999755859</ele>
        <time>2011-04-17T04:18:07.000Z</time>
      </trkpt>
      <trkpt lat="44.18049" lon="5.2555">
        <ele>1441.1999511719</ele>
        <time>2011-04-17T04:18:13.000Z</time>
      </trkpt>
      <trkpt lat="44.18047" lon="5.25548">
        <ele>1441.5999755859</ele>
        <time>2011-04-17T04:18:15.000Z</time>
      </trkpt>
      <trkpt lat="44.18035" lon="5.25536">
        <ele>1443.8000488281</ele>
        <time>2011-04-17T04:18:27.000Z</time>
      </trkpt>
      <trkpt lat="44.18031" lon="5.25534">
        <ele>1444.8000488281</ele>
        <time>2011-04-17T04:18:33.000Z</time>
      </trkpt>
      <trkpt lat="44.18027" lon="5.25533">
        <ele>1446</ele>
        <time>2011-04-17T04:18:38.000Z</time>
      </trkpt>
      <trkpt lat="44.18019" lon="5.25526">
        <ele>1447.5999755859</ele>
        <time>2011-04-17T04:18:45.000Z</time>
      </trkpt>
      <trkpt lat="44.18011" lon="5.2552">
        <ele>1449.1999511719</ele>
        <time>2011-04-17T04:18:52.000Z</time>
      </trkpt>
      <trkpt lat="44.18002" lon="5.25516">
        <ele>1451.1999511719</ele>
        <time>2011-04-17T04:18:59.000Z</time>
      </trkpt>
      <trkpt lat="44.17993" lon="5.2551">
        <ele>1454</ele>
        <time>2011-04-17T04:19:06.000Z</time>
      </trkpt>
      <trkpt lat="44.17987" lon="5.25503">
        <ele>1456</ele>
        <time>2011-04-17T04:19:12.000Z</time>
      </trkpt>
      <trkpt lat="44.17981" lon="5.25495">
        <ele>1457</ele>
        <time>2011-04-17T04:19:18.000Z</time>
      </trkpt>
      <trkpt lat="44.17979" lon="5.25488">
        <ele>1457</ele>
        <time>2011-04-17T04:19:23.000Z</time>
      </trkpt>
      <trkpt lat="44.17973" lon="5.25475">
        <ele>1457.1999511719</ele>
        <time>2011-04-17T04:19:31.000Z</time>
      </trkpt>
      <trkpt lat="44.17968" lon="5.25465">
        <ele>1458</ele>
        <time>2011-04-17T04:19:37.000Z</time>
      </trkpt>
      <trkpt lat="44.17962" lon="5.25451">
        <ele>1458.4000244141</ele>
        <time>2011-04-17T04:19:45.000Z</time>
      </trkpt>
      <trkpt lat="44.17959" lon="5.25438">
        <ele>1457.8000488281</ele>
        <time>2011-04-17T04:19:53.000Z</time>
      </trkpt>
      <trkpt lat="44.17955" lon="5.2542">
        <ele>1457</ele>
        <time>2011-04-17T04:20:03.000Z</time>
      </trkpt>
      <trkpt lat="44.1795" lon="5.25403">
        <ele>1458</ele>
        <time>2011-04-17T04:20:12.000Z</time>
      </trkpt>
      <trkpt lat="44.17946" lon="5.25393">
        <ele>1459.8000488281</ele>
        <time>2011-04-17T04:20:18.000Z</time>
      </trkpt>
      <trkpt lat="44.17942" lon="5.25383">
        <ele>1461.8000488281</ele>
        <time>2011-04-17T04:20:24.000Z</time>
      </trkpt>
      <trkpt lat="44.17936" lon="5.25372">
        <ele>1464.4000244141</ele>
        <time>2011-04-17T04:20:31.000Z</time>
      </trkpt>
      <trkpt lat="44.17932" lon="5.2536">
        <ele>1466.1999511719</ele>
        <time>2011-04-17T04:20:38.000Z</time>
      </trkpt>
      <trkpt lat="44.17928" lon="5.25349">
        <ele>1468.1999511719</ele>
        <time>2011-04-17T04:20:44.000Z</time>
      </trkpt>
      <trkpt lat="44.17928" lon="5.25346">
        <ele>1468.4000244141</ele>
        <time>2011-04-17T04:20:46.000Z</time>
      </trkpt>
      <trkpt lat="44.17925" lon="5.25335">
        <ele>1469.1999511719</ele>
        <time>2011-04-17T04:20:52.000Z</time>
      </trkpt>
      <trkpt lat="44.17921" lon="5.25315">
        <ele>1470.5999755859</ele>
        <time>2011-04-17T04:21:03.000Z</time>
      </trkpt>
      <trkpt lat="44.17921" lon="5.25311">
        <ele>1470.5999755859</ele>
        <time>2011-04-17T04:21:05.000Z</time>
      </trkpt>
      <trkpt lat="44.17919" lon="5.25299">
        <ele>1471</ele>
        <time>2011-04-17T04:21:12.000Z</time>
      </trkpt>
      <trkpt lat="44.17916" lon="5.25285">
        <ele>1472.1999511719</ele>
        <time>2011-04-17T04:21:20.000Z</time>
      </trkpt>
      <trkpt lat="44.17913" lon="5.25269">
        <ele>1472.8000488281</ele>
        <time>2011-04-17T04:21:30.000Z</time>
      </trkpt>
      <trkpt lat="44.1791" lon="5.25257">
        <ele>1473.8000488281</ele>
        <time>2011-04-17T04:21:37.000Z</time>
      </trkpt>
      <trkpt lat="44.17907" lon="5.25245">
        <ele>1475</ele>
        <time>2011-04-17T04:21:44.000Z</time>
      </trkpt>
      <trkpt lat="44.17902" lon="5.25231">
        <ele>1478</ele>
        <time>2011-04-17T04:21:52.000Z</time>
      </trkpt>
      <trkpt lat="44.17897" lon="5.25219">
        <ele>1481.4000244141</ele>
        <time>2011-04-17T04:22:00.000Z</time>
      </trkpt>
      <trkpt lat="44.17891" lon="5.25209">
        <ele>1484.5999755859</ele>
        <time>2011-04-17T04:22:07.000Z</time>
      </trkpt>
      <trkpt lat="44.17888" lon="5.25197">
        <ele>1486.8000488281</ele>
        <time>2011-04-17T04:22:14.000Z</time>
      </trkpt>
      <trkpt lat="44.17888" lon="5.25185">
        <ele>1486.5999755859</ele>
        <time>2011-04-17T04:22:20.000Z</time>
      </trkpt>
      <trkpt lat="44.17892" lon="5.25171">
        <ele>1484.1999511719</ele>
        <time>2011-04-17T04:22:27.000Z</time>
      </trkpt>
      <trkpt lat="44.17893" lon="5.25166">
        <ele>1483.5999755859</ele>
        <time>2011-04-17T04:22:30.000Z</time>
      </trkpt>
      <trkpt lat="44.17899" lon="5.25149">
        <ele>1481.4000244141</ele>
        <time>2011-04-17T04:22:41.000Z</time>
      </trkpt>
      <trkpt lat="44.179" lon="5.25145">
        <ele>1481</ele>
        <time>2011-04-17T04:22:44.000Z</time>
      </trkpt>
      <trkpt lat="44.179" lon="5.25132">
        <ele>1481.8000488281</ele>
        <time>2011-04-17T04:22:51.000Z</time>
      </trkpt>
      <trkpt lat="44.17901" lon="5.2513">
        <ele>1481.8000488281</ele>
        <time>2011-04-17T04:22:52.000Z</time>
      </trkpt>
      <trkpt lat="44.179" lon="5.25121">
        <ele>1482.8000488281</ele>
        <time>2011-04-17T04:22:57.000Z</time>
      </trkpt>
      <trkpt lat="44.179" lon="5.25112">
        <ele>1483.4000244141</ele>
        <time>2011-04-17T04:23:02.000Z</time>
      </trkpt>
      <trkpt lat="44.17898" lon="5.25099">
        <ele>1485.4000244141</ele>
        <time>2011-04-17T04:23:09.000Z</time>
      </trkpt>
      <trkpt lat="44.17898" lon="5.25095">
        <ele>1486</ele>
        <time>2011-04-17T04:23:11.000Z</time>
      </trkpt>
      <trkpt lat="44.17897" lon="5.25087">
        <ele>1487</ele>
        <time>2011-04-17T04:23:16.000Z</time>
      </trkpt>
      <trkpt lat="44.17892" lon="5.25069">
        <ele>1488.8000488281</ele>
        <time>2011-04-17T04:23:26.000Z</time>
      </trkpt>
      <trkpt lat="44.17891" lon="5.25067">
        <ele>1489</ele>
        <time>2011-04-17T04:23:27.000Z</time>
      </trkpt>
      <trkpt lat="44.17891" lon="5.25059">
        <ele>1489</ele>
        <time>2011-04-17T04:23:34.000Z</time>
      </trkpt>
      <trkpt lat="44.17897" lon="5.25058">
        <ele>1486.1999511719</ele>
        <time>2011-04-17T04:23:55.000Z</time>
      </trkpt>
      <trkpt lat="44.17892" lon="5.25052">
        <ele>1488.1999511719</ele>
        <time>2011-04-17T04:24:37.000Z</time>
      </trkpt>
      <trkpt lat="44.1789" lon="5.25046">
        <ele>1488.8000488281</ele>
        <time>2011-04-17T04:24:42.000Z</time>
      </trkpt>
      <trkpt lat="44.17887" lon="5.25041">
        <ele>1490.1999511719</ele>
        <time>2011-04-17T04:24:49.000Z</time>
      </trkpt>
      <trkpt lat="44.17888" lon="5.25041">
        <ele>1489.8000488281</ele>
        <time>2011-04-17T04:24:58.000Z</time>
      </trkpt>
      <trkpt lat="44.17894" lon="5.25041">
        <ele>1487</ele>
        <time>2011-04-17T04:25:20.000Z</time>
      </trkpt>
      <trkpt lat="44.17891" lon="5.25037">
        <ele>1488</ele>
        <time>2011-04-17T04:25:26.000Z</time>
      </trkpt>
      <trkpt lat="44.17885" lon="5.25029">
        <ele>1490.5999755859</ele>
        <time>2011-04-17T04:25:33.000Z</time>
      </trkpt>
      <trkpt lat="44.17878" lon="5.2502">
        <ele>1493.4000244141</ele>
        <time>2011-04-17T04:25:40.000Z</time>
      </trkpt>
      <trkpt lat="44.17877" lon="5.25018">
        <ele>1493.8000488281</ele>
        <time>2011-04-17T04:25:41.000Z</time>
      </trkpt>
      <trkpt lat="44.17868" lon="5.25003">
        <ele>1497</ele>
        <time>2011-04-17T04:25:51.000Z</time>
      </trkpt>
      <trkpt lat="44.17863" lon="5.24994">
        <ele>1498.5999755859</ele>
        <time>2011-04-17T04:25:57.000Z</time>
      </trkpt>
      <trkpt lat="44.1786" lon="5.24986">
        <ele>1499.1999511719</ele>
        <time>2011-04-17T04:26:02.000Z</time>
      </trkpt>
      <trkpt lat="44.17855" lon="5.24974">
        <ele>1500.4000244141</ele>
        <time>2011-04-17T04:26:11.000Z</time>
      </trkpt>
      <trkpt lat="44.17848" lon="5.24961">
        <ele>1502</ele>
        <time>2011-04-17T04:26:20.000Z</time>
      </trkpt>
      <trkpt lat="44.1784" lon="5.24945">
        <ele>1503.8000488281</ele>
        <time>2011-04-17T04:26:30.000Z</time>
      </trkpt>
      <trkpt lat="44.17834" lon="5.24933">
        <ele>1505.4000244141</ele>
        <time>2011-04-17T04:26:38.000Z</time>
      </trkpt>
      <trkpt lat="44.17828" lon="5.24922">
        <ele>1506.5999755859</ele>
        <time>2011-04-17T04:26:45.000Z</time>
      </trkpt>
      <trkpt lat="44.17827" lon="5.24918">
        <ele>1507</ele>
        <time>2011-04-17T04:26:47.000Z</time>
      </trkpt>
      <trkpt lat="44.17824" lon="5.24913">
        <ele>1507.4000244141</ele>
        <time>2011-04-17T04:26:51.000Z</time>
      </trkpt>
      <trkpt lat="44.17815" lon="5.24899">
        <ele>1508.1999511719</ele>
        <time>2011-04-17T04:27:01.000Z</time>
      </trkpt>
      <trkpt lat="44.17809" lon="5.24891">
        <ele>1509.4000244141</ele>
        <time>2011-04-17T04:27:08.000Z</time>
      </trkpt>
      <trkpt lat="44.17801" lon="5.24878">
        <ele>1510.1999511719</ele>
        <time>2011-04-17T04:27:17.000Z</time>
      </trkpt>
      <trkpt lat="44.17797" lon="5.24871">
        <ele>1510.8000488281</ele>
        <time>2011-04-17T04:27:23.000Z</time>
      </trkpt>
      <trkpt lat="44.17791" lon="5.24862">
        <ele>1511.1999511719</ele>
        <time>2011-04-17T04:27:30.000Z</time>
      </trkpt>
      <trkpt lat="44.17785" lon="5.24853">
        <ele>1512</ele>
        <time>2011-04-17T04:27:37.000Z</time>
      </trkpt>
      <trkpt lat="44.17781" lon="5.24846">
        <ele>1512.4000244141</ele>
        <time>2011-04-17T04:27:42.000Z</time>
      </trkpt>
      <trkpt lat="44.17773" lon="5.24831">
        <ele>1512.8000488281</ele>
        <time>2011-04-17T04:27:53.000Z</time>
      </trkpt>
      <trkpt lat="44.17767" lon="5.24821">
        <ele>1512.8000488281</ele>
        <time>2011-04-17T04:28:01.000Z</time>
      </trkpt>
      <trkpt lat="44.1776" lon="5.2481">
        <ele>1513.1999511719</ele>
        <time>2011-04-17T04:28:10.000Z</time>
      </trkpt>
      <trkpt lat="44.17755" lon="5.24801">
        <ele>1513.5999755859</ele>
        <time>2011-04-17T04:28:17.000Z</time>
      </trkpt>
      <trkpt lat="44.17751" lon="5.24794">
        <ele>1513.4000244141</ele>
        <time>2011-04-17T04:28:22.000Z</time>
      </trkpt>
      <trkpt lat="44.17745" lon="5.24784">
        <ele>1514.4000244141</ele>
        <time>2011-04-17T04:28:30.000Z</time>
      </trkpt>
      <trkpt lat="44.1774" lon="5.24775">
        <ele>1515</ele>
        <time>2011-04-17T04:28:37.000Z</time>
      </trkpt>
      <trkpt lat="44.17732" lon="5.24767">
        <ele>1517.5999755859</ele>
        <time>2011-04-17T04:28:45.000Z</time>
      </trkpt>
      <trkpt lat="44.17726" lon="5.24759">
        <ele>1519</ele>
        <time>2011-04-17T04:28:52.000Z</time>
      </trkpt>
      <trkpt lat="44.17718" lon="5.24748">
        <ele>1521.1999511719</ele>
        <time>2011-04-17T04:29:01.000Z</time>
      </trkpt>
      <trkpt lat="44.1771" lon="5.24737">
        <ele>1523</ele>
        <time>2011-04-17T04:29:10.000Z</time>
      </trkpt>
      <trkpt lat="44.17709" lon="5.24734">
        <ele>1522.8000488281</ele>
        <time>2011-04-17T04:29:16.000Z</time>
      </trkpt>
      <trkpt lat="44.17708" lon="5.24733">
        <ele>1523.4000244141</ele>
        <time>2011-04-17T04:29:21.000Z</time>
      </trkpt>
      <trkpt lat="44.17702" lon="5.24725">
        <ele>1524.4000244141</ele>
        <time>2011-04-17T04:29:27.000Z</time>
      </trkpt>
      <trkpt lat="44.17701" lon="5.24724">
        <ele>1524.8000488281</ele>
        <time>2011-04-17T04:29:28.000Z</time>
      </trkpt>
      <trkpt lat="44.17699" lon="5.24723">
        <ele>1525.5999755859</ele>
        <time>2011-04-17T04:29:30.000Z</time>
      </trkpt>
      <trkpt lat="44.17692" lon="5.2471">
        <ele>1526.5999755859</ele>
        <time>2011-04-17T04:29:38.000Z</time>
      </trkpt>
      <trkpt lat="44.17685" lon="5.24693">
        <ele>1526.5999755859</ele>
        <time>2011-04-17T04:29:48.000Z</time>
      </trkpt>
      <trkpt lat="44.1768" lon="5.24678">
        <ele>1526.1999511719</ele>
        <time>2011-04-17T04:29:56.000Z</time>
      </trkpt>
      <trkpt lat="44.17673" lon="5.24666">
        <ele>1527.5999755859</ele>
        <time>2011-04-17T04:30:04.000Z</time>
      </trkpt>
      <trkpt lat="44.17663" lon="5.24655">
        <ele>1529.8000488281</ele>
        <time>2011-04-17T04:30:13.000Z</time>
      </trkpt>
      <trkpt lat="44.17656" lon="5.24644">
        <ele>1531.5999755859</ele>
        <time>2011-04-17T04:30:21.000Z</time>
      </trkpt>
      <trkpt lat="44.17654" lon="5.24642">
        <ele>1532</ele>
        <time>2011-04-17T04:30:22.000Z</time>
      </trkpt>
      <trkpt lat="44.17646" lon="5.24626">
        <ele>1532.8000488281</ele>
        <time>2011-04-17T04:30:27.000Z</time>
      </trkpt>
      <trkpt lat="44.17641" lon="5.24609">
        <ele>1532</ele>
        <time>2011-04-17T04:30:32.000Z</time>
      </trkpt>
      <trkpt lat="44.1764" lon="5.24603">
        <ele>1531</ele>
        <time>2011-04-17T04:30:34.000Z</time>
      </trkpt>
      <trkpt lat="44.17634" lon="5.24584">
        <ele>1529.8000488281</ele>
        <time>2011-04-17T04:30:40.000Z</time>
      </trkpt>
      <trkpt lat="44.17629" lon="5.24568">
        <ele>1529</ele>
        <time>2011-04-17T04:30:45.000Z</time>
      </trkpt>
      <trkpt lat="44.17623" lon="5.24551">
        <ele>1529</ele>
        <time>2011-04-17T04:30:50.000Z</time>
      </trkpt>
      <trkpt lat="44.17618" lon="5.24539">
        <ele>1528.5999755859</ele>
        <time>2011-04-17T04:30:54.000Z</time>
      </trkpt>
      <trkpt lat="44.17612" lon="5.24523">
        <ele>1528.1999511719</ele>
        <time>2011-04-17T04:30:59.000Z</time>
      </trkpt>
      <trkpt lat="44.17607" lon="5.24511">
        <ele>1528.4000244141</ele>
        <time>2011-04-17T04:31:03.000Z</time>
      </trkpt>
      <trkpt lat="44.176" lon="5.24494">
        <ele>1528.1999511719</ele>
        <time>2011-04-17T04:31:08.000Z</time>
      </trkpt>
      <trkpt lat="44.17599" lon="5.24488">
        <ele>1527</ele>
        <time>2011-04-17T04:31:10.000Z</time>
      </trkpt>
      <trkpt lat="44.17596" lon="5.24475">
        <ele>1525</ele>
        <time>2011-04-17T04:31:14.000Z</time>
      </trkpt>
      <trkpt lat="44.17594" lon="5.24459">
        <ele>1521.1999511719</ele>
        <time>2011-04-17T04:31:19.000Z</time>
      </trkpt>
      <trkpt lat="44.17583" lon="5.24439">
        <ele>1521.5999755859</ele>
        <time>2011-04-17T04:31:25.000Z</time>
      </trkpt>
      <trkpt lat="44.17576" lon="5.24424">
        <ele>1520.4000244141</ele>
        <time>2011-04-17T04:31:30.000Z</time>
      </trkpt>
      <trkpt lat="44.17571" lon="5.24414">
        <ele>1519.8000488281</ele>
        <time>2011-04-17T04:31:33.000Z</time>
      </trkpt>
      <trkpt lat="44.17561" lon="5.24396">
        <ele>1518</ele>
        <time>2011-04-17T04:31:39.000Z</time>
      </trkpt>
      <trkpt lat="44.17554" lon="5.24385">
        <ele>1517.5999755859</ele>
        <time>2011-04-17T04:31:43.000Z</time>
      </trkpt>
      <trkpt lat="44.17545" lon="5.24372">
        <ele>1517.4000244141</ele>
        <time>2011-04-17T04:31:48.000Z</time>
      </trkpt>
      <trkpt lat="44.17535" lon="5.24361">
        <ele>1517.8000488281</ele>
        <time>2011-04-17T04:31:53.000Z</time>
      </trkpt>
      <trkpt lat="44.17526" lon="5.24348">
        <ele>1517.5999755859</ele>
        <time>2011-04-17T04:31:58.000Z</time>
      </trkpt>
      <trkpt lat="44.17516" lon="5.24337">
        <ele>1518</ele>
        <time>2011-04-17T04:32:03.000Z</time>
      </trkpt>
      <trkpt lat="44.17506" lon="5.24327">
        <ele>1518.5999755859</ele>
        <time>2011-04-17T04:32:08.000Z</time>
      </trkpt>
      <trkpt lat="44.17498" lon="5.24319">
        <ele>1518.5999755859</ele>
        <time>2011-04-17T04:32:12.000Z</time>
      </trkpt>
      <trkpt lat="44.17491" lon="5.24311">
        <ele>1517.8000488281</ele>
        <time>2011-04-17T04:32:16.000Z</time>
      </trkpt>
      <trkpt lat="44.17482" lon="5.24303">
        <ele>1517.8000488281</ele>
        <time>2011-04-17T04:32:20.000Z</time>
      </trkpt>
      <trkpt lat="44.17474" lon="5.24295">
        <ele>1517.5999755859</ele>
        <time>2011-04-17T04:32:24.000Z</time>
      </trkpt>
      <trkpt lat="44.17467" lon="5.24287">
        <ele>1517.1999511719</ele>
        <time>2011-04-17T04:32:28.000Z</time>
      </trkpt>
      <trkpt lat="44.17457" lon="5.24278">
        <ele>1517.1999511719</ele>
        <time>2011-04-17T04:32:33.000Z</time>
      </trkpt>
      <trkpt lat="44.17448" lon="5.24267">
        <ele>1516.8000488281</ele>
        <time>2011-04-17T04:32:38.000Z</time>
      </trkpt>
      <trkpt lat="44.17439" lon="5.24257">
        <ele>1516.5999755859</ele>
        <time>2011-04-17T04:32:43.000Z</time>
      </trkpt>
      <trkpt lat="44.17429" lon="5.24247">
        <ele>1517.4000244141</ele>
        <time>2011-04-17T04:32:48.000Z</time>
      </trkpt>
      <trkpt lat="44.17419" lon="5.24236">
        <ele>1520</ele>
        <time>2011-04-17T04:32:53.000Z</time>
      </trkpt>
      <trkpt lat="44.17415" lon="5.24225">
        <ele>1520.5999755859</ele>
        <time>2011-04-17T04:32:57.000Z</time>
      </trkpt>
      <trkpt lat="44.17413" lon="5.24208">
        <ele>1519.4000244141</ele>
        <time>2011-04-17T04:33:02.000Z</time>
      </trkpt>
      <trkpt lat="44.17414" lon="5.24187">
        <ele>1516.4000244141</ele>
        <time>2011-04-17T04:33:08.000Z</time>
      </trkpt>
      <trkpt lat="44.17414" lon="5.24171">
        <ele>1514.1999511719</ele>
        <time>2011-04-17T04:33:13.000Z</time>
      </trkpt>
      <trkpt lat="44.17415" lon="5.24151">
        <ele>1511.5999755859</ele>
        <time>2011-04-17T04:33:19.000Z</time>
      </trkpt>
      <trkpt lat="44.17415" lon="5.24129">
        <ele>1509.8000488281</ele>
        <time>2011-04-17T04:33:25.000Z</time>
      </trkpt>
      <trkpt lat="44.17415" lon="5.24122">
        <ele>1509</ele>
        <time>2011-04-17T04:33:27.000Z</time>
      </trkpt>
      <trkpt lat="44.17412" lon="5.24104">
        <ele>1509</ele>
        <time>2011-04-17T04:33:32.000Z</time>
      </trkpt>
      <trkpt lat="44.17412" lon="5.24101">
        <ele>1508.5999755859</ele>
        <time>2011-04-17T04:33:33.000Z</time>
      </trkpt>
      <trkpt lat="44.17409" lon="5.2408">
        <ele>1508.4000244141</ele>
        <time>2011-04-17T04:33:39.000Z</time>
      </trkpt>
      <trkpt lat="44.17406" lon="5.2406">
        <ele>1507.4000244141</ele>
        <time>2011-04-17T04:33:45.000Z</time>
      </trkpt>
      <trkpt lat="44.17403" lon="5.24048">
        <ele>1507</ele>
        <time>2011-04-17T04:33:49.000Z</time>
      </trkpt>
      <trkpt lat="44.17403" lon="5.24036">
        <ele>1505.4000244141</ele>
        <time>2011-04-17T04:33:53.000Z</time>
      </trkpt>
      <trkpt lat="44.17401" lon="5.24027">
        <ele>1505.1999511719</ele>
        <time>2011-04-17T04:33:56.000Z</time>
      </trkpt>
      <trkpt lat="44.17395" lon="5.24006">
        <ele>1505.1999511719</ele>
        <time>2011-04-17T04:34:02.000Z</time>
      </trkpt>
      <trkpt lat="44.17385" lon="5.23982">
        <ele>1504.4000244141</ele>
        <time>2011-04-17T04:34:11.000Z</time>
      </trkpt>
      <trkpt lat="44.17376" lon="5.23961">
        <ele>1504</ele>
        <time>2011-04-17T04:34:19.000Z</time>
      </trkpt>
      <trkpt lat="44.17369" lon="5.23946">
        <ele>1503.4000244141</ele>
        <time>2011-04-17T04:34:24.000Z</time>
      </trkpt>
      <trkpt lat="44.17363" lon="5.23932">
        <ele>1502.8000488281</ele>
        <time>2011-04-17T04:34:28.000Z</time>
      </trkpt>
      <trkpt lat="44.17355" lon="5.23919">
        <ele>1503.1999511719</ele>
        <time>2011-04-17T04:34:33.000Z</time>
      </trkpt>
      <trkpt lat="44.17345" lon="5.23899">
        <ele>1502.4000244141</ele>
        <time>2011-04-17T04:34:40.000Z</time>
      </trkpt>
      <trkpt lat="44.17336" lon="5.23883">
        <ele>1502</ele>
        <time>2011-04-17T04:34:46.000Z</time>
      </trkpt>
      <trkpt lat="44.17327" lon="5.23868">
        <ele>1500.8000488281</ele>
        <time>2011-04-17T04:34:52.000Z</time>
      </trkpt>
      <trkpt lat="44.17317" lon="5.23853">
        <ele>1499.8000488281</ele>
        <time>2011-04-17T04:34:58.000Z</time>
      </trkpt>
      <trkpt lat="44.1731" lon="5.23841">
        <ele>1499</ele>
        <time>2011-04-17T04:35:03.000Z</time>
      </trkpt>
      <trkpt lat="44.17301" lon="5.23826">
        <ele>1498.5999755859</ele>
        <time>2011-04-17T04:35:09.000Z</time>
      </trkpt>
      <trkpt lat="44.17291" lon="5.23812">
        <ele>1499</ele>
        <time>2011-04-17T04:35:15.000Z</time>
      </trkpt>
      <trkpt lat="44.17283" lon="5.238">
        <ele>1499.4000244141</ele>
        <time>2011-04-17T04:35:20.000Z</time>
      </trkpt>
      <trkpt lat="44.17272" lon="5.23786">
        <ele>1500</ele>
        <time>2011-04-17T04:35:26.000Z</time>
      </trkpt>
      <trkpt lat="44.17259" lon="5.23771">
        <ele>1500.5999755859</ele>
        <time>2011-04-17T04:35:33.000Z</time>
      </trkpt>
      <trkpt lat="44.17247" lon="5.23758">
        <ele>1500.5999755859</ele>
        <time>2011-04-17T04:35:39.000Z</time>
      </trkpt>
      <trkpt lat="44.17233" lon="5.23745">
        <ele>1498.8000488281</ele>
        <time>2011-04-17T04:35:46.000Z</time>
      </trkpt>
      <trkpt lat="44.17221" lon="5.23733">
        <ele>1497</ele>
        <time>2011-04-17T04:35:52.000Z</time>
      </trkpt>
      <trkpt lat="44.17208" lon="5.23726">
        <ele>1496</ele>
        <time>2011-04-17T04:35:58.000Z</time>
      </trkpt>
      <trkpt lat="44.17198" lon="5.23721">
        <ele>1495.4000244141</ele>
        <time>2011-04-17T04:36:02.000Z</time>
      </trkpt>
      <trkpt lat="44.17193" lon="5.23719">
        <ele>1495</ele>
        <time>2011-04-17T04:36:04.000Z</time>
      </trkpt>
      <trkpt lat="44.17193" lon="5.23722">
        <ele>1495.5999755859</ele>
        <time>2011-04-17T04:36:09.000Z</time>
      </trkpt>
      <trkpt lat="44.1719" lon="5.23719">
        <ele>1495.1999511719</ele>
        <time>2011-04-17T04:36:13.000Z</time>
      </trkpt>
      <trkpt lat="44.1719" lon="5.23719">
        <ele>1495.1999511719</ele>
        <time>2011-04-17T04:36:20.000Z</time>
      </trkpt>
      <trkpt lat="44.17191" lon="5.2372">
        <ele>1495.4000244141</ele>
        <time>2011-04-17T04:36:27.000Z</time>
      </trkpt>
      <trkpt lat="44.17193" lon="5.23725">
        <ele>1496.1999511719</ele>
        <time>2011-04-17T04:36:33.000Z</time>
      </trkpt>
      <trkpt lat="44.17194" lon="5.23729">
        <ele>1497</ele>
        <time>2011-04-17T04:36:38.000Z</time>
      </trkpt>
      <trkpt lat="44.17195" lon="5.23736">
        <ele>1498.5999755859</ele>
        <time>2011-04-17T04:36:45.000Z</time>
      </trkpt>
      <trkpt lat="44.17198" lon="5.23743">
        <ele>1499.8000488281</ele>
        <time>2011-04-17T04:36:51.000Z</time>
      </trkpt>
      <trkpt lat="44.17202" lon="5.23751">
        <ele>1501.4000244141</ele>
        <time>2011-04-17T04:36:58.000Z</time>
      </trkpt>
      <trkpt lat="44.17203" lon="5.23758">
        <ele>1503.1999511719</ele>
        <time>2011-04-17T04:37:05.000Z</time>
      </trkpt>
      <trkpt lat="44.17206" lon="5.23768">
        <ele>1505.4000244141</ele>
        <time>2011-04-17T04:37:13.000Z</time>
      </trkpt>
      <trkpt lat="44.17207" lon="5.23773">
        <ele>1506.5999755859</ele>
        <time>2011-04-17T04:37:18.000Z</time>
      </trkpt>
      <trkpt lat="44.17205" lon="5.23777">
        <ele>1507.5999755859</ele>
        <time>2011-04-17T04:37:24.000Z</time>
      </trkpt>
      <trkpt lat="44.17204" lon="5.23785">
        <ele>1509.5999755859</ele>
        <time>2011-04-17T04:37:31.000Z</time>
      </trkpt>
      <trkpt lat="44.17205" lon="5.23793">
        <ele>1511.4000244141</ele>
        <time>2011-04-17T04:37:40.000Z</time>
      </trkpt>
      <trkpt lat="44.17205" lon="5.23799">
        <ele>1513.1999511719</ele>
        <time>2011-04-17T04:37:46.000Z</time>
      </trkpt>
      <trkpt lat="44.17202" lon="5.23806">
        <ele>1515</ele>
        <time>2011-04-17T04:37:55.000Z</time>
      </trkpt>
      <trkpt lat="44.17199" lon="5.23812">
        <ele>1516.8000488281</ele>
        <time>2011-04-17T04:38:02.000Z</time>
      </trkpt>
      <trkpt lat="44.17199" lon="5.2382">
        <ele>1518.5999755859</ele>
        <time>2011-04-17T04:38:10.000Z</time>
      </trkpt>
      <trkpt lat="44.172" lon="5.23826">
        <ele>1520.1999511719</ele>
        <time>2011-04-17T04:38:16.000Z</time>
      </trkpt>
      <trkpt lat="44.17201" lon="5.23832">
        <ele>1521.4000244141</ele>
        <time>2011-04-17T04:38:22.000Z</time>
      </trkpt>
      <trkpt lat="44.17201" lon="5.23837">
        <ele>1522.5999755859</ele>
        <time>2011-04-17T04:38:27.000Z</time>
      </trkpt>
      <trkpt lat="44.17201" lon="5.23842">
        <ele>1524.1999511719</ele>
        <time>2011-04-17T04:38:34.000Z</time>
      </trkpt>
      <trkpt lat="44.172" lon="5.23846">
        <ele>1525.4000244141</ele>
        <time>2011-04-17T04:38:40.000Z</time>
      </trkpt>
      <trkpt lat="44.17199" lon="5.23845">
        <ele>1525.1999511719</ele>
        <time>2011-04-17T04:38:50.000Z</time>
      </trkpt>
      <trkpt lat="44.172" lon="5.23844">
        <ele>1525</ele>
        <time>2011-04-17T04:39:05.000Z</time>
      </trkpt>
      <trkpt lat="44.17199" lon="5.23844">
        <ele>1525.1999511719</ele>
        <time>2011-04-17T04:39:22.000Z</time>
      </trkpt>
      <trkpt lat="44.17199" lon="5.23845">
        <ele>1525.1999511719</ele>
        <time>2011-04-17T04:39:37.000Z</time>
      </trkpt>
      <trkpt lat="44.17199" lon="5.23844">
        <ele>1525.1999511719</ele>
        <time>2011-04-17T04:39:43.000Z</time>
      </trkpt>
      <trkpt lat="44.17197" lon="5.23843">
        <ele>1525</ele>
        <time>2011-04-17T04:39:54.000Z</time>
      </trkpt>
      <trkpt lat="44.17197" lon="5.23842">
        <ele>1524.8000488281</ele>
        <time>2011-04-17T04:40:02.000Z</time>
      </trkpt>
      <trkpt lat="44.17197" lon="5.23845">
        <ele>1525.5999755859</ele>
        <time>2011-04-17T04:40:13.000Z</time>
      </trkpt>
      <trkpt lat="44.17197" lon="5.23852">
        <ele>1527.5999755859</ele>
        <time>2011-04-17T04:40:20.000Z</time>
      </trkpt>
      <trkpt lat="44.17197" lon="5.23857">
        <ele>1529.1999511719</ele>
        <time>2011-04-17T04:40:27.000Z</time>
      </trkpt>
      <trkpt lat="44.172" lon="5.23862">
        <ele>1530.1999511719</ele>
        <time>2011-04-17T04:40:35.000Z</time>
      </trkpt>
      <trkpt lat="44.172" lon="5.23866">
        <ele>1531.4000244141</ele>
        <time>2011-04-17T04:40:42.000Z</time>
      </trkpt>
      <trkpt lat="44.17199" lon="5.23872">
        <ele>1533.1999511719</ele>
        <time>2011-04-17T04:40:50.000Z</time>
      </trkpt>
      <trkpt lat="44.172" lon="5.23878">
        <ele>1534.5999755859</ele>
        <time>2011-04-17T04:40:58.000Z</time>
      </trkpt>
      <trkpt lat="44.17199" lon="5.23882">
        <ele>1536</ele>
        <time>2011-04-17T04:41:04.000Z</time>
      </trkpt>
      <trkpt lat="44.17197" lon="5.23889">
        <ele>1538.4000244141</ele>
        <time>2011-04-17T04:41:11.000Z</time>
      </trkpt>
      <trkpt lat="44.17195" lon="5.23894">
        <ele>1540</ele>
        <time>2011-04-17T04:41:17.000Z</time>
      </trkpt>
      <trkpt lat="44.17197" lon="5.23897">
        <ele>1540.8000488281</ele>
        <time>2011-04-17T04:41:23.000Z</time>
      </trkpt>
      <trkpt lat="44.17197" lon="5.23903">
        <ele>1542.4000244141</ele>
        <time>2011-04-17T04:41:30.000Z</time>
      </trkpt>
      <trkpt lat="44.17196" lon="5.23908">
        <ele>1544.1999511719</ele>
        <time>2011-04-17T04:41:37.000Z</time>
      </trkpt>
      <trkpt lat="44.17196" lon="5.23913">
        <ele>1545.4000244141</ele>
        <time>2011-04-17T04:41:42.000Z</time>
      </trkpt>
      <trkpt lat="44.17196" lon="5.23917">
        <ele>1546.8000488281</ele>
        <time>2011-04-17T04:41:49.000Z</time>
      </trkpt>
      <trkpt lat="44.17197" lon="5.23921">
        <ele>1547.8000488281</ele>
        <time>2011-04-17T04:41:55.000Z</time>
      </trkpt>
      <trkpt lat="44.17196" lon="5.23925">
        <ele>1549</ele>
        <time>2011-04-17T04:42:01.000Z</time>
      </trkpt>
      <trkpt lat="44.17195" lon="5.2393">
        <ele>1550.8000488281</ele>
        <time>2011-04-17T04:42:08.000Z</time>
      </trkpt>
      <trkpt lat="44.17194" lon="5.23937">
        <ele>1553</ele>
        <time>2011-04-17T04:42:16.000Z</time>
      </trkpt>
      <trkpt lat="44.17192" lon="5.2394">
        <ele>1554.1999511719</ele>
        <time>2011-04-17T04:42:23.000Z</time>
      </trkpt>
      <trkpt lat="44.1719" lon="5.23944">
        <ele>1555.5999755859</ele>
        <time>2011-04-17T04:42:29.000Z</time>
      </trkpt>
      <trkpt lat="44.17191" lon="5.23948">
        <ele>1556.5999755859</ele>
        <time>2011-04-17T04:42:35.000Z</time>
      </trkpt>
      <trkpt lat="44.1719" lon="5.23952">
        <ele>1558</ele>
        <time>2011-04-17T04:42:41.000Z</time>
      </trkpt>
      <trkpt lat="44.17189" lon="5.23956">
        <ele>1559.1999511719</ele>
        <time>2011-04-17T04:42:47.000Z</time>
      </trkpt>
      <trkpt lat="44.17188" lon="5.23958">
        <ele>1560</ele>
        <time>2011-04-17T04:42:53.000Z</time>
      </trkpt>
      <trkpt lat="44.17186" lon="5.23959">
        <ele>1560.8000488281</ele>
        <time>2011-04-17T04:43:04.000Z</time>
      </trkpt>
      <trkpt lat="44.17187" lon="5.23964">
        <ele>1562</ele>
        <time>2011-04-17T04:43:11.000Z</time>
      </trkpt>
      <trkpt lat="44.17188" lon="5.23967">
        <ele>1562.8000488281</ele>
        <time>2011-04-17T04:43:18.000Z</time>
      </trkpt>
      <trkpt lat="44.17187" lon="5.23971">
        <ele>1563.8000488281</ele>
        <time>2011-04-17T04:43:23.000Z</time>
      </trkpt>
      <trkpt lat="44.17184" lon="5.23976">
        <ele>1566.1999511719</ele>
        <time>2011-04-17T04:43:30.000Z</time>
      </trkpt>
      <trkpt lat="44.17181" lon="5.23979">
        <ele>1567.4000244141</ele>
        <time>2011-04-17T04:43:37.000Z</time>
      </trkpt>
      <trkpt lat="44.17176" lon="5.23981">
        <ele>1569</ele>
        <time>2011-04-17T04:43:44.000Z</time>
      </trkpt>
      <trkpt lat="44.17172" lon="5.23985">
        <ele>1570.8000488281</ele>
        <time>2011-04-17T04:43:51.000Z</time>
      </trkpt>
      <trkpt lat="44.1717" lon="5.23988">
        <ele>1572</ele>
        <time>2011-04-17T04:43:58.000Z</time>
      </trkpt>
      <trkpt lat="44.17168" lon="5.23991">
        <ele>1573</ele>
        <time>2011-04-17T04:44:04.000Z</time>
      </trkpt>
      <trkpt lat="44.17166" lon="5.23995">
        <ele>1574.4000244141</ele>
        <time>2011-04-17T04:44:10.000Z</time>
      </trkpt>
      <trkpt lat="44.17165" lon="5.23999">
        <ele>1575.5999755859</ele>
        <time>2011-04-17T04:44:17.000Z</time>
      </trkpt>
      <trkpt lat="44.17162" lon="5.24004">
        <ele>1576.4000244141</ele>
        <time>2011-04-17T04:44:25.000Z</time>
      </trkpt>
      <trkpt lat="44.1716" lon="5.24006">
        <ele>1577</ele>
        <time>2011-04-17T04:44:32.000Z</time>
      </trkpt>
      <trkpt lat="44.1716" lon="5.24009">
        <ele>1577.8000488281</ele>
        <time>2011-04-17T04:44:37.000Z</time>
      </trkpt>
      <trkpt lat="44.17159" lon="5.24013">
        <ele>1578.5999755859</ele>
        <time>2011-04-17T04:44:43.000Z</time>
      </trkpt>
      <trkpt lat="44.17158" lon="5.24014">
        <ele>1578.8000488281</ele>
        <time>2011-04-17T04:44:48.000Z</time>
      </trkpt>
      <trkpt lat="44.17156" lon="5.24016">
        <ele>1579.1999511719</ele>
        <time>2011-04-17T04:44:56.000Z</time>
      </trkpt>
      <trkpt lat="44.17155" lon="5.24018">
        <ele>1579.5999755859</ele>
        <time>2011-04-17T04:45:02.000Z</time>
      </trkpt>
      <trkpt lat="44.17157" lon="5.24023">
        <ele>1580.8000488281</ele>
        <time>2011-04-17T04:45:09.000Z</time>
      </trkpt>
      <trkpt lat="44.17156" lon="5.24029">
        <ele>1582.4000244141</ele>
        <time>2011-04-17T04:45:16.000Z</time>
      </trkpt>
      <trkpt lat="44.17154" lon="5.24036">
        <ele>1584</ele>
        <time>2011-04-17T04:45:24.000Z</time>
      </trkpt>
      <trkpt lat="44.17155" lon="5.24041">
        <ele>1585.1999511719</ele>
        <time>2011-04-17T04:45:30.000Z</time>
      </trkpt>
      <trkpt lat="44.17156" lon="5.24044">
        <ele>1586</ele>
        <time>2011-04-17T04:45:36.000Z</time>
      </trkpt>
      <trkpt lat="44.17157" lon="5.24049">
        <ele>1587.1999511719</ele>
        <time>2011-04-17T04:45:43.000Z</time>
      </trkpt>
      <trkpt lat="44.17158" lon="5.24055">
        <ele>1589</ele>
        <time>2011-04-17T04:45:50.000Z</time>
      </trkpt>
      <trkpt lat="44.17159" lon="5.24061">
        <ele>1590.4000244141</ele>
        <time>2011-04-17T04:45:57.000Z</time>
      </trkpt>
      <trkpt lat="44.17162" lon="5.24065">
        <ele>1591.8000488281</ele>
        <time>2011-04-17T04:46:03.000Z</time>
      </trkpt>
      <trkpt lat="44.17167" lon="5.24068">
        <ele>1593</ele>
        <time>2011-04-17T04:46:10.000Z</time>
      </trkpt>
      <trkpt lat="44.1717" lon="5.2407">
        <ele>1593</ele>
        <time>2011-04-17T04:46:17.000Z</time>
      </trkpt>
      <trkpt lat="44.17172" lon="5.24072">
        <ele>1593.1999511719</ele>
        <time>2011-04-17T04:46:22.000Z</time>
      </trkpt>
      <trkpt lat="44.17174" lon="5.24075">
        <ele>1593.8000488281</ele>
        <time>2011-04-17T04:46:28.000Z</time>
      </trkpt>
      <trkpt lat="44.17177" lon="5.2408">
        <ele>1594.4000244141</ele>
        <time>2011-04-17T04:46:35.000Z</time>
      </trkpt>
      <trkpt lat="44.1718" lon="5.24085">
        <ele>1595.1999511719</ele>
        <time>2011-04-17T04:46:41.000Z</time>
      </trkpt>
      <trkpt lat="44.17182" lon="5.24091">
        <ele>1596.4000244141</ele>
        <time>2011-04-17T04:46:49.000Z</time>
      </trkpt>
      <trkpt lat="44.17182" lon="5.24098">
        <ele>1597.8000488281</ele>
        <time>2011-04-17T04:46:55.000Z</time>
      </trkpt>
      <trkpt lat="44.17182" lon="5.24103">
        <ele>1598.8000488281</ele>
        <time>2011-04-17T04:47:00.000Z</time>
      </trkpt>
      <trkpt lat="44.17183" lon="5.24106">
        <ele>1599.4000244141</ele>
        <time>2011-04-17T04:47:08.000Z</time>
      </trkpt>
      <trkpt lat="44.17185" lon="5.24111">
        <ele>1600.1999511719</ele>
        <time>2011-04-17T04:47:16.000Z</time>
      </trkpt>
      <trkpt lat="44.17186" lon="5.24116">
        <ele>1601.1999511719</ele>
        <time>2011-04-17T04:47:23.000Z</time>
      </trkpt>
      <trkpt lat="44.17189" lon="5.24121">
        <ele>1602</ele>
        <time>2011-04-17T04:47:31.000Z</time>
      </trkpt>
      <trkpt lat="44.17192" lon="5.24125">
        <ele>1602.4000244141</ele>
        <time>2011-04-17T04:47:38.000Z</time>
      </trkpt>
      <trkpt lat="44.17194" lon="5.2413">
        <ele>1603.1999511719</ele>
        <time>2011-04-17T04:47:45.000Z</time>
      </trkpt>
      <trkpt lat="44.17197" lon="5.24133">
        <ele>1603.5999755859</ele>
        <time>2011-04-17T04:47:52.000Z</time>
      </trkpt>
      <trkpt lat="44.17198" lon="5.24137">
        <ele>1604.1999511719</ele>
        <time>2011-04-17T04:47:58.000Z</time>
      </trkpt>
      <trkpt lat="44.17199" lon="5.24143">
        <ele>1605.4000244141</ele>
        <time>2011-04-17T04:48:05.000Z</time>
      </trkpt>
      <trkpt lat="44.17202" lon="5.24147">
        <ele>1606</ele>
        <time>2011-04-17T04:48:11.000Z</time>
      </trkpt>
      <trkpt lat="44.17203" lon="5.24149">
        <ele>1606.4000244141</ele>
        <time>2011-04-17T04:48:16.000Z</time>
      </trkpt>
      <trkpt lat="44.17205" lon="5.24153">
        <ele>1607.1999511719</ele>
        <time>2011-04-17T04:48:21.000Z</time>
      </trkpt>
      <trkpt lat="44.17207" lon="5.24155">
        <ele>1607.4000244141</ele>
        <time>2011-04-17T04:48:27.000Z</time>
      </trkpt>
      <trkpt lat="44.17209" lon="5.24158">
        <ele>1607.8000488281</ele>
        <time>2011-04-17T04:48:33.000Z</time>
      </trkpt>
      <trkpt lat="44.17211" lon="5.24162">
        <ele>1608.4000244141</ele>
        <time>2011-04-17T04:48:39.000Z</time>
      </trkpt>
      <trkpt lat="44.17211" lon="5.24167">
        <ele>1609.5999755859</ele>
        <time>2011-04-17T04:48:45.000Z</time>
      </trkpt>
      <trkpt lat="44.17212" lon="5.24171">
        <ele>1610.4000244141</ele>
        <time>2011-04-17T04:48:51.000Z</time>
      </trkpt>
      <trkpt lat="44.17212" lon="5.24176">
        <ele>1611.1999511719</ele>
        <time>2011-04-17T04:48:56.000Z</time>
      </trkpt>
      <trkpt lat="44.17214" lon="5.24183">
        <ele>1612.1999511719</ele>
        <time>2011-04-17T04:49:02.000Z</time>
      </trkpt>
      <trkpt lat="44.17213" lon="5.24187">
        <ele>1613.1999511719</ele>
        <time>2011-04-17T04:49:08.000Z</time>
      </trkpt>
      <trkpt lat="44.17211" lon="5.24192">
        <ele>1614.1999511719</ele>
        <time>2011-04-17T04:49:14.000Z</time>
      </trkpt>
      <trkpt lat="44.17211" lon="5.24199">
        <ele>1615.4000244141</ele>
        <time>2011-04-17T04:49:21.000Z</time>
      </trkpt>
      <trkpt lat="44.17213" lon="5.24203">
        <ele>1616</ele>
        <time>2011-04-17T04:49:27.000Z</time>
      </trkpt>
      <trkpt lat="44.17211" lon="5.24206">
        <ele>1616.5999755859</ele>
        <time>2011-04-17T04:49:33.000Z</time>
      </trkpt>
      <trkpt lat="44.17214" lon="5.24205">
        <ele>1616.1999511719</ele>
        <time>2011-04-17T04:49:39.000Z</time>
      </trkpt>
      <trkpt lat="44.17217" lon="5.24206">
        <ele>1616.1999511719</ele>
        <time>2011-04-17T04:49:45.000Z</time>
      </trkpt>
      <trkpt lat="44.17217" lon="5.24211">
        <ele>1617.1999511719</ele>
        <time>2011-04-17T04:49:51.000Z</time>
      </trkpt>
      <trkpt lat="44.17218" lon="5.24215">
        <ele>1617.8000488281</ele>
        <time>2011-04-17T04:49:56.000Z</time>
      </trkpt>
      <trkpt lat="44.17219" lon="5.24216">
        <ele>1618</ele>
        <time>2011-04-17T04:49:59.000Z</time>
      </trkpt>
      <trkpt lat="44.17218" lon="5.2422">
        <ele>1618.8000488281</ele>
        <time>2011-04-17T04:50:03.000Z</time>
      </trkpt>
      <trkpt lat="44.1722" lon="5.24223">
        <ele>1619.1999511719</ele>
        <time>2011-04-17T04:50:09.000Z</time>
      </trkpt>
      <trkpt lat="44.17222" lon="5.24226">
        <ele>1619.8000488281</ele>
        <time>2011-04-17T04:50:13.000Z</time>
      </trkpt>
      <trkpt lat="44.17225" lon="5.2423">
        <ele>1620.4000244141</ele>
        <time>2011-04-17T04:50:19.000Z</time>
      </trkpt>
      <trkpt lat="44.17227" lon="5.24232">
        <ele>1620.8000488281</ele>
        <time>2011-04-17T04:50:25.000Z</time>
      </trkpt>
      <trkpt lat="44.17227" lon="5.24234">
        <ele>1621.1999511719</ele>
        <time>2011-04-17T04:50:29.000Z</time>
      </trkpt>
      <trkpt lat="44.17226" lon="5.24236">
        <ele>1621.4000244141</ele>
        <time>2011-04-17T04:50:35.000Z</time>
      </trkpt>
      <trkpt lat="44.17225" lon="5.24242">
        <ele>1622.5999755859</ele>
        <time>2011-04-17T04:50:41.000Z</time>
      </trkpt>
      <trkpt lat="44.17226" lon="5.24248">
        <ele>1623.8000488281</ele>
        <time>2011-04-17T04:50:47.000Z</time>
      </trkpt>
      <trkpt lat="44.17224" lon="5.24252">
        <ele>1624.5999755859</ele>
        <time>2011-04-17T04:50:52.000Z</time>
      </trkpt>
      <trkpt lat="44.17224" lon="5.24258">
        <ele>1625.5999755859</ele>
        <time>2011-04-17T04:50:58.000Z</time>
      </trkpt>
      <trkpt lat="44.17224" lon="5.24262">
        <ele>1626.4000244141</ele>
        <time>2011-04-17T04:51:03.000Z</time>
      </trkpt>
      <trkpt lat="44.17225" lon="5.24266">
        <ele>1627.4000244141</ele>
        <time>2011-04-17T04:51:08.000Z</time>
      </trkpt>
      <trkpt lat="44.17224" lon="5.24271">
        <ele>1628.1999511719</ele>
        <time>2011-04-17T04:51:13.000Z</time>
      </trkpt>
      <trkpt lat="44.17222" lon="5.24276">
        <ele>1629.1999511719</ele>
        <time>2011-04-17T04:51:19.000Z</time>
      </trkpt>
      <trkpt lat="44.17221" lon="5.2428">
        <ele>1630</ele>
        <time>2011-04-17T04:51:24.000Z</time>
      </trkpt>
      <trkpt lat="44.17219" lon="5.24282">
        <ele>1630.1999511719</ele>
        <time>2011-04-17T04:51:29.000Z</time>
      </trkpt>
      <trkpt lat="44.1722" lon="5.24285">
        <ele>1630.8000488281</ele>
        <time>2011-04-17T04:51:35.000Z</time>
      </trkpt>
      <trkpt lat="44.1722" lon="5.24287">
        <ele>1631.1999511719</ele>
        <time>2011-04-17T04:51:43.000Z</time>
      </trkpt>
      <trkpt lat="44.17218" lon="5.2429">
        <ele>1631.8000488281</ele>
        <time>2011-04-17T04:51:48.000Z</time>
      </trkpt>
      <trkpt lat="44.17217" lon="5.24296">
        <ele>1632.8000488281</ele>
        <time>2011-04-17T04:51:53.000Z</time>
      </trkpt>
      <trkpt lat="44.17215" lon="5.24304">
        <ele>1634.1999511719</ele>
        <time>2011-04-17T04:52:00.000Z</time>
      </trkpt>
      <trkpt lat="44.17215" lon="5.24308">
        <ele>1635</ele>
        <time>2011-04-17T04:52:07.000Z</time>
      </trkpt>
      <trkpt lat="44.17215" lon="5.24313">
        <ele>1635.8000488281</ele>
        <time>2011-04-17T04:52:12.000Z</time>
      </trkpt>
      <trkpt lat="44.17215" lon="5.24317">
        <ele>1636.5999755859</ele>
        <time>2011-04-17T04:52:17.000Z</time>
      </trkpt>
      <trkpt lat="44.17216" lon="5.24323">
        <ele>1637.8000488281</ele>
        <time>2011-04-17T04:52:23.000Z</time>
      </trkpt>
      <trkpt lat="44.17218" lon="5.24326">
        <ele>1638.4000244141</ele>
        <time>2011-04-17T04:52:30.000Z</time>
      </trkpt>
      <trkpt lat="44.17219" lon="5.24328">
        <ele>1638.8000488281</ele>
        <time>2011-04-17T04:52:37.000Z</time>
      </trkpt>
      <trkpt lat="44.17221" lon="5.24334">
        <ele>1640</ele>
        <time>2011-04-17T04:52:43.000Z</time>
      </trkpt>
      <trkpt lat="44.17224" lon="5.24341">
        <ele>1641.5999755859</ele>
        <time>2011-04-17T04:52:51.000Z</time>
      </trkpt>
      <trkpt lat="44.17226" lon="5.24346">
        <ele>1642.5999755859</ele>
        <time>2011-04-17T04:52:57.000Z</time>
      </trkpt>
      <trkpt lat="44.17227" lon="5.24351">
        <ele>1643.5999755859</ele>
        <time>2011-04-17T04:53:03.000Z</time>
      </trkpt>
      <trkpt lat="44.17228" lon="5.24353">
        <ele>1644.1999511719</ele>
        <time>2011-04-17T04:53:10.000Z</time>
      </trkpt>
      <trkpt lat="44.1723" lon="5.24356">
        <ele>1645</ele>
        <time>2011-04-17T04:53:16.000Z</time>
      </trkpt>
      <trkpt lat="44.17233" lon="5.2436">
        <ele>1646</ele>
        <time>2011-04-17T04:53:22.000Z</time>
      </trkpt>
      <trkpt lat="44.17234" lon="5.24366">
        <ele>1647.4000244141</ele>
        <time>2011-04-17T04:53:28.000Z</time>
      </trkpt>
      <trkpt lat="44.17234" lon="5.2437">
        <ele>1648.1999511719</ele>
        <time>2011-04-17T04:53:33.000Z</time>
      </trkpt>
      <trkpt lat="44.17233" lon="5.24374">
        <ele>1649</ele>
        <time>2011-04-17T04:53:38.000Z</time>
      </trkpt>
      <trkpt lat="44.17234" lon="5.24379">
        <ele>1650.1999511719</ele>
        <time>2011-04-17T04:53:44.000Z</time>
      </trkpt>
      <trkpt lat="44.17237" lon="5.24383">
        <ele>1651.4000244141</ele>
        <time>2011-04-17T04:53:50.000Z</time>
      </trkpt>
      <trkpt lat="44.17238" lon="5.24388">
        <ele>1652.5999755859</ele>
        <time>2011-04-17T04:53:56.000Z</time>
      </trkpt>
      <trkpt lat="44.17241" lon="5.24393">
        <ele>1654.1999511719</ele>
        <time>2011-04-17T04:54:04.000Z</time>
      </trkpt>
      <trkpt lat="44.17243" lon="5.24397">
        <ele>1655.1999511719</ele>
        <time>2011-04-17T04:54:10.000Z</time>
      </trkpt>
      <trkpt lat="44.17244" lon="5.24402">
        <ele>1656.5999755859</ele>
        <time>2011-04-17T04:54:17.000Z</time>
      </trkpt>
      <trkpt lat="44.17245" lon="5.24408">
        <ele>1658.1999511719</ele>
        <time>2011-04-17T04:54:24.000Z</time>
      </trkpt>
      <trkpt lat="44.17247" lon="5.24411">
        <ele>1659.1999511719</ele>
        <time>2011-04-17T04:54:30.000Z</time>
      </trkpt>
      <trkpt lat="44.17248" lon="5.24415">
        <ele>1660.1999511719</ele>
        <time>2011-04-17T04:54:34.000Z</time>
      </trkpt>
      <trkpt lat="44.17247" lon="5.2442">
        <ele>1661</ele>
        <time>2011-04-17T04:54:39.000Z</time>
      </trkpt>
      <trkpt lat="44.17245" lon="5.24424">
        <ele>1661.4000244141</ele>
        <time>2011-04-17T04:54:44.000Z</time>
      </trkpt>
      <trkpt lat="44.17246" lon="5.2443">
        <ele>1662.5999755859</ele>
        <time>2011-04-17T04:54:50.000Z</time>
      </trkpt>
      <trkpt lat="44.17247" lon="5.24432">
        <ele>1663.1999511719</ele>
        <time>2011-04-17T04:54:57.000Z</time>
      </trkpt>
      <trkpt lat="44.17248" lon="5.24435">
        <ele>1663.8000488281</ele>
        <time>2011-04-17T04:55:05.000Z</time>
      </trkpt>
      <trkpt lat="44.17251" lon="5.24437">
        <ele>1664.1999511719</ele>
        <time>2011-04-17T04:55:11.000Z</time>
      </trkpt>
      <trkpt lat="44.17253" lon="5.24441">
        <ele>1664.1999511719</ele>
        <time>2011-04-17T04:55:18.000Z</time>
      </trkpt>
      <trkpt lat="44.17254" lon="5.24446">
        <ele>1664.5999755859</ele>
        <time>2011-04-17T04:55:24.000Z</time>
      </trkpt>
      <trkpt lat="44.17254" lon="5.2445">
        <ele>1665.4000244141</ele>
        <time>2011-04-17T04:55:28.000Z</time>
      </trkpt>
      <trkpt lat="44.17255" lon="5.24454">
        <ele>1665.8000488281</ele>
        <time>2011-04-17T04:55:33.000Z</time>
      </trkpt>
      <trkpt lat="44.17256" lon="5.2446">
        <ele>1666.4000244141</ele>
        <time>2011-04-17T04:55:40.000Z</time>
      </trkpt>
      <trkpt lat="44.17258" lon="5.24464">
        <ele>1666.4000244141</ele>
        <time>2011-04-17T04:55:45.000Z</time>
      </trkpt>
      <trkpt lat="44.17261" lon="5.24469">
        <ele>1666.4000244141</ele>
        <time>2011-04-17T04:55:51.000Z</time>
      </trkpt>
      <trkpt lat="44.17264" lon="5.24475">
        <ele>1666.8000488281</ele>
        <time>2011-04-17T04:55:59.000Z</time>
      </trkpt>
      <trkpt lat="44.17265" lon="5.24481">
        <ele>1667.8000488281</ele>
        <time>2011-04-17T04:56:05.000Z</time>
      </trkpt>
      <trkpt lat="44.17266" lon="5.24487">
        <ele>1668.8000488281</ele>
        <time>2011-04-17T04:56:12.000Z</time>
      </trkpt>
      <trkpt lat="44.17267" lon="5.24494">
        <ele>1670</ele>
        <time>2011-04-17T04:56:19.000Z</time>
      </trkpt>
      <trkpt lat="44.17266" lon="5.24499">
        <ele>1671.1999511719</ele>
        <time>2011-04-17T04:56:24.000Z</time>
      </trkpt>
      <trkpt lat="44.17266" lon="5.24506">
        <ele>1672.4000244141</ele>
        <time>2011-04-17T04:56:30.000Z</time>
      </trkpt>
      <trkpt lat="44.17268" lon="5.24512">
        <ele>1673</ele>
        <time>2011-04-17T04:56:37.000Z</time>
      </trkpt>
      <trkpt lat="44.17269" lon="5.24517">
        <ele>1673.8000488281</ele>
        <time>2011-04-17T04:56:43.000Z</time>
      </trkpt>
      <trkpt lat="44.17271" lon="5.24523">
        <ele>1674.4000244141</ele>
        <time>2011-04-17T04:56:50.000Z</time>
      </trkpt>
      <trkpt lat="44.17272" lon="5.24525">
        <ele>1674.4000244141</ele>
        <time>2011-04-17T04:56:54.000Z</time>
      </trkpt>
      <trkpt lat="44.17275" lon="5.24529">
        <ele>1674.5999755859</ele>
        <time>2011-04-17T04:57:00.000Z</time>
      </trkpt>
      <trkpt lat="44.17275" lon="5.24529">
        <ele>1674.8000488281</ele>
        <time>2011-04-17T04:57:06.000Z</time>
      </trkpt>
      <trkpt lat="44.17276" lon="5.2453">
        <ele>1674.5999755859</ele>
        <time>2011-04-17T04:57:26.000Z</time>
      </trkpt>
      <trkpt lat="44.17277" lon="5.24531">
        <ele>1674.5999755859</ele>
        <time>2011-04-17T04:57:32.000Z</time>
      </trkpt>
      <trkpt lat="44.17278" lon="5.24533">
        <ele>1674.8000488281</ele>
        <time>2011-04-17T04:57:39.000Z</time>
      </trkpt>
      <trkpt lat="44.17279" lon="5.24538">
        <ele>1675.5999755859</ele>
        <time>2011-04-17T04:57:43.000Z</time>
      </trkpt>
      <trkpt lat="44.17279" lon="5.24539">
        <ele>1675.8000488281</ele>
        <time>2011-04-17T04:57:49.000Z</time>
      </trkpt>
      <trkpt lat="44.17278" lon="5.24545">
        <ele>1677.1999511719</ele>
        <time>2011-04-17T04:57:54.000Z</time>
      </trkpt>
      <trkpt lat="44.1728" lon="5.2455">
        <ele>1678</ele>
        <time>2011-04-17T04:58:02.000Z</time>
      </trkpt>
      <trkpt lat="44.17282" lon="5.24555">
        <ele>1678.4000244141</ele>
        <time>2011-04-17T04:58:08.000Z</time>
      </trkpt>
      <trkpt lat="44.17284" lon="5.24555">
        <ele>1678.4000244141</ele>
        <time>2011-04-17T04:58:13.000Z</time>
      </trkpt>
      <trkpt lat="44.17284" lon="5.24559">
        <ele>1679</ele>
        <time>2011-04-17T04:58:18.000Z</time>
      </trkpt>
      <trkpt lat="44.17284" lon="5.24562">
        <ele>1679.5999755859</ele>
        <time>2011-04-17T04:58:25.000Z</time>
      </trkpt>
      <trkpt lat="44.17284" lon="5.24567">
        <ele>1680.8000488281</ele>
        <time>2011-04-17T04:58:31.000Z</time>
      </trkpt>
      <trkpt lat="44.17286" lon="5.24575">
        <ele>1682.1999511719</ele>
        <time>2011-04-17T04:58:38.000Z</time>
      </trkpt>
      <trkpt lat="44.17288" lon="5.24581">
        <ele>1683.4000244141</ele>
        <time>2011-04-17T04:58:46.000Z</time>
      </trkpt>
      <trkpt lat="44.17288" lon="5.24587">
        <ele>1684.4000244141</ele>
        <time>2011-04-17T04:58:52.000Z</time>
      </trkpt>
      <trkpt lat="44.1729" lon="5.24593">
        <ele>1685</ele>
        <time>2011-04-17T04:58:58.000Z</time>
      </trkpt>
      <trkpt lat="44.17291" lon="5.24598">
        <ele>1685.5999755859</ele>
        <time>2011-04-17T04:59:05.000Z</time>
      </trkpt>
      <trkpt lat="44.17291" lon="5.24604">
        <ele>1686.5999755859</ele>
        <time>2011-04-17T04:59:11.000Z</time>
      </trkpt>
      <trkpt lat="44.1729" lon="5.24607">
        <ele>1687.1999511719</ele>
        <time>2011-04-17T04:59:17.000Z</time>
      </trkpt>
      <trkpt lat="44.1729" lon="5.24612">
        <ele>1687.8000488281</ele>
        <time>2011-04-17T04:59:24.000Z</time>
      </trkpt>
      <trkpt lat="44.17289" lon="5.24617">
        <ele>1688.5999755859</ele>
        <time>2011-04-17T04:59:29.000Z</time>
      </trkpt>
      <trkpt lat="44.17289" lon="5.24624">
        <ele>1689.5999755859</ele>
        <time>2011-04-17T04:59:36.000Z</time>
      </trkpt>
      <trkpt lat="44.17289" lon="5.2463">
        <ele>1690.5999755859</ele>
        <time>2011-04-17T04:59:42.000Z</time>
      </trkpt>
      <trkpt lat="44.17289" lon="5.24636">
        <ele>1691.4000244141</ele>
        <time>2011-04-17T04:59:48.000Z</time>
      </trkpt>
      <trkpt lat="44.17289" lon="5.24642">
        <ele>1692.1999511719</ele>
        <time>2011-04-17T04:59:55.000Z</time>
      </trkpt>
      <trkpt lat="44.1729" lon="5.24646">
        <ele>1692.8000488281</ele>
        <time>2011-04-17T05:00:02.000Z</time>
      </trkpt>
      <trkpt lat="44.1729" lon="5.24654">
        <ele>1694</ele>
        <time>2011-04-17T05:00:08.000Z</time>
      </trkpt>
      <trkpt lat="44.17291" lon="5.2466">
        <ele>1695</ele>
        <time>2011-04-17T05:00:14.000Z</time>
      </trkpt>
      <trkpt lat="44.17292" lon="5.24667">
        <ele>1696</ele>
        <time>2011-04-17T05:00:21.000Z</time>
      </trkpt>
      <trkpt lat="44.17292" lon="5.24672">
        <ele>1696.4000244141</ele>
        <time>2011-04-17T05:00:27.000Z</time>
      </trkpt>
      <trkpt lat="44.17293" lon="5.24676">
        <ele>1697</ele>
        <time>2011-04-17T05:00:32.000Z</time>
      </trkpt>
      <trkpt lat="44.17294" lon="5.24679">
        <ele>1697.4000244141</ele>
        <time>2011-04-17T05:00:36.000Z</time>
      </trkpt>
      <trkpt lat="44.17295" lon="5.24688">
        <ele>1698.4000244141</ele>
        <time>2011-04-17T05:00:43.000Z</time>
      </trkpt>
      <trkpt lat="44.17295" lon="5.24694">
        <ele>1699.1999511719</ele>
        <time>2011-04-17T05:00:49.000Z</time>
      </trkpt>
      <trkpt lat="44.17294" lon="5.247">
        <ele>1699.8000488281</ele>
        <time>2011-04-17T05:00:54.000Z</time>
      </trkpt>
      <trkpt lat="44.17295" lon="5.24707">
        <ele>1700.5999755859</ele>
        <time>2011-04-17T05:01:00.000Z</time>
      </trkpt>
      <trkpt lat="44.17296" lon="5.24711">
        <ele>1701.1999511719</ele>
        <time>2011-04-17T05:01:05.000Z</time>
      </trkpt>
      <trkpt lat="44.17297" lon="5.24717">
        <ele>1702</ele>
        <time>2011-04-17T05:01:12.000Z</time>
      </trkpt>
      <trkpt lat="44.173" lon="5.24724">
        <ele>1703</ele>
        <time>2011-04-17T05:01:19.000Z</time>
      </trkpt>
      <trkpt lat="44.17302" lon="5.24726">
        <ele>1703.4000244141</ele>
        <time>2011-04-17T05:01:24.000Z</time>
      </trkpt>
      <trkpt lat="44.17302" lon="5.24726">
        <ele>1703.4000244141</ele>
        <time>2011-04-17T05:01:31.000Z</time>
      </trkpt>
      <trkpt lat="44.17303" lon="5.24729">
        <ele>1704</ele>
        <time>2011-04-17T05:01:52.000Z</time>
      </trkpt>
      <trkpt lat="44.17303" lon="5.24734">
        <ele>1704.5999755859</ele>
        <time>2011-04-17T05:01:58.000Z</time>
      </trkpt>
      <trkpt lat="44.17304" lon="5.24741">
        <ele>1705.5999755859</ele>
        <time>2011-04-17T05:02:05.000Z</time>
      </trkpt>
      <trkpt lat="44.17306" lon="5.2475">
        <ele>1706.8000488281</ele>
        <time>2011-04-17T05:02:10.000Z</time>
      </trkpt>
      <trkpt lat="44.17308" lon="5.24758">
        <ele>1707.5999755859</ele>
        <time>2011-04-17T05:02:16.000Z</time>
      </trkpt>
      <trkpt lat="44.1731" lon="5.24766">
        <ele>1708.4000244141</ele>
        <time>2011-04-17T05:02:22.000Z</time>
      </trkpt>
      <trkpt lat="44.17311" lon="5.24771">
        <ele>1708.8000488281</ele>
        <time>2011-04-17T05:02:25.000Z</time>
      </trkpt>
      <trkpt lat="44.17314" lon="5.24779">
        <ele>1709.8000488281</ele>
        <time>2011-04-17T05:02:31.000Z</time>
      </trkpt>
      <trkpt lat="44.17316" lon="5.24785">
        <ele>1710.4000244141</ele>
        <time>2011-04-17T05:02:38.000Z</time>
      </trkpt>
      <trkpt lat="44.17318" lon="5.24792">
        <ele>1711.1999511719</ele>
        <time>2011-04-17T05:02:43.000Z</time>
      </trkpt>
      <trkpt lat="44.17319" lon="5.24801">
        <ele>1712</ele>
        <time>2011-04-17T05:02:50.000Z</time>
      </trkpt>
      <trkpt lat="44.17321" lon="5.24812">
        <ele>1713.1999511719</ele>
        <time>2011-04-17T05:02:58.000Z</time>
      </trkpt>
      <trkpt lat="44.17325" lon="5.24823">
        <ele>1714.5999755859</ele>
        <time>2011-04-17T05:03:06.000Z</time>
      </trkpt>
      <trkpt lat="44.17329" lon="5.24833">
        <ele>1716</ele>
        <time>2011-04-17T05:03:14.000Z</time>
      </trkpt>
      <trkpt lat="44.17331" lon="5.24846">
        <ele>1717.4000244141</ele>
        <time>2011-04-17T05:03:22.000Z</time>
      </trkpt>
      <trkpt lat="44.17332" lon="5.24847">
        <ele>1717.5999755859</ele>
        <time>2011-04-17T05:03:27.000Z</time>
      </trkpt>
      <trkpt lat="44.17334" lon="5.24855">
        <ele>1718.4000244141</ele>
        <time>2011-04-17T05:03:32.000Z</time>
      </trkpt>
      <trkpt lat="44.17336" lon="5.2486">
        <ele>1718.1999511719</ele>
        <time>2011-04-17T05:03:36.000Z</time>
      </trkpt>
      <trkpt lat="44.17341" lon="5.24875">
        <ele>1717.8000488281</ele>
        <time>2011-04-17T05:03:47.000Z</time>
      </trkpt>
      <trkpt lat="44.17342" lon="5.24882">
        <ele>1718.1999511719</ele>
        <time>2011-04-17T05:03:52.000Z</time>
      </trkpt>
      <trkpt lat="44.17343" lon="5.24893">
        <ele>1718.4000244141</ele>
        <time>2011-04-17T05:03:59.000Z</time>
      </trkpt>
      <trkpt lat="44.17345" lon="5.24907">
        <ele>1719</ele>
        <time>2011-04-17T05:04:08.000Z</time>
      </trkpt>
      <trkpt lat="44.17347" lon="5.24917">
        <ele>1719.4000244141</ele>
        <time>2011-04-17T05:04:14.000Z</time>
      </trkpt>
      <trkpt lat="44.17349" lon="5.24925">
        <ele>1719.5999755859</ele>
        <time>2011-04-17T05:04:20.000Z</time>
      </trkpt>
      <trkpt lat="44.17352" lon="5.24936">
        <ele>1719.8000488281</ele>
        <time>2011-04-17T05:04:27.000Z</time>
      </trkpt>
      <trkpt lat="44.17354" lon="5.24947">
        <ele>1720.4000244141</ele>
        <time>2011-04-17T05:04:34.000Z</time>
      </trkpt>
      <trkpt lat="44.17354" lon="5.24949">
        <ele>1720.5999755859</ele>
        <time>2011-04-17T05:04:35.000Z</time>
      </trkpt>
      <trkpt lat="44.17357" lon="5.24956">
        <ele>1720.4000244141</ele>
        <time>2011-04-17T05:04:39.000Z</time>
      </trkpt>
      <trkpt lat="44.17359" lon="5.24971">
        <ele>1721.4000244141</ele>
        <time>2011-04-17T05:04:48.000Z</time>
      </trkpt>
      <trkpt lat="44.17359" lon="5.24976">
        <ele>1721.8000488281</ele>
        <time>2011-04-17T05:04:51.000Z</time>
      </trkpt>
      <trkpt lat="44.17358" lon="5.24981">
        <ele>1722.5999755859</ele>
        <time>2011-04-17T05:04:54.000Z</time>
      </trkpt>
      <trkpt lat="44.17356" lon="5.24991">
        <ele>1723.8000488281</ele>
        <time>2011-04-17T05:05:00.000Z</time>
      </trkpt>
      <trkpt lat="44.17356" lon="5.24999">
        <ele>1724.5999755859</ele>
        <time>2011-04-17T05:05:05.000Z</time>
      </trkpt>
      <trkpt lat="44.17357" lon="5.25004">
        <ele>1724.5999755859</ele>
        <time>2011-04-17T05:05:08.000Z</time>
      </trkpt>
      <trkpt lat="44.17359" lon="5.25008">
        <ele>1724.5999755859</ele>
        <time>2011-04-17T05:05:12.000Z</time>
      </trkpt>
      <trkpt lat="44.17361" lon="5.25016">
        <ele>1724.5999755859</ele>
        <time>2011-04-17T05:05:19.000Z</time>
      </trkpt>
      <trkpt lat="44.17363" lon="5.25024">
        <ele>1724.8000488281</ele>
        <time>2011-04-17T05:05:24.000Z</time>
      </trkpt>
      <trkpt lat="44.17363" lon="5.25027">
        <ele>1725</ele>
        <time>2011-04-17T05:05:26.000Z</time>
      </trkpt>
      <trkpt lat="44.17368" lon="5.25034">
        <ele>1724.8000488281</ele>
        <time>2011-04-17T05:05:33.000Z</time>
      </trkpt>
      <trkpt lat="44.17367" lon="5.25038">
        <ele>1725.1999511719</ele>
        <time>2011-04-17T05:05:38.000Z</time>
      </trkpt>
      <trkpt lat="44.17367" lon="5.25042">
        <ele>1725.5999755859</ele>
        <time>2011-04-17T05:05:42.000Z</time>
      </trkpt>
      <trkpt lat="44.17367" lon="5.25046">
        <ele>1725.8000488281</ele>
        <time>2011-04-17T05:05:48.000Z</time>
      </trkpt>
      <trkpt lat="44.17368" lon="5.25054">
        <ele>1726.4000244141</ele>
        <time>2011-04-17T05:05:54.000Z</time>
      </trkpt>
      <trkpt lat="44.17368" lon="5.25061">
        <ele>1726.8000488281</ele>
        <time>2011-04-17T05:06:00.000Z</time>
      </trkpt>
      <trkpt lat="44.17367" lon="5.25064">
        <ele>1727.1999511719</ele>
        <time>2011-04-17T05:06:05.000Z</time>
      </trkpt>
      <trkpt lat="44.17365" lon="5.25068">
        <ele>1727.8000488281</ele>
        <time>2011-04-17T05:06:10.000Z</time>
      </trkpt>
      <trkpt lat="44.17366" lon="5.25073">
        <ele>1728</ele>
        <time>2011-04-17T05:06:15.000Z</time>
      </trkpt>
      <trkpt lat="44.17367" lon="5.25079">
        <ele>1728.4000244141</ele>
        <time>2011-04-17T05:06:22.000Z</time>
      </trkpt>
      <trkpt lat="44.1737" lon="5.25085">
        <ele>1728.5999755859</ele>
        <time>2011-04-17T05:06:31.000Z</time>
      </trkpt>
      <trkpt lat="44.1737" lon="5.25095">
        <ele>1729.1999511719</ele>
        <time>2011-04-17T05:06:38.000Z</time>
      </trkpt>
      <trkpt lat="44.1737" lon="5.25105">
        <ele>1730</ele>
        <time>2011-04-17T05:06:44.000Z</time>
      </trkpt>
      <trkpt lat="44.1737" lon="5.2511">
        <ele>1730.4000244141</ele>
        <time>2011-04-17T05:06:48.000Z</time>
      </trkpt>
      <trkpt lat="44.17372" lon="5.25117">
        <ele>1730.8000488281</ele>
        <time>2011-04-17T05:06:54.000Z</time>
      </trkpt>
      <trkpt lat="44.17374" lon="5.25123">
        <ele>1731</ele>
        <time>2011-04-17T05:06:59.000Z</time>
      </trkpt>
      <trkpt lat="44.17375" lon="5.25124">
        <ele>1731</ele>
        <time>2011-04-17T05:07:00.000Z</time>
      </trkpt>
      <trkpt lat="44.17374" lon="5.25133">
        <ele>1731.8000488281</ele>
        <time>2011-04-17T05:07:05.000Z</time>
      </trkpt>
      <trkpt lat="44.17374" lon="5.25141">
        <ele>1732.4000244141</ele>
        <time>2011-04-17T05:07:11.000Z</time>
      </trkpt>
      <trkpt lat="44.17375" lon="5.25142">
        <ele>1732.5999755859</ele>
        <time>2011-04-17T05:07:12.000Z</time>
      </trkpt>
      <trkpt lat="44.17375" lon="5.25153">
        <ele>1733.1999511719</ele>
        <time>2011-04-17T05:07:19.000Z</time>
      </trkpt>
      <trkpt lat="44.17376" lon="5.25156">
        <ele>1733.4000244141</ele>
        <time>2011-04-17T05:07:22.000Z</time>
      </trkpt>
      <trkpt lat="44.17375" lon="5.25168">
        <ele>1734.5999755859</ele>
        <time>2011-04-17T05:07:29.000Z</time>
      </trkpt>
      <trkpt lat="44.17376" lon="5.25178">
        <ele>1735.5999755859</ele>
        <time>2011-04-17T05:07:36.000Z</time>
      </trkpt>
      <trkpt lat="44.17376" lon="5.25187">
        <ele>1736.8000488281</ele>
        <time>2011-04-17T05:07:42.000Z</time>
      </trkpt>
      <trkpt lat="44.17377" lon="5.25202">
        <ele>1738.5999755859</ele>
        <time>2011-04-17T05:07:52.000Z</time>
      </trkpt>
      <trkpt lat="44.17377" lon="5.25214">
        <ele>1740</ele>
        <time>2011-04-17T05:08:01.000Z</time>
      </trkpt>
      <trkpt lat="44.17377" lon="5.2522">
        <ele>1740.8000488281</ele>
        <time>2011-04-17T05:08:09.000Z</time>
      </trkpt>
      <trkpt lat="44.17377" lon="5.25227">
        <ele>1741.5999755859</ele>
        <time>2011-04-17T05:08:20.000Z</time>
      </trkpt>
      <trkpt lat="44.17379" lon="5.25235">
        <ele>1742.4000244141</ele>
        <time>2011-04-17T05:08:27.000Z</time>
      </trkpt>
      <trkpt lat="44.17381" lon="5.25241">
        <ele>1743</ele>
        <time>2011-04-17T05:08:34.000Z</time>
      </trkpt>
      <trkpt lat="44.17383" lon="5.25247">
        <ele>1743.8000488281</ele>
        <time>2011-04-17T05:08:41.000Z</time>
      </trkpt>
      <trkpt lat="44.17382" lon="5.25252">
        <ele>1744.4000244141</ele>
        <time>2011-04-17T05:08:47.000Z</time>
      </trkpt>
      <trkpt lat="44.17384" lon="5.25258">
        <ele>1745.1999511719</ele>
        <time>2011-04-17T05:08:54.000Z</time>
      </trkpt>
      <trkpt lat="44.17384" lon="5.25266">
        <ele>1746.1999511719</ele>
        <time>2011-04-17T05:09:00.000Z</time>
      </trkpt>
      <trkpt lat="44.17387" lon="5.25272">
        <ele>1747</ele>
        <time>2011-04-17T05:09:06.000Z</time>
      </trkpt>
      <trkpt lat="44.17389" lon="5.25286">
        <ele>1748.8000488281</ele>
        <time>2011-04-17T05:09:15.000Z</time>
      </trkpt>
      <trkpt lat="44.17389" lon="5.25296">
        <ele>1750.1999511719</ele>
        <time>2011-04-17T05:09:21.000Z</time>
      </trkpt>
      <trkpt lat="44.17391" lon="5.25306">
        <ele>1751.4000244141</ele>
        <time>2011-04-17T05:09:28.000Z</time>
      </trkpt>
      <trkpt lat="44.17392" lon="5.25309">
        <ele>1752</ele>
        <time>2011-04-17T05:09:31.000Z</time>
      </trkpt>
      <trkpt lat="44.17391" lon="5.25312">
        <ele>1752.4000244141</ele>
        <time>2011-04-17T05:09:37.000Z</time>
      </trkpt>
      <trkpt lat="44.17391" lon="5.25315">
        <ele>1752.5999755859</ele>
        <time>2011-04-17T05:09:45.000Z</time>
      </trkpt>
      <trkpt lat="44.17391" lon="5.25325">
        <ele>1754.1999511719</ele>
        <time>2011-04-17T05:09:53.000Z</time>
      </trkpt>
      <trkpt lat="44.17391" lon="5.2533">
        <ele>1754.8000488281</ele>
        <time>2011-04-17T05:09:56.000Z</time>
      </trkpt>
      <trkpt lat="44.17392" lon="5.2534">
        <ele>1756</ele>
        <time>2011-04-17T05:10:03.000Z</time>
      </trkpt>
      <trkpt lat="44.17389" lon="5.25352">
        <ele>1757.1999511719</ele>
        <time>2011-04-17T05:10:12.000Z</time>
      </trkpt>
      <trkpt lat="44.17388" lon="5.25354">
        <ele>1757.5999755859</ele>
        <time>2011-04-17T05:10:14.000Z</time>
      </trkpt>
      <trkpt lat="44.17385" lon="5.2536">
        <ele>1758.1999511719</ele>
        <time>2011-04-17T05:10:18.000Z</time>
      </trkpt>
      <trkpt lat="44.17386" lon="5.25366">
        <ele>1758.8000488281</ele>
        <time>2011-04-17T05:10:22.000Z</time>
      </trkpt>
      <trkpt lat="44.17387" lon="5.25374">
        <ele>1759.8000488281</ele>
        <time>2011-04-17T05:10:28.000Z</time>
      </trkpt>
      <trkpt lat="44.17388" lon="5.25382">
        <ele>1760.8000488281</ele>
        <time>2011-04-17T05:10:35.000Z</time>
      </trkpt>
      <trkpt lat="44.1739" lon="5.2539">
        <ele>1761.5999755859</ele>
        <time>2011-04-17T05:10:42.000Z</time>
      </trkpt>
      <trkpt lat="44.17391" lon="5.25397">
        <ele>1762.4000244141</ele>
        <time>2011-04-17T05:10:48.000Z</time>
      </trkpt>
      <trkpt lat="44.1739" lon="5.25406">
        <ele>1763.4000244141</ele>
        <time>2011-04-17T05:10:55.000Z</time>
      </trkpt>
      <trkpt lat="44.17391" lon="5.25415">
        <ele>1764.4000244141</ele>
        <time>2011-04-17T05:11:02.000Z</time>
      </trkpt>
      <trkpt lat="44.17392" lon="5.25424">
        <ele>1765.4000244141</ele>
        <time>2011-04-17T05:11:10.000Z</time>
      </trkpt>
      <trkpt lat="44.17395" lon="5.2543">
        <ele>1766</ele>
        <time>2011-04-17T05:11:17.000Z</time>
      </trkpt>
      <trkpt lat="44.17398" lon="5.25434">
        <ele>1766.5999755859</ele>
        <time>2011-04-17T05:11:22.000Z</time>
      </trkpt>
      <trkpt lat="44.174" lon="5.25443">
        <ele>1767.5999755859</ele>
        <time>2011-04-17T05:11:30.000Z</time>
      </trkpt>
      <trkpt lat="44.17398" lon="5.25456">
        <ele>1768.5999755859</ele>
        <time>2011-04-17T05:11:39.000Z</time>
      </trkpt>
      <trkpt lat="44.17398" lon="5.25468">
        <ele>1769.8000488281</ele>
        <time>2011-04-17T05:11:46.000Z</time>
      </trkpt>
      <trkpt lat="44.17397" lon="5.25474">
        <ele>1770.1999511719</ele>
        <time>2011-04-17T05:11:52.000Z</time>
      </trkpt>
      <trkpt lat="44.17396" lon="5.2548">
        <ele>1770.8000488281</ele>
        <time>2011-04-17T05:11:57.000Z</time>
      </trkpt>
      <trkpt lat="44.17396" lon="5.25492">
        <ele>1772</ele>
        <time>2011-04-17T05:12:05.000Z</time>
      </trkpt>
      <trkpt lat="44.17396" lon="5.25503">
        <ele>1772.8000488281</ele>
        <time>2011-04-17T05:12:12.000Z</time>
      </trkpt>
      <trkpt lat="44.17394" lon="5.25519">
        <ele>1773.5999755859</ele>
        <time>2011-04-17T05:12:22.000Z</time>
      </trkpt>
      <trkpt lat="44.17392" lon="5.25531">
        <ele>1774.4000244141</ele>
        <time>2011-04-17T05:12:30.000Z</time>
      </trkpt>
      <trkpt lat="44.17392" lon="5.25539">
        <ele>1774.8000488281</ele>
        <time>2011-04-17T05:12:36.000Z</time>
      </trkpt>
      <trkpt lat="44.1739" lon="5.25545">
        <ele>1775</ele>
        <time>2011-04-17T05:12:42.000Z</time>
      </trkpt>
      <trkpt lat="44.17389" lon="5.25551">
        <ele>1775.4000244141</ele>
        <time>2011-04-17T05:12:47.000Z</time>
      </trkpt>
      <trkpt lat="44.17392" lon="5.25559">
        <ele>1776</ele>
        <time>2011-04-17T05:12:54.000Z</time>
      </trkpt>
      <trkpt lat="44.17394" lon="5.25566">
        <ele>1776.5999755859</ele>
        <time>2011-04-17T05:13:00.000Z</time>
      </trkpt>
      <trkpt lat="44.17391" lon="5.25574">
        <ele>1776.8000488281</ele>
        <time>2011-04-17T05:13:07.000Z</time>
      </trkpt>
      <trkpt lat="44.17391" lon="5.25583">
        <ele>1777.1999511719</ele>
        <time>2011-04-17T05:13:13.000Z</time>
      </trkpt>
      <trkpt lat="44.1739" lon="5.25587">
        <ele>1777.4000244141</ele>
        <time>2011-04-17T05:13:16.000Z</time>
      </trkpt>
      <trkpt lat="44.17387" lon="5.25591">
        <ele>1777.4000244141</ele>
        <time>2011-04-17T05:13:20.000Z</time>
      </trkpt>
      <trkpt lat="44.17386" lon="5.25595">
        <ele>1777.4000244141</ele>
        <time>2011-04-17T05:13:23.000Z</time>
      </trkpt>
      <trkpt lat="44.17384" lon="5.256">
        <ele>1777.4000244141</ele>
        <time>2011-04-17T05:13:27.000Z</time>
      </trkpt>
      <trkpt lat="44.17386" lon="5.25607">
        <ele>1777.8000488281</ele>
        <time>2011-04-17T05:13:33.000Z</time>
      </trkpt>
      <trkpt lat="44.17385" lon="5.25618">
        <ele>1778</ele>
        <time>2011-04-17T05:13:41.000Z</time>
      </trkpt>
      <trkpt lat="44.17387" lon="5.25629">
        <ele>1778.4000244141</ele>
        <time>2011-04-17T05:13:48.000Z</time>
      </trkpt>
      <trkpt lat="44.17387" lon="5.25636">
        <ele>1778.5999755859</ele>
        <time>2011-04-17T05:13:53.000Z</time>
      </trkpt>
      <trkpt lat="44.17384" lon="5.25647">
        <ele>1778.8000488281</ele>
        <time>2011-04-17T05:14:01.000Z</time>
      </trkpt>
      <trkpt lat="44.17381" lon="5.25658">
        <ele>1779.1999511719</ele>
        <time>2011-04-17T05:14:08.000Z</time>
      </trkpt>
      <trkpt lat="44.17378" lon="5.25669">
        <ele>1779.8000488281</ele>
        <time>2011-04-17T05:14:16.000Z</time>
      </trkpt>
      <trkpt lat="44.17379" lon="5.25673">
        <ele>1779.8000488281</ele>
        <time>2011-04-17T05:14:19.000Z</time>
      </trkpt>
      <trkpt lat="44.17378" lon="5.25684">
        <ele>1780.1999511719</ele>
        <time>2011-04-17T05:14:27.000Z</time>
      </trkpt>
      <trkpt lat="44.17378" lon="5.25693">
        <ele>1780.4000244141</ele>
        <time>2011-04-17T05:14:34.000Z</time>
      </trkpt>
      <trkpt lat="44.17378" lon="5.25701">
        <ele>1780.5999755859</ele>
        <time>2011-04-17T05:14:40.000Z</time>
      </trkpt>
      <trkpt lat="44.1738" lon="5.25707">
        <ele>1780.5999755859</ele>
        <time>2011-04-17T05:14:45.000Z</time>
      </trkpt>
      <trkpt lat="44.17381" lon="5.25714">
        <ele>1780.8000488281</ele>
        <time>2011-04-17T05:14:49.000Z</time>
      </trkpt>
      <trkpt lat="44.1738" lon="5.25726">
        <ele>1781.1999511719</ele>
        <time>2011-04-17T05:14:56.000Z</time>
      </trkpt>
      <trkpt lat="44.1738" lon="5.25728">
        <ele>1781.1999511719</ele>
        <time>2011-04-17T05:14:57.000Z</time>
      </trkpt>
      <trkpt lat="44.17378" lon="5.25735">
        <ele>1781.4000244141</ele>
        <time>2011-04-17T05:15:02.000Z</time>
      </trkpt>
      <trkpt lat="44.17379" lon="5.25744">
        <ele>1781.5999755859</ele>
        <time>2011-04-17T05:15:09.000Z</time>
      </trkpt>
      <trkpt lat="44.17378" lon="5.25751">
        <ele>1781.8000488281</ele>
        <time>2011-04-17T05:15:14.000Z</time>
      </trkpt>
      <trkpt lat="44.17379" lon="5.25763">
        <ele>1782.1999511719</ele>
        <time>2011-04-17T05:15:21.000Z</time>
      </trkpt>
      <trkpt lat="44.17379" lon="5.25768">
        <ele>1782.1999511719</ele>
        <time>2011-04-17T05:15:24.000Z</time>
      </trkpt>
      <trkpt lat="44.17376" lon="5.25777">
        <ele>1782.5999755859</ele>
        <time>2011-04-17T05:15:31.000Z</time>
      </trkpt>
      <trkpt lat="44.17374" lon="5.25782">
        <ele>1782.5999755859</ele>
        <time>2011-04-17T05:15:35.000Z</time>
      </trkpt>
      <trkpt lat="44.17374" lon="5.25799">
        <ele>1783</ele>
        <time>2011-04-17T05:15:45.000Z</time>
      </trkpt>
      <trkpt lat="44.17377" lon="5.25815">
        <ele>1783.4000244141</ele>
        <time>2011-04-17T05:15:54.000Z</time>
      </trkpt>
      <trkpt lat="44.17381" lon="5.25832">
        <ele>1784</ele>
        <time>2011-04-17T05:16:04.000Z</time>
      </trkpt>
      <trkpt lat="44.17385" lon="5.25844">
        <ele>1784.4000244141</ele>
        <time>2011-04-17T05:16:13.000Z</time>
      </trkpt>
      <trkpt lat="44.1739" lon="5.25855">
        <ele>1784.5999755859</ele>
        <time>2011-04-17T05:16:21.000Z</time>
      </trkpt>
      <trkpt lat="44.1739" lon="5.25857">
        <ele>1784.8000488281</ele>
        <time>2011-04-17T05:16:23.000Z</time>
      </trkpt>
      <trkpt lat="44.17389" lon="5.25868">
        <ele>1785</ele>
        <time>2011-04-17T05:16:31.000Z</time>
      </trkpt>
      <trkpt lat="44.17389" lon="5.25873">
        <ele>1785</ele>
        <time>2011-04-17T05:16:34.000Z</time>
      </trkpt>
      <trkpt lat="44.1739" lon="5.25884">
        <ele>1785.1999511719</ele>
        <time>2011-04-17T05:16:41.000Z</time>
      </trkpt>
      <trkpt lat="44.17389" lon="5.25893">
        <ele>1785.4000244141</ele>
        <time>2011-04-17T05:16:47.000Z</time>
      </trkpt>
      <trkpt lat="44.1739" lon="5.25898">
        <ele>1785.5999755859</ele>
        <time>2011-04-17T05:16:51.000Z</time>
      </trkpt>
      <trkpt lat="44.17392" lon="5.25906">
        <ele>1786</ele>
        <time>2011-04-17T05:16:58.000Z</time>
      </trkpt>
      <trkpt lat="44.17394" lon="5.25914">
        <ele>1786.1999511719</ele>
        <time>2011-04-17T05:17:04.000Z</time>
      </trkpt>
      <trkpt lat="44.17392" lon="5.25925">
        <ele>1786.5999755859</ele>
        <time>2011-04-17T05:17:10.000Z</time>
      </trkpt>
      <trkpt lat="44.1739" lon="5.25929">
        <ele>1786.5999755859</ele>
        <time>2011-04-17T05:17:12.000Z</time>
      </trkpt>
      <trkpt lat="44.1739" lon="5.25934">
        <ele>1786.8000488281</ele>
        <time>2011-04-17T05:17:16.000Z</time>
      </trkpt>
      <trkpt lat="44.17388" lon="5.25943">
        <ele>1787</ele>
        <time>2011-04-17T05:17:23.000Z</time>
      </trkpt>
      <trkpt lat="44.17389" lon="5.25955">
        <ele>1787.5999755859</ele>
        <time>2011-04-17T05:17:32.000Z</time>
      </trkpt>
      <trkpt lat="44.1739" lon="5.25963">
        <ele>1788</ele>
        <time>2011-04-17T05:17:39.000Z</time>
      </trkpt>
      <trkpt lat="44.17392" lon="5.25971">
        <ele>1788.5999755859</ele>
        <time>2011-04-17T05:17:47.000Z</time>
      </trkpt>
      <trkpt lat="44.17393" lon="5.25974">
        <ele>1788.8000488281</ele>
        <time>2011-04-17T05:17:52.000Z</time>
      </trkpt>
      <trkpt lat="44.17393" lon="5.25979">
        <ele>1789.1999511719</ele>
        <time>2011-04-17T05:17:57.000Z</time>
      </trkpt>
      <trkpt lat="44.17394" lon="5.25988">
        <ele>1789.5999755859</ele>
        <time>2011-04-17T05:18:04.000Z</time>
      </trkpt>
      <trkpt lat="44.17393" lon="5.25992">
        <ele>1789.8000488281</ele>
        <time>2011-04-17T05:18:08.000Z</time>
      </trkpt>
      <trkpt lat="44.17394" lon="5.25999">
        <ele>1790.1999511719</ele>
        <time>2011-04-17T05:18:13.000Z</time>
      </trkpt>
      <trkpt lat="44.17393" lon="5.26008">
        <ele>1790.4000244141</ele>
        <time>2011-04-17T05:18:19.000Z</time>
      </trkpt>
      <trkpt lat="44.17391" lon="5.26016">
        <ele>1790.5999755859</ele>
        <time>2011-04-17T05:18:25.000Z</time>
      </trkpt>
      <trkpt lat="44.17391" lon="5.26018">
        <ele>1790.5999755859</ele>
        <time>2011-04-17T05:18:26.000Z</time>
      </trkpt>
      <trkpt lat="44.17391" lon="5.26028">
        <ele>1791.1999511719</ele>
        <time>2011-04-17T05:18:32.000Z</time>
      </trkpt>
      <trkpt lat="44.17393" lon="5.26043">
        <ele>1792.1999511719</ele>
        <time>2011-04-17T05:18:40.000Z</time>
      </trkpt>
      <trkpt lat="44.17393" lon="5.26045">
        <ele>1792.4000244141</ele>
        <time>2011-04-17T05:18:41.000Z</time>
      </trkpt>
      <trkpt lat="44.17395" lon="5.2606">
        <ele>1793.4000244141</ele>
        <time>2011-04-17T05:18:50.000Z</time>
      </trkpt>
      <trkpt lat="44.17398" lon="5.26075">
        <ele>1794.5999755859</ele>
        <time>2011-04-17T05:18:59.000Z</time>
      </trkpt>
      <trkpt lat="44.174" lon="5.2609">
        <ele>1795.5999755859</ele>
        <time>2011-04-17T05:19:09.000Z</time>
      </trkpt>
      <trkpt lat="44.17402" lon="5.26104">
        <ele>1796.4000244141</ele>
        <time>2011-04-17T05:19:17.000Z</time>
      </trkpt>
      <trkpt lat="44.17404" lon="5.26123">
        <ele>1797.1999511719</ele>
        <time>2011-04-17T05:19:27.000Z</time>
      </trkpt>
      <trkpt lat="44.17404" lon="5.26133">
        <ele>1797.5999755859</ele>
        <time>2011-04-17T05:19:34.000Z</time>
      </trkpt>
      <trkpt lat="44.17405" lon="5.26144">
        <ele>1798.1999511719</ele>
        <time>2011-04-17T05:19:41.000Z</time>
      </trkpt>
      <trkpt lat="44.17406" lon="5.26158">
        <ele>1798.8000488281</ele>
        <time>2011-04-17T05:19:49.000Z</time>
      </trkpt>
      <trkpt lat="44.17408" lon="5.26172">
        <ele>1799.8000488281</ele>
        <time>2011-04-17T05:19:58.000Z</time>
      </trkpt>
      <trkpt lat="44.17408" lon="5.26187">
        <ele>1800.5999755859</ele>
        <time>2011-04-17T05:20:07.000Z</time>
      </trkpt>
      <trkpt lat="44.17408" lon="5.26199">
        <ele>1801.4000244141</ele>
        <time>2011-04-17T05:20:15.000Z</time>
      </trkpt>
      <trkpt lat="44.17407" lon="5.26203">
        <ele>1801.4000244141</ele>
        <time>2011-04-17T05:20:18.000Z</time>
      </trkpt>
      <trkpt lat="44.17408" lon="5.26214">
        <ele>1802.1999511719</ele>
        <time>2011-04-17T05:20:27.000Z</time>
      </trkpt>
      <trkpt lat="44.17407" lon="5.26225">
        <ele>1802.5999755859</ele>
        <time>2011-04-17T05:20:34.000Z</time>
      </trkpt>
      <trkpt lat="44.17406" lon="5.26231">
        <ele>1802.8000488281</ele>
        <time>2011-04-17T05:20:38.000Z</time>
      </trkpt>
      <trkpt lat="44.17408" lon="5.2624">
        <ele>1803.5999755859</ele>
        <time>2011-04-17T05:20:46.000Z</time>
      </trkpt>
      <trkpt lat="44.17407" lon="5.26247">
        <ele>1803.8000488281</ele>
        <time>2011-04-17T05:20:52.000Z</time>
      </trkpt>
      <trkpt lat="44.17407" lon="5.26253">
        <ele>1804.1999511719</ele>
        <time>2011-04-17T05:20:57.000Z</time>
      </trkpt>
      <trkpt lat="44.17407" lon="5.26261">
        <ele>1804.5999755859</ele>
        <time>2011-04-17T05:21:03.000Z</time>
      </trkpt>
      <trkpt lat="44.17407" lon="5.2627">
        <ele>1805.1999511719</ele>
        <time>2011-04-17T05:21:09.000Z</time>
      </trkpt>
      <trkpt lat="44.17408" lon="5.26272">
        <ele>1805.5999755859</ele>
        <time>2011-04-17T05:21:14.000Z</time>
      </trkpt>
      <trkpt lat="44.17408" lon="5.26279">
        <ele>1805.8000488281</ele>
        <time>2011-04-17T05:21:20.000Z</time>
      </trkpt>
      <trkpt lat="44.17407" lon="5.26285">
        <ele>1806</ele>
        <time>2011-04-17T05:21:26.000Z</time>
      </trkpt>
      <trkpt lat="44.17408" lon="5.26291">
        <ele>1806.4000244141</ele>
        <time>2011-04-17T05:21:31.000Z</time>
      </trkpt>
      <trkpt lat="44.17407" lon="5.26296">
        <ele>1806.8000488281</ele>
        <time>2011-04-17T05:21:36.000Z</time>
      </trkpt>
      <trkpt lat="44.17407" lon="5.26302">
        <ele>1807</ele>
        <time>2011-04-17T05:21:41.000Z</time>
      </trkpt>
      <trkpt lat="44.17407" lon="5.26311">
        <ele>1807.5999755859</ele>
        <time>2011-04-17T05:21:48.000Z</time>
      </trkpt>
      <trkpt lat="44.17406" lon="5.26321">
        <ele>1808</ele>
        <time>2011-04-17T05:21:55.000Z</time>
      </trkpt>
      <trkpt lat="44.17407" lon="5.26329">
        <ele>1808.5999755859</ele>
        <time>2011-04-17T05:22:01.000Z</time>
      </trkpt>
      <trkpt lat="44.17406" lon="5.26337">
        <ele>1808.8000488281</ele>
        <time>2011-04-17T05:22:07.000Z</time>
      </trkpt>
      <trkpt lat="44.17406" lon="5.26346">
        <ele>1809.1999511719</ele>
        <time>2011-04-17T05:22:14.000Z</time>
      </trkpt>
      <trkpt lat="44.17404" lon="5.26355">
        <ele>1809</ele>
        <time>2011-04-17T05:22:21.000Z</time>
      </trkpt>
      <trkpt lat="44.17403" lon="5.26363">
        <ele>1809.1999511719</ele>
        <time>2011-04-17T05:22:27.000Z</time>
      </trkpt>
      <trkpt lat="44.17402" lon="5.26364">
        <ele>1809</ele>
        <time>2011-04-17T05:22:33.000Z</time>
      </trkpt>
      <trkpt lat="44.17403" lon="5.26367">
        <ele>1809.4000244141</ele>
        <time>2011-04-17T05:22:42.000Z</time>
      </trkpt>
      <trkpt lat="44.17404" lon="5.26372">
        <ele>1809.5999755859</ele>
        <time>2011-04-17T05:22:47.000Z</time>
      </trkpt>
      <trkpt lat="44.17403" lon="5.2638">
        <ele>1810</ele>
        <time>2011-04-17T05:22:54.000Z</time>
      </trkpt>
      <trkpt lat="44.17404" lon="5.26386">
        <ele>1810.1999511719</ele>
        <time>2011-04-17T05:22:59.000Z</time>
      </trkpt>
      <trkpt lat="44.17404" lon="5.26393">
        <ele>1810.5999755859</ele>
        <time>2011-04-17T05:23:03.000Z</time>
      </trkpt>
      <trkpt lat="44.17404" lon="5.26406">
        <ele>1811</ele>
        <time>2011-04-17T05:23:11.000Z</time>
      </trkpt>
      <trkpt lat="44.17404" lon="5.26411">
        <ele>1811.1999511719</ele>
        <time>2011-04-17T05:23:14.000Z</time>
      </trkpt>
      <trkpt lat="44.17407" lon="5.26422">
        <ele>1811.8000488281</ele>
        <time>2011-04-17T05:23:21.000Z</time>
      </trkpt>
      <trkpt lat="44.17408" lon="5.26427">
        <ele>1812</ele>
        <time>2011-04-17T05:23:24.000Z</time>
      </trkpt>
      <trkpt lat="44.17411" lon="5.26439">
        <ele>1812.5999755859</ele>
        <time>2011-04-17T05:23:31.000Z</time>
      </trkpt>
      <trkpt lat="44.17412" lon="5.26447">
        <ele>1812.5999755859</ele>
        <time>2011-04-17T05:23:35.000Z</time>
      </trkpt>
      <trkpt lat="44.17412" lon="5.26457">
        <ele>1812.5999755859</ele>
        <time>2011-04-17T05:23:41.000Z</time>
      </trkpt>
      <trkpt lat="44.17412" lon="5.26462">
        <ele>1812.4000244141</ele>
        <time>2011-04-17T05:23:44.000Z</time>
      </trkpt>
      <trkpt lat="44.17412" lon="5.26475">
        <ele>1812.4000244141</ele>
        <time>2011-04-17T05:23:49.000Z</time>
      </trkpt>
      <trkpt lat="44.1741" lon="5.2649">
        <ele>1811.8000488281</ele>
        <time>2011-04-17T05:23:55.000Z</time>
      </trkpt>
      <trkpt lat="44.17409" lon="5.26502">
        <ele>1811.5999755859</ele>
        <time>2011-04-17T05:24:00.000Z</time>
      </trkpt>
      <trkpt lat="44.17411" lon="5.26514">
        <ele>1812.1999511719</ele>
        <time>2011-04-17T05:24:05.000Z</time>
      </trkpt>
      <trkpt lat="44.1741" lon="5.26524">
        <ele>1812.1999511719</ele>
        <time>2011-04-17T05:24:10.000Z</time>
      </trkpt>
      <trkpt lat="44.17409" lon="5.26534">
        <ele>1812.1999511719</ele>
        <time>2011-04-17T05:24:16.000Z</time>
      </trkpt>
      <trkpt lat="44.17411" lon="5.26542">
        <ele>1812.8000488281</ele>
        <time>2011-04-17T05:24:21.000Z</time>
      </trkpt>
      <trkpt lat="44.17414" lon="5.26559">
        <ele>1813.8000488281</ele>
        <time>2011-04-17T05:24:27.000Z</time>
      </trkpt>
      <trkpt lat="44.17414" lon="5.2657">
        <ele>1814.1999511719</ele>
        <time>2011-04-17T05:24:31.000Z</time>
      </trkpt>
      <trkpt lat="44.17413" lon="5.2658">
        <ele>1814</ele>
        <time>2011-04-17T05:24:38.000Z</time>
      </trkpt>
      <trkpt lat="44.17414" lon="5.26592">
        <ele>1814.4000244141</ele>
        <time>2011-04-17T05:24:45.000Z</time>
      </trkpt>
      <trkpt lat="44.17414" lon="5.26594">
        <ele>1814.5999755859</ele>
        <time>2011-04-17T05:24:46.000Z</time>
      </trkpt>
      <trkpt lat="44.17417" lon="5.26606">
        <ele>1815.4000244141</ele>
        <time>2011-04-17T05:24:52.000Z</time>
      </trkpt>
      <trkpt lat="44.17419" lon="5.26625">
        <ele>1815.1999511719</ele>
        <time>2011-04-17T05:24:59.000Z</time>
      </trkpt>
      <trkpt lat="44.1742" lon="5.26641">
        <ele>1815.1999511719</ele>
        <time>2011-04-17T05:25:05.000Z</time>
      </trkpt>
      <trkpt lat="44.17421" lon="5.26649">
        <ele>1815.4000244141</ele>
        <time>2011-04-17T05:25:08.000Z</time>
      </trkpt>
      <trkpt lat="44.17421" lon="5.26653">
        <ele>1815.1999511719</ele>
        <time>2011-04-17T05:25:10.000Z</time>
      </trkpt>
      <trkpt lat="44.17424" lon="5.26668">
        <ele>1815.1999511719</ele>
        <time>2011-04-17T05:25:17.000Z</time>
      </trkpt>
      <trkpt lat="44.17424" lon="5.26669">
        <ele>1815.1999511719</ele>
        <time>2011-04-17T05:25:18.000Z</time>
      </trkpt>
      <trkpt lat="44.17423" lon="5.26678">
        <ele>1815.4000244141</ele>
        <time>2011-04-17T05:25:26.000Z</time>
      </trkpt>
      <trkpt lat="44.17423" lon="5.26689">
        <ele>1815.4000244141</ele>
        <time>2011-04-17T05:25:34.000Z</time>
      </trkpt>
      <trkpt lat="44.17424" lon="5.26697">
        <ele>1815</ele>
        <time>2011-04-17T05:25:40.000Z</time>
      </trkpt>
      <trkpt lat="44.17425" lon="5.26706">
        <ele>1814.8000488281</ele>
        <time>2011-04-17T05:25:46.000Z</time>
      </trkpt>
      <trkpt lat="44.17425" lon="5.26712">
        <ele>1815</ele>
        <time>2011-04-17T05:25:49.000Z</time>
      </trkpt>
      <trkpt lat="44.17427" lon="5.26719">
        <ele>1814.4000244141</ele>
        <time>2011-04-17T05:25:53.000Z</time>
      </trkpt>
      <trkpt lat="44.1743" lon="5.26724">
        <ele>1813.4000244141</ele>
        <time>2011-04-17T05:25:57.000Z</time>
      </trkpt>
      <trkpt lat="44.17431" lon="5.26726">
        <ele>1813.1999511719</ele>
        <time>2011-04-17T05:25:58.000Z</time>
      </trkpt>
      <trkpt lat="44.17434" lon="5.26738">
        <ele>1812.5999755859</ele>
        <time>2011-04-17T05:26:05.000Z</time>
      </trkpt>
      <trkpt lat="44.17434" lon="5.26749">
        <ele>1812.5999755859</ele>
        <time>2011-04-17T05:26:11.000Z</time>
      </trkpt>
      <trkpt lat="44.17432" lon="5.26766">
        <ele>1813.4000244141</ele>
        <time>2011-04-17T05:26:20.000Z</time>
      </trkpt>
      <trkpt lat="44.17431" lon="5.26769">
        <ele>1813.5999755859</ele>
        <time>2011-04-17T05:26:22.000Z</time>
      </trkpt>
      <trkpt lat="44.17434" lon="5.26779">
        <ele>1812.8000488281</ele>
        <time>2011-04-17T05:26:28.000Z</time>
      </trkpt>
      <trkpt lat="44.17436" lon="5.26789">
        <ele>1812.5999755859</ele>
        <time>2011-04-17T05:26:34.000Z</time>
      </trkpt>
      <trkpt lat="44.17436" lon="5.26797">
        <ele>1812.5999755859</ele>
        <time>2011-04-17T05:26:38.000Z</time>
      </trkpt>
      <trkpt lat="44.17435" lon="5.26808">
        <ele>1812.8000488281</ele>
        <time>2011-04-17T05:26:46.000Z</time>
      </trkpt>
      <trkpt lat="44.17436" lon="5.26813">
        <ele>1812.8000488281</ele>
        <time>2011-04-17T05:26:53.000Z</time>
      </trkpt>
      <trkpt lat="44.17435" lon="5.26818">
        <ele>1813.1999511719</ele>
        <time>2011-04-17T05:26:59.000Z</time>
      </trkpt>
      <trkpt lat="44.17434" lon="5.26823">
        <ele>1813.1999511719</ele>
        <time>2011-04-17T05:27:04.000Z</time>
      </trkpt>
      <trkpt lat="44.17433" lon="5.26831">
        <ele>1813.8000488281</ele>
        <time>2011-04-17T05:27:10.000Z</time>
      </trkpt>
      <trkpt lat="44.17432" lon="5.26833">
        <ele>1814</ele>
        <time>2011-04-17T05:27:11.000Z</time>
      </trkpt>
      <trkpt lat="44.17429" lon="5.26844">
        <ele>1814.4000244141</ele>
        <time>2011-04-17T05:27:18.000Z</time>
      </trkpt>
      <trkpt lat="44.17426" lon="5.26849">
        <ele>1815.1999511719</ele>
        <time>2011-04-17T05:27:23.000Z</time>
      </trkpt>
      <trkpt lat="44.17423" lon="5.26856">
        <ele>1815.4000244141</ele>
        <time>2011-04-17T05:27:28.000Z</time>
      </trkpt>
      <trkpt lat="44.17423" lon="5.26858">
        <ele>1815.4000244141</ele>
        <time>2011-04-17T05:27:37.000Z</time>
      </trkpt>
      <trkpt lat="44.17423" lon="5.26865">
        <ele>1815.4000244141</ele>
        <time>2011-04-17T05:27:41.000Z</time>
      </trkpt>
      <trkpt lat="44.17419" lon="5.26883">
        <ele>1815.4000244141</ele>
        <time>2011-04-17T05:27:47.000Z</time>
      </trkpt>
      <trkpt lat="44.17416" lon="5.26907">
        <ele>1815</ele>
        <time>2011-04-17T05:27:54.000Z</time>
      </trkpt>
      <trkpt lat="44.17414" lon="5.26929">
        <ele>1814</ele>
        <time>2011-04-17T05:28:00.000Z</time>
      </trkpt>
      <trkpt lat="44.17415" lon="5.2695">
        <ele>1813.8000488281</ele>
        <time>2011-04-17T05:28:06.000Z</time>
      </trkpt>
      <trkpt lat="44.17417" lon="5.26967">
        <ele>1813.5999755859</ele>
        <time>2011-04-17T05:28:11.000Z</time>
      </trkpt>
      <trkpt lat="44.17418" lon="5.26983">
        <ele>1813</ele>
        <time>2011-04-17T05:28:16.000Z</time>
      </trkpt>
      <trkpt lat="44.17419" lon="5.26999">
        <ele>1812.4000244141</ele>
        <time>2011-04-17T05:28:21.000Z</time>
      </trkpt>
      <trkpt lat="44.17421" lon="5.27019">
        <ele>1812.1999511719</ele>
        <time>2011-04-17T05:28:27.000Z</time>
      </trkpt>
      <trkpt lat="44.17421" lon="5.27041">
        <ele>1812.4000244141</ele>
        <time>2011-04-17T05:28:34.000Z</time>
      </trkpt>
      <trkpt lat="44.17423" lon="5.27063">
        <ele>1812.1999511719</ele>
        <time>2011-04-17T05:28:41.000Z</time>
      </trkpt>
      <trkpt lat="44.17424" lon="5.27083">
        <ele>1812</ele>
        <time>2011-04-17T05:28:47.000Z</time>
      </trkpt>
      <trkpt lat="44.17427" lon="5.27102">
        <ele>1811.5999755859</ele>
        <time>2011-04-17T05:28:53.000Z</time>
      </trkpt>
      <trkpt lat="44.17428" lon="5.2712">
        <ele>1811.8000488281</ele>
        <time>2011-04-17T05:28:59.000Z</time>
      </trkpt>
      <trkpt lat="44.17428" lon="5.27138">
        <ele>1811.8000488281</ele>
        <time>2011-04-17T05:29:05.000Z</time>
      </trkpt>
      <trkpt lat="44.17428" lon="5.27152">
        <ele>1812</ele>
        <time>2011-04-17T05:29:10.000Z</time>
      </trkpt>
      <trkpt lat="44.17424" lon="5.27171">
        <ele>1813.1999511719</ele>
        <time>2011-04-17T05:29:17.000Z</time>
      </trkpt>
      <trkpt lat="44.17417" lon="5.2719">
        <ele>1814.8000488281</ele>
        <time>2011-04-17T05:29:24.000Z</time>
      </trkpt>
      <trkpt lat="44.17412" lon="5.27201">
        <ele>1815</ele>
        <time>2011-04-17T05:29:30.000Z</time>
      </trkpt>
      <trkpt lat="44.17407" lon="5.27216">
        <ele>1815.4000244141</ele>
        <time>2011-04-17T05:29:38.000Z</time>
      </trkpt>
      <trkpt lat="44.17401" lon="5.27229">
        <ele>1816</ele>
        <time>2011-04-17T05:29:46.000Z</time>
      </trkpt>
      <trkpt lat="44.17397" lon="5.27239">
        <ele>1816.8000488281</ele>
        <time>2011-04-17T05:29:53.000Z</time>
      </trkpt>
      <trkpt lat="44.17393" lon="5.27247">
        <ele>1817.4000244141</ele>
        <time>2011-04-17T05:29:59.000Z</time>
      </trkpt>
      <trkpt lat="44.17388" lon="5.27246">
        <ele>1817.8000488281</ele>
        <time>2011-04-17T05:30:03.000Z</time>
      </trkpt>
      <trkpt lat="44.17377" lon="5.27241">
        <ele>1818.5999755859</ele>
        <time>2011-04-17T05:30:11.000Z</time>
      </trkpt>
      <trkpt lat="44.17364" lon="5.27242">
        <ele>1820</ele>
        <time>2011-04-17T05:30:20.000Z</time>
      </trkpt>
      <trkpt lat="44.17352" lon="5.27249">
        <ele>1821.8000488281</ele>
        <time>2011-04-17T05:30:29.000Z</time>
      </trkpt>
      <trkpt lat="44.17344" lon="5.27257">
        <ele>1823.4000244141</ele>
        <time>2011-04-17T05:30:36.000Z</time>
      </trkpt>
      <trkpt lat="44.17337" lon="5.27265">
        <ele>1825.1999511719</ele>
        <time>2011-04-17T05:30:44.000Z</time>
      </trkpt>
      <trkpt lat="44.17336" lon="5.27281">
        <ele>1827.1999511719</ele>
        <time>2011-04-17T05:30:53.000Z</time>
      </trkpt>
      <trkpt lat="44.17334" lon="5.27294">
        <ele>1829</ele>
        <time>2011-04-17T05:31:00.000Z</time>
      </trkpt>
      <trkpt lat="44.17332" lon="5.27303">
        <ele>1830.1999511719</ele>
        <time>2011-04-17T05:31:06.000Z</time>
      </trkpt>
      <trkpt lat="44.17331" lon="5.27314">
        <ele>1831.5999755859</ele>
        <time>2011-04-17T05:31:14.000Z</time>
      </trkpt>
      <trkpt lat="44.17332" lon="5.27319">
        <ele>1832.1999511719</ele>
        <time>2011-04-17T05:31:18.000Z</time>
      </trkpt>
      <trkpt lat="44.17331" lon="5.27331">
        <ele>1833.5999755859</ele>
        <time>2011-04-17T05:31:28.000Z</time>
      </trkpt>
      <trkpt lat="44.17331" lon="5.27337">
        <ele>1834</ele>
        <time>2011-04-17T05:31:34.000Z</time>
      </trkpt>
      <trkpt lat="44.17331" lon="5.27346">
        <ele>1834.4000244141</ele>
        <time>2011-04-17T05:31:41.000Z</time>
      </trkpt>
      <trkpt lat="44.1733" lon="5.27356">
        <ele>1835</ele>
        <time>2011-04-17T05:31:49.000Z</time>
      </trkpt>
      <trkpt lat="44.1733" lon="5.27365">
        <ele>1835.4000244141</ele>
        <time>2011-04-17T05:31:57.000Z</time>
      </trkpt>
      <trkpt lat="44.1733" lon="5.27372">
        <ele>1835.5999755859</ele>
        <time>2011-04-17T05:32:03.000Z</time>
      </trkpt>
      <trkpt lat="44.17331" lon="5.2738">
        <ele>1836</ele>
        <time>2011-04-17T05:32:10.000Z</time>
      </trkpt>
      <trkpt lat="44.1733" lon="5.27387">
        <ele>1836.4000244141</ele>
        <time>2011-04-17T05:32:15.000Z</time>
      </trkpt>
      <trkpt lat="44.17331" lon="5.27395">
        <ele>1836.8000488281</ele>
        <time>2011-04-17T05:32:22.000Z</time>
      </trkpt>
      <trkpt lat="44.17332" lon="5.27405">
        <ele>1837.1999511719</ele>
        <time>2011-04-17T05:32:29.000Z</time>
      </trkpt>
      <trkpt lat="44.17332" lon="5.27415">
        <ele>1837.8000488281</ele>
        <time>2011-04-17T05:32:37.000Z</time>
      </trkpt>
      <trkpt lat="44.17334" lon="5.27421">
        <ele>1838</ele>
        <time>2011-04-17T05:32:42.000Z</time>
      </trkpt>
      <trkpt lat="44.17333" lon="5.27427">
        <ele>1838.5999755859</ele>
        <time>2011-04-17T05:32:48.000Z</time>
      </trkpt>
      <trkpt lat="44.17331" lon="5.27433">
        <ele>1838.8000488281</ele>
        <time>2011-04-17T05:32:55.000Z</time>
      </trkpt>
      <trkpt lat="44.1733" lon="5.27438">
        <ele>1839.1999511719</ele>
        <time>2011-04-17T05:33:01.000Z</time>
      </trkpt>
      <trkpt lat="44.17328" lon="5.27444">
        <ele>1839.4000244141</ele>
        <time>2011-04-17T05:33:07.000Z</time>
      </trkpt>
      <trkpt lat="44.17327" lon="5.2745">
        <ele>1839.8000488281</ele>
        <time>2011-04-17T05:33:13.000Z</time>
      </trkpt>
      <trkpt lat="44.17325" lon="5.27459">
        <ele>1840.1999511719</ele>
        <time>2011-04-17T05:33:20.000Z</time>
      </trkpt>
      <trkpt lat="44.17326" lon="5.27464">
        <ele>1840.5999755859</ele>
        <time>2011-04-17T05:33:23.000Z</time>
      </trkpt>
      <trkpt lat="44.17326" lon="5.27478">
        <ele>1841.4000244141</ele>
        <time>2011-04-17T05:33:31.000Z</time>
      </trkpt>
      <trkpt lat="44.17326" lon="5.27479">
        <ele>1841.4000244141</ele>
        <time>2011-04-17T05:33:32.000Z</time>
      </trkpt>
      <trkpt lat="44.17326" lon="5.27488">
        <ele>1842</ele>
        <time>2011-04-17T05:33:38.000Z</time>
      </trkpt>
      <trkpt lat="44.17324" lon="5.27496">
        <ele>1842.4000244141</ele>
        <time>2011-04-17T05:33:45.000Z</time>
      </trkpt>
      <trkpt lat="44.1732" lon="5.27499">
        <ele>1842.5999755859</ele>
        <time>2011-04-17T05:33:51.000Z</time>
      </trkpt>
      <trkpt lat="44.17317" lon="5.27506">
        <ele>1843.1999511719</ele>
        <time>2011-04-17T05:33:59.000Z</time>
      </trkpt>
      <trkpt lat="44.17315" lon="5.27515">
        <ele>1844</ele>
        <time>2011-04-17T05:34:05.000Z</time>
      </trkpt>
      <trkpt lat="44.17315" lon="5.27519">
        <ele>1844.4000244141</ele>
        <time>2011-04-17T05:34:07.000Z</time>
      </trkpt>
      <trkpt lat="44.17315" lon="5.27526">
        <ele>1845.1999511719</ele>
        <time>2011-04-17T05:34:12.000Z</time>
      </trkpt>
      <trkpt lat="44.17315" lon="5.27529">
        <ele>1845.5999755859</ele>
        <time>2011-04-17T05:34:14.000Z</time>
      </trkpt>
      <trkpt lat="44.17315" lon="5.27535">
        <ele>1846.1999511719</ele>
        <time>2011-04-17T05:34:21.000Z</time>
      </trkpt>
      <trkpt lat="44.17316" lon="5.2754">
        <ele>1846.8000488281</ele>
        <time>2011-04-17T05:34:27.000Z</time>
      </trkpt>
      <trkpt lat="44.17313" lon="5.27545">
        <ele>1847</ele>
        <time>2011-04-17T05:34:36.000Z</time>
      </trkpt>
      <trkpt lat="44.17311" lon="5.2755">
        <ele>1847.4000244141</ele>
        <time>2011-04-17T05:34:39.000Z</time>
      </trkpt>
      <trkpt lat="44.17311" lon="5.27551">
        <ele>1847.5999755859</ele>
        <time>2011-04-17T05:34:46.000Z</time>
      </trkpt>
      <trkpt lat="44.17314" lon="5.27547">
        <ele>1847.4000244141</ele>
        <time>2011-04-17T05:34:55.000Z</time>
      </trkpt>
      <trkpt lat="44.17315" lon="5.27546">
        <ele>1847.4000244141</ele>
        <time>2011-04-17T05:35:01.000Z</time>
      </trkpt>
      <trkpt lat="44.17316" lon="5.27545">
        <ele>1847.4000244141</ele>
        <time>2011-04-17T05:35:11.000Z</time>
      </trkpt>
      <trkpt lat="44.17317" lon="5.27544">
        <ele>1847.4000244141</ele>
        <time>2011-04-17T05:35:18.000Z</time>
      </trkpt>
      <trkpt lat="44.17319" lon="5.27548">
        <ele>1848</ele>
        <time>2011-04-17T05:35:29.000Z</time>
      </trkpt>
      <trkpt lat="44.1732" lon="5.27554">
        <ele>1848.5999755859</ele>
        <time>2011-04-17T05:35:34.000Z</time>
      </trkpt>
      <trkpt lat="44.17317" lon="5.2756">
        <ele>1849</ele>
        <time>2011-04-17T05:35:39.000Z</time>
      </trkpt>
      <trkpt lat="44.17318" lon="5.27564">
        <ele>1849.5999755859</ele>
        <time>2011-04-17T05:35:45.000Z</time>
      </trkpt>
      <trkpt lat="44.1732" lon="5.27569">
        <ele>1850.4000244141</ele>
        <time>2011-04-17T05:35:51.000Z</time>
      </trkpt>
      <trkpt lat="44.17321" lon="5.27576">
        <ele>1851.4000244141</ele>
        <time>2011-04-17T05:35:57.000Z</time>
      </trkpt>
      <trkpt lat="44.17324" lon="5.2758">
        <ele>1852</ele>
        <time>2011-04-17T05:36:04.000Z</time>
      </trkpt>
      <trkpt lat="44.17325" lon="5.27583">
        <ele>1852.5999755859</ele>
        <time>2011-04-17T05:36:09.000Z</time>
      </trkpt>
      <trkpt lat="44.17326" lon="5.27591">
        <ele>1854.1999511719</ele>
        <time>2011-04-17T05:36:15.000Z</time>
      </trkpt>
      <trkpt lat="44.17325" lon="5.27598">
        <ele>1855.5999755859</ele>
        <time>2011-04-17T05:36:21.000Z</time>
      </trkpt>
      <trkpt lat="44.17327" lon="5.27601">
        <ele>1856.4000244141</ele>
        <time>2011-04-17T05:36:27.000Z</time>
      </trkpt>
      <trkpt lat="44.17327" lon="5.27606">
        <ele>1857.4000244141</ele>
        <time>2011-04-17T05:36:43.000Z</time>
      </trkpt>
      <trkpt lat="44.1733" lon="5.27615">
        <ele>1859.5999755859</ele>
        <time>2011-04-17T05:36:50.000Z</time>
      </trkpt>
      <trkpt lat="44.17331" lon="5.27618">
        <ele>1860.4000244141</ele>
        <time>2011-04-17T05:36:52.000Z</time>
      </trkpt>
      <trkpt lat="44.17334" lon="5.27629">
        <ele>1863.1999511719</ele>
        <time>2011-04-17T05:36:59.000Z</time>
      </trkpt>
      <trkpt lat="44.17336" lon="5.27639">
        <ele>1864.4000244141</ele>
        <time>2011-04-17T05:37:06.000Z</time>
      </trkpt>
      <trkpt lat="44.17337" lon="5.27648">
        <ele>1866.1999511719</ele>
        <time>2011-04-17T05:37:13.000Z</time>
      </trkpt>
      <trkpt lat="44.17337" lon="5.27654">
        <ele>1867.1999511719</ele>
        <time>2011-04-17T05:37:17.000Z</time>
      </trkpt>
      <trkpt lat="44.17339" lon="5.27662">
        <ele>1868.4000244141</ele>
        <time>2011-04-17T05:37:22.000Z</time>
      </trkpt>
      <trkpt lat="44.17339" lon="5.27665">
        <ele>1869</ele>
        <time>2011-04-17T05:37:25.000Z</time>
      </trkpt>
      <trkpt lat="44.17341" lon="5.27674">
        <ele>1870.4000244141</ele>
        <time>2011-04-17T05:37:32.000Z</time>
      </trkpt>
      <trkpt lat="44.17343" lon="5.2768">
        <ele>1871.1999511719</ele>
        <time>2011-04-17T05:37:37.000Z</time>
      </trkpt>
      <trkpt lat="44.17345" lon="5.27687">
        <ele>1872.5999755859</ele>
        <time>2011-04-17T05:37:43.000Z</time>
      </trkpt>
      <trkpt lat="44.17346" lon="5.27693">
        <ele>1873.8000488281</ele>
        <time>2011-04-17T05:37:48.000Z</time>
      </trkpt>
      <trkpt lat="44.17347" lon="5.27701">
        <ele>1875.5999755859</ele>
        <time>2011-04-17T05:37:55.000Z</time>
      </trkpt>
      <trkpt lat="44.17351" lon="5.27712">
        <ele>1877.4000244141</ele>
        <time>2011-04-17T05:38:03.000Z</time>
      </trkpt>
      <trkpt lat="44.17355" lon="5.27724">
        <ele>1880</ele>
        <time>2011-04-17T05:38:11.000Z</time>
      </trkpt>
      <trkpt lat="44.17359" lon="5.27732">
        <ele>1881.4000244141</ele>
        <time>2011-04-17T05:38:17.000Z</time>
      </trkpt>
      <trkpt lat="44.17359" lon="5.27734">
        <ele>1881.8000488281</ele>
        <time>2011-04-17T05:38:19.000Z</time>
      </trkpt>
      <trkpt lat="44.1736" lon="5.27738">
        <ele>1882.8000488281</ele>
        <time>2011-04-17T05:38:25.000Z</time>
      </trkpt>
      <trkpt lat="44.1736" lon="5.2774">
        <ele>1883.1999511719</ele>
        <time>2011-04-17T05:38:30.000Z</time>
      </trkpt>
      <trkpt lat="44.17364" lon="5.27742">
        <ele>1883.1999511719</ele>
        <time>2011-04-17T05:38:46.000Z</time>
      </trkpt>
      <trkpt lat="44.17368" lon="5.27745">
        <ele>1883.5999755859</ele>
        <time>2011-04-17T05:38:52.000Z</time>
      </trkpt>
      <trkpt lat="44.1737" lon="5.2775">
        <ele>1885</ele>
        <time>2011-04-17T05:38:58.000Z</time>
      </trkpt>
      <trkpt lat="44.17369" lon="5.27756">
        <ele>1885.8000488281</ele>
        <time>2011-04-17T05:39:04.000Z</time>
      </trkpt>
      <trkpt lat="44.17369" lon="5.27764">
        <ele>1886.8000488281</ele>
        <time>2011-04-17T05:39:09.000Z</time>
      </trkpt>
      <trkpt lat="44.17371" lon="5.27766">
        <ele>1887</ele>
        <time>2011-04-17T05:39:14.000Z</time>
      </trkpt>
      <trkpt lat="44.1738" lon="5.27768">
        <ele>1886.5999755859</ele>
        <time>2011-04-17T05:39:21.000Z</time>
      </trkpt>
      <trkpt lat="44.17385" lon="5.27773">
        <ele>1886.8000488281</ele>
        <time>2011-04-17T05:39:28.000Z</time>
      </trkpt>
      <trkpt lat="44.17385" lon="5.27773">
        <ele>1887</ele>
        <time>2011-04-17T05:39:33.000Z</time>
      </trkpt>
      <trkpt lat="44.17383" lon="5.27778">
        <ele>1887.8000488281</ele>
        <time>2011-04-17T05:39:44.000Z</time>
      </trkpt>
      <trkpt lat="44.17381" lon="5.27782">
        <ele>1888.5999755859</ele>
        <time>2011-04-17T05:39:50.000Z</time>
      </trkpt>
      <trkpt lat="44.17382" lon="5.27789">
        <ele>1889.5999755859</ele>
        <time>2011-04-17T05:39:58.000Z</time>
      </trkpt>
      <trkpt lat="44.17385" lon="5.27797">
        <ele>1890.5999755859</ele>
        <time>2011-04-17T05:40:05.000Z</time>
      </trkpt>
      <trkpt lat="44.1739" lon="5.27801">
        <ele>1891.1999511719</ele>
        <time>2011-04-17T05:40:11.000Z</time>
      </trkpt>
      <trkpt lat="44.17397" lon="5.27805">
        <ele>1891.8000488281</ele>
        <time>2011-04-17T05:40:15.000Z</time>
      </trkpt>
      <trkpt lat="44.17399" lon="5.27809">
        <ele>1892.5999755859</ele>
        <time>2011-04-17T05:40:20.000Z</time>
      </trkpt>
      <trkpt lat="44.17401" lon="5.27816">
        <ele>1893.8000488281</ele>
        <time>2011-04-17T05:40:27.000Z</time>
      </trkpt>
      <trkpt lat="44.17402" lon="5.27829">
        <ele>1896.4000244141</ele>
        <time>2011-04-17T05:40:35.000Z</time>
      </trkpt>
      <trkpt lat="44.17402" lon="5.2783">
        <ele>1896.5999755859</ele>
        <time>2011-04-17T05:40:36.000Z</time>
      </trkpt>
      <trkpt lat="44.17404" lon="5.2784">
        <ele>1897</ele>
        <time>2011-04-17T05:40:43.000Z</time>
      </trkpt>
      <trkpt lat="44.17403" lon="5.27846">
        <ele>1896.4000244141</ele>
        <time>2011-04-17T05:40:47.000Z</time>
      </trkpt>
      <trkpt lat="44.17399" lon="5.27853">
        <ele>1895.8000488281</ele>
        <time>2011-04-17T05:40:50.000Z</time>
      </trkpt>
      <trkpt lat="44.17396" lon="5.27848">
        <ele>1895.8000488281</ele>
        <time>2011-04-17T05:40:54.000Z</time>
      </trkpt>
      <trkpt lat="44.17403" lon="5.27839">
        <ele>1896.8000488281</ele>
        <time>2011-04-17T05:41:01.000Z</time>
      </trkpt>
      <trkpt lat="44.17403" lon="5.27839">
        <ele>1897</ele>
        <time>2011-04-17T05:41:03.000Z</time>
      </trkpt>
      <trkpt lat="44.17398" lon="5.27846">
        <ele>1896.1999511719</ele>
        <time>2011-04-17T05:41:08.000Z</time>
      </trkpt>
      <trkpt lat="44.17397" lon="5.27847">
        <ele>1896</ele>
        <time>2011-04-17T05:41:09.000Z</time>
      </trkpt>
      <trkpt lat="44.17395" lon="5.27852">
        <ele>1895.5999755859</ele>
        <time>2011-04-17T05:41:15.000Z</time>
      </trkpt>
      <trkpt lat="44.17396" lon="5.27852">
        <ele>1895.5999755859</ele>
        <time>2011-04-17T05:41:16.000Z</time>
      </trkpt>
      <trkpt lat="44.17402" lon="5.27847">
        <ele>1896.4000244141</ele>
        <time>2011-04-17T05:41:22.000Z</time>
      </trkpt>
      <trkpt lat="44.17402" lon="5.2784">
        <ele>1896.8000488281</ele>
        <time>2011-04-17T05:41:28.000Z</time>
      </trkpt>
      <trkpt lat="44.17401" lon="5.2784">
        <ele>1896.8000488281</ele>
        <time>2011-04-17T05:41:35.000Z</time>
      </trkpt>
      <trkpt lat="44.174" lon="5.27841">
        <ele>1896.5999755859</ele>
        <time>2011-04-17T05:41:44.000Z</time>
      </trkpt>
      <trkpt lat="44.174" lon="5.27841">
        <ele>1896.5999755859</ele>
        <time>2011-04-17T05:41:54.000Z</time>
      </trkpt>
      <trkpt lat="44.174" lon="5.2784">
        <ele>1896.5999755859</ele>
        <time>2011-04-17T05:42:02.000Z</time>
      </trkpt>
      <trkpt lat="44.174" lon="5.2784">
        <ele>1896.5999755859</ele>
        <time>2011-04-17T05:42:04.000Z</time>
      </trkpt>
      <trkpt lat="44.17402" lon="5.27842">
        <ele>1896.5999755859</ele>
        <time>2011-04-17T05:42:08.000Z</time>
      </trkpt>
      <trkpt lat="44.17402" lon="5.27841">
        <ele>1896.5999755859</ele>
        <time>2011-04-17T05:42:22.000Z</time>
      </trkpt>
      <trkpt lat="44.17403" lon="5.2784">
        <ele>1896.8000488281</ele>
        <time>2011-04-17T05:42:42.000Z</time>
      </trkpt>
      <trkpt lat="44.17404" lon="5.2784">
        <ele>1897</ele>
        <time>2011-04-17T05:42:52.000Z</time>
      </trkpt>
      <trkpt lat="44.17404" lon="5.27841">
        <ele>1896.8000488281</ele>
        <time>2011-04-17T05:43:05.000Z</time>
      </trkpt>
      <trkpt lat="44.17404" lon="5.27839">
        <ele>1897</ele>
        <time>2011-04-17T05:43:11.000Z</time>
      </trkpt>
      <trkpt lat="44.17404" lon="5.27836">
        <ele>1897.1999511719</ele>
        <time>2011-04-17T05:43:15.000Z</time>
      </trkpt>
      <trkpt lat="44.17403" lon="5.27833">
        <ele>1897.1999511719</ele>
        <time>2011-04-17T05:43:21.000Z</time>
      </trkpt>
      <trkpt lat="44.17402" lon="5.27829">
        <ele>1896.4000244141</ele>
        <time>2011-04-17T05:43:30.000Z</time>
      </trkpt>
      <trkpt lat="44.17403" lon="5.27822">
        <ele>1895</ele>
        <time>2011-04-17T05:43:38.000Z</time>
      </trkpt>
      <trkpt lat="44.17401" lon="5.27817">
        <ele>1894.1999511719</ele>
        <time>2011-04-17T05:43:43.000Z</time>
      </trkpt>
      <trkpt lat="44.174" lon="5.27815">
        <ele>1893.5999755859</ele>
        <time>2011-04-17T05:43:57.000Z</time>
      </trkpt>
      <trkpt lat="44.17399" lon="5.27815">
        <ele>1893.8000488281</ele>
        <time>2011-04-17T05:44:31.000Z</time>
      </trkpt>
      <trkpt lat="44.174" lon="5.27814">
        <ele>1893.5999755859</ele>
        <time>2011-04-17T05:44:39.000Z</time>
      </trkpt>
      <trkpt lat="44.17401" lon="5.27814">
        <ele>1893.5999755859</ele>
        <time>2011-04-17T05:44:45.000Z</time>
      </trkpt>
      <trkpt lat="44.174" lon="5.27814">
        <ele>1893.5999755859</ele>
        <time>2011-04-17T05:44:54.000Z</time>
      </trkpt>
      <trkpt lat="44.174" lon="5.27814">
        <ele>1893.4000244141</ele>
        <time>2011-04-17T05:45:05.000Z</time>
      </trkpt>
      <trkpt lat="44.17399" lon="5.27811">
        <ele>1893</ele>
        <time>2011-04-17T05:45:31.000Z</time>
      </trkpt>
      <trkpt lat="44.17398" lon="5.27805">
        <ele>1891.8000488281</ele>
        <time>2011-04-17T05:45:36.000Z</time>
      </trkpt>
      <trkpt lat="44.17393" lon="5.278">
        <ele>1891</ele>
        <time>2011-04-17T05:45:41.000Z</time>
      </trkpt>
      <trkpt lat="44.17392" lon="5.278">
        <ele>1891.1999511719</ele>
        <time>2011-04-17T05:45:42.000Z</time>
      </trkpt>
      <trkpt lat="44.17389" lon="5.27801">
        <ele>1891.1999511719</ele>
        <time>2011-04-17T05:45:44.000Z</time>
      </trkpt>
      <trkpt lat="44.17384" lon="5.27791">
        <ele>1889.8000488281</ele>
        <time>2011-04-17T05:45:49.000Z</time>
      </trkpt>
      <trkpt lat="44.17384" lon="5.27787">
        <ele>1889.1999511719</ele>
        <time>2011-04-17T05:45:51.000Z</time>
      </trkpt>
      <trkpt lat="44.17383" lon="5.27783">
        <ele>1888.5999755859</ele>
        <time>2011-04-17T05:45:53.000Z</time>
      </trkpt>
      <trkpt lat="44.17385" lon="5.27773">
        <ele>1886.8000488281</ele>
        <time>2011-04-17T05:45:58.000Z</time>
      </trkpt>
      <trkpt lat="44.1738" lon="5.27768">
        <ele>1886.4000244141</ele>
        <time>2011-04-17T05:46:03.000Z</time>
      </trkpt>
      <trkpt lat="44.17372" lon="5.27769">
        <ele>1887.1999511719</ele>
        <time>2011-04-17T05:46:09.000Z</time>
      </trkpt>
      <trkpt lat="44.1737" lon="5.27763">
        <ele>1886.5999755859</ele>
        <time>2011-04-17T05:46:14.000Z</time>
      </trkpt>
      <trkpt lat="44.17369" lon="5.27747">
        <ele>1884.1999511719</ele>
        <time>2011-04-17T05:46:20.000Z</time>
      </trkpt>
      <trkpt lat="44.17367" lon="5.27741">
        <ele>1882.5999755859</ele>
        <time>2011-04-17T05:46:23.000Z</time>
      </trkpt>
      <trkpt lat="44.17362" lon="5.27741">
        <ele>1883.1999511719</ele>
        <time>2011-04-17T05:46:27.000Z</time>
      </trkpt>
      <trkpt lat="44.17359" lon="5.27736">
        <ele>1882.4000244141</ele>
        <time>2011-04-17T05:46:32.000Z</time>
      </trkpt>
      <trkpt lat="44.17358" lon="5.27733">
        <ele>1881.8000488281</ele>
        <time>2011-04-17T05:46:37.000Z</time>
      </trkpt>
      <trkpt lat="44.17357" lon="5.2773">
        <ele>1880.8000488281</ele>
        <time>2011-04-17T05:46:41.000Z</time>
      </trkpt>
      <trkpt lat="44.17357" lon="5.27724">
        <ele>1879.4000244141</ele>
        <time>2011-04-17T05:46:46.000Z</time>
      </trkpt>
      <trkpt lat="44.17352" lon="5.27711">
        <ele>1877</ele>
        <time>2011-04-17T05:46:52.000Z</time>
      </trkpt>
      <trkpt lat="44.17348" lon="5.27696">
        <ele>1874</ele>
        <time>2011-04-17T05:46:57.000Z</time>
      </trkpt>
      <trkpt lat="44.17349" lon="5.27691">
        <ele>1872.5999755859</ele>
        <time>2011-04-17T05:47:01.000Z</time>
      </trkpt>
      <trkpt lat="44.17347" lon="5.27683">
        <ele>1871.1999511719</ele>
        <time>2011-04-17T05:47:06.000Z</time>
      </trkpt>
      <trkpt lat="44.17342" lon="5.2766">
        <ele>1867</ele>
        <time>2011-04-17T05:47:14.000Z</time>
      </trkpt>
      <trkpt lat="44.17342" lon="5.27654">
        <ele>1865.8000488281</ele>
        <time>2011-04-17T05:47:16.000Z</time>
      </trkpt>
      <trkpt lat="44.17338" lon="5.27635">
        <ele>1863</ele>
        <time>2011-04-17T05:47:22.000Z</time>
      </trkpt>
      <trkpt lat="44.17336" lon="5.27627">
        <ele>1861.8000488281</ele>
        <time>2011-04-17T05:47:25.000Z</time>
      </trkpt>
      <trkpt lat="44.17336" lon="5.27622">
        <ele>1861</ele>
        <time>2011-04-17T05:47:27.000Z</time>
      </trkpt>
      <trkpt lat="44.17334" lon="5.27616">
        <ele>1860.1999511719</ele>
        <time>2011-04-17T05:47:30.000Z</time>
      </trkpt>
      <trkpt lat="44.17331" lon="5.27606">
        <ele>1858</ele>
        <time>2011-04-17T05:47:35.000Z</time>
      </trkpt>
      <trkpt lat="44.17329" lon="5.27594">
        <ele>1855.4000244141</ele>
        <time>2011-04-17T05:47:40.000Z</time>
      </trkpt>
      <trkpt lat="44.17325" lon="5.2758">
        <ele>1852.1999511719</ele>
        <time>2011-04-17T05:47:46.000Z</time>
      </trkpt>
      <trkpt lat="44.17323" lon="5.27576">
        <ele>1851.4000244141</ele>
        <time>2011-04-17T05:47:50.000Z</time>
      </trkpt>
      <trkpt lat="44.17319" lon="5.27568">
        <ele>1850.1999511719</ele>
        <time>2011-04-17T05:47:55.000Z</time>
      </trkpt>
      <trkpt lat="44.1732" lon="5.27561">
        <ele>1849.4000244141</ele>
        <time>2011-04-17T05:47:58.000Z</time>
      </trkpt>
      <trkpt lat="44.17321" lon="5.27545">
        <ele>1847.8000488281</ele>
        <time>2011-04-17T05:48:06.000Z</time>
      </trkpt>
      <trkpt lat="44.17321" lon="5.27543">
        <ele>1847.5999755859</ele>
        <time>2011-04-17T05:48:07.000Z</time>
      </trkpt>
      <trkpt lat="44.1732" lon="5.27531">
        <ele>1846</ele>
        <time>2011-04-17T05:48:14.000Z</time>
      </trkpt>
      <trkpt lat="44.17319" lon="5.27527">
        <ele>1845.5999755859</ele>
        <time>2011-04-17T05:48:16.000Z</time>
      </trkpt>
      <trkpt lat="44.1732" lon="5.27514">
        <ele>1844.1999511719</ele>
        <time>2011-04-17T05:48:22.000Z</time>
      </trkpt>
      <trkpt lat="44.17322" lon="5.27506">
        <ele>1843.4000244141</ele>
        <time>2011-04-17T05:48:28.000Z</time>
      </trkpt>
      <trkpt lat="44.17322" lon="5.27505">
        <ele>1843.1999511719</ele>
        <time>2011-04-17T05:48:29.000Z</time>
      </trkpt>
      <trkpt lat="44.17325" lon="5.27501">
        <ele>1842.8000488281</ele>
        <time>2011-04-17T05:48:35.000Z</time>
      </trkpt>
      <trkpt lat="44.17327" lon="5.27496">
        <ele>1842.4000244141</ele>
        <time>2011-04-17T05:48:39.000Z</time>
      </trkpt>
      <trkpt lat="44.17327" lon="5.27483">
        <ele>1841.8000488281</ele>
        <time>2011-04-17T05:48:43.000Z</time>
      </trkpt>
      <trkpt lat="44.17324" lon="5.27461">
        <ele>1840.4000244141</ele>
        <time>2011-04-17T05:48:49.000Z</time>
      </trkpt>
      <trkpt lat="44.17325" lon="5.27453">
        <ele>1839.8000488281</ele>
        <time>2011-04-17T05:48:52.000Z</time>
      </trkpt>
      <trkpt lat="44.17326" lon="5.27445">
        <ele>1839.4000244141</ele>
        <time>2011-04-17T05:48:56.000Z</time>
      </trkpt>
      <trkpt lat="44.17328" lon="5.27439">
        <ele>1839.1999511719</ele>
        <time>2011-04-17T05:48:59.000Z</time>
      </trkpt>
      <trkpt lat="44.1733" lon="5.27429">
        <ele>1838.5999755859</ele>
        <time>2011-04-17T05:49:05.000Z</time>
      </trkpt>
      <trkpt lat="44.1733" lon="5.27425">
        <ele>1838.4000244141</ele>
        <time>2011-04-17T05:49:07.000Z</time>
      </trkpt>
      <trkpt lat="44.1733" lon="5.27422">
        <ele>1838.1999511719</ele>
        <time>2011-04-17T05:49:09.000Z</time>
      </trkpt>
      <trkpt lat="44.17331" lon="5.2741">
        <ele>1837.5999755859</ele>
        <time>2011-04-17T05:49:15.000Z</time>
      </trkpt>
      <trkpt lat="44.17332" lon="5.27402">
        <ele>1837.1999511719</ele>
        <time>2011-04-17T05:49:18.000Z</time>
      </trkpt>
      <trkpt lat="44.17331" lon="5.27385">
        <ele>1836.4000244141</ele>
        <time>2011-04-17T05:49:24.000Z</time>
      </trkpt>
      <trkpt lat="44.1733" lon="5.27372">
        <ele>1835.5999755859</ele>
        <time>2011-04-17T05:49:31.000Z</time>
      </trkpt>
      <trkpt lat="44.17331" lon="5.27364">
        <ele>1835.1999511719</ele>
        <time>2011-04-17T05:49:36.000Z</time>
      </trkpt>
      <trkpt lat="44.17332" lon="5.27357">
        <ele>1835</ele>
        <time>2011-04-17T05:49:39.000Z</time>
      </trkpt>
      <trkpt lat="44.17332" lon="5.27343">
        <ele>1834.4000244141</ele>
        <time>2011-04-17T05:49:44.000Z</time>
      </trkpt>
      <trkpt lat="44.17335" lon="5.27334">
        <ele>1833.4000244141</ele>
        <time>2011-04-17T05:49:49.000Z</time>
      </trkpt>
      <trkpt lat="44.17333" lon="5.27324">
        <ele>1832.8000488281</ele>
        <time>2011-04-17T05:49:53.000Z</time>
      </trkpt>
      <trkpt lat="44.17334" lon="5.27309">
        <ele>1830.8000488281</ele>
        <time>2011-04-17T05:49:58.000Z</time>
      </trkpt>
      <trkpt lat="44.17338" lon="5.27292">
        <ele>1828</ele>
        <time>2011-04-17T05:50:03.000Z</time>
      </trkpt>
      <trkpt lat="44.1734" lon="5.27275">
        <ele>1825.8000488281</ele>
        <time>2011-04-17T05:50:08.000Z</time>
      </trkpt>
      <trkpt lat="44.17341" lon="5.27269">
        <ele>1825</ele>
        <time>2011-04-17T05:50:11.000Z</time>
      </trkpt>
      <trkpt lat="44.17342" lon="5.27266">
        <ele>1824.5999755859</ele>
        <time>2011-04-17T05:50:21.000Z</time>
      </trkpt>
      <trkpt lat="44.17341" lon="5.27265">
        <ele>1824.5999755859</ele>
        <time>2011-04-17T05:50:28.000Z</time>
      </trkpt>
      <trkpt lat="44.17344" lon="5.27261">
        <ele>1823.8000488281</ele>
        <time>2011-04-17T05:50:32.000Z</time>
      </trkpt>
      <trkpt lat="44.17346" lon="5.27258">
        <ele>1823.1999511719</ele>
        <time>2011-04-17T05:50:37.000Z</time>
      </trkpt>
      <trkpt lat="44.1735" lon="5.27253">
        <ele>1822.4000244141</ele>
        <time>2011-04-17T05:50:41.000Z</time>
      </trkpt>
      <trkpt lat="44.17361" lon="5.27244">
        <ele>1820.4000244141</ele>
        <time>2011-04-17T05:50:46.000Z</time>
      </trkpt>
      <trkpt lat="44.17375" lon="5.27244">
        <ele>1819</ele>
        <time>2011-04-17T05:50:51.000Z</time>
      </trkpt>
      <trkpt lat="44.17386" lon="5.27246">
        <ele>1818</ele>
        <time>2011-04-17T05:50:55.000Z</time>
      </trkpt>
      <trkpt lat="44.17388" lon="5.27247">
        <ele>1817.8000488281</ele>
        <time>2011-04-17T05:50:56.000Z</time>
      </trkpt>
      <trkpt lat="44.17393" lon="5.27247">
        <ele>1817.4000244141</ele>
        <time>2011-04-17T05:50:58.000Z</time>
      </trkpt>
      <trkpt lat="44.17405" lon="5.27231">
        <ele>1815.8000488281</ele>
        <time>2011-04-17T05:51:05.000Z</time>
      </trkpt>
      <trkpt lat="44.17412" lon="5.27217">
        <ele>1815.1999511719</ele>
        <time>2011-04-17T05:51:09.000Z</time>
      </trkpt>
      <trkpt lat="44.17418" lon="5.272">
        <ele>1814.5999755859</ele>
        <time>2011-04-17T05:51:14.000Z</time>
      </trkpt>
      <trkpt lat="44.17424" lon="5.27188">
        <ele>1813.1999511719</ele>
        <time>2011-04-17T05:51:18.000Z</time>
      </trkpt>
      <trkpt lat="44.1743" lon="5.27169">
        <ele>1811.8000488281</ele>
        <time>2011-04-17T05:51:24.000Z</time>
      </trkpt>
      <trkpt lat="44.17432" lon="5.2716">
        <ele>1811.1999511719</ele>
        <time>2011-04-17T05:51:27.000Z</time>
      </trkpt>
      <trkpt lat="44.17432" lon="5.27155">
        <ele>1811.1999511719</ele>
        <time>2011-04-17T05:51:33.000Z</time>
      </trkpt>
      <trkpt lat="44.17432" lon="5.27153">
        <ele>1811.1999511719</ele>
        <time>2011-04-17T05:51:34.000Z</time>
      </trkpt>
      <trkpt lat="44.17432" lon="5.27141">
        <ele>1811.1999511719</ele>
        <time>2011-04-17T05:51:40.000Z</time>
      </trkpt>
      <trkpt lat="44.17431" lon="5.27132">
        <ele>1811.1999511719</ele>
        <time>2011-04-17T05:51:44.000Z</time>
      </trkpt>
      <trkpt lat="44.17431" lon="5.27116">
        <ele>1811</ele>
        <time>2011-04-17T05:51:53.000Z</time>
      </trkpt>
      <trkpt lat="44.17432" lon="5.27106">
        <ele>1810.5999755859</ele>
        <time>2011-04-17T05:51:58.000Z</time>
      </trkpt>
      <trkpt lat="44.17434" lon="5.27095">
        <ele>1810</ele>
        <time>2011-04-17T05:52:04.000Z</time>
      </trkpt>
      <trkpt lat="44.17434" lon="5.27093">
        <ele>1809.8000488281</ele>
        <time>2011-04-17T05:52:05.000Z</time>
      </trkpt>
      <trkpt lat="44.17435" lon="5.2708">
        <ele>1809.5999755859</ele>
        <time>2011-04-17T05:52:13.000Z</time>
      </trkpt>
      <trkpt lat="44.17437" lon="5.27076">
        <ele>1809</ele>
        <time>2011-04-17T05:52:16.000Z</time>
      </trkpt>
      <trkpt lat="44.17437" lon="5.27073">
        <ele>1809</ele>
        <time>2011-04-17T05:52:19.000Z</time>
      </trkpt>
      <trkpt lat="44.17438" lon="5.2707">
        <ele>1808.8000488281</ele>
        <time>2011-04-17T05:52:26.000Z</time>
      </trkpt>
      <trkpt lat="44.17438" lon="5.27068">
        <ele>1808.5999755859</ele>
        <time>2011-04-17T05:52:34.000Z</time>
      </trkpt>
      <trkpt lat="44.1744" lon="5.27066">
        <ele>1808.1999511719</ele>
        <time>2011-04-17T05:52:42.000Z</time>
      </trkpt>
      <trkpt lat="44.17443" lon="5.2706">
        <ele>1807.4000244141</ele>
        <time>2011-04-17T05:52:47.000Z</time>
      </trkpt>
      <trkpt lat="44.17447" lon="5.27053">
        <ele>1806.4000244141</ele>
        <time>2011-04-17T05:52:54.000Z</time>
      </trkpt>
      <trkpt lat="44.17449" lon="5.27052">
        <ele>1806</ele>
        <time>2011-04-17T05:52:56.000Z</time>
      </trkpt>
      <trkpt lat="44.17453" lon="5.27046">
        <ele>1804.8000488281</ele>
        <time>2011-04-17T05:53:02.000Z</time>
      </trkpt>
      <trkpt lat="44.17456" lon="5.27042">
        <ele>1804.1999511719</ele>
        <time>2011-04-17T05:53:05.000Z</time>
      </trkpt>
      <trkpt lat="44.1746" lon="5.27042">
        <ele>1803.1999511719</ele>
        <time>2011-04-17T05:53:09.000Z</time>
      </trkpt>
      <trkpt lat="44.17466" lon="5.2705">
        <ele>1801.8000488281</ele>
        <time>2011-04-17T05:53:16.000Z</time>
      </trkpt>
      <trkpt lat="44.17471" lon="5.27059">
        <ele>1800.8000488281</ele>
        <time>2011-04-17T05:53:21.000Z</time>
      </trkpt>
      <trkpt lat="44.17471" lon="5.27061">
        <ele>1800.8000488281</ele>
        <time>2011-04-17T05:53:22.000Z</time>
      </trkpt>
      <trkpt lat="44.17475" lon="5.27065">
        <ele>1799.8000488281</ele>
        <time>2011-04-17T05:53:26.000Z</time>
      </trkpt>
      <trkpt lat="44.17482" lon="5.27064">
        <ele>1798</ele>
        <time>2011-04-17T05:53:32.000Z</time>
      </trkpt>
      <trkpt lat="44.17489" lon="5.27061">
        <ele>1796.4000244141</ele>
        <time>2011-04-17T05:53:38.000Z</time>
      </trkpt>
      <trkpt lat="44.17499" lon="5.2706">
        <ele>1794.1999511719</ele>
        <time>2011-04-17T05:53:45.000Z</time>
      </trkpt>
      <trkpt lat="44.17501" lon="5.27061">
        <ele>1793.5999755859</ele>
        <time>2011-04-17T05:53:47.000Z</time>
      </trkpt>
      <trkpt lat="44.17511" lon="5.27057">
        <ele>1789.1999511719</ele>
        <time>2011-04-17T05:53:53.000Z</time>
      </trkpt>
      <trkpt lat="44.17513" lon="5.27057">
        <ele>1788.1999511719</ele>
        <time>2011-04-17T05:53:54.000Z</time>
      </trkpt>
      <trkpt lat="44.17523" lon="5.27054">
        <ele>1783.4000244141</ele>
        <time>2011-04-17T05:54:00.000Z</time>
      </trkpt>
      <trkpt lat="44.1753" lon="5.27052">
        <ele>1780.1999511719</ele>
        <time>2011-04-17T05:54:05.000Z</time>
      </trkpt>
      <trkpt lat="44.17535" lon="5.27047">
        <ele>1778.1999511719</ele>
        <time>2011-04-17T05:54:09.000Z</time>
      </trkpt>
      <trkpt lat="44.17536" lon="5.27046">
        <ele>1777.5999755859</ele>
        <time>2011-04-17T05:54:16.000Z</time>
      </trkpt>
      <trkpt lat="44.17536" lon="5.27045">
        <ele>1777.5999755859</ele>
        <time>2011-04-17T05:54:27.000Z</time>
      </trkpt>
      <trkpt lat="44.17537" lon="5.27042">
        <ele>1777.1999511719</ele>
        <time>2011-04-17T05:54:39.000Z</time>
      </trkpt>
      <trkpt lat="44.17538" lon="5.27041">
        <ele>1777</ele>
        <time>2011-04-17T05:54:50.000Z</time>
      </trkpt>
      <trkpt lat="44.1754" lon="5.27044">
        <ele>1775.5999755859</ele>
        <time>2011-04-17T05:54:55.000Z</time>
      </trkpt>
      <trkpt lat="44.17545" lon="5.27045">
        <ele>1773.8000488281</ele>
        <time>2011-04-17T05:55:01.000Z</time>
      </trkpt>
      <trkpt lat="44.17547" lon="5.27044">
        <ele>1772.8000488281</ele>
        <time>2011-04-17T05:55:08.000Z</time>
      </trkpt>
      <trkpt lat="44.17547" lon="5.27043">
        <ele>1772.5999755859</ele>
        <time>2011-04-17T05:55:16.000Z</time>
      </trkpt>
      <trkpt lat="44.17551" lon="5.27043">
        <ele>1771</ele>
        <time>2011-04-17T05:55:19.000Z</time>
      </trkpt>
      <trkpt lat="44.1756" lon="5.27041">
        <ele>1767</ele>
        <time>2011-04-17T05:55:25.000Z</time>
      </trkpt>
      <trkpt lat="44.17566" lon="5.2704">
        <ele>1764.4000244141</ele>
        <time>2011-04-17T05:55:30.000Z</time>
      </trkpt>
      <trkpt lat="44.17573" lon="5.27037">
        <ele>1761</ele>
        <time>2011-04-17T05:55:36.000Z</time>
      </trkpt>
      <trkpt lat="44.17578" lon="5.27031">
        <ele>1759</ele>
        <time>2011-04-17T05:55:40.000Z</time>
      </trkpt>
      <trkpt lat="44.17579" lon="5.27027">
        <ele>1758.4000244141</ele>
        <time>2011-04-17T05:55:43.000Z</time>
      </trkpt>
      <trkpt lat="44.17579" lon="5.27027">
        <ele>1758.1999511719</ele>
        <time>2011-04-17T05:55:55.000Z</time>
      </trkpt>
      <trkpt lat="44.17581" lon="5.27022">
        <ele>1757.8000488281</ele>
        <time>2011-04-17T05:56:02.000Z</time>
      </trkpt>
      <trkpt lat="44.17581" lon="5.27021">
        <ele>1757.8000488281</ele>
        <time>2011-04-17T05:56:03.000Z</time>
      </trkpt>
      <trkpt lat="44.17584" lon="5.27013">
        <ele>1756.1999511719</ele>
        <time>2011-04-17T05:56:07.000Z</time>
      </trkpt>
      <trkpt lat="44.17589" lon="5.27006">
        <ele>1754.1999511719</ele>
        <time>2011-04-17T05:56:10.000Z</time>
      </trkpt>
      <trkpt lat="44.17595" lon="5.27">
        <ele>1751.1999511719</ele>
        <time>2011-04-17T05:56:14.000Z</time>
      </trkpt>
      <trkpt lat="44.17599" lon="5.26991">
        <ele>1748.8000488281</ele>
        <time>2011-04-17T05:56:18.000Z</time>
      </trkpt>
      <trkpt lat="44.17604" lon="5.26983">
        <ele>1746.1999511719</ele>
        <time>2011-04-17T05:56:22.000Z</time>
      </trkpt>
      <trkpt lat="44.17606" lon="5.26976">
        <ele>1744.8000488281</ele>
        <time>2011-04-17T05:56:26.000Z</time>
      </trkpt>
      <trkpt lat="44.17612" lon="5.26967">
        <ele>1742.1999511719</ele>
        <time>2011-04-17T05:56:32.000Z</time>
      </trkpt>
      <trkpt lat="44.17612" lon="5.26962">
        <ele>1741.5999755859</ele>
        <time>2011-04-17T05:56:34.000Z</time>
      </trkpt>
      <trkpt lat="44.17616" lon="5.26944">
        <ele>1739.5999755859</ele>
        <time>2011-04-17T05:56:40.000Z</time>
      </trkpt>
      <trkpt lat="44.17617" lon="5.26935">
        <ele>1738.4000244141</ele>
        <time>2011-04-17T05:56:43.000Z</time>
      </trkpt>
      <trkpt lat="44.1762" lon="5.26928">
        <ele>1737.1999511719</ele>
        <time>2011-04-17T05:56:47.000Z</time>
      </trkpt>
      <trkpt lat="44.17624" lon="5.26915">
        <ele>1734.5999755859</ele>
        <time>2011-04-17T05:56:53.000Z</time>
      </trkpt>
      <trkpt lat="44.17626" lon="5.26911">
        <ele>1733.4000244141</ele>
        <time>2011-04-17T05:56:55.000Z</time>
      </trkpt>
      <trkpt lat="44.17627" lon="5.26905">
        <ele>1733</ele>
        <time>2011-04-17T05:56:58.000Z</time>
      </trkpt>
      <trkpt lat="44.1763" lon="5.26889">
        <ele>1730.5999755859</ele>
        <time>2011-04-17T05:57:04.000Z</time>
      </trkpt>
      <trkpt lat="44.17633" lon="5.2688">
        <ele>1728.1999511719</ele>
        <time>2011-04-17T05:57:08.000Z</time>
      </trkpt>
      <trkpt lat="44.17636" lon="5.26868">
        <ele>1726</ele>
        <time>2011-04-17T05:57:13.000Z</time>
      </trkpt>
      <trkpt lat="44.17637" lon="5.26866">
        <ele>1725.4000244141</ele>
        <time>2011-04-17T05:57:15.000Z</time>
      </trkpt>
      <trkpt lat="44.17641" lon="5.26858">
        <ele>1723.1999511719</ele>
        <time>2011-04-17T05:57:21.000Z</time>
      </trkpt>
      <trkpt lat="44.17646" lon="5.2684">
        <ele>1719.1999511719</ele>
        <time>2011-04-17T05:57:27.000Z</time>
      </trkpt>
      <trkpt lat="44.17652" lon="5.26821">
        <ele>1715</ele>
        <time>2011-04-17T05:57:33.000Z</time>
      </trkpt>
      <trkpt lat="44.17653" lon="5.26818">
        <ele>1714.4000244141</ele>
        <time>2011-04-17T05:57:34.000Z</time>
      </trkpt>
      <trkpt lat="44.17656" lon="5.26806">
        <ele>1712</ele>
        <time>2011-04-17T05:57:39.000Z</time>
      </trkpt>
      <trkpt lat="44.17659" lon="5.26795">
        <ele>1709.4000244141</ele>
        <time>2011-04-17T05:57:43.000Z</time>
      </trkpt>
      <trkpt lat="44.17662" lon="5.26784">
        <ele>1706.8000488281</ele>
        <time>2011-04-17T05:57:47.000Z</time>
      </trkpt>
      <trkpt lat="44.17663" lon="5.26781">
        <ele>1706</ele>
        <time>2011-04-17T05:57:48.000Z</time>
      </trkpt>
      <trkpt lat="44.1767" lon="5.26759">
        <ele>1701.1999511719</ele>
        <time>2011-04-17T05:57:55.000Z</time>
      </trkpt>
      <trkpt lat="44.17675" lon="5.26743">
        <ele>1697.8000488281</ele>
        <time>2011-04-17T05:58:00.000Z</time>
      </trkpt>
      <trkpt lat="44.1768" lon="5.26733">
        <ele>1694.8000488281</ele>
        <time>2011-04-17T05:58:05.000Z</time>
      </trkpt>
      <trkpt lat="44.17686" lon="5.2672">
        <ele>1691.1999511719</ele>
        <time>2011-04-17T05:58:10.000Z</time>
      </trkpt>
      <trkpt lat="44.1769" lon="5.26706">
        <ele>1688.5999755859</ele>
        <time>2011-04-17T05:58:15.000Z</time>
      </trkpt>
      <trkpt lat="44.17695" lon="5.26697">
        <ele>1685.4000244141</ele>
        <time>2011-04-17T05:58:20.000Z</time>
      </trkpt>
      <trkpt lat="44.177" lon="5.26684">
        <ele>1682.1999511719</ele>
        <time>2011-04-17T05:58:26.000Z</time>
      </trkpt>
      <trkpt lat="44.17704" lon="5.26674">
        <ele>1679.4000244141</ele>
        <time>2011-04-17T05:58:31.000Z</time>
      </trkpt>
      <trkpt lat="44.17703" lon="5.26666">
        <ele>1679.4000244141</ele>
        <time>2011-04-17T05:58:36.000Z</time>
      </trkpt>
      <trkpt lat="44.17703" lon="5.26665">
        <ele>1679</ele>
        <time>2011-04-17T05:58:37.000Z</time>
      </trkpt>
      <trkpt lat="44.17705" lon="5.26659">
        <ele>1677.5999755859</ele>
        <time>2011-04-17T05:58:41.000Z</time>
      </trkpt>
      <trkpt lat="44.17707" lon="5.26655">
        <ele>1676.4000244141</ele>
        <time>2011-04-17T05:58:46.000Z</time>
      </trkpt>
      <trkpt lat="44.17708" lon="5.26654">
        <ele>1675.8000488281</ele>
        <time>2011-04-17T05:58:53.000Z</time>
      </trkpt>
      <trkpt lat="44.17709" lon="5.2665">
        <ele>1675.1999511719</ele>
        <time>2011-04-17T05:59:05.000Z</time>
      </trkpt>
      <trkpt lat="44.17712" lon="5.26639">
        <ele>1672.8000488281</ele>
        <time>2011-04-17T05:59:11.000Z</time>
      </trkpt>
      <trkpt lat="44.17714" lon="5.26632">
        <ele>1671.4000244141</ele>
        <time>2011-04-17T05:59:17.000Z</time>
      </trkpt>
      <trkpt lat="44.17715" lon="5.26627">
        <ele>1670.8000488281</ele>
        <time>2011-04-17T05:59:20.000Z</time>
      </trkpt>
      <trkpt lat="44.17716" lon="5.26615">
        <ele>1669.1999511719</ele>
        <time>2011-04-17T05:59:26.000Z</time>
      </trkpt>
      <trkpt lat="44.17718" lon="5.26611">
        <ele>1668.1999511719</ele>
        <time>2011-04-17T05:59:28.000Z</time>
      </trkpt>
      <trkpt lat="44.17723" lon="5.26602">
        <ele>1664.5999755859</ele>
        <time>2011-04-17T05:59:33.000Z</time>
      </trkpt>
      <trkpt lat="44.17725" lon="5.26594">
        <ele>1662.8000488281</ele>
        <time>2011-04-17T05:59:36.000Z</time>
      </trkpt>
      <trkpt lat="44.1773" lon="5.2658">
        <ele>1659</ele>
        <time>2011-04-17T05:59:41.000Z</time>
      </trkpt>
      <trkpt lat="44.17737" lon="5.26562">
        <ele>1655.5999755859</ele>
        <time>2011-04-17T05:59:49.000Z</time>
      </trkpt>
      <trkpt lat="44.17743" lon="5.2655">
        <ele>1652.4000244141</ele>
        <time>2011-04-17T05:59:54.000Z</time>
      </trkpt>
      <trkpt lat="44.17746" lon="5.26542">
        <ele>1650.5999755859</ele>
        <time>2011-04-17T05:59:57.000Z</time>
      </trkpt>
      <trkpt lat="44.17751" lon="5.26534">
        <ele>1648.4000244141</ele>
        <time>2011-04-17T06:00:02.000Z</time>
      </trkpt>
      <trkpt lat="44.17752" lon="5.26531">
        <ele>1648</ele>
        <time>2011-04-17T06:00:03.000Z</time>
      </trkpt>
      <trkpt lat="44.17757" lon="5.26516">
        <ele>1645.5999755859</ele>
        <time>2011-04-17T06:00:09.000Z</time>
      </trkpt>
      <trkpt lat="44.17761" lon="5.26502">
        <ele>1643.5999755859</ele>
        <time>2011-04-17T06:00:15.000Z</time>
      </trkpt>
      <trkpt lat="44.17765" lon="5.26492">
        <ele>1641.5999755859</ele>
        <time>2011-04-17T06:00:20.000Z</time>
      </trkpt>
      <trkpt lat="44.17767" lon="5.26488">
        <ele>1640.5999755859</ele>
        <time>2011-04-17T06:00:22.000Z</time>
      </trkpt>
      <trkpt lat="44.17771" lon="5.26477">
        <ele>1638.1999511719</ele>
        <time>2011-04-17T06:00:28.000Z</time>
      </trkpt>
      <trkpt lat="44.17772" lon="5.26475">
        <ele>1637.8000488281</ele>
        <time>2011-04-17T06:00:29.000Z</time>
      </trkpt>
      <trkpt lat="44.17774" lon="5.2647">
        <ele>1636.4000244141</ele>
        <time>2011-04-17T06:00:32.000Z</time>
      </trkpt>
      <trkpt lat="44.17776" lon="5.26462">
        <ele>1635</ele>
        <time>2011-04-17T06:00:36.000Z</time>
      </trkpt>
      <trkpt lat="44.17781" lon="5.26456">
        <ele>1632.5999755859</ele>
        <time>2011-04-17T06:00:42.000Z</time>
      </trkpt>
      <trkpt lat="44.17783" lon="5.26452">
        <ele>1631.4000244141</ele>
        <time>2011-04-17T06:00:44.000Z</time>
      </trkpt>
      <trkpt lat="44.17785" lon="5.26449">
        <ele>1630.1999511719</ele>
        <time>2011-04-17T06:00:55.000Z</time>
      </trkpt>
      <trkpt lat="44.17785" lon="5.26449">
        <ele>1629.8000488281</ele>
        <time>2011-04-17T06:01:17.000Z</time>
      </trkpt>
      <trkpt lat="44.17788" lon="5.26448">
        <ele>1628.4000244141</ele>
        <time>2011-04-17T06:01:35.000Z</time>
      </trkpt>
      <trkpt lat="44.17792" lon="5.26434">
        <ele>1626</ele>
        <time>2011-04-17T06:01:40.000Z</time>
      </trkpt>
      <trkpt lat="44.17797" lon="5.26411">
        <ele>1622.4000244141</ele>
        <time>2011-04-17T06:01:48.000Z</time>
      </trkpt>
      <trkpt lat="44.178" lon="5.26401">
        <ele>1619.8000488281</ele>
        <time>2011-04-17T06:01:53.000Z</time>
      </trkpt>
      <trkpt lat="44.17803" lon="5.26397">
        <ele>1618</ele>
        <time>2011-04-17T06:01:57.000Z</time>
      </trkpt>
      <trkpt lat="44.17804" lon="5.26398">
        <ele>1617.1999511719</ele>
        <time>2011-04-17T06:02:04.000Z</time>
      </trkpt>
      <trkpt lat="44.17807" lon="5.26402">
        <ele>1616.1999511719</ele>
        <time>2011-04-17T06:02:10.000Z</time>
      </trkpt>
      <trkpt lat="44.17807" lon="5.26402">
        <ele>1615.8000488281</ele>
        <time>2011-04-17T06:02:16.000Z</time>
      </trkpt>
      <trkpt lat="44.17806" lon="5.26402">
        <ele>1616.8000488281</ele>
        <time>2011-04-17T06:02:21.000Z</time>
      </trkpt>
      <trkpt lat="44.17803" lon="5.26397">
        <ele>1617.8000488281</ele>
        <time>2011-04-17T06:02:27.000Z</time>
      </trkpt>
      <trkpt lat="44.17802" lon="5.26396">
        <ele>1618</ele>
        <time>2011-04-17T06:02:33.000Z</time>
      </trkpt>
      <trkpt lat="44.17802" lon="5.26396">
        <ele>1618.4000244141</ele>
        <time>2011-04-17T06:02:42.000Z</time>
      </trkpt>
      <trkpt lat="44.17801" lon="5.26391">
        <ele>1618.1999511719</ele>
        <time>2011-04-17T06:03:03.000Z</time>
      </trkpt>
      <trkpt lat="44.17802" lon="5.26376">
        <ele>1616.1999511719</ele>
        <time>2011-04-17T06:03:09.000Z</time>
      </trkpt>
      <trkpt lat="44.17804" lon="5.26363">
        <ele>1614</ele>
        <time>2011-04-17T06:03:13.000Z</time>
      </trkpt>
      <trkpt lat="44.17804" lon="5.2634">
        <ele>1611.8000488281</ele>
        <time>2011-04-17T06:03:19.000Z</time>
      </trkpt>
      <trkpt lat="44.17804" lon="5.26323">
        <ele>1610.4000244141</ele>
        <time>2011-04-17T06:03:24.000Z</time>
      </trkpt>
      <trkpt lat="44.17806" lon="5.26304">
        <ele>1607.5999755859</ele>
        <time>2011-04-17T06:03:29.000Z</time>
      </trkpt>
      <trkpt lat="44.17808" lon="5.2629">
        <ele>1605</ele>
        <time>2011-04-17T06:03:33.000Z</time>
      </trkpt>
      <trkpt lat="44.1781" lon="5.26269">
        <ele>1601.5999755859</ele>
        <time>2011-04-17T06:03:39.000Z</time>
      </trkpt>
      <trkpt lat="44.1781" lon="5.26262">
        <ele>1600.8000488281</ele>
        <time>2011-04-17T06:03:41.000Z</time>
      </trkpt>
      <trkpt lat="44.17812" lon="5.2624">
        <ele>1597.5999755859</ele>
        <time>2011-04-17T06:03:47.000Z</time>
      </trkpt>
      <trkpt lat="44.17812" lon="5.26236">
        <ele>1597.1999511719</ele>
        <time>2011-04-17T06:03:48.000Z</time>
      </trkpt>
      <trkpt lat="44.17816" lon="5.26212">
        <ele>1593</ele>
        <time>2011-04-17T06:03:55.000Z</time>
      </trkpt>
      <trkpt lat="44.17819" lon="5.26195">
        <ele>1590.1999511719</ele>
        <time>2011-04-17T06:04:00.000Z</time>
      </trkpt>
      <trkpt lat="44.17824" lon="5.26177">
        <ele>1585.1999511719</ele>
        <time>2011-04-17T06:04:04.000Z</time>
      </trkpt>
      <trkpt lat="44.17827" lon="5.26171">
        <ele>1583</ele>
        <time>2011-04-17T06:04:06.000Z</time>
      </trkpt>
      <trkpt lat="44.17832" lon="5.26149">
        <ele>1579.1999511719</ele>
        <time>2011-04-17T06:04:13.000Z</time>
      </trkpt>
      <trkpt lat="44.17835" lon="5.26137">
        <ele>1577.1999511719</ele>
        <time>2011-04-17T06:04:18.000Z</time>
      </trkpt>
      <trkpt lat="44.17836" lon="5.26133">
        <ele>1576.8000488281</ele>
        <time>2011-04-17T06:04:20.000Z</time>
      </trkpt>
      <trkpt lat="44.1784" lon="5.26123">
        <ele>1574.5999755859</ele>
        <time>2011-04-17T06:04:25.000Z</time>
      </trkpt>
      <trkpt lat="44.17841" lon="5.26122">
        <ele>1574</ele>
        <time>2011-04-17T06:04:26.000Z</time>
      </trkpt>
      <trkpt lat="44.17842" lon="5.26117">
        <ele>1573.1999511719</ele>
        <time>2011-04-17T06:04:32.000Z</time>
      </trkpt>
      <trkpt lat="44.17842" lon="5.26116">
        <ele>1573.1999511719</ele>
        <time>2011-04-17T06:04:33.000Z</time>
      </trkpt>
      <trkpt lat="44.17846" lon="5.26109">
        <ele>1570.8000488281</ele>
        <time>2011-04-17T06:04:39.000Z</time>
      </trkpt>
      <trkpt lat="44.17849" lon="5.26107">
        <ele>1569</ele>
        <time>2011-04-17T06:04:42.000Z</time>
      </trkpt>
      <trkpt lat="44.17852" lon="5.26104">
        <ele>1567.5999755859</ele>
        <time>2011-04-17T06:04:49.000Z</time>
      </trkpt>
      <trkpt lat="44.17852" lon="5.26107">
        <ele>1567.4000244141</ele>
        <time>2011-04-17T06:05:09.000Z</time>
      </trkpt>
      <trkpt lat="44.17857" lon="5.26112">
        <ele>1565.4000244141</ele>
        <time>2011-04-17T06:05:12.000Z</time>
      </trkpt>
      <trkpt lat="44.17861" lon="5.26126">
        <ele>1563.4000244141</ele>
        <time>2011-04-17T06:05:19.000Z</time>
      </trkpt>
      <trkpt lat="44.17865" lon="5.26138">
        <ele>1562</ele>
        <time>2011-04-17T06:05:24.000Z</time>
      </trkpt>
      <trkpt lat="44.17868" lon="5.2615">
        <ele>1560.5999755859</ele>
        <time>2011-04-17T06:05:29.000Z</time>
      </trkpt>
      <trkpt lat="44.17873" lon="5.26159">
        <ele>1558.4000244141</ele>
        <time>2011-04-17T06:05:34.000Z</time>
      </trkpt>
      <trkpt lat="44.17877" lon="5.26168">
        <ele>1556.4000244141</ele>
        <time>2011-04-17T06:05:38.000Z</time>
      </trkpt>
      <trkpt lat="44.17881" lon="5.26177">
        <ele>1555</ele>
        <time>2011-04-17T06:05:42.000Z</time>
      </trkpt>
      <trkpt lat="44.17885" lon="5.26188">
        <ele>1553.5999755859</ele>
        <time>2011-04-17T06:05:46.000Z</time>
      </trkpt>
      <trkpt lat="44.17893" lon="5.26205">
        <ele>1550.8000488281</ele>
        <time>2011-04-17T06:05:52.000Z</time>
      </trkpt>
      <trkpt lat="44.179" lon="5.26219">
        <ele>1548</ele>
        <time>2011-04-17T06:05:57.000Z</time>
      </trkpt>
      <trkpt lat="44.17907" lon="5.26234">
        <ele>1545.1999511719</ele>
        <time>2011-04-17T06:06:02.000Z</time>
      </trkpt>
      <trkpt lat="44.17915" lon="5.26252">
        <ele>1542</ele>
        <time>2011-04-17T06:06:08.000Z</time>
      </trkpt>
      <trkpt lat="44.1792" lon="5.26264">
        <ele>1539.8000488281</ele>
        <time>2011-04-17T06:06:12.000Z</time>
      </trkpt>
      <trkpt lat="44.17928" lon="5.26281">
        <ele>1536.8000488281</ele>
        <time>2011-04-17T06:06:18.000Z</time>
      </trkpt>
      <trkpt lat="44.17933" lon="5.26293">
        <ele>1534.4000244141</ele>
        <time>2011-04-17T06:06:22.000Z</time>
      </trkpt>
      <trkpt lat="44.17937" lon="5.26306">
        <ele>1533</ele>
        <time>2011-04-17T06:06:26.000Z</time>
      </trkpt>
      <trkpt lat="44.17945" lon="5.26322">
        <ele>1529.4000244141</ele>
        <time>2011-04-17T06:06:33.000Z</time>
      </trkpt>
      <trkpt lat="44.17947" lon="5.26326">
        <ele>1528.4000244141</ele>
        <time>2011-04-17T06:06:40.000Z</time>
      </trkpt>
      <trkpt lat="44.17947" lon="5.26328">
        <ele>1528.1999511719</ele>
        <time>2011-04-17T06:06:41.000Z</time>
      </trkpt>
      <trkpt lat="44.17955" lon="5.26345">
        <ele>1524.5999755859</ele>
        <time>2011-04-17T06:06:48.000Z</time>
      </trkpt>
      <trkpt lat="44.17963" lon="5.26362">
        <ele>1521.1999511719</ele>
        <time>2011-04-17T06:06:55.000Z</time>
      </trkpt>
      <trkpt lat="44.17965" lon="5.26368">
        <ele>1520.5999755859</ele>
        <time>2011-04-17T06:06:58.000Z</time>
      </trkpt>
      <trkpt lat="44.17967" lon="5.26371">
        <ele>1519.8000488281</ele>
        <time>2011-04-17T06:07:03.000Z</time>
      </trkpt>
      <trkpt lat="44.17968" lon="5.26374">
        <ele>1519.1999511719</ele>
        <time>2011-04-17T06:07:07.000Z</time>
      </trkpt>
      <trkpt lat="44.17969" lon="5.26373">
        <ele>1518.4000244141</ele>
        <time>2011-04-17T06:07:16.000Z</time>
      </trkpt>
      <trkpt lat="44.17972" lon="5.26371">
        <ele>1516.5999755859</ele>
        <time>2011-04-17T06:07:23.000Z</time>
      </trkpt>
      <trkpt lat="44.17976" lon="5.26371">
        <ele>1514.8000488281</ele>
        <time>2011-04-17T06:07:28.000Z</time>
      </trkpt>
      <trkpt lat="44.17981" lon="5.2637">
        <ele>1511.8000488281</ele>
        <time>2011-04-17T06:07:34.000Z</time>
      </trkpt>
      <trkpt lat="44.17986" lon="5.26371">
        <ele>1509.1999511719</ele>
        <time>2011-04-17T06:07:39.000Z</time>
      </trkpt>
      <trkpt lat="44.17989" lon="5.2637">
        <ele>1507.4000244141</ele>
        <time>2011-04-17T06:07:44.000Z</time>
      </trkpt>
      <trkpt lat="44.17993" lon="5.26365">
        <ele>1504.8000488281</ele>
        <time>2011-04-17T06:07:50.000Z</time>
      </trkpt>
      <trkpt lat="44.17998" lon="5.26359">
        <ele>1502.1999511719</ele>
        <time>2011-04-17T06:07:57.000Z</time>
      </trkpt>
      <trkpt lat="44.18002" lon="5.2636">
        <ele>1500</ele>
        <time>2011-04-17T06:08:02.000Z</time>
      </trkpt>
      <trkpt lat="44.18007" lon="5.26359">
        <ele>1497.4000244141</ele>
        <time>2011-04-17T06:08:07.000Z</time>
      </trkpt>
      <trkpt lat="44.18008" lon="5.26359">
        <ele>1496.8000488281</ele>
        <time>2011-04-17T06:08:08.000Z</time>
      </trkpt>
      <trkpt lat="44.18013" lon="5.26357">
        <ele>1494</ele>
        <time>2011-04-17T06:08:14.000Z</time>
      </trkpt>
      <trkpt lat="44.18018" lon="5.26358">
        <ele>1491.8000488281</ele>
        <time>2011-04-17T06:08:20.000Z</time>
      </trkpt>
      <trkpt lat="44.18023" lon="5.26358">
        <ele>1489</ele>
        <time>2011-04-17T06:08:26.000Z</time>
      </trkpt>
      <trkpt lat="44.18029" lon="5.26357">
        <ele>1485.8000488281</ele>
        <time>2011-04-17T06:08:33.000Z</time>
      </trkpt>
      <trkpt lat="44.18034" lon="5.26357">
        <ele>1483.4000244141</ele>
        <time>2011-04-17T06:08:39.000Z</time>
      </trkpt>
      <trkpt lat="44.18038" lon="5.26357">
        <ele>1481.4000244141</ele>
        <time>2011-04-17T06:08:44.000Z</time>
      </trkpt>
      <trkpt lat="44.18045" lon="5.26357">
        <ele>1478</ele>
        <time>2011-04-17T06:08:51.000Z</time>
      </trkpt>
      <trkpt lat="44.1805" lon="5.26354">
        <ele>1475.4000244141</ele>
        <time>2011-04-17T06:08:55.000Z</time>
      </trkpt>
      <trkpt lat="44.18055" lon="5.26353">
        <ele>1472.4000244141</ele>
        <time>2011-04-17T06:09:00.000Z</time>
      </trkpt>
      <trkpt lat="44.18059" lon="5.26355">
        <ele>1470.4000244141</ele>
        <time>2011-04-17T06:09:06.000Z</time>
      </trkpt>
      <trkpt lat="44.18063" lon="5.26355">
        <ele>1468.8000488281</ele>
        <time>2011-04-17T06:09:11.000Z</time>
      </trkpt>
      <trkpt lat="44.18068" lon="5.26353">
        <ele>1465.8000488281</ele>
        <time>2011-04-17T06:09:16.000Z</time>
      </trkpt>
      <trkpt lat="44.18071" lon="5.26352">
        <ele>1464.1999511719</ele>
        <time>2011-04-17T06:09:19.000Z</time>
      </trkpt>
      <trkpt lat="44.18079" lon="5.26351">
        <ele>1460.1999511719</ele>
        <time>2011-04-17T06:09:26.000Z</time>
      </trkpt>
      <trkpt lat="44.1808" lon="5.26351">
        <ele>1459.8000488281</ele>
        <time>2011-04-17T06:09:27.000Z</time>
      </trkpt>
      <trkpt lat="44.18085" lon="5.26348">
        <ele>1457.5999755859</ele>
        <time>2011-04-17T06:09:31.000Z</time>
      </trkpt>
      <trkpt lat="44.18091" lon="5.26354">
        <ele>1455</ele>
        <time>2011-04-17T06:09:37.000Z</time>
      </trkpt>
      <trkpt lat="44.18095" lon="5.26355">
        <ele>1453</ele>
        <time>2011-04-17T06:09:43.000Z</time>
      </trkpt>
      <trkpt lat="44.18096" lon="5.26355">
        <ele>1452.5999755859</ele>
        <time>2011-04-17T06:10:03.000Z</time>
      </trkpt>
      <trkpt lat="44.18098" lon="5.26353">
        <ele>1451.8000488281</ele>
        <time>2011-04-17T06:10:11.000Z</time>
      </trkpt>
      <trkpt lat="44.18097" lon="5.26352">
        <ele>1452.1999511719</ele>
        <time>2011-04-17T06:10:37.000Z</time>
      </trkpt>
      <trkpt lat="44.18098" lon="5.2635">
        <ele>1451.8000488281</ele>
        <time>2011-04-17T06:10:55.000Z</time>
      </trkpt>
      <trkpt lat="44.18097" lon="5.26348">
        <ele>1452.1999511719</ele>
        <time>2011-04-17T06:11:29.000Z</time>
      </trkpt>
      <trkpt lat="44.18097" lon="5.26346">
        <ele>1452</ele>
        <time>2011-04-17T06:11:35.000Z</time>
      </trkpt>
      <trkpt lat="44.18101" lon="5.26334">
        <ele>1450.4000244141</ele>
        <time>2011-04-17T06:11:39.000Z</time>
      </trkpt>
      <trkpt lat="44.18108" lon="5.26306">
        <ele>1448.4000244141</ele>
        <time>2011-04-17T06:11:46.000Z</time>
      </trkpt>
      <trkpt lat="44.18112" lon="5.26286">
        <ele>1447.4000244141</ele>
        <time>2011-04-17T06:11:51.000Z</time>
      </trkpt>
      <trkpt lat="44.18115" lon="5.26263">
        <ele>1446.5999755859</ele>
        <time>2011-04-17T06:11:57.000Z</time>
      </trkpt>
      <trkpt lat="44.18119" lon="5.26236">
        <ele>1444.8000488281</ele>
        <time>2011-04-17T06:12:04.000Z</time>
      </trkpt>
      <trkpt lat="44.18122" lon="5.26218">
        <ele>1443</ele>
        <time>2011-04-17T06:12:09.000Z</time>
      </trkpt>
      <trkpt lat="44.18123" lon="5.26198">
        <ele>1441.8000488281</ele>
        <time>2011-04-17T06:12:15.000Z</time>
      </trkpt>
      <trkpt lat="44.18122" lon="5.26181">
        <ele>1441.4000244141</ele>
        <time>2011-04-17T06:12:21.000Z</time>
      </trkpt>
      <trkpt lat="44.18122" lon="5.2616">
        <ele>1440.5999755859</ele>
        <time>2011-04-17T06:12:29.000Z</time>
      </trkpt>
      <trkpt lat="44.18122" lon="5.2614">
        <ele>1439</ele>
        <time>2011-04-17T06:12:35.000Z</time>
      </trkpt>
      <trkpt lat="44.18122" lon="5.26117">
        <ele>1437.5999755859</ele>
        <time>2011-04-17T06:12:41.000Z</time>
      </trkpt>
      <trkpt lat="44.18121" lon="5.26097">
        <ele>1436.4000244141</ele>
        <time>2011-04-17T06:12:47.000Z</time>
      </trkpt>
      <trkpt lat="44.1812" lon="5.2608">
        <ele>1435.5999755859</ele>
        <time>2011-04-17T06:12:52.000Z</time>
      </trkpt>
      <trkpt lat="44.18118" lon="5.26066">
        <ele>1435.8000488281</ele>
        <time>2011-04-17T06:12:56.000Z</time>
      </trkpt>
      <trkpt lat="44.18116" lon="5.26051">
        <ele>1436</ele>
        <time>2011-04-17T06:13:00.000Z</time>
      </trkpt>
      <trkpt lat="44.18115" lon="5.26038">
        <ele>1435.5999755859</ele>
        <time>2011-04-17T06:13:05.000Z</time>
      </trkpt>
      <trkpt lat="44.18112" lon="5.26025">
        <ele>1436</ele>
        <time>2011-04-17T06:13:10.000Z</time>
      </trkpt>
      <trkpt lat="44.18112" lon="5.26019">
        <ele>1435.8000488281</ele>
        <time>2011-04-17T06:13:12.000Z</time>
      </trkpt>
      <trkpt lat="44.18122" lon="5.26008">
        <ele>1432.4000244141</ele>
        <time>2011-04-17T06:13:17.000Z</time>
      </trkpt>
      <trkpt lat="44.18134" lon="5.26001">
        <ele>1428.8000488281</ele>
        <time>2011-04-17T06:13:21.000Z</time>
      </trkpt>
      <trkpt lat="44.18141" lon="5.25994">
        <ele>1427</ele>
        <time>2011-04-17T06:13:25.000Z</time>
      </trkpt>
      <trkpt lat="44.18151" lon="5.25987">
        <ele>1424.4000244141</ele>
        <time>2011-04-17T06:13:33.000Z</time>
      </trkpt>
      <trkpt lat="44.18161" lon="5.25981">
        <ele>1422</ele>
        <time>2011-04-17T06:13:40.000Z</time>
      </trkpt>
      <trkpt lat="44.18162" lon="5.25979">
        <ele>1421.8000488281</ele>
        <time>2011-04-17T06:13:44.000Z</time>
      </trkpt>
      <trkpt lat="44.1816" lon="5.25985">
        <ele>1422</ele>
        <time>2011-04-17T06:13:50.000Z</time>
      </trkpt>
      <trkpt lat="44.18159" lon="5.25987">
        <ele>1422.1999511719</ele>
        <time>2011-04-17T06:13:54.000Z</time>
      </trkpt>
      <trkpt lat="44.18155" lon="5.25995">
        <ele>1423.1999511719</ele>
        <time>2011-04-17T06:14:00.000Z</time>
      </trkpt>
      <trkpt lat="44.18154" lon="5.25998">
        <ele>1423.5999755859</ele>
        <time>2011-04-17T06:14:03.000Z</time>
      </trkpt>
      <trkpt lat="44.18148" lon="5.26001">
        <ele>1425.1999511719</ele>
        <time>2011-04-17T06:14:08.000Z</time>
      </trkpt>
      <trkpt lat="44.18141" lon="5.26003">
        <ele>1427</ele>
        <time>2011-04-17T06:14:13.000Z</time>
      </trkpt>
      <trkpt lat="44.18135" lon="5.26012">
        <ele>1428.8000488281</ele>
        <time>2011-04-17T06:14:17.000Z</time>
      </trkpt>
      <trkpt lat="44.18132" lon="5.26023">
        <ele>1430.1999511719</ele>
        <time>2011-04-17T06:14:20.000Z</time>
      </trkpt>
      <trkpt lat="44.18132" lon="5.26039">
        <ele>1430.4000244141</ele>
        <time>2011-04-17T06:14:26.000Z</time>
      </trkpt>
      <trkpt lat="44.18134" lon="5.26048">
        <ele>1429.8000488281</ele>
        <time>2011-04-17T06:14:30.000Z</time>
      </trkpt>
      <trkpt lat="44.18139" lon="5.26066">
        <ele>1428.5999755859</ele>
        <time>2011-04-17T06:14:36.000Z</time>
      </trkpt>
      <trkpt lat="44.1814" lon="5.26071">
        <ele>1428.1999511719</ele>
        <time>2011-04-17T06:14:38.000Z</time>
      </trkpt>
      <trkpt lat="44.18145" lon="5.26084">
        <ele>1426.5999755859</ele>
        <time>2011-04-17T06:14:45.000Z</time>
      </trkpt>
      <trkpt lat="44.18149" lon="5.26091">
        <ele>1425.8000488281</ele>
        <time>2011-04-17T06:14:49.000Z</time>
      </trkpt>
      <trkpt lat="44.18152" lon="5.26101">
        <ele>1425.4000244141</ele>
        <time>2011-04-17T06:14:54.000Z</time>
      </trkpt>
      <trkpt lat="44.18149" lon="5.26112">
        <ele>1427</ele>
        <time>2011-04-17T06:15:01.000Z</time>
      </trkpt>
      <trkpt lat="44.1815" lon="5.26118">
        <ele>1427.1999511719</ele>
        <time>2011-04-17T06:15:04.000Z</time>
      </trkpt>
      <trkpt lat="44.18152" lon="5.26135">
        <ele>1427.5999755859</ele>
        <time>2011-04-17T06:15:12.000Z</time>
      </trkpt>
      <trkpt lat="44.18153" lon="5.26149">
        <ele>1428</ele>
        <time>2011-04-17T06:15:19.000Z</time>
      </trkpt>
      <trkpt lat="44.18155" lon="5.26163">
        <ele>1428.1999511719</ele>
        <time>2011-04-17T06:15:26.000Z</time>
      </trkpt>
      <trkpt lat="44.18154" lon="5.26174">
        <ele>1428.8000488281</ele>
        <time>2011-04-17T06:15:32.000Z</time>
      </trkpt>
      <trkpt lat="44.18154" lon="5.26186">
        <ele>1429</ele>
        <time>2011-04-17T06:15:39.000Z</time>
      </trkpt>
      <trkpt lat="44.18152" lon="5.26192">
        <ele>1430</ele>
        <time>2011-04-17T06:15:43.000Z</time>
      </trkpt>
      <trkpt lat="44.18151" lon="5.26194">
        <ele>1430.5999755859</ele>
        <time>2011-04-17T06:15:50.000Z</time>
      </trkpt>
      <trkpt lat="44.18151" lon="5.26193">
        <ele>1430.4000244141</ele>
        <time>2011-04-17T06:15:59.000Z</time>
      </trkpt>
      <trkpt lat="44.18151" lon="5.26195">
        <ele>1430.4000244141</ele>
        <time>2011-04-17T06:16:11.000Z</time>
      </trkpt>
      <trkpt lat="44.18151" lon="5.262">
        <ele>1430.5999755859</ele>
        <time>2011-04-17T06:16:15.000Z</time>
      </trkpt>
      <trkpt lat="44.18151" lon="5.26207">
        <ele>1431</ele>
        <time>2011-04-17T06:16:21.000Z</time>
      </trkpt>
      <trkpt lat="44.18151" lon="5.26213">
        <ele>1430.8000488281</ele>
        <time>2011-04-17T06:16:25.000Z</time>
      </trkpt>
      <trkpt lat="44.18153" lon="5.26218">
        <ele>1430.1999511719</ele>
        <time>2011-04-17T06:16:27.000Z</time>
      </trkpt>
      <trkpt lat="44.18155" lon="5.2623">
        <ele>1429.8000488281</ele>
        <time>2011-04-17T06:16:33.000Z</time>
      </trkpt>
      <trkpt lat="44.18156" lon="5.2624">
        <ele>1429.4000244141</ele>
        <time>2011-04-17T06:16:38.000Z</time>
      </trkpt>
      <trkpt lat="44.18158" lon="5.26263">
        <ele>1428.1999511719</ele>
        <time>2011-04-17T06:16:48.000Z</time>
      </trkpt>
      <trkpt lat="44.18157" lon="5.26274">
        <ele>1428.4000244141</ele>
        <time>2011-04-17T06:16:53.000Z</time>
      </trkpt>
      <trkpt lat="44.18156" lon="5.26292">
        <ele>1428.1999511719</ele>
        <time>2011-04-17T06:17:01.000Z</time>
      </trkpt>
      <trkpt lat="44.18156" lon="5.26307">
        <ele>1427.5999755859</ele>
        <time>2011-04-17T06:17:07.000Z</time>
      </trkpt>
      <trkpt lat="44.18159" lon="5.26325">
        <ele>1425.5999755859</ele>
        <time>2011-04-17T06:17:15.000Z</time>
      </trkpt>
      <trkpt lat="44.18161" lon="5.26341">
        <ele>1424.5999755859</ele>
        <time>2011-04-17T06:17:22.000Z</time>
      </trkpt>
      <trkpt lat="44.18165" lon="5.26355">
        <ele>1423.5999755859</ele>
        <time>2011-04-17T06:17:28.000Z</time>
      </trkpt>
      <trkpt lat="44.18168" lon="5.2637">
        <ele>1422.8000488281</ele>
        <time>2011-04-17T06:17:35.000Z</time>
      </trkpt>
      <trkpt lat="44.18172" lon="5.26383">
        <ele>1422.5999755859</ele>
        <time>2011-04-17T06:17:41.000Z</time>
      </trkpt>
      <trkpt lat="44.18174" lon="5.26398">
        <ele>1422.8000488281</ele>
        <time>2011-04-17T06:17:48.000Z</time>
      </trkpt>
      <trkpt lat="44.18178" lon="5.26414">
        <ele>1422.8000488281</ele>
        <time>2011-04-17T06:17:55.000Z</time>
      </trkpt>
      <trkpt lat="44.18182" lon="5.26432">
        <ele>1423.8000488281</ele>
        <time>2011-04-17T06:18:03.000Z</time>
      </trkpt>
      <trkpt lat="44.18184" lon="5.26445">
        <ele>1425.1999511719</ele>
        <time>2011-04-17T06:18:10.000Z</time>
      </trkpt>
      <trkpt lat="44.18185" lon="5.26459">
        <ele>1426.4000244141</ele>
        <time>2011-04-17T06:18:18.000Z</time>
      </trkpt>
      <trkpt lat="44.18188" lon="5.26471">
        <ele>1427</ele>
        <time>2011-04-17T06:18:25.000Z</time>
      </trkpt>
      <trkpt lat="44.18192" lon="5.26485">
        <ele>1427.5999755859</ele>
        <time>2011-04-17T06:18:32.000Z</time>
      </trkpt>
      <trkpt lat="44.18194" lon="5.26497">
        <ele>1428.4000244141</ele>
        <time>2011-04-17T06:18:38.000Z</time>
      </trkpt>
      <trkpt lat="44.18195" lon="5.26512">
        <ele>1428.5999755859</ele>
        <time>2011-04-17T06:18:45.000Z</time>
      </trkpt>
      <trkpt lat="44.18196" lon="5.26516">
        <ele>1428.5999755859</ele>
        <time>2011-04-17T06:18:47.000Z</time>
      </trkpt>
      <trkpt lat="44.18198" lon="5.26527">
        <ele>1428.4000244141</ele>
        <time>2011-04-17T06:18:53.000Z</time>
      </trkpt>
      <trkpt lat="44.18199" lon="5.26543">
        <ele>1428.5999755859</ele>
        <time>2011-04-17T06:19:00.000Z</time>
      </trkpt>
      <trkpt lat="44.18198" lon="5.26547">
        <ele>1428.8000488281</ele>
        <time>2011-04-17T06:19:02.000Z</time>
      </trkpt>
      <trkpt lat="44.18197" lon="5.26562">
        <ele>1429.5999755859</ele>
        <time>2011-04-17T06:19:09.000Z</time>
      </trkpt>
      <trkpt lat="44.18199" lon="5.26578">
        <ele>1429.5999755859</ele>
        <time>2011-04-17T06:19:16.000Z</time>
      </trkpt>
      <trkpt lat="44.18201" lon="5.26594">
        <ele>1429.4000244141</ele>
        <time>2011-04-17T06:19:23.000Z</time>
      </trkpt>
      <trkpt lat="44.18202" lon="5.26598">
        <ele>1429.4000244141</ele>
        <time>2011-04-17T06:19:25.000Z</time>
      </trkpt>
      <trkpt lat="44.18205" lon="5.26613">
        <ele>1429.1999511719</ele>
        <time>2011-04-17T06:19:32.000Z</time>
      </trkpt>
      <trkpt lat="44.18205" lon="5.26615">
        <ele>1429.1999511719</ele>
        <time>2011-04-17T06:19:33.000Z</time>
      </trkpt>
      <trkpt lat="44.18209" lon="5.26626">
        <ele>1428.8000488281</ele>
        <time>2011-04-17T06:19:39.000Z</time>
      </trkpt>
      <trkpt lat="44.1821" lon="5.2663">
        <ele>1428.8000488281</ele>
        <time>2011-04-17T06:19:41.000Z</time>
      </trkpt>
      <trkpt lat="44.18215" lon="5.26645">
        <ele>1428.1999511719</ele>
        <time>2011-04-17T06:19:48.000Z</time>
      </trkpt>
      <trkpt lat="44.18219" lon="5.26659">
        <ele>1427.8000488281</ele>
        <time>2011-04-17T06:19:54.000Z</time>
      </trkpt>
      <trkpt lat="44.18225" lon="5.26671">
        <ele>1427.1999511719</ele>
        <time>2011-04-17T06:20:00.000Z</time>
      </trkpt>
      <trkpt lat="44.18231" lon="5.26691">
        <ele>1427</ele>
        <time>2011-04-17T06:20:10.000Z</time>
      </trkpt>
      <trkpt lat="44.18235" lon="5.26705">
        <ele>1427</ele>
        <time>2011-04-17T06:20:17.000Z</time>
      </trkpt>
      <trkpt lat="44.18236" lon="5.26709">
        <ele>1427</ele>
        <time>2011-04-17T06:20:23.000Z</time>
      </trkpt>
      <trkpt lat="44.18235" lon="5.26706">
        <ele>1427</ele>
        <time>2011-04-17T06:20:32.000Z</time>
      </trkpt>
      <trkpt lat="44.18235" lon="5.26704">
        <ele>1426.8000488281</ele>
        <time>2011-04-17T06:20:37.000Z</time>
      </trkpt>
      <trkpt lat="44.18236" lon="5.26702">
        <ele>1426.5999755859</ele>
        <time>2011-04-17T06:20:43.000Z</time>
      </trkpt>
      <trkpt lat="44.18234" lon="5.26709">
        <ele>1427.4000244141</ele>
        <time>2011-04-17T06:20:48.000Z</time>
      </trkpt>
      <trkpt lat="44.18233" lon="5.26713">
        <ele>1427.8000488281</ele>
        <time>2011-04-17T06:20:51.000Z</time>
      </trkpt>
      <trkpt lat="44.18234" lon="5.26727">
        <ele>1428.5999755859</ele>
        <time>2011-04-17T06:20:58.000Z</time>
      </trkpt>
      <trkpt lat="44.18234" lon="5.26729">
        <ele>1428.8000488281</ele>
        <time>2011-04-17T06:20:59.000Z</time>
      </trkpt>
      <trkpt lat="44.18234" lon="5.26745">
        <ele>1429.8000488281</ele>
        <time>2011-04-17T06:21:06.000Z</time>
      </trkpt>
      <trkpt lat="44.18232" lon="5.26759">
        <ele>1430.8000488281</ele>
        <time>2011-04-17T06:21:13.000Z</time>
      </trkpt>
      <trkpt lat="44.18233" lon="5.26778">
        <ele>1431.4000244141</ele>
        <time>2011-04-17T06:21:21.000Z</time>
      </trkpt>
      <trkpt lat="44.18236" lon="5.26794">
        <ele>1431.4000244141</ele>
        <time>2011-04-17T06:21:28.000Z</time>
      </trkpt>
      <trkpt lat="44.18237" lon="5.26796">
        <ele>1431.4000244141</ele>
        <time>2011-04-17T06:21:29.000Z</time>
      </trkpt>
      <trkpt lat="44.18242" lon="5.26805">
        <ele>1430.5999755859</ele>
        <time>2011-04-17T06:21:35.000Z</time>
      </trkpt>
      <trkpt lat="44.18246" lon="5.2682">
        <ele>1430.1999511719</ele>
        <time>2011-04-17T06:21:43.000Z</time>
      </trkpt>
      <trkpt lat="44.18252" lon="5.26834">
        <ele>1429.5999755859</ele>
        <time>2011-04-17T06:21:51.000Z</time>
      </trkpt>
      <trkpt lat="44.18256" lon="5.2685">
        <ele>1430.5999755859</ele>
        <time>2011-04-17T06:21:59.000Z</time>
      </trkpt>
      <trkpt lat="44.1826" lon="5.26865">
        <ele>1431.1999511719</ele>
        <time>2011-04-17T06:22:06.000Z</time>
      </trkpt>
      <trkpt lat="44.18263" lon="5.26877">
        <ele>1431.8000488281</ele>
        <time>2011-04-17T06:22:12.000Z</time>
      </trkpt>
      <trkpt lat="44.18266" lon="5.2689">
        <ele>1432.4000244141</ele>
        <time>2011-04-17T06:22:18.000Z</time>
      </trkpt>
      <trkpt lat="44.18269" lon="5.269">
        <ele>1432.5999755859</ele>
        <time>2011-04-17T06:22:24.000Z</time>
      </trkpt>
      <trkpt lat="44.18273" lon="5.26912">
        <ele>1432.5999755859</ele>
        <time>2011-04-17T06:22:30.000Z</time>
      </trkpt>
      <trkpt lat="44.18276" lon="5.26923">
        <ele>1433</ele>
        <time>2011-04-17T06:22:35.000Z</time>
      </trkpt>
      <trkpt lat="44.18278" lon="5.26933">
        <ele>1433.1999511719</ele>
        <time>2011-04-17T06:22:39.000Z</time>
      </trkpt>
      <trkpt lat="44.18282" lon="5.26939">
        <ele>1432.5999755859</ele>
        <time>2011-04-17T06:22:43.000Z</time>
      </trkpt>
      <trkpt lat="44.18288" lon="5.26954">
        <ele>1432.4000244141</ele>
        <time>2011-04-17T06:22:51.000Z</time>
      </trkpt>
      <trkpt lat="44.18289" lon="5.26965">
        <ele>1433</ele>
        <time>2011-04-17T06:22:58.000Z</time>
      </trkpt>
      <trkpt lat="44.1829" lon="5.26969">
        <ele>1433.1999511719</ele>
        <time>2011-04-17T06:23:07.000Z</time>
      </trkpt>
      <trkpt lat="44.18292" lon="5.26981">
        <ele>1433.5999755859</ele>
        <time>2011-04-17T06:23:13.000Z</time>
      </trkpt>
      <trkpt lat="44.18296" lon="5.26998">
        <ele>1434</ele>
        <time>2011-04-17T06:23:21.000Z</time>
      </trkpt>
      <trkpt lat="44.183" lon="5.27013">
        <ele>1434.1999511719</ele>
        <time>2011-04-17T06:23:28.000Z</time>
      </trkpt>
      <trkpt lat="44.18304" lon="5.27029">
        <ele>1434.1999511719</ele>
        <time>2011-04-17T06:23:36.000Z</time>
      </trkpt>
      <trkpt lat="44.18308" lon="5.27041">
        <ele>1434</ele>
        <time>2011-04-17T06:23:42.000Z</time>
      </trkpt>
      <trkpt lat="44.18309" lon="5.27053">
        <ele>1434.4000244141</ele>
        <time>2011-04-17T06:23:49.000Z</time>
      </trkpt>
      <trkpt lat="44.18313" lon="5.2706">
        <ele>1434</ele>
        <time>2011-04-17T06:23:54.000Z</time>
      </trkpt>
      <trkpt lat="44.18315" lon="5.27065">
        <ele>1433.8000488281</ele>
        <time>2011-04-17T06:24:00.000Z</time>
      </trkpt>
      <trkpt lat="44.18316" lon="5.27073">
        <ele>1434.1999511719</ele>
        <time>2011-04-17T06:24:07.000Z</time>
      </trkpt>
      <trkpt lat="44.18318" lon="5.27078">
        <ele>1434</ele>
        <time>2011-04-17T06:24:10.000Z</time>
      </trkpt>
      <trkpt lat="44.18322" lon="5.27087">
        <ele>1433.8000488281</ele>
        <time>2011-04-17T06:24:15.000Z</time>
      </trkpt>
      <trkpt lat="44.18323" lon="5.2709">
        <ele>1433.8000488281</ele>
        <time>2011-04-17T06:24:17.000Z</time>
      </trkpt>
      <trkpt lat="44.18325" lon="5.27095">
        <ele>1433.8000488281</ele>
        <time>2011-04-17T06:24:22.000Z</time>
      </trkpt>
      <trkpt lat="44.18326" lon="5.27098">
        <ele>1433.8000488281</ele>
        <time>2011-04-17T06:24:27.000Z</time>
      </trkpt>
      <trkpt lat="44.18327" lon="5.27101">
        <ele>1434</ele>
        <time>2011-04-17T06:25:00.000Z</time>
      </trkpt>
      <trkpt lat="44.18327" lon="5.27107">
        <ele>1434.4000244141</ele>
        <time>2011-04-17T06:25:05.000Z</time>
      </trkpt>
      <trkpt lat="44.18328" lon="5.27113">
        <ele>1434.5999755859</ele>
        <time>2011-04-17T06:25:10.000Z</time>
      </trkpt>
      <trkpt lat="44.1833" lon="5.27118">
        <ele>1434.5999755859</ele>
        <time>2011-04-17T06:25:14.000Z</time>
      </trkpt>
      <trkpt lat="44.18331" lon="5.27121">
        <ele>1434.5999755859</ele>
        <time>2011-04-17T06:25:16.000Z</time>
      </trkpt>
      <trkpt lat="44.18337" lon="5.27129">
        <ele>1433.8000488281</ele>
        <time>2011-04-17T06:25:22.000Z</time>
      </trkpt>
      <trkpt lat="44.18339" lon="5.27133">
        <ele>1433.8000488281</ele>
        <time>2011-04-17T06:25:25.000Z</time>
      </trkpt>
      <trkpt lat="44.18339" lon="5.27135">
        <ele>1433.8000488281</ele>
        <time>2011-04-17T06:25:27.000Z</time>
      </trkpt>
      <trkpt lat="44.18344" lon="5.27143">
        <ele>1433.4000244141</ele>
        <time>2011-04-17T06:25:34.000Z</time>
      </trkpt>
      <trkpt lat="44.18345" lon="5.27144">
        <ele>1433.4000244141</ele>
        <time>2011-04-17T06:25:35.000Z</time>
      </trkpt>
      <trkpt lat="44.1835" lon="5.27153">
        <ele>1433</ele>
        <time>2011-04-17T06:25:40.000Z</time>
      </trkpt>
      <trkpt lat="44.18352" lon="5.27163">
        <ele>1433.1999511719</ele>
        <time>2011-04-17T06:25:46.000Z</time>
      </trkpt>
      <trkpt lat="44.18356" lon="5.2717">
        <ele>1432.8000488281</ele>
        <time>2011-04-17T06:25:52.000Z</time>
      </trkpt>
      <trkpt lat="44.18357" lon="5.27173">
        <ele>1432.8000488281</ele>
        <time>2011-04-17T06:25:57.000Z</time>
      </trkpt>
      <trkpt lat="44.18357" lon="5.27175">
        <ele>1432.8000488281</ele>
        <time>2011-04-17T06:26:14.000Z</time>
      </trkpt>
      <trkpt lat="44.18355" lon="5.2718">
        <ele>1433.4000244141</ele>
        <time>2011-04-17T06:26:19.000Z</time>
      </trkpt>
      <trkpt lat="44.18355" lon="5.27195">
        <ele>1433.8000488281</ele>
        <time>2011-04-17T06:26:27.000Z</time>
      </trkpt>
      <trkpt lat="44.18355" lon="5.27204">
        <ele>1434.1999511719</ele>
        <time>2011-04-17T06:26:32.000Z</time>
      </trkpt>
      <trkpt lat="44.1835" lon="5.27209">
        <ele>1435.1999511719</ele>
        <time>2011-04-17T06:26:38.000Z</time>
      </trkpt>
      <trkpt lat="44.18349" lon="5.27212">
        <ele>1435.5999755859</ele>
        <time>2011-04-17T06:26:42.000Z</time>
      </trkpt>
      <trkpt lat="44.1835" lon="5.27213">
        <ele>1435.5999755859</ele>
        <time>2011-04-17T06:26:50.000Z</time>
      </trkpt>
      <trkpt lat="44.18353" lon="5.27215">
        <ele>1434.8000488281</ele>
        <time>2011-04-17T06:26:55.000Z</time>
      </trkpt>
      <trkpt lat="44.18355" lon="5.27219">
        <ele>1434.5999755859</ele>
        <time>2011-04-17T06:26:58.000Z</time>
      </trkpt>
      <trkpt lat="44.18356" lon="5.27222">
        <ele>1434.4000244141</ele>
        <time>2011-04-17T06:27:00.000Z</time>
      </trkpt>
      <trkpt lat="44.18355" lon="5.27238">
        <ele>1435</ele>
        <time>2011-04-17T06:27:08.000Z</time>
      </trkpt>
      <trkpt lat="44.18355" lon="5.27242">
        <ele>1435.1999511719</ele>
        <time>2011-04-17T06:27:10.000Z</time>
      </trkpt>
      <trkpt lat="44.18355" lon="5.2726">
        <ele>1436</ele>
        <time>2011-04-17T06:27:19.000Z</time>
      </trkpt>
      <trkpt lat="44.18354" lon="5.27265">
        <ele>1436.1999511719</ele>
        <time>2011-04-17T06:27:21.000Z</time>
      </trkpt>
      <trkpt lat="44.18356" lon="5.27278">
        <ele>1436.4000244141</ele>
        <time>2011-04-17T06:27:27.000Z</time>
      </trkpt>
      <trkpt lat="44.18359" lon="5.2729">
        <ele>1436.4000244141</ele>
        <time>2011-04-17T06:27:32.000Z</time>
      </trkpt>
      <trkpt lat="44.18359" lon="5.27294">
        <ele>1436.5999755859</ele>
        <time>2011-04-17T06:27:33.000Z</time>
      </trkpt>
      <trkpt lat="44.1836" lon="5.27317">
        <ele>1437.4000244141</ele>
        <time>2011-04-17T06:27:39.000Z</time>
      </trkpt>
      <trkpt lat="44.1836" lon="5.27333">
        <ele>1438</ele>
        <time>2011-04-17T06:27:43.000Z</time>
      </trkpt>
      <trkpt lat="44.18361" lon="5.27354">
        <ele>1438.5999755859</ele>
        <time>2011-04-17T06:27:49.000Z</time>
      </trkpt>
      <trkpt lat="44.18363" lon="5.27366">
        <ele>1438.8000488281</ele>
        <time>2011-04-17T06:27:53.000Z</time>
      </trkpt>
      <trkpt lat="44.18365" lon="5.27381">
        <ele>1439</ele>
        <time>2011-04-17T06:27:58.000Z</time>
      </trkpt>
      <trkpt lat="44.18367" lon="5.27395">
        <ele>1439.1999511719</ele>
        <time>2011-04-17T06:28:05.000Z</time>
      </trkpt>
      <trkpt lat="44.18368" lon="5.27406">
        <ele>1439.1999511719</ele>
        <time>2011-04-17T06:28:11.000Z</time>
      </trkpt>
      <trkpt lat="44.18373" lon="5.2742">
        <ele>1438.8000488281</ele>
        <time>2011-04-17T06:28:18.000Z</time>
      </trkpt>
      <trkpt lat="44.18371" lon="5.27428">
        <ele>1439.1999511719</ele>
        <time>2011-04-17T06:28:22.000Z</time>
      </trkpt>
      <trkpt lat="44.18371" lon="5.27429">
        <ele>1439</ele>
        <time>2011-04-17T06:28:23.000Z</time>
      </trkpt>
      <trkpt lat="44.18375" lon="5.27441">
        <ele>1438</ele>
        <time>2011-04-17T06:28:29.000Z</time>
      </trkpt>
      <trkpt lat="44.18377" lon="5.27452">
        <ele>1437.4000244141</ele>
        <time>2011-04-17T06:28:35.000Z</time>
      </trkpt>
      <trkpt lat="44.18378" lon="5.27456">
        <ele>1437.1999511719</ele>
        <time>2011-04-17T06:28:37.000Z</time>
      </trkpt>
      <trkpt lat="44.18379" lon="5.27464">
        <ele>1437</ele>
        <time>2011-04-17T06:28:42.000Z</time>
      </trkpt>
      <trkpt lat="44.1838" lon="5.27473">
        <ele>1436.8000488281</ele>
        <time>2011-04-17T06:28:47.000Z</time>
      </trkpt>
      <trkpt lat="44.1838" lon="5.27478">
        <ele>1436.5999755859</ele>
        <time>2011-04-17T06:28:50.000Z</time>
      </trkpt>
      <trkpt lat="44.1838" lon="5.27487">
        <ele>1436.4000244141</ele>
        <time>2011-04-17T06:28:55.000Z</time>
      </trkpt>
      <trkpt lat="44.1838" lon="5.27501">
        <ele>1436.4000244141</ele>
        <time>2011-04-17T06:29:01.000Z</time>
      </trkpt>
      <trkpt lat="44.1838" lon="5.27503">
        <ele>1436.1999511719</ele>
        <time>2011-04-17T06:29:02.000Z</time>
      </trkpt>
      <trkpt lat="44.18382" lon="5.27517">
        <ele>1435.5999755859</ele>
        <time>2011-04-17T06:29:09.000Z</time>
      </trkpt>
      <trkpt lat="44.18381" lon="5.27523">
        <ele>1435.5999755859</ele>
        <time>2011-04-17T06:29:13.000Z</time>
      </trkpt>
      <trkpt lat="44.1838" lon="5.27527">
        <ele>1435.5999755859</ele>
        <time>2011-04-17T06:29:15.000Z</time>
      </trkpt>
      <trkpt lat="44.1838" lon="5.27529">
        <ele>1435.4000244141</ele>
        <time>2011-04-17T06:29:17.000Z</time>
      </trkpt>
      <trkpt lat="44.18381" lon="5.27535">
        <ele>1435.1999511719</ele>
        <time>2011-04-17T06:29:24.000Z</time>
      </trkpt>
      <trkpt lat="44.18381" lon="5.27541">
        <ele>1435</ele>
        <time>2011-04-17T06:29:32.000Z</time>
      </trkpt>
      <trkpt lat="44.18381" lon="5.27541">
        <ele>1434.8000488281</ele>
        <time>2011-04-17T06:29:44.000Z</time>
      </trkpt>
      <trkpt lat="44.18378" lon="5.27551">
        <ele>1435.1999511719</ele>
        <time>2011-04-17T06:29:51.000Z</time>
      </trkpt>
      <trkpt lat="44.18377" lon="5.27555">
        <ele>1435.4000244141</ele>
        <time>2011-04-17T06:29:56.000Z</time>
      </trkpt>
      <trkpt lat="44.18374" lon="5.27565">
        <ele>1435.5999755859</ele>
        <time>2011-04-17T06:30:01.000Z</time>
      </trkpt>
      <trkpt lat="44.1837" lon="5.27571">
        <ele>1436.1999511719</ele>
        <time>2011-04-17T06:30:06.000Z</time>
      </trkpt>
      <trkpt lat="44.1837" lon="5.27571">
        <ele>1436.4000244141</ele>
        <time>2011-04-17T06:30:12.000Z</time>
      </trkpt>
      <trkpt lat="44.1837" lon="5.27571">
        <ele>1436.1999511719</ele>
        <time>2011-04-17T06:30:26.000Z</time>
      </trkpt>
      <trkpt lat="44.18371" lon="5.27575">
        <ele>1436</ele>
        <time>2011-04-17T06:30:30.000Z</time>
      </trkpt>
      <trkpt lat="44.18371" lon="5.27578">
        <ele>1435.8000488281</ele>
        <time>2011-04-17T06:30:35.000Z</time>
      </trkpt>
      <trkpt lat="44.18368" lon="5.27581">
        <ele>1436.4000244141</ele>
        <time>2011-04-17T06:30:42.000Z</time>
      </trkpt>
      <trkpt lat="44.18364" lon="5.27594">
        <ele>1437</ele>
        <time>2011-04-17T06:30:54.000Z</time>
      </trkpt>
      <trkpt lat="44.18362" lon="5.27599">
        <ele>1437.5999755859</ele>
        <time>2011-04-17T06:30:59.000Z</time>
      </trkpt>
      <trkpt lat="44.18354" lon="5.27602">
        <ele>1439.1999511719</ele>
        <time>2011-04-17T06:31:13.000Z</time>
      </trkpt>
      <trkpt lat="44.18349" lon="5.27598">
        <ele>1440</ele>
        <time>2011-04-17T06:31:18.000Z</time>
      </trkpt>
      <trkpt lat="44.18339" lon="5.276">
        <ele>1442.1999511719</ele>
        <time>2011-04-17T06:31:24.000Z</time>
      </trkpt>
      <trkpt lat="44.18337" lon="5.27601">
        <ele>1442.5999755859</ele>
        <time>2011-04-17T06:31:25.000Z</time>
      </trkpt>
      <trkpt lat="44.18332" lon="5.27601">
        <ele>1443.5999755859</ele>
        <time>2011-04-17T06:31:30.000Z</time>
      </trkpt>
      <trkpt lat="44.18327" lon="5.27601">
        <ele>1445.1999511719</ele>
        <time>2011-04-17T06:31:36.000Z</time>
      </trkpt>
      <trkpt lat="44.18325" lon="5.276">
        <ele>1445.5999755859</ele>
        <time>2011-04-17T06:31:53.000Z</time>
      </trkpt>
      <trkpt lat="44.18328" lon="5.27599">
        <ele>1444.5999755859</ele>
        <time>2011-04-17T06:31:59.000Z</time>
      </trkpt>
      <trkpt lat="44.18336" lon="5.27596">
        <ele>1442.8000488281</ele>
        <time>2011-04-17T06:32:03.000Z</time>
      </trkpt>
      <trkpt lat="44.1834" lon="5.27596">
        <ele>1441.8000488281</ele>
        <time>2011-04-17T06:32:06.000Z</time>
      </trkpt>
      <trkpt lat="44.18344" lon="5.27596">
        <ele>1441</ele>
        <time>2011-04-17T06:32:11.000Z</time>
      </trkpt>
      <trkpt lat="44.18349" lon="5.27589">
        <ele>1440</ele>
        <time>2011-04-17T06:32:15.000Z</time>
      </trkpt>
      <trkpt lat="44.18351" lon="5.27589">
        <ele>1439.5999755859</ele>
        <time>2011-04-17T06:32:17.000Z</time>
      </trkpt>
      <trkpt lat="44.18357" lon="5.27596">
        <ele>1438.4000244141</ele>
        <time>2011-04-17T06:32:21.000Z</time>
      </trkpt>
      <trkpt lat="44.18359" lon="5.27599">
        <ele>1438</ele>
        <time>2011-04-17T06:32:27.000Z</time>
      </trkpt>
      <trkpt lat="44.18359" lon="5.276">
        <ele>1438</ele>
        <time>2011-04-17T06:32:33.000Z</time>
      </trkpt>
      <trkpt lat="44.18365" lon="5.27607">
        <ele>1436.8000488281</ele>
        <time>2011-04-17T06:32:37.000Z</time>
      </trkpt>
      <trkpt lat="44.18373" lon="5.27624">
        <ele>1435.1999511719</ele>
        <time>2011-04-17T06:32:42.000Z</time>
      </trkpt>
      <trkpt lat="44.18379" lon="5.27645">
        <ele>1433.5999755859</ele>
        <time>2011-04-17T06:32:47.000Z</time>
      </trkpt>
      <trkpt lat="44.1838" lon="5.27649">
        <ele>1433.1999511719</ele>
        <time>2011-04-17T06:32:48.000Z</time>
      </trkpt>
      <trkpt lat="44.18394" lon="5.27666">
        <ele>1429.5999755859</ele>
        <time>2011-04-17T06:32:54.000Z</time>
      </trkpt>
      <trkpt lat="44.18399" lon="5.2767">
        <ele>1428.4000244141</ele>
        <time>2011-04-17T06:32:56.000Z</time>
      </trkpt>
      <trkpt lat="44.18413" lon="5.27689">
        <ele>1425</ele>
        <time>2011-04-17T06:33:03.000Z</time>
      </trkpt>
      <trkpt lat="44.18417" lon="5.27704">
        <ele>1423.8000488281</ele>
        <time>2011-04-17T06:33:08.000Z</time>
      </trkpt>
      <trkpt lat="44.18419" lon="5.27721">
        <ele>1423.4000244141</ele>
        <time>2011-04-17T06:33:16.000Z</time>
      </trkpt>
      <trkpt lat="44.18419" lon="5.27737">
        <ele>1423.4000244141</ele>
        <time>2011-04-17T06:33:21.000Z</time>
      </trkpt>
      <trkpt lat="44.18421" lon="5.27763">
        <ele>1422.5999755859</ele>
        <time>2011-04-17T06:33:27.000Z</time>
      </trkpt>
      <trkpt lat="44.18423" lon="5.27783">
        <ele>1421.4000244141</ele>
        <time>2011-04-17T06:33:32.000Z</time>
      </trkpt>
      <trkpt lat="44.18425" lon="5.27809">
        <ele>1420.1999511719</ele>
        <time>2011-04-17T06:33:39.000Z</time>
      </trkpt>
      <trkpt lat="44.18426" lon="5.27825">
        <ele>1419.4000244141</ele>
        <time>2011-04-17T06:33:43.000Z</time>
      </trkpt>
      <trkpt lat="44.18427" lon="5.27844">
        <ele>1418.8000488281</ele>
        <time>2011-04-17T06:33:49.000Z</time>
      </trkpt>
      <trkpt lat="44.18427" lon="5.27855">
        <ele>1418.5999755859</ele>
        <time>2011-04-17T06:33:53.000Z</time>
      </trkpt>
      <trkpt lat="44.18426" lon="5.27856">
        <ele>1418.8000488281</ele>
        <time>2011-04-17T06:33:55.000Z</time>
      </trkpt>
      <trkpt lat="44.18427" lon="5.27864">
        <ele>1418.4000244141</ele>
        <time>2011-04-17T06:34:01.000Z</time>
      </trkpt>
      <trkpt lat="44.18424" lon="5.27869">
        <ele>1418.8000488281</ele>
        <time>2011-04-17T06:34:07.000Z</time>
      </trkpt>
      <trkpt lat="44.18423" lon="5.27874">
        <ele>1419</ele>
        <time>2011-04-17T06:34:13.000Z</time>
      </trkpt>
      <trkpt lat="44.18423" lon="5.27876">
        <ele>1418.8000488281</ele>
        <time>2011-04-17T06:34:14.000Z</time>
      </trkpt>
      <trkpt lat="44.18426" lon="5.27887">
        <ele>1418</ele>
        <time>2011-04-17T06:34:21.000Z</time>
      </trkpt>
      <trkpt lat="44.18427" lon="5.27892">
        <ele>1417.8000488281</ele>
        <time>2011-04-17T06:34:25.000Z</time>
      </trkpt>
      <trkpt lat="44.18426" lon="5.27895">
        <ele>1417.8000488281</ele>
        <time>2011-04-17T06:34:27.000Z</time>
      </trkpt>
      <trkpt lat="44.18424" lon="5.279">
        <ele>1418.1999511719</ele>
        <time>2011-04-17T06:34:33.000Z</time>
      </trkpt>
      <trkpt lat="44.1842" lon="5.27901">
        <ele>1418.8000488281</ele>
        <time>2011-04-17T06:34:38.000Z</time>
      </trkpt>
      <trkpt lat="44.18415" lon="5.27902">
        <ele>1419.5999755859</ele>
        <time>2011-04-17T06:34:44.000Z</time>
      </trkpt>
      <trkpt lat="44.18413" lon="5.27899">
        <ele>1420.1999511719</ele>
        <time>2011-04-17T06:34:50.000Z</time>
      </trkpt>
      <trkpt lat="44.18416" lon="5.27899">
        <ele>1419.4000244141</ele>
        <time>2011-04-17T06:34:55.000Z</time>
      </trkpt>
      <trkpt lat="44.18419" lon="5.27899">
        <ele>1419</ele>
        <time>2011-04-17T06:35:00.000Z</time>
      </trkpt>
      <trkpt lat="44.18422" lon="5.27899">
        <ele>1418.5999755859</ele>
        <time>2011-04-17T06:35:05.000Z</time>
      </trkpt>
      <trkpt lat="44.18424" lon="5.279">
        <ele>1418.1999511719</ele>
        <time>2011-04-17T06:35:07.000Z</time>
      </trkpt>
      <trkpt lat="44.18429" lon="5.27907">
        <ele>1417.1999511719</ele>
        <time>2011-04-17T06:35:12.000Z</time>
      </trkpt>
      <trkpt lat="44.18435" lon="5.27904">
        <ele>1416.1999511719</ele>
        <time>2011-04-17T06:35:16.000Z</time>
      </trkpt>
      <trkpt lat="44.18438" lon="5.27902">
        <ele>1415.8000488281</ele>
        <time>2011-04-17T06:35:18.000Z</time>
      </trkpt>
      <trkpt lat="44.18436" lon="5.27893">
        <ele>1416.4000244141</ele>
        <time>2011-04-17T06:35:23.000Z</time>
      </trkpt>
      <trkpt lat="44.18433" lon="5.27887">
        <ele>1417</ele>
        <time>2011-04-17T06:35:29.000Z</time>
      </trkpt>
      <trkpt lat="44.1843" lon="5.27882">
        <ele>1417.4000244141</ele>
        <time>2011-04-17T06:35:34.000Z</time>
      </trkpt>
      <trkpt lat="44.18431" lon="5.27877">
        <ele>1417.4000244141</ele>
        <time>2011-04-17T06:35:39.000Z</time>
      </trkpt>
      <trkpt lat="44.18431" lon="5.2787">
        <ele>1417.5999755859</ele>
        <time>2011-04-17T06:35:44.000Z</time>
      </trkpt>
      <trkpt lat="44.18432" lon="5.2786">
        <ele>1417.5999755859</ele>
        <time>2011-04-17T06:35:49.000Z</time>
      </trkpt>
      <trkpt lat="44.18429" lon="5.27851">
        <ele>1418.1999511719</ele>
        <time>2011-04-17T06:35:54.000Z</time>
      </trkpt>
      <trkpt lat="44.18425" lon="5.27839">
        <ele>1419.1999511719</ele>
        <time>2011-04-17T06:36:00.000Z</time>
      </trkpt>
      <trkpt lat="44.18424" lon="5.27829">
        <ele>1419.5999755859</ele>
        <time>2011-04-17T06:36:04.000Z</time>
      </trkpt>
      <trkpt lat="44.18424" lon="5.27822">
        <ele>1419.8000488281</ele>
        <time>2011-04-17T06:36:07.000Z</time>
      </trkpt>
      <trkpt lat="44.18427" lon="5.27805">
        <ele>1419.8000488281</ele>
        <time>2011-04-17T06:36:12.000Z</time>
      </trkpt>
      <trkpt lat="44.18429" lon="5.27788">
        <ele>1420.1999511719</ele>
        <time>2011-04-17T06:36:17.000Z</time>
      </trkpt>
      <trkpt lat="44.18425" lon="5.27763">
        <ele>1421.8000488281</ele>
        <time>2011-04-17T06:36:25.000Z</time>
      </trkpt>
      <trkpt lat="44.18421" lon="5.27742">
        <ele>1423</ele>
        <time>2011-04-17T06:36:32.000Z</time>
      </trkpt>
      <trkpt lat="44.1842" lon="5.27722">
        <ele>1423.1999511719</ele>
        <time>2011-04-17T06:36:38.000Z</time>
      </trkpt>
      <trkpt lat="44.18419" lon="5.27705">
        <ele>1423.4000244141</ele>
        <time>2011-04-17T06:36:43.000Z</time>
      </trkpt>
      <trkpt lat="44.18424" lon="5.27683">
        <ele>1422.5999755859</ele>
        <time>2011-04-17T06:36:50.000Z</time>
      </trkpt>
      <trkpt lat="44.18427" lon="5.2767">
        <ele>1422</ele>
        <time>2011-04-17T06:36:56.000Z</time>
      </trkpt>
      <trkpt lat="44.18427" lon="5.27655">
        <ele>1422.5999755859</ele>
        <time>2011-04-17T06:37:03.000Z</time>
      </trkpt>
      <trkpt lat="44.18428" lon="5.27641">
        <ele>1423</ele>
        <time>2011-04-17T06:37:10.000Z</time>
      </trkpt>
      <trkpt lat="44.18429" lon="5.27623">
        <ele>1423.5999755859</ele>
        <time>2011-04-17T06:37:17.000Z</time>
      </trkpt>
      <trkpt lat="44.1843" lon="5.27609">
        <ele>1424</ele>
        <time>2011-04-17T06:37:22.000Z</time>
      </trkpt>
      <trkpt lat="44.18433" lon="5.27591">
        <ele>1424.1999511719</ele>
        <time>2011-04-17T06:37:27.000Z</time>
      </trkpt>
      <trkpt lat="44.18438" lon="5.27567">
        <ele>1424.1999511719</ele>
        <time>2011-04-17T06:37:34.000Z</time>
      </trkpt>
      <trkpt lat="44.18443" lon="5.27551">
        <ele>1424</ele>
        <time>2011-04-17T06:37:39.000Z</time>
      </trkpt>
      <trkpt lat="44.18453" lon="5.27534">
        <ele>1423.1999511719</ele>
        <time>2011-04-17T06:37:45.000Z</time>
      </trkpt>
      <trkpt lat="44.1846" lon="5.27523">
        <ele>1422.5999755859</ele>
        <time>2011-04-17T06:37:50.000Z</time>
      </trkpt>
      <trkpt lat="44.18469" lon="5.27514">
        <ele>1421.5999755859</ele>
        <time>2011-04-17T06:37:58.000Z</time>
      </trkpt>
      <trkpt lat="44.18469" lon="5.27513">
        <ele>1421.5999755859</ele>
        <time>2011-04-17T06:37:59.000Z</time>
      </trkpt>
      <trkpt lat="44.1847" lon="5.27509">
        <ele>1421.5999755859</ele>
        <time>2011-04-17T06:38:02.000Z</time>
      </trkpt>
      <trkpt lat="44.18473" lon="5.27502">
        <ele>1421.4000244141</ele>
        <time>2011-04-17T06:38:07.000Z</time>
      </trkpt>
      <trkpt lat="44.18479" lon="5.2749">
        <ele>1420.8000488281</ele>
        <time>2011-04-17T06:38:14.000Z</time>
      </trkpt>
      <trkpt lat="44.18483" lon="5.2748">
        <ele>1420.5999755859</ele>
        <time>2011-04-17T06:38:20.000Z</time>
      </trkpt>
      <trkpt lat="44.18488" lon="5.27472">
        <ele>1420.1999511719</ele>
        <time>2011-04-17T06:38:26.000Z</time>
      </trkpt>
      <trkpt lat="44.18492" lon="5.27468">
        <ele>1419.5999755859</ele>
        <time>2011-04-17T06:38:30.000Z</time>
      </trkpt>
      <trkpt lat="44.18492" lon="5.27469">
        <ele>1419.5999755859</ele>
        <time>2011-04-17T06:38:35.000Z</time>
      </trkpt>
      <trkpt lat="44.18491" lon="5.27469">
        <ele>1419.8000488281</ele>
        <time>2011-04-17T06:38:39.000Z</time>
      </trkpt>
      <trkpt lat="44.1849" lon="5.27469">
        <ele>1419.8000488281</ele>
        <time>2011-04-17T06:38:47.000Z</time>
      </trkpt>
      <trkpt lat="44.18489" lon="5.27469">
        <ele>1420</ele>
        <time>2011-04-17T06:38:53.000Z</time>
      </trkpt>
      <trkpt lat="44.18489" lon="5.27469">
        <ele>1420</ele>
        <time>2011-04-17T06:38:58.000Z</time>
      </trkpt>
      <trkpt lat="44.18489" lon="5.27468">
        <ele>1420</ele>
        <time>2011-04-17T06:39:06.000Z</time>
      </trkpt>
      <trkpt lat="44.18488" lon="5.27468">
        <ele>1420.1999511719</ele>
        <time>2011-04-17T06:39:15.000Z</time>
      </trkpt>
      <trkpt lat="44.18486" lon="5.27466">
        <ele>1420.4000244141</ele>
        <time>2011-04-17T06:39:22.000Z</time>
      </trkpt>
      <trkpt lat="44.18488" lon="5.27467">
        <ele>1420.1999511719</ele>
        <time>2011-04-17T06:39:31.000Z</time>
      </trkpt>
      <trkpt lat="44.18491" lon="5.27469">
        <ele>1419.8000488281</ele>
        <time>2011-04-17T06:39:49.000Z</time>
      </trkpt>
      <trkpt lat="44.18491" lon="5.27465">
        <ele>1419.8000488281</ele>
        <time>2011-04-17T06:39:56.000Z</time>
      </trkpt>
      <trkpt lat="44.18491" lon="5.27464">
        <ele>1419.8000488281</ele>
        <time>2011-04-17T06:40:02.000Z</time>
      </trkpt>
      <trkpt lat="44.1849" lon="5.27465">
        <ele>1420</ele>
        <time>2011-04-17T06:40:19.000Z</time>
      </trkpt>
      <trkpt lat="44.1849" lon="5.27466">
        <ele>1420</ele>
        <time>2011-04-17T06:40:31.000Z</time>
      </trkpt>
      <trkpt lat="44.18491" lon="5.27466">
        <ele>1420</ele>
        <time>2011-04-17T06:40:41.000Z</time>
      </trkpt>
      <trkpt lat="44.18491" lon="5.27467">
        <ele>1419.8000488281</ele>
        <time>2011-04-17T06:40:45.000Z</time>
      </trkpt>
      <trkpt lat="44.18491" lon="5.2747">
        <ele>1419.8000488281</ele>
        <time>2011-04-17T06:41:05.000Z</time>
      </trkpt>
      <trkpt lat="44.18493" lon="5.2747">
        <ele>1419.5999755859</ele>
        <time>2011-04-17T06:41:17.000Z</time>
      </trkpt>
      <trkpt lat="44.18493" lon="5.27471">
        <ele>1419.5999755859</ele>
        <time>2011-04-17T06:41:23.000Z</time>
      </trkpt>
      <trkpt lat="44.18494" lon="5.2747">
        <ele>1419.4000244141</ele>
        <time>2011-04-17T06:41:32.000Z</time>
      </trkpt>
      <trkpt lat="44.18493" lon="5.27469">
        <ele>1419.4000244141</ele>
        <time>2011-04-17T06:41:37.000Z</time>
      </trkpt>
      <trkpt lat="44.18494" lon="5.27468">
        <ele>1419.4000244141</ele>
        <time>2011-04-17T06:41:47.000Z</time>
      </trkpt>
      <trkpt lat="44.18493" lon="5.27468">
        <ele>1419.5999755859</ele>
        <time>2011-04-17T06:42:00.000Z</time>
      </trkpt>
      <trkpt lat="44.18494" lon="5.27469">
        <ele>1419.4000244141</ele>
        <time>2011-04-17T06:42:13.000Z</time>
      </trkpt>
      <trkpt lat="44.18495" lon="5.27475">
        <ele>1419.1999511719</ele>
        <time>2011-04-17T06:42:33.000Z</time>
      </trkpt>
      <trkpt lat="44.18494" lon="5.27473">
        <ele>1419.1999511719</ele>
        <time>2011-04-17T06:42:46.000Z</time>
      </trkpt>
      <trkpt lat="44.18493" lon="5.27471">
        <ele>1419.4000244141</ele>
        <time>2011-04-17T06:42:54.000Z</time>
      </trkpt>
      <trkpt lat="44.18494" lon="5.2747">
        <ele>1419.4000244141</ele>
        <time>2011-04-17T06:43:00.000Z</time>
      </trkpt>
      <trkpt lat="44.18494" lon="5.2747">
        <ele>1419.4000244141</ele>
        <time>2011-04-17T06:43:06.000Z</time>
      </trkpt>
      <trkpt lat="44.18492" lon="5.27468">
        <ele>1419.8000488281</ele>
        <time>2011-04-17T06:43:19.000Z</time>
      </trkpt>
      <trkpt lat="44.18492" lon="5.27467">
        <ele>1419.8000488281</ele>
        <time>2011-04-17T06:43:27.000Z</time>
      </trkpt>
      <trkpt lat="44.18492" lon="5.27467">
        <ele>1419.5999755859</ele>
        <time>2011-04-17T06:43:36.000Z</time>
      </trkpt>
      <trkpt lat="44.18493" lon="5.27467">
        <ele>1419.5999755859</ele>
        <time>2011-04-17T06:43:43.000Z</time>
      </trkpt>
      <trkpt lat="44.18492" lon="5.27468">
        <ele>1419.5999755859</ele>
        <time>2011-04-17T06:43:45.000Z</time>
      </trkpt>
      <trkpt lat="44.1849" lon="5.27472">
        <ele>1419.8000488281</ele>
        <time>2011-04-17T06:43:49.000Z</time>
      </trkpt>
      <trkpt lat="44.18486" lon="5.27475">
        <ele>1420.4000244141</ele>
        <time>2011-04-17T06:43:56.000Z</time>
      </trkpt>
      <trkpt lat="44.18485" lon="5.27477">
        <ele>1420.4000244141</ele>
        <time>2011-04-17T06:44:03.000Z</time>
      </trkpt>
      <trkpt lat="44.18486" lon="5.27477">
        <ele>1420.1999511719</ele>
        <time>2011-04-17T06:44:13.000Z</time>
      </trkpt>
      <trkpt lat="44.18483" lon="5.27477">
        <ele>1420.5999755859</ele>
        <time>2011-04-17T06:44:18.000Z</time>
      </trkpt>
      <trkpt lat="44.18482" lon="5.27476">
        <ele>1420.8000488281</ele>
        <time>2011-04-17T06:44:27.000Z</time>
      </trkpt>
      <trkpt lat="44.18482" lon="5.27474">
        <ele>1420.8000488281</ele>
        <time>2011-04-17T06:44:52.000Z</time>
      </trkpt>
      <trkpt lat="44.18483" lon="5.27476">
        <ele>1420.5999755859</ele>
        <time>2011-04-17T06:45:04.000Z</time>
      </trkpt>
      <trkpt lat="44.18483" lon="5.27479">
        <ele>1420.5999755859</ele>
        <time>2011-04-17T06:45:11.000Z</time>
      </trkpt>
      <trkpt lat="44.18482" lon="5.2748">
        <ele>1420.5999755859</ele>
        <time>2011-04-17T06:45:23.000Z</time>
      </trkpt>
      <trkpt lat="44.18483" lon="5.27482">
        <ele>1420.5999755859</ele>
        <time>2011-04-17T06:45:30.000Z</time>
      </trkpt>
      <trkpt lat="44.18481" lon="5.27489">
        <ele>1420.5999755859</ele>
        <time>2011-04-17T06:45:36.000Z</time>
      </trkpt>
      <trkpt lat="44.18479" lon="5.27494">
        <ele>1420.8000488281</ele>
        <time>2011-04-17T06:45:40.000Z</time>
      </trkpt>
      <trkpt lat="44.18477" lon="5.27502">
        <ele>1420.8000488281</ele>
        <time>2011-04-17T06:45:46.000Z</time>
      </trkpt>
      <trkpt lat="44.18473" lon="5.27506">
        <ele>1421.1999511719</ele>
        <time>2011-04-17T06:45:51.000Z</time>
      </trkpt>
      <trkpt lat="44.1847" lon="5.2751">
        <ele>1421.5999755859</ele>
        <time>2011-04-17T06:45:58.000Z</time>
      </trkpt>
      <trkpt lat="44.18469" lon="5.27512">
        <ele>1421.5999755859</ele>
        <time>2011-04-17T06:46:05.000Z</time>
      </trkpt>
      <trkpt lat="44.18469" lon="5.27513">
        <ele>1421.5999755859</ele>
        <time>2011-04-17T06:46:12.000Z</time>
      </trkpt>
      <trkpt lat="44.1847" lon="5.27514">
        <ele>1421.4000244141</ele>
        <time>2011-04-17T06:46:21.000Z</time>
      </trkpt>
      <trkpt lat="44.18469" lon="5.27514">
        <ele>1421.4000244141</ele>
        <time>2011-04-17T06:46:28.000Z</time>
      </trkpt>
      <trkpt lat="44.18469" lon="5.27514">
        <ele>1421.5999755859</ele>
        <time>2011-04-17T06:46:34.000Z</time>
      </trkpt>
      <trkpt lat="44.1847" lon="5.27512">
        <ele>1421.4000244141</ele>
        <time>2011-04-17T06:46:49.000Z</time>
      </trkpt>
      <trkpt lat="44.1847" lon="5.27513">
        <ele>1421.4000244141</ele>
        <time>2011-04-17T06:47:00.000Z</time>
      </trkpt>
      <trkpt lat="44.1847" lon="5.27513">
        <ele>1421.4000244141</ele>
        <time>2011-04-17T06:47:13.000Z</time>
      </trkpt>
      <trkpt lat="44.18471" lon="5.27513">
        <ele>1421.1999511719</ele>
        <time>2011-04-17T06:47:27.000Z</time>
      </trkpt>
      <trkpt lat="44.18471" lon="5.27514">
        <ele>1421.1999511719</ele>
        <time>2011-04-17T06:47:32.000Z</time>
      </trkpt>
      <trkpt lat="44.1847" lon="5.27515">
        <ele>1421.4000244141</ele>
        <time>2011-04-17T06:47:40.000Z</time>
      </trkpt>
      <trkpt lat="44.1847" lon="5.27516">
        <ele>1421.4000244141</ele>
        <time>2011-04-17T06:47:52.000Z</time>
      </trkpt>
      <trkpt lat="44.18468" lon="5.27519">
        <ele>1421.4000244141</ele>
        <time>2011-04-17T06:48:05.000Z</time>
      </trkpt>
      <trkpt lat="44.18469" lon="5.27518">
        <ele>1421.4000244141</ele>
        <time>2011-04-17T06:48:14.000Z</time>
      </trkpt>
      <trkpt lat="44.1847" lon="5.27515">
        <ele>1421.4000244141</ele>
        <time>2011-04-17T06:48:23.000Z</time>
      </trkpt>
      <trkpt lat="44.18469" lon="5.27516">
        <ele>1421.5999755859</ele>
        <time>2011-04-17T06:48:38.000Z</time>
      </trkpt>
      <trkpt lat="44.18469" lon="5.27517">
        <ele>1421.4000244141</ele>
        <time>2011-04-17T06:48:51.000Z</time>
      </trkpt>
      <trkpt lat="44.18471" lon="5.27515">
        <ele>1421.4000244141</ele>
        <time>2011-04-17T06:49:01.000Z</time>
      </trkpt>
      <trkpt lat="44.18471" lon="5.27514">
        <ele>1421.4000244141</ele>
        <time>2011-04-17T06:49:08.000Z</time>
      </trkpt>
      <trkpt lat="44.18471" lon="5.27513">
        <ele>1421.4000244141</ele>
        <time>2011-04-17T06:49:17.000Z</time>
      </trkpt>
      <trkpt lat="44.1847" lon="5.27513">
        <ele>1421.4000244141</ele>
        <time>2011-04-17T06:49:26.000Z</time>
      </trkpt>
      <trkpt lat="44.1847" lon="5.27512">
        <ele>1421.4000244141</ele>
        <time>2011-04-17T06:49:30.000Z</time>
      </trkpt>
      <trkpt lat="44.18469" lon="5.27509">
        <ele>1421.5999755859</ele>
        <time>2011-04-17T06:49:35.000Z</time>
      </trkpt>
      <trkpt lat="44.1847" lon="5.27507">
        <ele>1421.5999755859</ele>
        <time>2011-04-17T06:49:45.000Z</time>
      </trkpt>
      <trkpt lat="44.18471" lon="5.27507">
        <ele>1421.5999755859</ele>
        <time>2011-04-17T06:49:55.000Z</time>
      </trkpt>
      <trkpt lat="44.1847" lon="5.27509">
        <ele>1421.5999755859</ele>
        <time>2011-04-17T06:50:11.000Z</time>
      </trkpt>
      <trkpt lat="44.18469" lon="5.27511">
        <ele>1421.5999755859</ele>
        <time>2011-04-17T06:50:13.000Z</time>
      </trkpt>
      <trkpt lat="44.18465" lon="5.27521">
        <ele>1421.8000488281</ele>
        <time>2011-04-17T06:50:17.000Z</time>
      </trkpt>
      <trkpt lat="44.18451" lon="5.27537">
        <ele>1423.1999511719</ele>
        <time>2011-04-17T06:50:24.000Z</time>
      </trkpt>
      <trkpt lat="44.18441" lon="5.27559">
        <ele>1424</ele>
        <time>2011-04-17T06:50:32.000Z</time>
      </trkpt>
      <trkpt lat="44.18437" lon="5.27579">
        <ele>1424.1999511719</ele>
        <time>2011-04-17T06:50:37.000Z</time>
      </trkpt>
      <trkpt lat="44.18434" lon="5.27606">
        <ele>1423.4000244141</ele>
        <time>2011-04-17T06:50:43.000Z</time>
      </trkpt>
      <trkpt lat="44.18431" lon="5.27642">
        <ele>1422.5999755859</ele>
        <time>2011-04-17T06:50:52.000Z</time>
      </trkpt>
      <trkpt lat="44.18427" lon="5.27661">
        <ele>1422.4000244141</ele>
        <time>2011-04-17T06:50:58.000Z</time>
      </trkpt>
      <trkpt lat="44.18428" lon="5.27662">
        <ele>1422.1999511719</ele>
        <time>2011-04-17T06:51:05.000Z</time>
      </trkpt>
      <trkpt lat="44.1843" lon="5.27663">
        <ele>1421.8000488281</ele>
        <time>2011-04-17T06:51:20.000Z</time>
      </trkpt>
      <trkpt lat="44.1843" lon="5.27669">
        <ele>1421.5999755859</ele>
        <time>2011-04-17T06:51:27.000Z</time>
      </trkpt>
      <trkpt lat="44.1843" lon="5.27673">
        <ele>1421.5999755859</ele>
        <time>2011-04-17T06:51:32.000Z</time>
      </trkpt>
      <trkpt lat="44.18429" lon="5.27671">
        <ele>1421.8000488281</ele>
        <time>2011-04-17T06:51:42.000Z</time>
      </trkpt>
      <trkpt lat="44.18429" lon="5.27674">
        <ele>1421.8000488281</ele>
        <time>2011-04-17T06:51:56.000Z</time>
      </trkpt>
      <trkpt lat="44.18425" lon="5.27692">
        <ele>1422.4000244141</ele>
        <time>2011-04-17T06:52:02.000Z</time>
      </trkpt>
      <trkpt lat="44.18424" lon="5.27715">
        <ele>1422.4000244141</ele>
        <time>2011-04-17T06:52:08.000Z</time>
      </trkpt>
      <trkpt lat="44.18425" lon="5.27729">
        <ele>1422.1999511719</ele>
        <time>2011-04-17T06:52:14.000Z</time>
      </trkpt>
      <trkpt lat="44.18425" lon="5.27731">
        <ele>1422.1999511719</ele>
        <time>2011-04-17T06:52:30.000Z</time>
      </trkpt>
      <trkpt lat="44.18425" lon="5.27732">
        <ele>1422.1999511719</ele>
        <time>2011-04-17T06:52:45.000Z</time>
      </trkpt>
      <trkpt lat="44.18422" lon="5.2773">
        <ele>1422.8000488281</ele>
        <time>2011-04-17T06:52:49.000Z</time>
      </trkpt>
      <trkpt lat="44.18424" lon="5.27722">
        <ele>1422.4000244141</ele>
        <time>2011-04-17T06:52:52.000Z</time>
      </trkpt>
      <trkpt lat="44.18425" lon="5.27713">
        <ele>1422.1999511719</ele>
        <time>2011-04-17T06:52:55.000Z</time>
      </trkpt>
      <trkpt lat="44.18432" lon="5.27707">
        <ele>1421</ele>
        <time>2011-04-17T06:52:59.000Z</time>
      </trkpt>
      <trkpt lat="44.18434" lon="5.27708">
        <ele>1420.5999755859</ele>
        <time>2011-04-17T06:53:00.000Z</time>
      </trkpt>
      <trkpt lat="44.18451" lon="5.27725">
        <ele>1417</ele>
        <time>2011-04-17T06:53:06.000Z</time>
      </trkpt>
      <trkpt lat="44.18469" lon="5.27744">
        <ele>1412.8000488281</ele>
        <time>2011-04-17T06:53:10.000Z</time>
      </trkpt>
      <trkpt lat="44.1848" lon="5.27762">
        <ele>1410</ele>
        <time>2011-04-17T06:53:13.000Z</time>
      </trkpt>
      <trkpt lat="44.18488" lon="5.27772">
        <ele>1408.4000244141</ele>
        <time>2011-04-17T06:53:15.000Z</time>
      </trkpt>
      <trkpt lat="44.18499" lon="5.27782">
        <ele>1406.1999511719</ele>
        <time>2011-04-17T06:53:18.000Z</time>
      </trkpt>
      <trkpt lat="44.18513" lon="5.27797">
        <ele>1403.5999755859</ele>
        <time>2011-04-17T06:53:22.000Z</time>
      </trkpt>
      <trkpt lat="44.18524" lon="5.27808">
        <ele>1402</ele>
        <time>2011-04-17T06:53:25.000Z</time>
      </trkpt>
      <trkpt lat="44.18549" lon="5.27818">
        <ele>1398.1999511719</ele>
        <time>2011-04-17T06:53:31.000Z</time>
      </trkpt>
      <trkpt lat="44.18566" lon="5.27811">
        <ele>1395.1999511719</ele>
        <time>2011-04-17T06:53:34.000Z</time>
      </trkpt>
      <trkpt lat="44.18581" lon="5.278">
        <ele>1391.8000488281</ele>
        <time>2011-04-17T06:53:37.000Z</time>
      </trkpt>
      <trkpt lat="44.186" lon="5.27792">
        <ele>1387.5999755859</ele>
        <time>2011-04-17T06:53:41.000Z</time>
      </trkpt>
      <trkpt lat="44.18611" lon="5.27791">
        <ele>1385.1999511719</ele>
        <time>2011-04-17T06:53:46.000Z</time>
      </trkpt>
      <trkpt lat="44.18622" lon="5.27791">
        <ele>1383.1999511719</ele>
        <time>2011-04-17T06:53:51.000Z</time>
      </trkpt>
      <trkpt lat="44.18638" lon="5.27799">
        <ele>1380.8000488281</ele>
        <time>2011-04-17T06:53:57.000Z</time>
      </trkpt>
      <trkpt lat="44.18649" lon="5.27805">
        <ele>1379.1999511719</ele>
        <time>2011-04-17T06:54:02.000Z</time>
      </trkpt>
      <trkpt lat="44.18659" lon="5.27814">
        <ele>1378.1999511719</ele>
        <time>2011-04-17T06:54:05.000Z</time>
      </trkpt>
      <trkpt lat="44.18671" lon="5.27823">
        <ele>1377</ele>
        <time>2011-04-17T06:54:09.000Z</time>
      </trkpt>
      <trkpt lat="44.18685" lon="5.27833">
        <ele>1374.5999755859</ele>
        <time>2011-04-17T06:54:14.000Z</time>
      </trkpt>
      <trkpt lat="44.18702" lon="5.27847">
        <ele>1371.8000488281</ele>
        <time>2011-04-17T06:54:20.000Z</time>
      </trkpt>
      <trkpt lat="44.18721" lon="5.27842">
        <ele>1367</ele>
        <time>2011-04-17T06:54:25.000Z</time>
      </trkpt>
      <trkpt lat="44.18731" lon="5.27838">
        <ele>1364.5999755859</ele>
        <time>2011-04-17T06:54:27.000Z</time>
      </trkpt>
      <trkpt lat="44.18749" lon="5.27824">
        <ele>1360</ele>
        <time>2011-04-17T06:54:31.000Z</time>
      </trkpt>
      <trkpt lat="44.18768" lon="5.27798">
        <ele>1356.5999755859</ele>
        <time>2011-04-17T06:54:36.000Z</time>
      </trkpt>
      <trkpt lat="44.18782" lon="5.27776">
        <ele>1354.5999755859</ele>
        <time>2011-04-17T06:54:40.000Z</time>
      </trkpt>
      <trkpt lat="44.18795" lon="5.27754">
        <ele>1353</ele>
        <time>2011-04-17T06:54:44.000Z</time>
      </trkpt>
      <trkpt lat="44.18823" lon="5.27714">
        <ele>1348.8000488281</ele>
        <time>2011-04-17T06:54:51.000Z</time>
      </trkpt>
      <trkpt lat="44.18829" lon="5.27705">
        <ele>1348.1999511719</ele>
        <time>2011-04-17T06:54:53.000Z</time>
      </trkpt>
      <trkpt lat="44.18835" lon="5.27685">
        <ele>1347</ele>
        <time>2011-04-17T06:54:57.000Z</time>
      </trkpt>
      <trkpt lat="44.18833" lon="5.27684">
        <ele>1347.4000244141</ele>
        <time>2011-04-17T06:55:05.000Z</time>
      </trkpt>
      <trkpt lat="44.18833" lon="5.27683">
        <ele>1347.4000244141</ele>
        <time>2011-04-17T06:55:16.000Z</time>
      </trkpt>
      <trkpt lat="44.18835" lon="5.27684">
        <ele>1346.8000488281</ele>
        <time>2011-04-17T06:55:23.000Z</time>
      </trkpt>
      <trkpt lat="44.18832" lon="5.27686">
        <ele>1347.4000244141</ele>
        <time>2011-04-17T06:55:59.000Z</time>
      </trkpt>
      <trkpt lat="44.18833" lon="5.27688">
        <ele>1347.4000244141</ele>
        <time>2011-04-17T06:56:20.000Z</time>
      </trkpt>
      <trkpt lat="44.1884" lon="5.27688">
        <ele>1345.4000244141</ele>
        <time>2011-04-17T06:56:27.000Z</time>
      </trkpt>
      <trkpt lat="44.1885" lon="5.27706">
        <ele>1342.8000488281</ele>
        <time>2011-04-17T06:56:32.000Z</time>
      </trkpt>
      <trkpt lat="44.18858" lon="5.27724">
        <ele>1340.5999755859</ele>
        <time>2011-04-17T06:56:38.000Z</time>
      </trkpt>
      <trkpt lat="44.18863" lon="5.27748">
        <ele>1338.8000488281</ele>
        <time>2011-04-17T06:56:42.000Z</time>
      </trkpt>
      <trkpt lat="44.18865" lon="5.27757">
        <ele>1338</ele>
        <time>2011-04-17T06:56:45.000Z</time>
      </trkpt>
      <trkpt lat="44.18866" lon="5.27761">
        <ele>1337.5999755859</ele>
        <time>2011-04-17T06:56:49.000Z</time>
      </trkpt>
      <trkpt lat="44.18865" lon="5.27766">
        <ele>1337.8000488281</ele>
        <time>2011-04-17T06:56:56.000Z</time>
      </trkpt>
      <trkpt lat="44.18865" lon="5.27765">
        <ele>1337.8000488281</ele>
        <time>2011-04-17T06:57:00.000Z</time>
      </trkpt>
      <trkpt lat="44.18865" lon="5.27768">
        <ele>1337.5999755859</ele>
        <time>2011-04-17T06:57:05.000Z</time>
      </trkpt>
      <trkpt lat="44.18866" lon="5.27771">
        <ele>1337.1999511719</ele>
        <time>2011-04-17T06:57:11.000Z</time>
      </trkpt>
      <trkpt lat="44.18868" lon="5.27789">
        <ele>1335.8000488281</ele>
        <time>2011-04-17T06:57:15.000Z</time>
      </trkpt>
      <trkpt lat="44.1887" lon="5.27834">
        <ele>1333.5999755859</ele>
        <time>2011-04-17T06:57:21.000Z</time>
      </trkpt>
      <trkpt lat="44.1887" lon="5.27852">
        <ele>1332.1999511719</ele>
        <time>2011-04-17T06:57:23.000Z</time>
      </trkpt>
      <trkpt lat="44.18872" lon="5.27886">
        <ele>1328.1999511719</ele>
        <time>2011-04-17T06:57:27.000Z</time>
      </trkpt>
      <trkpt lat="44.1887" lon="5.27928">
        <ele>1324.8000488281</ele>
        <time>2011-04-17T06:57:32.000Z</time>
      </trkpt>
      <trkpt lat="44.18868" lon="5.27961">
        <ele>1321.4000244141</ele>
        <time>2011-04-17T06:57:36.000Z</time>
      </trkpt>
      <trkpt lat="44.18866" lon="5.27989">
        <ele>1319.1999511719</ele>
        <time>2011-04-17T06:57:39.000Z</time>
      </trkpt>
      <trkpt lat="44.18862" lon="5.28035">
        <ele>1316</ele>
        <time>2011-04-17T06:57:44.000Z</time>
      </trkpt>
      <trkpt lat="44.1886" lon="5.28048">
        <ele>1315.4000244141</ele>
        <time>2011-04-17T06:57:46.000Z</time>
      </trkpt>
      <trkpt lat="44.18863" lon="5.28046">
        <ele>1314</ele>
        <time>2011-04-17T06:57:50.000Z</time>
      </trkpt>
      <trkpt lat="44.18874" lon="5.28021">
        <ele>1311.1999511719</ele>
        <time>2011-04-17T06:57:56.000Z</time>
      </trkpt>
      <trkpt lat="44.18891" lon="5.28">
        <ele>1305.8000488281</ele>
        <time>2011-04-17T06:58:01.000Z</time>
      </trkpt>
      <trkpt lat="44.18912" lon="5.27974">
        <ele>1299.8000488281</ele>
        <time>2011-04-17T06:58:06.000Z</time>
      </trkpt>
      <trkpt lat="44.18921" lon="5.27962">
        <ele>1297.5999755859</ele>
        <time>2011-04-17T06:58:08.000Z</time>
      </trkpt>
      <trkpt lat="44.18942" lon="5.27935">
        <ele>1290.4000244141</ele>
        <time>2011-04-17T06:58:13.000Z</time>
      </trkpt>
      <trkpt lat="44.18953" lon="5.27922">
        <ele>1286.4000244141</ele>
        <time>2011-04-17T06:58:17.000Z</time>
      </trkpt>
      <trkpt lat="44.18955" lon="5.27929">
        <ele>1284</ele>
        <time>2011-04-17T06:58:20.000Z</time>
      </trkpt>
      <trkpt lat="44.18953" lon="5.27944">
        <ele>1282.4000244141</ele>
        <time>2011-04-17T06:58:25.000Z</time>
      </trkpt>
      <trkpt lat="44.18952" lon="5.27948">
        <ele>1282.1999511719</ele>
        <time>2011-04-17T06:58:27.000Z</time>
      </trkpt>
      <trkpt lat="44.18949" lon="5.27957">
        <ele>1282.4000244141</ele>
        <time>2011-04-17T06:58:30.000Z</time>
      </trkpt>
      <trkpt lat="44.18939" lon="5.27981">
        <ele>1283.5999755859</ele>
        <time>2011-04-17T06:58:35.000Z</time>
      </trkpt>
      <trkpt lat="44.18929" lon="5.28007">
        <ele>1284.5999755859</ele>
        <time>2011-04-17T06:58:38.000Z</time>
      </trkpt>
      <trkpt lat="44.18921" lon="5.28027">
        <ele>1285.4000244141</ele>
        <time>2011-04-17T06:58:40.000Z</time>
      </trkpt>
      <trkpt lat="44.18917" lon="5.28072">
        <ele>1280.5999755859</ele>
        <time>2011-04-17T06:58:45.000Z</time>
      </trkpt>
      <trkpt lat="44.18929" lon="5.28121">
        <ele>1267</ele>
        <time>2011-04-17T06:58:51.000Z</time>
      </trkpt>
      <trkpt lat="44.18932" lon="5.28137">
        <ele>1263.4000244141</ele>
        <time>2011-04-17T06:58:53.000Z</time>
      </trkpt>
      <trkpt lat="44.1893" lon="5.28164">
        <ele>1261.5999755859</ele>
        <time>2011-04-17T06:58:57.000Z</time>
      </trkpt>
      <trkpt lat="44.18922" lon="5.28197">
        <ele>1256.5999755859</ele>
        <time>2011-04-17T06:59:02.000Z</time>
      </trkpt>
      <trkpt lat="44.1892" lon="5.28209">
        <ele>1253.8000488281</ele>
        <time>2011-04-17T06:59:06.000Z</time>
      </trkpt>
      <trkpt lat="44.1892" lon="5.2821">
        <ele>1253.1999511719</ele>
        <time>2011-04-17T06:59:11.000Z</time>
      </trkpt>
      <trkpt lat="44.18922" lon="5.28209">
        <ele>1252.1999511719</ele>
        <time>2011-04-17T06:59:18.000Z</time>
      </trkpt>
      <trkpt lat="44.1893" lon="5.28199">
        <ele>1250.8000488281</ele>
        <time>2011-04-17T06:59:23.000Z</time>
      </trkpt>
      <trkpt lat="44.18948" lon="5.28187">
        <ele>1243.5999755859</ele>
        <time>2011-04-17T06:59:29.000Z</time>
      </trkpt>
      <trkpt lat="44.18963" lon="5.28175">
        <ele>1237.4000244141</ele>
        <time>2011-04-17T06:59:34.000Z</time>
      </trkpt>
      <trkpt lat="44.18966" lon="5.28174">
        <ele>1236</ele>
        <time>2011-04-17T06:59:35.000Z</time>
      </trkpt>
      <trkpt lat="44.18974" lon="5.28164">
        <ele>1232.8000488281</ele>
        <time>2011-04-17T06:59:40.000Z</time>
      </trkpt>
      <trkpt lat="44.18975" lon="5.28161">
        <ele>1232.5999755859</ele>
        <time>2011-04-17T06:59:41.000Z</time>
      </trkpt>
      <trkpt lat="44.18979" lon="5.28137">
        <ele>1233</ele>
        <time>2011-04-17T06:59:47.000Z</time>
      </trkpt>
      <trkpt lat="44.1898" lon="5.28114">
        <ele>1234.8000488281</ele>
        <time>2011-04-17T06:59:52.000Z</time>
      </trkpt>
      <trkpt lat="44.18983" lon="5.28091">
        <ele>1235.8000488281</ele>
        <time>2011-04-17T06:59:57.000Z</time>
      </trkpt>
      <trkpt lat="44.18993" lon="5.28069">
        <ele>1233.4000244141</ele>
        <time>2011-04-17T07:00:02.000Z</time>
      </trkpt>
      <trkpt lat="44.19015" lon="5.28042">
        <ele>1224.5999755859</ele>
        <time>2011-04-17T07:00:08.000Z</time>
      </trkpt>
      <trkpt lat="44.19021" lon="5.28033">
        <ele>1222</ele>
        <time>2011-04-17T07:00:10.000Z</time>
      </trkpt>
      <trkpt lat="44.19033" lon="5.28017">
        <ele>1216.4000244141</ele>
        <time>2011-04-17T07:00:15.000Z</time>
      </trkpt>
      <trkpt lat="44.19041" lon="5.27999">
        <ele>1213.5999755859</ele>
        <time>2011-04-17T07:00:21.000Z</time>
      </trkpt>
      <trkpt lat="44.19046" lon="5.27982">
        <ele>1212.5999755859</ele>
        <time>2011-04-17T07:00:26.000Z</time>
      </trkpt>
      <trkpt lat="44.1905" lon="5.2796">
        <ele>1213</ele>
        <time>2011-04-17T07:00:31.000Z</time>
      </trkpt>
      <trkpt lat="44.19052" lon="5.27951">
        <ele>1213</ele>
        <time>2011-04-17T07:00:35.000Z</time>
      </trkpt>
      <trkpt lat="44.19054" lon="5.2795">
        <ele>1211.1999511719</ele>
        <time>2011-04-17T07:00:37.000Z</time>
      </trkpt>
      <trkpt lat="44.19056" lon="5.27947">
        <ele>1210.4000244141</ele>
        <time>2011-04-17T07:00:40.000Z</time>
      </trkpt>
      <trkpt lat="44.19058" lon="5.27935">
        <ele>1210.1999511719</ele>
        <time>2011-04-17T07:00:45.000Z</time>
      </trkpt>
      <trkpt lat="44.19063" lon="5.27924">
        <ele>1208.5999755859</ele>
        <time>2011-04-17T07:00:48.000Z</time>
      </trkpt>
      <trkpt lat="44.19069" lon="5.27907">
        <ele>1205.8000488281</ele>
        <time>2011-04-17T07:00:53.000Z</time>
      </trkpt>
      <trkpt lat="44.19078" lon="5.27889">
        <ele>1200.5999755859</ele>
        <time>2011-04-17T07:00:58.000Z</time>
      </trkpt>
      <trkpt lat="44.19082" lon="5.27879">
        <ele>1199</ele>
        <time>2011-04-17T07:01:00.000Z</time>
      </trkpt>
      <trkpt lat="44.19087" lon="5.27879">
        <ele>1194.5999755859</ele>
        <time>2011-04-17T07:01:04.000Z</time>
      </trkpt>
      <trkpt lat="44.19083" lon="5.279">
        <ele>1195.1999511719</ele>
        <time>2011-04-17T07:01:10.000Z</time>
      </trkpt>
      <trkpt lat="44.19081" lon="5.27924">
        <ele>1193.4000244141</ele>
        <time>2011-04-17T07:01:15.000Z</time>
      </trkpt>
      <trkpt lat="44.19081" lon="5.27956">
        <ele>1189.4000244141</ele>
        <time>2011-04-17T07:01:20.000Z</time>
      </trkpt>
      <trkpt lat="44.19081" lon="5.27963">
        <ele>1188.8000488281</ele>
        <time>2011-04-17T07:01:21.000Z</time>
      </trkpt>
      <trkpt lat="44.19081" lon="5.2798">
        <ele>1186</ele>
        <time>2011-04-17T07:01:24.000Z</time>
      </trkpt>
      <trkpt lat="44.19081" lon="5.2799">
        <ele>1184.8000488281</ele>
        <time>2011-04-17T07:01:26.000Z</time>
      </trkpt>
      <trkpt lat="44.19081" lon="5.28014">
        <ele>1181.8000488281</ele>
        <time>2011-04-17T07:01:32.000Z</time>
      </trkpt>
      <trkpt lat="44.1908" lon="5.28029">
        <ele>1180.1999511719</ele>
        <time>2011-04-17T07:01:37.000Z</time>
      </trkpt>
      <trkpt lat="44.19079" lon="5.28031">
        <ele>1180.4000244141</ele>
        <time>2011-04-17T07:01:43.000Z</time>
      </trkpt>
      <trkpt lat="44.19079" lon="5.28031">
        <ele>1180.4000244141</ele>
        <time>2011-04-17T07:01:44.000Z</time>
      </trkpt>
      <trkpt lat="44.19078" lon="5.28044">
        <ele>1179.1999511719</ele>
        <time>2011-04-17T07:01:48.000Z</time>
      </trkpt>
      <trkpt lat="44.19074" lon="5.28067">
        <ele>1178.5999755859</ele>
        <time>2011-04-17T07:01:53.000Z</time>
      </trkpt>
      <trkpt lat="44.19068" lon="5.28097">
        <ele>1178</ele>
        <time>2011-04-17T07:01:58.000Z</time>
      </trkpt>
      <trkpt lat="44.19068" lon="5.28105">
        <ele>1177.4000244141</ele>
        <time>2011-04-17T07:01:59.000Z</time>
      </trkpt>
      <trkpt lat="44.19072" lon="5.28136">
        <ele>1170.4000244141</ele>
        <time>2011-04-17T07:02:03.000Z</time>
      </trkpt>
      <trkpt lat="44.19076" lon="5.28159">
        <ele>1164.1999511719</ele>
        <time>2011-04-17T07:02:07.000Z</time>
      </trkpt>
      <trkpt lat="44.19081" lon="5.28186">
        <ele>1155.1999511719</ele>
        <time>2011-04-17T07:02:12.000Z</time>
      </trkpt>
      <trkpt lat="44.19087" lon="5.28207">
        <ele>1147.1999511719</ele>
        <time>2011-04-17T07:02:17.000Z</time>
      </trkpt>
      <trkpt lat="44.19087" lon="5.28234">
        <ele>1141.8000488281</ele>
        <time>2011-04-17T07:02:24.000Z</time>
      </trkpt>
      <trkpt lat="44.19085" lon="5.28254">
        <ele>1138.8000488281</ele>
        <time>2011-04-17T07:02:29.000Z</time>
      </trkpt>
      <trkpt lat="44.19075" lon="5.2827">
        <ele>1140.1999511719</ele>
        <time>2011-04-17T07:02:34.000Z</time>
      </trkpt>
      <trkpt lat="44.19062" lon="5.28283">
        <ele>1144.8000488281</ele>
        <time>2011-04-17T07:02:40.000Z</time>
      </trkpt>
      <trkpt lat="44.19054" lon="5.28293">
        <ele>1147</ele>
        <time>2011-04-17T07:02:46.000Z</time>
      </trkpt>
      <trkpt lat="44.1905" lon="5.28298">
        <ele>1147.5999755859</ele>
        <time>2011-04-17T07:02:51.000Z</time>
      </trkpt>
      <trkpt lat="44.1905" lon="5.28301">
        <ele>1147.1999511719</ele>
        <time>2011-04-17T07:02:52.000Z</time>
      </trkpt>
      <trkpt lat="44.19051" lon="5.28303">
        <ele>1145.8000488281</ele>
        <time>2011-04-17T07:03:00.000Z</time>
      </trkpt>
      <trkpt lat="44.19052" lon="5.28304">
        <ele>1144.8000488281</ele>
        <time>2011-04-17T07:03:07.000Z</time>
      </trkpt>
      <trkpt lat="44.19054" lon="5.28305">
        <ele>1143.1999511719</ele>
        <time>2011-04-17T07:03:13.000Z</time>
      </trkpt>
      <trkpt lat="44.19055" lon="5.28302">
        <ele>1143.5999755859</ele>
        <time>2011-04-17T07:03:20.000Z</time>
      </trkpt>
      <trkpt lat="44.19056" lon="5.28301">
        <ele>1142.8000488281</ele>
        <time>2011-04-17T07:03:23.000Z</time>
      </trkpt>
      <trkpt lat="44.19068" lon="5.28296">
        <ele>1136.5999755859</ele>
        <time>2011-04-17T07:03:29.000Z</time>
      </trkpt>
      <trkpt lat="44.19081" lon="5.28295">
        <ele>1128.1999511719</ele>
        <time>2011-04-17T07:03:34.000Z</time>
      </trkpt>
      <trkpt lat="44.19092" lon="5.28289">
        <ele>1123.4000244141</ele>
        <time>2011-04-17T07:03:38.000Z</time>
      </trkpt>
      <trkpt lat="44.19106" lon="5.28279">
        <ele>1118.5999755859</ele>
        <time>2011-04-17T07:03:42.000Z</time>
      </trkpt>
      <trkpt lat="44.19116" lon="5.28263">
        <ele>1117.5999755859</ele>
        <time>2011-04-17T07:03:46.000Z</time>
      </trkpt>
      <trkpt lat="44.19123" lon="5.28246">
        <ele>1118.1999511719</ele>
        <time>2011-04-17T07:03:50.000Z</time>
      </trkpt>
      <trkpt lat="44.1913" lon="5.2822">
        <ele>1118.5999755859</ele>
        <time>2011-04-17T07:03:56.000Z</time>
      </trkpt>
      <trkpt lat="44.19136" lon="5.28204">
        <ele>1117.5999755859</ele>
        <time>2011-04-17T07:04:01.000Z</time>
      </trkpt>
      <trkpt lat="44.19143" lon="5.28186">
        <ele>1116.1999511719</ele>
        <time>2011-04-17T07:04:06.000Z</time>
      </trkpt>
      <trkpt lat="44.19152" lon="5.28163">
        <ele>1115.1999511719</ele>
        <time>2011-04-17T07:04:11.000Z</time>
      </trkpt>
      <trkpt lat="44.19164" lon="5.28141">
        <ele>1111.4000244141</ele>
        <time>2011-04-17T07:04:16.000Z</time>
      </trkpt>
      <trkpt lat="44.19167" lon="5.28136">
        <ele>1110</ele>
        <time>2011-04-17T07:04:17.000Z</time>
      </trkpt>
      <trkpt lat="44.19191" lon="5.28115">
        <ele>1100.8000488281</ele>
        <time>2011-04-17T07:04:22.000Z</time>
      </trkpt>
      <trkpt lat="44.19212" lon="5.28098">
        <ele>1092.8000488281</ele>
        <time>2011-04-17T07:04:27.000Z</time>
      </trkpt>
      <trkpt lat="44.19227" lon="5.28081">
        <ele>1087.1999511719</ele>
        <time>2011-04-17T07:04:31.000Z</time>
      </trkpt>
      <trkpt lat="44.1924" lon="5.28067">
        <ele>1078.8000488281</ele>
        <time>2011-04-17T07:04:36.000Z</time>
      </trkpt>
      <trkpt lat="44.1924" lon="5.28074">
        <ele>1079.1999511719</ele>
        <time>2011-04-17T07:04:38.000Z</time>
      </trkpt>
      <trkpt lat="44.1923" lon="5.28105">
        <ele>1081.5999755859</ele>
        <time>2011-04-17T07:04:44.000Z</time>
      </trkpt>
      <trkpt lat="44.19219" lon="5.28125">
        <ele>1083.8000488281</ele>
        <time>2011-04-17T07:04:49.000Z</time>
      </trkpt>
      <trkpt lat="44.19211" lon="5.28142">
        <ele>1084.5999755859</ele>
        <time>2011-04-17T07:04:54.000Z</time>
      </trkpt>
      <trkpt lat="44.19205" lon="5.28165">
        <ele>1083.8000488281</ele>
        <time>2011-04-17T07:04:59.000Z</time>
      </trkpt>
      <trkpt lat="44.19206" lon="5.28192">
        <ele>1078.4000244141</ele>
        <time>2011-04-17T07:05:03.000Z</time>
      </trkpt>
      <trkpt lat="44.19208" lon="5.28207">
        <ele>1074.5999755859</ele>
        <time>2011-04-17T07:05:05.000Z</time>
      </trkpt>
      <trkpt lat="44.19208" lon="5.2825">
        <ele>1066.4000244141</ele>
        <time>2011-04-17T07:05:11.000Z</time>
      </trkpt>
      <trkpt lat="44.19208" lon="5.28258">
        <ele>1065.1999511719</ele>
        <time>2011-04-17T07:05:12.000Z</time>
      </trkpt>
      <trkpt lat="44.19205" lon="5.28284">
        <ele>1061.4000244141</ele>
        <time>2011-04-17T07:05:16.000Z</time>
      </trkpt>
      <trkpt lat="44.192" lon="5.28305">
        <ele>1059.4000244141</ele>
        <time>2011-04-17T07:05:20.000Z</time>
      </trkpt>
      <trkpt lat="44.19192" lon="5.28324">
        <ele>1059</ele>
        <time>2011-04-17T07:05:23.000Z</time>
      </trkpt>
      <trkpt lat="44.19182" lon="5.28339">
        <ele>1059.1999511719</ele>
        <time>2011-04-17T07:05:26.000Z</time>
      </trkpt>
      <trkpt lat="44.19178" lon="5.28344">
        <ele>1058.8000488281</ele>
        <time>2011-04-17T07:05:28.000Z</time>
      </trkpt>
      <trkpt lat="44.19174" lon="5.28346">
        <ele>1059.8000488281</ele>
        <time>2011-04-17T07:05:33.000Z</time>
      </trkpt>
      <trkpt lat="44.1917" lon="5.2835">
        <ele>1060</ele>
        <time>2011-04-17T07:05:39.000Z</time>
      </trkpt>
      <trkpt lat="44.19169" lon="5.2835">
        <ele>1060</ele>
        <time>2011-04-17T07:05:46.000Z</time>
      </trkpt>
      <trkpt lat="44.19169" lon="5.28351">
        <ele>1060.1999511719</ele>
        <time>2011-04-17T07:05:49.000Z</time>
      </trkpt>
      <trkpt lat="44.19165" lon="5.28357">
        <ele>1059.5999755859</ele>
        <time>2011-04-17T07:05:57.000Z</time>
      </trkpt>
      <trkpt lat="44.19163" lon="5.28362">
        <ele>1058.8000488281</ele>
        <time>2011-04-17T07:06:03.000Z</time>
      </trkpt>
      <trkpt lat="44.19166" lon="5.28366">
        <ele>1055.8000488281</ele>
        <time>2011-04-17T07:06:09.000Z</time>
      </trkpt>
      <trkpt lat="44.19168" lon="5.28365">
        <ele>1055</ele>
        <time>2011-04-17T07:06:14.000Z</time>
      </trkpt>
      <trkpt lat="44.19176" lon="5.2836">
        <ele>1053.4000244141</ele>
        <time>2011-04-17T07:06:18.000Z</time>
      </trkpt>
      <trkpt lat="44.19187" lon="5.28356">
        <ele>1050.5999755859</ele>
        <time>2011-04-17T07:06:23.000Z</time>
      </trkpt>
      <trkpt lat="44.19197" lon="5.28354">
        <ele>1047.4000244141</ele>
        <time>2011-04-17T07:06:28.000Z</time>
      </trkpt>
      <trkpt lat="44.19209" lon="5.28348">
        <ele>1044.4000244141</ele>
        <time>2011-04-17T07:06:33.000Z</time>
      </trkpt>
      <trkpt lat="44.19227" lon="5.28343">
        <ele>1038.8000488281</ele>
        <time>2011-04-17T07:06:37.000Z</time>
      </trkpt>
      <trkpt lat="44.19243" lon="5.28333">
        <ele>1035</ele>
        <time>2011-04-17T07:06:41.000Z</time>
      </trkpt>
      <trkpt lat="44.1925" lon="5.28326">
        <ele>1032.8000488281</ele>
        <time>2011-04-17T07:06:43.000Z</time>
      </trkpt>
      <trkpt lat="44.19263" lon="5.28308">
        <ele>1030.1999511719</ele>
        <time>2011-04-17T07:06:47.000Z</time>
      </trkpt>
      <trkpt lat="44.19269" lon="5.28297">
        <ele>1029</ele>
        <time>2011-04-17T07:06:49.000Z</time>
      </trkpt>
      <trkpt lat="44.19282" lon="5.28257">
        <ele>1028</ele>
        <time>2011-04-17T07:06:55.000Z</time>
      </trkpt>
      <trkpt lat="44.19299" lon="5.28225">
        <ele>1026.5999755859</ele>
        <time>2011-04-17T07:07:00.000Z</time>
      </trkpt>
      <trkpt lat="44.19302" lon="5.28219">
        <ele>1026.4000244141</ele>
        <time>2011-04-17T07:07:01.000Z</time>
      </trkpt>
      <trkpt lat="44.19319" lon="5.28207">
        <ele>1021.799987793</ele>
        <time>2011-04-17T07:07:05.000Z</time>
      </trkpt>
      <trkpt lat="44.19345" lon="5.28199">
        <ele>1012</ele>
        <time>2011-04-17T07:07:10.000Z</time>
      </trkpt>
      <trkpt lat="44.19358" lon="5.28192">
        <ele>1007</ele>
        <time>2011-04-17T07:07:13.000Z</time>
      </trkpt>
      <trkpt lat="44.19375" lon="5.28177">
        <ele>1001.200012207</ele>
        <time>2011-04-17T07:07:17.000Z</time>
      </trkpt>
      <trkpt lat="44.19394" lon="5.28152">
        <ele>994.79998779297</ele>
        <time>2011-04-17T07:07:22.000Z</time>
      </trkpt>
      <trkpt lat="44.19406" lon="5.28126">
        <ele>990.20001220703</ele>
        <time>2011-04-17T07:07:26.000Z</time>
      </trkpt>
      <trkpt lat="44.19409" lon="5.28113">
        <ele>989.40002441406</ele>
        <time>2011-04-17T07:07:28.000Z</time>
      </trkpt>
      <trkpt lat="44.19411" lon="5.28101">
        <ele>989</ele>
        <time>2011-04-17T07:07:31.000Z</time>
      </trkpt>
      <trkpt lat="44.19415" lon="5.28078">
        <ele>986.79998779297</ele>
        <time>2011-04-17T07:07:36.000Z</time>
      </trkpt>
      <trkpt lat="44.19418" lon="5.28069">
        <ele>983</ele>
        <time>2011-04-17T07:07:38.000Z</time>
      </trkpt>
      <trkpt lat="44.1942" lon="5.28069">
        <ele>981.79998779297</ele>
        <time>2011-04-17T07:07:44.000Z</time>
      </trkpt>
      <trkpt lat="44.19424" lon="5.28068">
        <ele>979.79998779297</ele>
        <time>2011-04-17T07:07:54.000Z</time>
      </trkpt>
      <trkpt lat="44.19426" lon="5.28066">
        <ele>978</ele>
        <time>2011-04-17T07:08:21.000Z</time>
      </trkpt>
      <trkpt lat="44.19428" lon="5.28066">
        <ele>977</ele>
        <time>2011-04-17T07:08:41.000Z</time>
      </trkpt>
      <trkpt lat="44.1943" lon="5.28068">
        <ele>976.20001220703</ele>
        <time>2011-04-17T07:08:46.000Z</time>
      </trkpt>
      <trkpt lat="44.19433" lon="5.28088">
        <ele>977</ele>
        <time>2011-04-17T07:08:50.000Z</time>
      </trkpt>
      <trkpt lat="44.19435" lon="5.28134">
        <ele>973.79998779297</ele>
        <time>2011-04-17T07:08:55.000Z</time>
      </trkpt>
      <trkpt lat="44.19435" lon="5.28143">
        <ele>973.20001220703</ele>
        <time>2011-04-17T07:08:56.000Z</time>
      </trkpt>
      <trkpt lat="44.19428" lon="5.28182">
        <ele>972.79998779297</ele>
        <time>2011-04-17T07:09:00.000Z</time>
      </trkpt>
      <trkpt lat="44.19407" lon="5.28229">
        <ele>975.20001220703</ele>
        <time>2011-04-17T07:09:05.000Z</time>
      </trkpt>
      <trkpt lat="44.19402" lon="5.28238">
        <ele>976</ele>
        <time>2011-04-17T07:09:06.000Z</time>
      </trkpt>
      <trkpt lat="44.19391" lon="5.2828">
        <ele>976.59997558594</ele>
        <time>2011-04-17T07:09:10.000Z</time>
      </trkpt>
      <trkpt lat="44.19398" lon="5.28312">
        <ele>970.40002441406</ele>
        <time>2011-04-17T07:09:13.000Z</time>
      </trkpt>
      <trkpt lat="44.19403" lon="5.28323">
        <ele>967.20001220703</ele>
        <time>2011-04-17T07:09:14.000Z</time>
      </trkpt>
      <trkpt lat="44.19425" lon="5.28391">
        <ele>953.79998779297</ele>
        <time>2011-04-17T07:09:20.000Z</time>
      </trkpt>
      <trkpt lat="44.19429" lon="5.28415">
        <ele>951.20001220703</ele>
        <time>2011-04-17T07:09:22.000Z</time>
      </trkpt>
      <trkpt lat="44.19427" lon="5.28467">
        <ele>939.20001220703</ele>
        <time>2011-04-17T07:09:27.000Z</time>
      </trkpt>
      <trkpt lat="44.19418" lon="5.28478">
        <ele>939.40002441406</ele>
        <time>2011-04-17T07:09:29.000Z</time>
      </trkpt>
      <trkpt lat="44.19382" lon="5.28507">
        <ele>936.59997558594</ele>
        <time>2011-04-17T07:09:35.000Z</time>
      </trkpt>
      <trkpt lat="44.19337" lon="5.28539">
        <ele>927.20001220703</ele>
        <time>2011-04-17T07:09:41.000Z</time>
      </trkpt>
      <trkpt lat="44.19321" lon="5.28549">
        <ele>926.79998779297</ele>
        <time>2011-04-17T07:09:43.000Z</time>
      </trkpt>
      <trkpt lat="44.19291" lon="5.28563">
        <ele>930.40002441406</ele>
        <time>2011-04-17T07:09:47.000Z</time>
      </trkpt>
      <trkpt lat="44.19284" lon="5.2857">
        <ele>929.40002441406</ele>
        <time>2011-04-17T07:09:50.000Z</time>
      </trkpt>
      <trkpt lat="44.19286" lon="5.28569">
        <ele>929.20001220703</ele>
        <time>2011-04-17T07:09:52.000Z</time>
      </trkpt>
      <trkpt lat="44.19289" lon="5.28568">
        <ele>928.59997558594</ele>
        <time>2011-04-17T07:10:03.000Z</time>
      </trkpt>
      <trkpt lat="44.19291" lon="5.28568">
        <ele>928.40002441406</ele>
        <time>2011-04-17T07:10:04.000Z</time>
      </trkpt>
      <trkpt lat="44.19308" lon="5.28566">
        <ele>922.40002441406</ele>
        <time>2011-04-17T07:10:09.000Z</time>
      </trkpt>
      <trkpt lat="44.19333" lon="5.28565">
        <ele>913.20001220703</ele>
        <time>2011-04-17T07:10:13.000Z</time>
      </trkpt>
      <trkpt lat="44.19373" lon="5.28563">
        <ele>907.79998779297</ele>
        <time>2011-04-17T07:10:18.000Z</time>
      </trkpt>
      <trkpt lat="44.19402" lon="5.28562">
        <ele>903</ele>
        <time>2011-04-17T07:10:22.000Z</time>
      </trkpt>
      <trkpt lat="44.19408" lon="5.28561">
        <ele>902.40002441406</ele>
        <time>2011-04-17T07:10:23.000Z</time>
      </trkpt>
      <trkpt lat="44.19448" lon="5.28561">
        <ele>896.20001220703</ele>
        <time>2011-04-17T07:10:28.000Z</time>
      </trkpt>
      <trkpt lat="44.19483" lon="5.28566">
        <ele>889</ele>
        <time>2011-04-17T07:10:32.000Z</time>
      </trkpt>
      <trkpt lat="44.19508" lon="5.28571">
        <ele>882.79998779297</ele>
        <time>2011-04-17T07:10:35.000Z</time>
      </trkpt>
      <trkpt lat="44.19546" lon="5.28554">
        <ele>876</ele>
        <time>2011-04-17T07:10:40.000Z</time>
      </trkpt>
      <trkpt lat="44.19562" lon="5.28526">
        <ele>877.20001220703</ele>
        <time>2011-04-17T07:10:43.000Z</time>
      </trkpt>
      <trkpt lat="44.1957" lon="5.28503">
        <ele>878.79998779297</ele>
        <time>2011-04-17T07:10:45.000Z</time>
      </trkpt>
      <trkpt lat="44.19585" lon="5.28443">
        <ele>875.79998779297</ele>
        <time>2011-04-17T07:10:50.000Z</time>
      </trkpt>
      <trkpt lat="44.19595" lon="5.28408">
        <ele>871.20001220703</ele>
        <time>2011-04-17T07:10:53.000Z</time>
      </trkpt>
      <trkpt lat="44.19593" lon="5.28363">
        <ele>868.59997558594</ele>
        <time>2011-04-17T07:10:57.000Z</time>
      </trkpt>
      <trkpt lat="44.19585" lon="5.28332">
        <ele>870.20001220703</ele>
        <time>2011-04-17T07:11:00.000Z</time>
      </trkpt>
      <trkpt lat="44.1959" lon="5.28301">
        <ele>870</ele>
        <time>2011-04-17T07:11:03.000Z</time>
      </trkpt>
      <trkpt lat="44.19605" lon="5.28277">
        <ele>864</ele>
        <time>2011-04-17T07:11:06.000Z</time>
      </trkpt>
      <trkpt lat="44.19629" lon="5.28255">
        <ele>852.79998779297</ele>
        <time>2011-04-17T07:11:10.000Z</time>
      </trkpt>
      <trkpt lat="44.19644" lon="5.28228">
        <ele>846</ele>
        <time>2011-04-17T07:11:14.000Z</time>
      </trkpt>
      <trkpt lat="44.19649" lon="5.28186">
        <ele>844.59997558594</ele>
        <time>2011-04-17T07:11:19.000Z</time>
      </trkpt>
      <trkpt lat="44.19651" lon="5.28145">
        <ele>843.40002441406</ele>
        <time>2011-04-17T07:11:24.000Z</time>
      </trkpt>
      <trkpt lat="44.19653" lon="5.28102">
        <ele>841.59997558594</ele>
        <time>2011-04-17T07:11:28.000Z</time>
      </trkpt>
      <trkpt lat="44.19654" lon="5.28064">
        <ele>838.59997558594</ele>
        <time>2011-04-17T07:11:31.000Z</time>
      </trkpt>
      <trkpt lat="44.19666" lon="5.28017">
        <ele>829</ele>
        <time>2011-04-17T07:11:35.000Z</time>
      </trkpt>
      <trkpt lat="44.19677" lon="5.28">
        <ele>825.40002441406</ele>
        <time>2011-04-17T07:11:37.000Z</time>
      </trkpt>
      <trkpt lat="44.19711" lon="5.27971">
        <ele>814.40002441406</ele>
        <time>2011-04-17T07:11:43.000Z</time>
      </trkpt>
      <trkpt lat="44.19716" lon="5.27964">
        <ele>813</ele>
        <time>2011-04-17T07:11:46.000Z</time>
      </trkpt>
      <trkpt lat="44.19716" lon="5.27961">
        <ele>812.79998779297</ele>
        <time>2011-04-17T07:12:00.000Z</time>
      </trkpt>
      <trkpt lat="44.1972" lon="5.27939">
        <ele>810.79998779297</ele>
        <time>2011-04-17T07:12:04.000Z</time>
      </trkpt>
      <trkpt lat="44.19723" lon="5.27916">
        <ele>809</ele>
        <time>2011-04-17T07:12:07.000Z</time>
      </trkpt>
      <trkpt lat="44.19728" lon="5.27903">
        <ele>802.59997558594</ele>
        <time>2011-04-17T07:12:09.000Z</time>
      </trkpt>
      <trkpt lat="44.19748" lon="5.27895">
        <ele>798.20001220703</ele>
        <time>2011-04-17T07:12:13.000Z</time>
      </trkpt>
      <trkpt lat="44.19757" lon="5.27894">
        <ele>796.59997558594</ele>
        <time>2011-04-17T07:12:14.000Z</time>
      </trkpt>
      <trkpt lat="44.19802" lon="5.27876">
        <ele>784.59997558594</ele>
        <time>2011-04-17T07:12:20.000Z</time>
      </trkpt>
      <trkpt lat="44.19822" lon="5.27882">
        <ele>784.59997558594</ele>
        <time>2011-04-17T07:12:24.000Z</time>
      </trkpt>
      <trkpt lat="44.19825" lon="5.27897">
        <ele>787.79998779297</ele>
        <time>2011-04-17T07:12:26.000Z</time>
      </trkpt>
      <trkpt lat="44.19821" lon="5.27934">
        <ele>790.20001220703</ele>
        <time>2011-04-17T07:12:30.000Z</time>
      </trkpt>
      <trkpt lat="44.19805" lon="5.27991">
        <ele>787.79998779297</ele>
        <time>2011-04-17T07:12:36.000Z</time>
      </trkpt>
      <trkpt lat="44.19789" lon="5.28049">
        <ele>780.79998779297</ele>
        <time>2011-04-17T07:12:41.000Z</time>
      </trkpt>
      <trkpt lat="44.19769" lon="5.28083">
        <ele>779.59997558594</ele>
        <time>2011-04-17T07:12:45.000Z</time>
      </trkpt>
      <trkpt lat="44.1976" lon="5.28124">
        <ele>780</ele>
        <time>2011-04-17T07:12:49.000Z</time>
      </trkpt>
      <trkpt lat="44.19763" lon="5.28148">
        <ele>776.79998779297</ele>
        <time>2011-04-17T07:12:51.000Z</time>
      </trkpt>
      <trkpt lat="44.19782" lon="5.28213">
        <ele>767</ele>
        <time>2011-04-17T07:12:56.000Z</time>
      </trkpt>
      <trkpt lat="44.19797" lon="5.28252">
        <ele>759.40002441406</ele>
        <time>2011-04-17T07:12:59.000Z</time>
      </trkpt>
      <trkpt lat="44.19803" lon="5.2829">
        <ele>756.40002441406</ele>
        <time>2011-04-17T07:13:03.000Z</time>
      </trkpt>
      <trkpt lat="44.1981" lon="5.28299">
        <ele>753</ele>
        <time>2011-04-17T07:13:07.000Z</time>
      </trkpt>
      <trkpt lat="44.19812" lon="5.28297">
        <ele>751.59997558594</ele>
        <time>2011-04-17T07:13:10.000Z</time>
      </trkpt>
      <trkpt lat="44.19814" lon="5.28292">
        <ele>750.40002441406</ele>
        <time>2011-04-17T07:13:20.000Z</time>
      </trkpt>
      <trkpt lat="44.19821" lon="5.28273">
        <ele>746</ele>
        <time>2011-04-17T07:13:24.000Z</time>
      </trkpt>
      <trkpt lat="44.19823" lon="5.28255">
        <ele>745</ele>
        <time>2011-04-17T07:13:27.000Z</time>
      </trkpt>
      <trkpt lat="44.19817" lon="5.2822">
        <ele>748</ele>
        <time>2011-04-17T07:13:31.000Z</time>
      </trkpt>
      <trkpt lat="44.19821" lon="5.28176">
        <ele>746</ele>
        <time>2011-04-17T07:13:35.000Z</time>
      </trkpt>
      <trkpt lat="44.19829" lon="5.28153">
        <ele>744.40002441406</ele>
        <time>2011-04-17T07:13:37.000Z</time>
      </trkpt>
      <trkpt lat="44.19853" lon="5.28122">
        <ele>739.40002441406</ele>
        <time>2011-04-17T07:13:41.000Z</time>
      </trkpt>
      <trkpt lat="44.19868" lon="5.28108">
        <ele>735.59997558594</ele>
        <time>2011-04-17T07:13:44.000Z</time>
      </trkpt>
      <trkpt lat="44.19883" lon="5.28088">
        <ele>732.20001220703</ele>
        <time>2011-04-17T07:13:48.000Z</time>
      </trkpt>
      <trkpt lat="44.19911" lon="5.2805">
        <ele>728.20001220703</ele>
        <time>2011-04-17T07:13:53.000Z</time>
      </trkpt>
      <trkpt lat="44.19953" lon="5.28">
        <ele>723</ele>
        <time>2011-04-17T07:13:59.000Z</time>
      </trkpt>
      <trkpt lat="44.19991" lon="5.27957">
        <ele>715.40002441406</ele>
        <time>2011-04-17T07:14:04.000Z</time>
      </trkpt>
      <trkpt lat="44.20003" lon="5.27941">
        <ele>714</ele>
        <time>2011-04-17T07:14:06.000Z</time>
      </trkpt>
      <trkpt lat="44.20013" lon="5.27923">
        <ele>715</ele>
        <time>2011-04-17T07:14:08.000Z</time>
      </trkpt>
      <trkpt lat="44.20037" lon="5.279">
        <ele>713.79998779297</ele>
        <time>2011-04-17T07:14:12.000Z</time>
      </trkpt>
      <trkpt lat="44.20054" lon="5.27903">
        <ele>709.79998779297</ele>
        <time>2011-04-17T07:14:15.000Z</time>
      </trkpt>
      <trkpt lat="44.20058" lon="5.27905">
        <ele>708.79998779297</ele>
        <time>2011-04-17T07:14:16.000Z</time>
      </trkpt>
      <trkpt lat="44.20076" lon="5.27921">
        <ele>702.59997558594</ele>
        <time>2011-04-17T07:14:22.000Z</time>
      </trkpt>
      <trkpt lat="44.20084" lon="5.27933">
        <ele>698.40002441406</ele>
        <time>2011-04-17T07:14:25.000Z</time>
      </trkpt>
      <trkpt lat="44.20096" lon="5.27959">
        <ele>690</ele>
        <time>2011-04-17T07:14:30.000Z</time>
      </trkpt>
      <trkpt lat="44.20098" lon="5.27963">
        <ele>688.59997558594</ele>
        <time>2011-04-17T07:14:31.000Z</time>
      </trkpt>
      <trkpt lat="44.20113" lon="5.27974">
        <ele>683.40002441406</ele>
        <time>2011-04-17T07:14:35.000Z</time>
      </trkpt>
      <trkpt lat="44.20128" lon="5.27967">
        <ele>680.59997558594</ele>
        <time>2011-04-17T07:14:38.000Z</time>
      </trkpt>
      <trkpt lat="44.20145" lon="5.27943">
        <ele>678.20001220703</ele>
        <time>2011-04-17T07:14:43.000Z</time>
      </trkpt>
      <trkpt lat="44.20147" lon="5.27921">
        <ele>679.40002441406</ele>
        <time>2011-04-17T07:14:46.000Z</time>
      </trkpt>
      <trkpt lat="44.20148" lon="5.27886">
        <ele>682</ele>
        <time>2011-04-17T07:14:50.000Z</time>
      </trkpt>
      <trkpt lat="44.2015" lon="5.27869">
        <ele>682.79998779297</ele>
        <time>2011-04-17T07:14:52.000Z</time>
      </trkpt>
      <trkpt lat="44.2015" lon="5.27839">
        <ele>685.40002441406</ele>
        <time>2011-04-17T07:14:56.000Z</time>
      </trkpt>
      <trkpt lat="44.20158" lon="5.27817">
        <ele>684.59997558594</ele>
        <time>2011-04-17T07:15:02.000Z</time>
      </trkpt>
      <trkpt lat="44.20175" lon="5.27799">
        <ele>677.59997558594</ele>
        <time>2011-04-17T07:15:08.000Z</time>
      </trkpt>
      <trkpt lat="44.20186" lon="5.27784">
        <ele>671.79998779297</ele>
        <time>2011-04-17T07:15:13.000Z</time>
      </trkpt>
      <trkpt lat="44.20196" lon="5.27771">
        <ele>667</ele>
        <time>2011-04-17T07:15:18.000Z</time>
      </trkpt>
      <trkpt lat="44.202" lon="5.27763">
        <ele>665.20001220703</ele>
        <time>2011-04-17T07:15:22.000Z</time>
      </trkpt>
      <trkpt lat="44.20209" lon="5.27756">
        <ele>661.20001220703</ele>
        <time>2011-04-17T07:15:44.000Z</time>
      </trkpt>
      <trkpt lat="44.2021" lon="5.27751">
        <ele>660.59997558594</ele>
        <time>2011-04-17T07:15:46.000Z</time>
      </trkpt>
      <trkpt lat="44.20215" lon="5.27743">
        <ele>657.40002441406</ele>
        <time>2011-04-17T07:15:51.000Z</time>
      </trkpt>
      <trkpt lat="44.20216" lon="5.27743">
        <ele>657</ele>
        <time>2011-04-17T07:15:59.000Z</time>
      </trkpt>
      <trkpt lat="44.20219" lon="5.27738">
        <ele>655</ele>
        <time>2011-04-17T07:16:11.000Z</time>
      </trkpt>
      <trkpt lat="44.2022" lon="5.27733">
        <ele>654.40002441406</ele>
        <time>2011-04-17T07:16:13.000Z</time>
      </trkpt>
      <trkpt lat="44.2022" lon="5.27728">
        <ele>654.40002441406</ele>
        <time>2011-04-17T07:16:20.000Z</time>
      </trkpt>
      <trkpt lat="44.20224" lon="5.27716">
        <ele>651.40002441406</ele>
        <time>2011-04-17T07:16:24.000Z</time>
      </trkpt>
      <trkpt lat="44.20222" lon="5.27695">
        <ele>652.20001220703</ele>
        <time>2011-04-17T07:16:31.000Z</time>
      </trkpt>
      <trkpt lat="44.2022" lon="5.27685">
        <ele>653.59997558594</ele>
        <time>2011-04-17T07:16:36.000Z</time>
      </trkpt>
      <trkpt lat="44.20216" lon="5.27673">
        <ele>655.20001220703</ele>
        <time>2011-04-17T07:16:41.000Z</time>
      </trkpt>
      <trkpt lat="44.20212" lon="5.27657">
        <ele>655.40002441406</ele>
        <time>2011-04-17T07:16:47.000Z</time>
      </trkpt>
      <trkpt lat="44.20207" lon="5.2764">
        <ele>654.40002441406</ele>
        <time>2011-04-17T07:16:52.000Z</time>
      </trkpt>
      <trkpt lat="44.202" lon="5.27621">
        <ele>653.40002441406</ele>
        <time>2011-04-17T07:16:57.000Z</time>
      </trkpt>
      <trkpt lat="44.20195" lon="5.27604">
        <ele>651.79998779297</ele>
        <time>2011-04-17T07:17:01.000Z</time>
      </trkpt>
      <trkpt lat="44.20192" lon="5.27584">
        <ele>648.40002441406</ele>
        <time>2011-04-17T07:17:07.000Z</time>
      </trkpt>
      <trkpt lat="44.20184" lon="5.27571">
        <ele>648.40002441406</ele>
        <time>2011-04-17T07:17:11.000Z</time>
      </trkpt>
      <trkpt lat="44.20178" lon="5.27558">
        <ele>647.40002441406</ele>
        <time>2011-04-17T07:17:16.000Z</time>
      </trkpt>
      <trkpt lat="44.20174" lon="5.2754">
        <ele>643.79998779297</ele>
        <time>2011-04-17T07:17:20.000Z</time>
      </trkpt>
      <trkpt lat="44.20173" lon="5.27534">
        <ele>642.40002441406</ele>
        <time>2011-04-17T07:17:22.000Z</time>
      </trkpt>
      <trkpt lat="44.20157" lon="5.27522">
        <ele>644.20001220703</ele>
        <time>2011-04-17T07:17:29.000Z</time>
      </trkpt>
      <trkpt lat="44.20152" lon="5.27519">
        <ele>644.59997558594</ele>
        <time>2011-04-17T07:17:31.000Z</time>
      </trkpt>
      <trkpt lat="44.20145" lon="5.27512">
        <ele>644</ele>
        <time>2011-04-17T07:17:34.000Z</time>
      </trkpt>
      <trkpt lat="44.20145" lon="5.27509">
        <ele>642.79998779297</ele>
        <time>2011-04-17T07:17:40.000Z</time>
      </trkpt>
      <trkpt lat="44.20141" lon="5.27503">
        <ele>641.59997558594</ele>
        <time>2011-04-17T07:18:08.000Z</time>
      </trkpt>
      <trkpt lat="44.20145" lon="5.27501">
        <ele>640.20001220703</ele>
        <time>2011-04-17T07:18:13.000Z</time>
      </trkpt>
      <trkpt lat="44.20161" lon="5.27503">
        <ele>637.79998779297</ele>
        <time>2011-04-17T07:18:18.000Z</time>
      </trkpt>
      <trkpt lat="44.20179" lon="5.27503">
        <ele>631.59997558594</ele>
        <time>2011-04-17T07:18:23.000Z</time>
      </trkpt>
      <trkpt lat="44.20182" lon="5.27503">
        <ele>630.40002441406</ele>
        <time>2011-04-17T07:18:25.000Z</time>
      </trkpt>
      <trkpt lat="44.20196" lon="5.27509">
        <ele>626.40002441406</ele>
        <time>2011-04-17T07:18:31.000Z</time>
      </trkpt>
      <trkpt lat="44.20215" lon="5.27528">
        <ele>623.79998779297</ele>
        <time>2011-04-17T07:18:35.000Z</time>
      </trkpt>
      <trkpt lat="44.2022" lon="5.27532">
        <ele>622.79998779297</ele>
        <time>2011-04-17T07:18:36.000Z</time>
      </trkpt>
      <trkpt lat="44.20238" lon="5.2755">
        <ele>620.20001220703</ele>
        <time>2011-04-17T07:18:40.000Z</time>
      </trkpt>
      <trkpt lat="44.2026" lon="5.2758">
        <ele>617.79998779297</ele>
        <time>2011-04-17T07:18:46.000Z</time>
      </trkpt>
      <trkpt lat="44.20265" lon="5.27586">
        <ele>616.79998779297</ele>
        <time>2011-04-17T07:18:47.000Z</time>
      </trkpt>
      <trkpt lat="44.20283" lon="5.27606">
        <ele>611</ele>
        <time>2011-04-17T07:18:51.000Z</time>
      </trkpt>
      <trkpt lat="44.20308" lon="5.2764">
        <ele>604.59997558594</ele>
        <time>2011-04-17T07:18:57.000Z</time>
      </trkpt>
      <trkpt lat="44.20307" lon="5.27645">
        <ele>605.79998779297</ele>
        <time>2011-04-17T07:19:00.000Z</time>
      </trkpt>
      <trkpt lat="44.20304" lon="5.27649">
        <ele>608</ele>
        <time>2011-04-17T07:19:04.000Z</time>
      </trkpt>
      <trkpt lat="44.20304" lon="5.27652">
        <ele>608.40002441406</ele>
        <time>2011-04-17T07:19:09.000Z</time>
      </trkpt>
      <trkpt lat="44.20307" lon="5.27653">
        <ele>607</ele>
        <time>2011-04-17T07:19:14.000Z</time>
      </trkpt>
      <trkpt lat="44.20307" lon="5.27654">
        <ele>607.20001220703</ele>
        <time>2011-04-17T07:19:20.000Z</time>
      </trkpt>
      <trkpt lat="44.20307" lon="5.27659">
        <ele>608.20001220703</ele>
        <time>2011-04-17T07:19:24.000Z</time>
      </trkpt>
      <trkpt lat="44.20306" lon="5.2767">
        <ele>610</ele>
        <time>2011-04-17T07:19:29.000Z</time>
      </trkpt>
      <trkpt lat="44.20305" lon="5.27689">
        <ele>608.79998779297</ele>
        <time>2011-04-17T07:19:34.000Z</time>
      </trkpt>
      <trkpt lat="44.20305" lon="5.27705">
        <ele>607.59997558594</ele>
        <time>2011-04-17T07:19:39.000Z</time>
      </trkpt>
      <trkpt lat="44.20307" lon="5.27719">
        <ele>605.59997558594</ele>
        <time>2011-04-17T07:19:44.000Z</time>
      </trkpt>
      <trkpt lat="44.20308" lon="5.27745">
        <ele>602.79998779297</ele>
        <time>2011-04-17T07:19:49.000Z</time>
      </trkpt>
      <trkpt lat="44.20307" lon="5.27778">
        <ele>598.59997558594</ele>
        <time>2011-04-17T07:19:54.000Z</time>
      </trkpt>
      <trkpt lat="44.20302" lon="5.27802">
        <ele>598.20001220703</ele>
        <time>2011-04-17T07:19:59.000Z</time>
      </trkpt>
      <trkpt lat="44.20299" lon="5.27811">
        <ele>598.20001220703</ele>
        <time>2011-04-17T07:20:05.000Z</time>
      </trkpt>
      <trkpt lat="44.20299" lon="5.27813">
        <ele>598.20001220703</ele>
        <time>2011-04-17T07:20:06.000Z</time>
      </trkpt>
      <trkpt lat="44.203" lon="5.27826">
        <ele>595.59997558594</ele>
        <time>2011-04-17T07:20:10.000Z</time>
      </trkpt>
      <trkpt lat="44.20297" lon="5.27855">
        <ele>593.40002441406</ele>
        <time>2011-04-17T07:20:16.000Z</time>
      </trkpt>
      <trkpt lat="44.20286" lon="5.27872">
        <ele>598.20001220703</ele>
        <time>2011-04-17T07:20:21.000Z</time>
      </trkpt>
      <trkpt lat="44.20285" lon="5.27883">
        <ele>597.20001220703</ele>
        <time>2011-04-17T07:20:24.000Z</time>
      </trkpt>
      <trkpt lat="44.20293" lon="5.27901">
        <ele>590.59997558594</ele>
        <time>2011-04-17T07:20:28.000Z</time>
      </trkpt>
      <trkpt lat="44.20293" lon="5.27914">
        <ele>589.20001220703</ele>
        <time>2011-04-17T07:20:31.000Z</time>
      </trkpt>
      <trkpt lat="44.20293" lon="5.27918">
        <ele>588.59997558594</ele>
        <time>2011-04-17T07:20:33.000Z</time>
      </trkpt>
      <trkpt lat="44.20296" lon="5.27942">
        <ele>585.79998779297</ele>
        <time>2011-04-17T07:20:38.000Z</time>
      </trkpt>
      <trkpt lat="44.203" lon="5.27965">
        <ele>582.79998779297</ele>
        <time>2011-04-17T07:20:43.000Z</time>
      </trkpt>
      <trkpt lat="44.20302" lon="5.27985">
        <ele>581</ele>
        <time>2011-04-17T07:20:48.000Z</time>
      </trkpt>
      <trkpt lat="44.20304" lon="5.28017">
        <ele>577.79998779297</ele>
        <time>2011-04-17T07:20:53.000Z</time>
      </trkpt>
      <trkpt lat="44.20306" lon="5.2804">
        <ele>575.20001220703</ele>
        <time>2011-04-17T07:20:57.000Z</time>
      </trkpt>
      <trkpt lat="44.20308" lon="5.28069">
        <ele>572.20001220703</ele>
        <time>2011-04-17T07:21:03.000Z</time>
      </trkpt>
      <trkpt lat="44.20308" lon="5.28089">
        <ele>570.59997558594</ele>
        <time>2011-04-17T07:21:09.000Z</time>
      </trkpt>
      <trkpt lat="44.20308" lon="5.28104">
        <ele>569.20001220703</ele>
        <time>2011-04-17T07:21:14.000Z</time>
      </trkpt>
      <trkpt lat="44.20309" lon="5.28117">
        <ele>568</ele>
        <time>2011-04-17T07:21:20.000Z</time>
      </trkpt>
      <trkpt lat="44.20311" lon="5.2812">
        <ele>566.59997558594</ele>
        <time>2011-04-17T07:21:26.000Z</time>
      </trkpt>
      <trkpt lat="44.20311" lon="5.28135">
        <ele>565.20001220703</ele>
        <time>2011-04-17T07:21:30.000Z</time>
      </trkpt>
      <trkpt lat="44.20312" lon="5.28156">
        <ele>563</ele>
        <time>2011-04-17T07:21:35.000Z</time>
      </trkpt>
      <trkpt lat="44.20313" lon="5.28166">
        <ele>561.79998779297</ele>
        <time>2011-04-17T07:21:40.000Z</time>
      </trkpt>
      <trkpt lat="44.20316" lon="5.28179">
        <ele>558.59997558594</ele>
        <time>2011-04-17T07:21:46.000Z</time>
      </trkpt>
      <trkpt lat="44.20321" lon="5.28191">
        <ele>554.20001220703</ele>
        <time>2011-04-17T07:21:51.000Z</time>
      </trkpt>
      <trkpt lat="44.20325" lon="5.2821">
        <ele>549.40002441406</ele>
        <time>2011-04-17T07:21:55.000Z</time>
      </trkpt>
      <trkpt lat="44.20323" lon="5.28226">
        <ele>548.20001220703</ele>
        <time>2011-04-17T07:21:59.000Z</time>
      </trkpt>
      <trkpt lat="44.20318" lon="5.28241">
        <ele>548.20001220703</ele>
        <time>2011-04-17T07:22:03.000Z</time>
      </trkpt>
      <trkpt lat="44.20312" lon="5.28259">
        <ele>547.79998779297</ele>
        <time>2011-04-17T07:22:08.000Z</time>
      </trkpt>
      <trkpt lat="44.20305" lon="5.28285">
        <ele>546.20001220703</ele>
        <time>2011-04-17T07:22:14.000Z</time>
      </trkpt>
      <trkpt lat="44.20304" lon="5.28302">
        <ele>543.40002441406</ele>
        <time>2011-04-17T07:22:18.000Z</time>
      </trkpt>
      <trkpt lat="44.20296" lon="5.28322">
        <ele>543.40002441406</ele>
        <time>2011-04-17T07:22:22.000Z</time>
      </trkpt>
      <trkpt lat="44.20287" lon="5.2835">
        <ele>541.20001220703</ele>
        <time>2011-04-17T07:22:27.000Z</time>
      </trkpt>
      <trkpt lat="44.20286" lon="5.28357">
        <ele>540</ele>
        <time>2011-04-17T07:22:29.000Z</time>
      </trkpt>
      <trkpt lat="44.2029" lon="5.28362">
        <ele>536.59997558594</ele>
        <time>2011-04-17T07:22:33.000Z</time>
      </trkpt>
      <trkpt lat="44.20297" lon="5.28355">
        <ele>535.59997558594</ele>
        <time>2011-04-17T07:22:37.000Z</time>
      </trkpt>
      <trkpt lat="44.20301" lon="5.28351">
        <ele>534.59997558594</ele>
        <time>2011-04-17T07:22:39.000Z</time>
      </trkpt>
      <trkpt lat="44.20318" lon="5.28331">
        <ele>531.59997558594</ele>
        <time>2011-04-17T07:22:44.000Z</time>
      </trkpt>
      <trkpt lat="44.20329" lon="5.28307">
        <ele>530.79998779297</ele>
        <time>2011-04-17T07:22:48.000Z</time>
      </trkpt>
      <trkpt lat="44.20338" lon="5.28281">
        <ele>531.40002441406</ele>
        <time>2011-04-17T07:22:53.000Z</time>
      </trkpt>
      <trkpt lat="44.20352" lon="5.28258">
        <ele>528.79998779297</ele>
        <time>2011-04-17T07:22:59.000Z</time>
      </trkpt>
      <trkpt lat="44.20365" lon="5.28238">
        <ele>525.40002441406</ele>
        <time>2011-04-17T07:23:04.000Z</time>
      </trkpt>
      <trkpt lat="44.20377" lon="5.28225">
        <ele>521.40002441406</ele>
        <time>2011-04-17T07:23:08.000Z</time>
      </trkpt>
      <trkpt lat="44.20385" lon="5.28223">
        <ele>517.79998779297</ele>
        <time>2011-04-17T07:23:10.000Z</time>
      </trkpt>
      <trkpt lat="44.20395" lon="5.28207">
        <ele>515.79998779297</ele>
        <time>2011-04-17T07:23:14.000Z</time>
      </trkpt>
      <trkpt lat="44.20403" lon="5.28178">
        <ele>516.79998779297</ele>
        <time>2011-04-17T07:23:19.000Z</time>
      </trkpt>
      <trkpt lat="44.20406" lon="5.28165">
        <ele>517</ele>
        <time>2011-04-17T07:23:21.000Z</time>
      </trkpt>
      <trkpt lat="44.20422" lon="5.28123">
        <ele>511.79998779297</ele>
        <time>2011-04-17T07:23:26.000Z</time>
      </trkpt>
      <trkpt lat="44.20432" lon="5.28084">
        <ele>510</ele>
        <time>2011-04-17T07:23:30.000Z</time>
      </trkpt>
      <trkpt lat="44.20435" lon="5.28076">
        <ele>509.60000610352</ele>
        <time>2011-04-17T07:23:31.000Z</time>
      </trkpt>
      <trkpt lat="44.20441" lon="5.2806">
        <ele>508.20001220703</ele>
        <time>2011-04-17T07:23:33.000Z</time>
      </trkpt>
      <trkpt lat="44.20454" lon="5.28019">
        <ele>504.60000610352</ele>
        <time>2011-04-17T07:23:38.000Z</time>
      </trkpt>
      <trkpt lat="44.20457" lon="5.28006">
        <ele>503.79998779297</ele>
        <time>2011-04-17T07:23:40.000Z</time>
      </trkpt>
      <trkpt lat="44.20458" lon="5.27983">
        <ele>503</ele>
        <time>2011-04-17T07:23:43.000Z</time>
      </trkpt>
      <trkpt lat="44.20464" lon="5.2795">
        <ele>499.39999389648</ele>
        <time>2011-04-17T07:23:47.000Z</time>
      </trkpt>
      <trkpt lat="44.20466" lon="5.27943">
        <ele>498.39999389648</ele>
        <time>2011-04-17T07:23:48.000Z</time>
      </trkpt>
      <trkpt lat="44.2047" lon="5.27905">
        <ele>496.20001220703</ele>
        <time>2011-04-17T07:23:53.000Z</time>
      </trkpt>
      <trkpt lat="44.2047" lon="5.27899">
        <ele>496.20001220703</ele>
        <time>2011-04-17T07:23:54.000Z</time>
      </trkpt>
      <trkpt lat="44.20476" lon="5.27897">
        <ele>493.60000610352</ele>
        <time>2011-04-17T07:23:58.000Z</time>
      </trkpt>
      <trkpt lat="44.20476" lon="5.27899">
        <ele>493.39999389648</ele>
        <time>2011-04-17T07:24:01.000Z</time>
      </trkpt>
      <trkpt lat="44.20475" lon="5.279">
        <ele>493.60000610352</ele>
        <time>2011-04-17T07:24:06.000Z</time>
      </trkpt>
      <trkpt lat="44.20481" lon="5.2792">
        <ele>489.79998779297</ele>
        <time>2011-04-17T07:24:13.000Z</time>
      </trkpt>
      <trkpt lat="44.20489" lon="5.27938">
        <ele>486.60000610352</ele>
        <time>2011-04-17T07:24:18.000Z</time>
      </trkpt>
      <trkpt lat="44.20498" lon="5.27961">
        <ele>483.39999389648</ele>
        <time>2011-04-17T07:24:22.000Z</time>
      </trkpt>
      <trkpt lat="44.20505" lon="5.27978">
        <ele>481.60000610352</ele>
        <time>2011-04-17T07:24:26.000Z</time>
      </trkpt>
      <trkpt lat="44.2052" lon="5.28015">
        <ele>475.20001220703</ele>
        <time>2011-04-17T07:24:31.000Z</time>
      </trkpt>
      <trkpt lat="44.2053" lon="5.28057">
        <ele>470.20001220703</ele>
        <time>2011-04-17T07:24:36.000Z</time>
      </trkpt>
      <trkpt lat="44.20531" lon="5.28095">
        <ele>468.20001220703</ele>
        <time>2011-04-17T07:24:40.000Z</time>
      </trkpt>
      <trkpt lat="44.20538" lon="5.28139">
        <ele>459.79998779297</ele>
        <time>2011-04-17T07:24:45.000Z</time>
      </trkpt>
      <trkpt lat="44.20532" lon="5.28156">
        <ele>460.79998779297</ele>
        <time>2011-04-17T07:24:48.000Z</time>
      </trkpt>
      <trkpt lat="44.2052" lon="5.28174">
        <ele>463.39999389648</ele>
        <time>2011-04-17T07:24:51.000Z</time>
      </trkpt>
      <trkpt lat="44.20506" lon="5.28211">
        <ele>464</ele>
        <time>2011-04-17T07:24:57.000Z</time>
      </trkpt>
      <trkpt lat="44.20511" lon="5.28236">
        <ele>457.79998779297</ele>
        <time>2011-04-17T07:25:02.000Z</time>
      </trkpt>
      <trkpt lat="44.20514" lon="5.28233">
        <ele>456.79998779297</ele>
        <time>2011-04-17T07:25:06.000Z</time>
      </trkpt>
      <trkpt lat="44.20513" lon="5.28234">
        <ele>457</ele>
        <time>2011-04-17T07:25:13.000Z</time>
      </trkpt>
      <trkpt lat="44.20517" lon="5.28234">
        <ele>455.60000610352</ele>
        <time>2011-04-17T07:25:17.000Z</time>
      </trkpt>
      <trkpt lat="44.20522" lon="5.2822">
        <ele>455.39999389648</ele>
        <time>2011-04-17T07:25:22.000Z</time>
      </trkpt>
      <trkpt lat="44.20531" lon="5.28197">
        <ele>455.39999389648</ele>
        <time>2011-04-17T07:25:26.000Z</time>
      </trkpt>
      <trkpt lat="44.20544" lon="5.28179">
        <ele>452</ele>
        <time>2011-04-17T07:25:30.000Z</time>
      </trkpt>
      <trkpt lat="44.20552" lon="5.28172">
        <ele>449.60000610352</ele>
        <time>2011-04-17T07:25:32.000Z</time>
      </trkpt>
      <trkpt lat="44.20558" lon="5.28166">
        <ele>447.39999389648</ele>
        <time>2011-04-17T07:25:34.000Z</time>
      </trkpt>
      <trkpt lat="44.20572" lon="5.28141">
        <ele>443.39999389648</ele>
        <time>2011-04-17T07:25:39.000Z</time>
      </trkpt>
      <trkpt lat="44.20581" lon="5.28121">
        <ele>441.60000610352</ele>
        <time>2011-04-17T07:25:42.000Z</time>
      </trkpt>
      <trkpt lat="44.20586" lon="5.28107">
        <ele>440.60000610352</ele>
        <time>2011-04-17T07:25:44.000Z</time>
      </trkpt>
      <trkpt lat="44.20597" lon="5.28082">
        <ele>438.20001220703</ele>
        <time>2011-04-17T07:25:48.000Z</time>
      </trkpt>
      <trkpt lat="44.206" lon="5.28073">
        <ele>437.20001220703</ele>
        <time>2011-04-17T07:25:51.000Z</time>
      </trkpt>
      <trkpt lat="44.20603" lon="5.28057">
        <ele>436</ele>
        <time>2011-04-17T07:25:55.000Z</time>
      </trkpt>
      <trkpt lat="44.20603" lon="5.28015">
        <ele>437.20001220703</ele>
        <time>2011-04-17T07:26:01.000Z</time>
      </trkpt>
      <trkpt lat="44.20615" lon="5.27997">
        <ele>432.79998779297</ele>
        <time>2011-04-17T07:26:05.000Z</time>
      </trkpt>
      <trkpt lat="44.20633" lon="5.27981">
        <ele>427.60000610352</ele>
        <time>2011-04-17T07:26:09.000Z</time>
      </trkpt>
      <trkpt lat="44.20639" lon="5.27972">
        <ele>426</ele>
        <time>2011-04-17T07:26:11.000Z</time>
      </trkpt>
      <trkpt lat="44.20657" lon="5.27942">
        <ele>423</ele>
        <time>2011-04-17T07:26:17.000Z</time>
      </trkpt>
      <trkpt lat="44.20668" lon="5.27903">
        <ele>423.79998779297</ele>
        <time>2011-04-17T07:26:23.000Z</time>
      </trkpt>
      <trkpt lat="44.20679" lon="5.27885">
        <ele>423.20001220703</ele>
        <time>2011-04-17T07:26:28.000Z</time>
      </trkpt>
      <trkpt lat="44.20682" lon="5.27882">
        <ele>422.79998779297</ele>
        <time>2011-04-17T07:26:35.000Z</time>
      </trkpt>
      <trkpt lat="44.20681" lon="5.27882">
        <ele>423</ele>
        <time>2011-04-17T07:26:44.000Z</time>
      </trkpt>
      <trkpt lat="44.20694" lon="5.27884">
        <ele>420.20001220703</ele>
        <time>2011-04-17T07:27:07.000Z</time>
      </trkpt>
      <trkpt lat="44.2071" lon="5.2787">
        <ele>418.20001220703</ele>
        <time>2011-04-17T07:27:12.000Z</time>
      </trkpt>
      <trkpt lat="44.2073" lon="5.27855">
        <ele>415.60000610352</ele>
        <time>2011-04-17T07:27:16.000Z</time>
      </trkpt>
      <trkpt lat="44.20765" lon="5.2782">
        <ele>414</ele>
        <time>2011-04-17T07:27:22.000Z</time>
      </trkpt>
      <trkpt lat="44.20792" lon="5.27796">
        <ele>413.60000610352</ele>
        <time>2011-04-17T07:27:27.000Z</time>
      </trkpt>
      <trkpt lat="44.20809" lon="5.27798">
        <ele>411.79998779297</ele>
        <time>2011-04-17T07:27:31.000Z</time>
      </trkpt>
      <trkpt lat="44.20827" lon="5.27821">
        <ele>409</ele>
        <time>2011-04-17T07:27:35.000Z</time>
      </trkpt>
      <trkpt lat="44.20852" lon="5.27841">
        <ele>406.60000610352</ele>
        <time>2011-04-17T07:27:40.000Z</time>
      </trkpt>
      <trkpt lat="44.20856" lon="5.2785">
        <ele>406.20001220703</ele>
        <time>2011-04-17T07:27:44.000Z</time>
      </trkpt>
      <trkpt lat="44.20856" lon="5.27852">
        <ele>406.20001220703</ele>
        <time>2011-04-17T07:27:51.000Z</time>
      </trkpt>
      <trkpt lat="44.20854" lon="5.27855">
        <ele>406.20001220703</ele>
        <time>2011-04-17T07:27:56.000Z</time>
      </trkpt>
      <trkpt lat="44.20852" lon="5.27857">
        <ele>406.20001220703</ele>
        <time>2011-04-17T07:28:01.000Z</time>
      </trkpt>
      <trkpt lat="44.20851" lon="5.27854">
        <ele>406.39999389648</ele>
        <time>2011-04-17T07:28:05.000Z</time>
      </trkpt>
      <trkpt lat="44.20855" lon="5.27849">
        <ele>406.39999389648</ele>
        <time>2011-04-17T07:28:11.000Z</time>
      </trkpt>
      <trkpt lat="44.20854" lon="5.27848">
        <ele>406.39999389648</ele>
        <time>2011-04-17T07:28:20.000Z</time>
      </trkpt>
      <trkpt lat="44.20855" lon="5.27849">
        <ele>406.20001220703</ele>
        <time>2011-04-17T07:28:33.000Z</time>
      </trkpt>
      <trkpt lat="44.20853" lon="5.27848">
        <ele>406.39999389648</ele>
        <time>2011-04-17T07:30:28.000Z</time>
      </trkpt>
      <trkpt lat="44.20857" lon="5.27846">
        <ele>406.20001220703</ele>
        <time>2011-04-17T07:30:59.000Z</time>
      </trkpt>
      <trkpt lat="44.20859" lon="5.27845">
        <ele>406.20001220703</ele>
        <time>2011-04-17T07:31:09.000Z</time>
      </trkpt>
      <trkpt lat="44.20857" lon="5.27845">
        <ele>406.20001220703</ele>
        <time>2011-04-17T07:31:24.000Z</time>
      </trkpt>
      <trkpt lat="44.20855" lon="5.27845">
        <ele>406.39999389648</ele>
        <time>2011-04-17T07:31:31.000Z</time>
      </trkpt>
      <trkpt lat="44.20855" lon="5.27846">
        <ele>406.39999389648</ele>
        <time>2011-04-17T07:31:37.000Z</time>
      </trkpt>
      <trkpt lat="44.20856" lon="5.27847">
        <ele>406.20001220703</ele>
        <time>2011-04-17T07:31:54.000Z</time>
      </trkpt>
      <trkpt lat="44.20859" lon="5.27849">
        <ele>406.20001220703</ele>
        <time>2011-04-17T07:32:17.000Z</time>
      </trkpt>
      <trkpt lat="44.20862" lon="5.27852">
        <ele>406</ele>
        <time>2011-04-17T07:32:22.000Z</time>
      </trkpt>
      <trkpt lat="44.20864" lon="5.27853">
        <ele>406</ele>
        <time>2011-04-17T07:32:27.000Z</time>
      </trkpt>
      <trkpt lat="44.20861" lon="5.27854">
        <ele>406</ele>
        <time>2011-04-17T07:32:32.000Z</time>
      </trkpt>
      <trkpt lat="44.20864" lon="5.27856">
        <ele>405.79998779297</ele>
        <time>2011-04-17T07:32:41.000Z</time>
      </trkpt>
      <trkpt lat="44.20869" lon="5.27858">
        <ele>405.79998779297</ele>
        <time>2011-04-17T07:32:56.000Z</time>
      </trkpt>
      <trkpt lat="44.20867" lon="5.27854">
        <ele>405.79998779297</ele>
        <time>2011-04-17T07:33:09.000Z</time>
      </trkpt>
      <trkpt lat="44.20865" lon="5.27852">
        <ele>405.79998779297</ele>
        <time>2011-04-17T07:33:19.000Z</time>
      </trkpt>
      <trkpt lat="44.20859" lon="5.27849">
        <ele>406.20001220703</ele>
        <time>2011-04-17T07:33:30.000Z</time>
      </trkpt>
      <trkpt lat="44.20859" lon="5.2785">
        <ele>406.20001220703</ele>
        <time>2011-04-17T07:33:42.000Z</time>
      </trkpt>
      <trkpt lat="44.20862" lon="5.2785">
        <ele>406</ele>
        <time>2011-04-17T07:33:49.000Z</time>
      </trkpt>
      <trkpt lat="44.20863" lon="5.27848">
        <ele>406</ele>
        <time>2011-04-17T07:34:04.000Z</time>
      </trkpt>
      <trkpt lat="44.20862" lon="5.27852">
        <ele>406</ele>
        <time>2011-04-17T07:34:22.000Z</time>
      </trkpt>
      <trkpt lat="44.20861" lon="5.27851">
        <ele>406</ele>
        <time>2011-04-17T07:34:31.000Z</time>
      </trkpt>
      <trkpt lat="44.20865" lon="5.27853">
        <ele>405.79998779297</ele>
        <time>2011-04-17T07:34:40.000Z</time>
      </trkpt>
      <trkpt lat="44.20862" lon="5.27846">
        <ele>406</ele>
        <time>2011-04-17T07:35:05.000Z</time>
      </trkpt>
      <trkpt lat="44.20863" lon="5.27847">
        <ele>406</ele>
        <time>2011-04-17T07:35:16.000Z</time>
      </trkpt>
      <trkpt lat="44.2086" lon="5.27845">
        <ele>406.20001220703</ele>
        <time>2011-04-17T07:35:25.000Z</time>
      </trkpt>
      <trkpt lat="44.20859" lon="5.27846">
        <ele>406.20001220703</ele>
        <time>2011-04-17T07:35:35.000Z</time>
      </trkpt>
      <trkpt lat="44.20859" lon="5.27847">
        <ele>406.20001220703</ele>
        <time>2011-04-17T07:35:42.000Z</time>
      </trkpt>
      <trkpt lat="44.20858" lon="5.2785">
        <ele>406.20001220703</ele>
        <time>2011-04-17T07:35:57.000Z</time>
      </trkpt>
      <trkpt lat="44.20855" lon="5.27843">
        <ele>406.39999389648</ele>
        <time>2011-04-17T07:36:15.000Z</time>
      </trkpt>
      <trkpt lat="44.20856" lon="5.27846">
        <ele>406.20001220703</ele>
        <time>2011-04-17T07:36:37.000Z</time>
      </trkpt>
      <trkpt lat="44.20856" lon="5.27848">
        <ele>406.20001220703</ele>
        <time>2011-04-17T07:36:45.000Z</time>
      </trkpt>
      <trkpt lat="44.20857" lon="5.27849">
        <ele>406.20001220703</ele>
        <time>2011-04-17T07:36:54.000Z</time>
      </trkpt>
      <trkpt lat="44.20858" lon="5.27848">
        <ele>406.20001220703</ele>
        <time>2011-04-17T07:37:13.000Z</time>
      </trkpt>
      <trkpt lat="44.20859" lon="5.27848">
        <ele>406.20001220703</ele>
        <time>2011-04-17T07:37:21.000Z</time>
      </trkpt>
      <trkpt lat="44.20863" lon="5.27854">
        <ele>406</ele>
        <time>2011-04-17T07:38:00.000Z</time>
      </trkpt>
      <trkpt lat="44.20866" lon="5.27856">
        <ele>405.79998779297</ele>
        <time>2011-04-17T07:38:02.000Z</time>
      </trkpt>
      <trkpt lat="44.20873" lon="5.27852">
        <ele>405.60000610352</ele>
        <time>2011-04-17T07:38:08.000Z</time>
      </trkpt>
      <trkpt lat="44.20873" lon="5.27852">
        <ele>405.60000610352</ele>
        <time>2011-04-17T07:38:12.000Z</time>
      </trkpt>
      <trkpt lat="44.20872" lon="5.27854">
        <ele>405.60000610352</ele>
        <time>2011-04-17T07:38:22.000Z</time>
      </trkpt>
      <trkpt lat="44.20873" lon="5.27855">
        <ele>405.60000610352</ele>
        <time>2011-04-17T07:39:14.000Z</time>
      </trkpt>
      <trkpt lat="44.20874" lon="5.27855">
        <ele>405.60000610352</ele>
        <time>2011-04-17T07:39:22.000Z</time>
      </trkpt>
      <trkpt lat="44.20874" lon="5.27854">
        <ele>405.60000610352</ele>
        <time>2011-04-17T07:39:27.000Z</time>
      </trkpt>
      <trkpt lat="44.20879" lon="5.27841">
        <ele>405.20001220703</ele>
        <time>2011-04-17T07:39:33.000Z</time>
      </trkpt>
      <trkpt lat="44.20884" lon="5.27823">
        <ele>405</ele>
        <time>2011-04-17T07:39:39.000Z</time>
      </trkpt>
      <trkpt lat="44.2089" lon="5.27801">
        <ele>405</ele>
        <time>2011-04-17T07:39:45.000Z</time>
      </trkpt>
      <trkpt lat="44.20902" lon="5.27778">
        <ele>404.20001220703</ele>
        <time>2011-04-17T07:39:52.000Z</time>
      </trkpt>
      <trkpt lat="44.20918" lon="5.2777">
        <ele>402.79998779297</ele>
        <time>2011-04-17T07:39:57.000Z</time>
      </trkpt>
      <trkpt lat="44.20943" lon="5.2776">
        <ele>402.20001220703</ele>
        <time>2011-04-17T07:40:03.000Z</time>
      </trkpt>
      <trkpt lat="44.20973" lon="5.27713">
        <ele>400.39999389648</ele>
        <time>2011-04-17T07:40:12.000Z</time>
      </trkpt>
      <trkpt lat="44.20978" lon="5.27703">
        <ele>400</ele>
        <time>2011-04-17T07:40:14.000Z</time>
      </trkpt>
      <trkpt lat="44.20978" lon="5.27686">
        <ele>399.79998779297</ele>
        <time>2011-04-17T07:40:18.000Z</time>
      </trkpt>
      <trkpt lat="44.20975" lon="5.27683">
        <ele>399.79998779297</ele>
        <time>2011-04-17T07:40:19.000Z</time>
      </trkpt>
      <trkpt lat="44.20952" lon="5.27654">
        <ele>402</ele>
        <time>2011-04-17T07:40:28.000Z</time>
      </trkpt>
      <trkpt lat="44.20937" lon="5.27635">
        <ele>404.20001220703</ele>
        <time>2011-04-17T07:40:35.000Z</time>
      </trkpt>
      <trkpt lat="44.20928" lon="5.27618">
        <ele>406.20001220703</ele>
        <time>2011-04-17T07:40:40.000Z</time>
      </trkpt>
      <trkpt lat="44.20922" lon="5.27605">
        <ele>407.79998779297</ele>
        <time>2011-04-17T07:40:45.000Z</time>
      </trkpt>
      <trkpt lat="44.20921" lon="5.27592">
        <ele>408.79998779297</ele>
        <time>2011-04-17T07:40:52.000Z</time>
      </trkpt>
      <trkpt lat="44.20921" lon="5.2759">
        <ele>409</ele>
        <time>2011-04-17T07:40:54.000Z</time>
      </trkpt>
      <trkpt lat="44.20924" lon="5.27575">
        <ele>409.60000610352</ele>
        <time>2011-04-17T07:41:00.000Z</time>
      </trkpt>
      <trkpt lat="44.20925" lon="5.27562">
        <ele>410.39999389648</ele>
        <time>2011-04-17T07:41:04.000Z</time>
      </trkpt>
      <trkpt lat="44.20926" lon="5.27546">
        <ele>411.39999389648</ele>
        <time>2011-04-17T07:41:10.000Z</time>
      </trkpt>
      <trkpt lat="44.20928" lon="5.27529">
        <ele>412.20001220703</ele>
        <time>2011-04-17T07:41:17.000Z</time>
      </trkpt>
      <trkpt lat="44.20928" lon="5.27524">
        <ele>412.60000610352</ele>
        <time>2011-04-17T07:41:24.000Z</time>
      </trkpt>
      <trkpt lat="44.20929" lon="5.27527">
        <ele>412.20001220703</ele>
        <time>2011-04-17T07:41:48.000Z</time>
      </trkpt>
      <trkpt lat="44.20929" lon="5.27522">
        <ele>412.60000610352</ele>
        <time>2011-04-17T07:41:54.000Z</time>
      </trkpt>
      <trkpt lat="44.20928" lon="5.27513">
        <ele>413.39999389648</ele>
        <time>2011-04-17T07:42:01.000Z</time>
      </trkpt>
      <trkpt lat="44.20929" lon="5.27502">
        <ele>414</ele>
        <time>2011-04-17T07:42:10.000Z</time>
      </trkpt>
      <trkpt lat="44.20929" lon="5.27492">
        <ele>414.60000610352</ele>
        <time>2011-04-17T07:42:18.000Z</time>
      </trkpt>
      <trkpt lat="44.20928" lon="5.27484">
        <ele>415.39999389648</ele>
        <time>2011-04-17T07:42:25.000Z</time>
      </trkpt>
      <trkpt lat="44.20928" lon="5.27477">
        <ele>416</ele>
        <time>2011-04-17T07:42:31.000Z</time>
      </trkpt>
      <trkpt lat="44.20927" lon="5.27467">
        <ele>417</ele>
        <time>2011-04-17T07:42:40.000Z</time>
      </trkpt>
      <trkpt lat="44.20928" lon="5.27456">
        <ele>417.60000610352</ele>
        <time>2011-04-17T07:42:48.000Z</time>
      </trkpt>
      <trkpt lat="44.20927" lon="5.27452">
        <ele>418</ele>
        <time>2011-04-17T07:42:51.000Z</time>
      </trkpt>
      <trkpt lat="44.20927" lon="5.27437">
        <ele>419.20001220703</ele>
        <time>2011-04-17T07:43:00.000Z</time>
      </trkpt>
      <trkpt lat="44.20925" lon="5.27427">
        <ele>420.20001220703</ele>
        <time>2011-04-17T07:43:06.000Z</time>
      </trkpt>
      <trkpt lat="44.20925" lon="5.27414">
        <ele>421</ele>
        <time>2011-04-17T07:43:15.000Z</time>
      </trkpt>
      <trkpt lat="44.20925" lon="5.27403">
        <ele>421.20001220703</ele>
        <time>2011-04-17T07:43:23.000Z</time>
      </trkpt>
      <trkpt lat="44.20926" lon="5.27392">
        <ele>421.39999389648</ele>
        <time>2011-04-17T07:43:31.000Z</time>
      </trkpt>
      <trkpt lat="44.20922" lon="5.27385">
        <ele>422.60000610352</ele>
        <time>2011-04-17T07:43:39.000Z</time>
      </trkpt>
      <trkpt lat="44.20921" lon="5.27382">
        <ele>422.79998779297</ele>
        <time>2011-04-17T07:43:44.000Z</time>
      </trkpt>
      <trkpt lat="44.20921" lon="5.27382">
        <ele>422.79998779297</ele>
        <time>2011-04-17T07:43:52.000Z</time>
      </trkpt>
      <trkpt lat="44.20922" lon="5.27371">
        <ele>422.60000610352</ele>
        <time>2011-04-17T07:43:58.000Z</time>
      </trkpt>
      <trkpt lat="44.20922" lon="5.27353">
        <ele>422.79998779297</ele>
        <time>2011-04-17T07:44:04.000Z</time>
      </trkpt>
      <trkpt lat="44.20923" lon="5.27319">
        <ele>423</ele>
        <time>2011-04-17T07:44:13.000Z</time>
      </trkpt>
      <trkpt lat="44.20927" lon="5.27295">
        <ele>422.39999389648</ele>
        <time>2011-04-17T07:44:19.000Z</time>
      </trkpt>
      <trkpt lat="44.20929" lon="5.27265">
        <ele>422</ele>
        <time>2011-04-17T07:44:25.000Z</time>
      </trkpt>
      <trkpt lat="44.20925" lon="5.2725">
        <ele>423.39999389648</ele>
        <time>2011-04-17T07:44:28.000Z</time>
      </trkpt>
      <trkpt lat="44.20933" lon="5.27231">
        <ele>421.39999389648</ele>
        <time>2011-04-17T07:44:33.000Z</time>
      </trkpt>
      <trkpt lat="44.20941" lon="5.27208">
        <ele>419.39999389648</ele>
        <time>2011-04-17T07:44:39.000Z</time>
      </trkpt>
      <trkpt lat="44.2094" lon="5.27185">
        <ele>420</ele>
        <time>2011-04-17T07:44:45.000Z</time>
      </trkpt>
      <trkpt lat="44.20939" lon="5.27172">
        <ele>420.39999389648</ele>
        <time>2011-04-17T07:44:50.000Z</time>
      </trkpt>
      <trkpt lat="44.2094" lon="5.2716">
        <ele>421</ele>
        <time>2011-04-17T07:44:57.000Z</time>
      </trkpt>
      <trkpt lat="44.20939" lon="5.27156">
        <ele>421.79998779297</ele>
        <time>2011-04-17T07:45:08.000Z</time>
      </trkpt>
      <trkpt lat="44.2094" lon="5.27151">
        <ele>421.79998779297</ele>
        <time>2011-04-17T07:45:12.000Z</time>
      </trkpt>
      <trkpt lat="44.2094" lon="5.27146">
        <ele>422.20001220703</ele>
        <time>2011-04-17T07:45:16.000Z</time>
      </trkpt>
      <trkpt lat="44.20941" lon="5.27144">
        <ele>422.20001220703</ele>
        <time>2011-04-17T07:45:29.000Z</time>
      </trkpt>
      <trkpt lat="44.20941" lon="5.27133">
        <ele>423</ele>
        <time>2011-04-17T07:45:34.000Z</time>
      </trkpt>
      <trkpt lat="44.20941" lon="5.27112">
        <ele>424.79998779297</ele>
        <time>2011-04-17T07:45:40.000Z</time>
      </trkpt>
      <trkpt lat="44.20949" lon="5.2709">
        <ele>423.79998779297</ele>
        <time>2011-04-17T07:45:46.000Z</time>
      </trkpt>
      <trkpt lat="44.20951" lon="5.27087">
        <ele>423.60000610352</ele>
        <time>2011-04-17T07:45:47.000Z</time>
      </trkpt>
      <trkpt lat="44.20955" lon="5.27071">
        <ele>423.39999389648</ele>
        <time>2011-04-17T07:45:53.000Z</time>
      </trkpt>
      <trkpt lat="44.20961" lon="5.27051">
        <ele>423.39999389648</ele>
        <time>2011-04-17T07:46:01.000Z</time>
      </trkpt>
      <trkpt lat="44.20965" lon="5.27036">
        <ele>423</ele>
        <time>2011-04-17T07:46:08.000Z</time>
      </trkpt>
      <trkpt lat="44.2097" lon="5.27013">
        <ele>423.39999389648</ele>
        <time>2011-04-17T07:46:18.000Z</time>
      </trkpt>
      <trkpt lat="44.20971" lon="5.26993">
        <ele>424.60000610352</ele>
        <time>2011-04-17T07:46:28.000Z</time>
      </trkpt>
      <trkpt lat="44.20969" lon="5.26977">
        <ele>427.39999389648</ele>
        <time>2011-04-17T07:46:36.000Z</time>
      </trkpt>
      <trkpt lat="44.20969" lon="5.26965">
        <ele>429.20001220703</ele>
        <time>2011-04-17T07:46:42.000Z</time>
      </trkpt>
      <trkpt lat="44.20967" lon="5.26947">
        <ele>431.79998779297</ele>
        <time>2011-04-17T07:46:51.000Z</time>
      </trkpt>
      <trkpt lat="44.20966" lon="5.26933">
        <ele>433.79998779297</ele>
        <time>2011-04-17T07:46:59.000Z</time>
      </trkpt>
      <trkpt lat="44.20968" lon="5.26921">
        <ele>434.39999389648</ele>
        <time>2011-04-17T07:47:07.000Z</time>
      </trkpt>
      <trkpt lat="44.20969" lon="5.26913">
        <ele>434.60000610352</ele>
        <time>2011-04-17T07:47:12.000Z</time>
      </trkpt>
      <trkpt lat="44.20969" lon="5.26909">
        <ele>435.39999389648</ele>
        <time>2011-04-17T07:47:18.000Z</time>
      </trkpt>
      <trkpt lat="44.2097" lon="5.26899">
        <ele>436.39999389648</ele>
        <time>2011-04-17T07:47:26.000Z</time>
      </trkpt>
      <trkpt lat="44.2097" lon="5.26898">
        <ele>436.60000610352</ele>
        <time>2011-04-17T07:47:32.000Z</time>
      </trkpt>
      <trkpt lat="44.20968" lon="5.26898">
        <ele>437.39999389648</ele>
        <time>2011-04-17T07:47:48.000Z</time>
      </trkpt>
      <trkpt lat="44.20968" lon="5.26894">
        <ele>437.79998779297</ele>
        <time>2011-04-17T07:47:55.000Z</time>
      </trkpt>
      <trkpt lat="44.20969" lon="5.26892">
        <ele>438</ele>
        <time>2011-04-17T07:48:00.000Z</time>
      </trkpt>
      <trkpt lat="44.20972" lon="5.26882">
        <ele>437.60000610352</ele>
        <time>2011-04-17T07:48:07.000Z</time>
      </trkpt>
      <trkpt lat="44.20975" lon="5.26865">
        <ele>438.20001220703</ele>
        <time>2011-04-17T07:48:17.000Z</time>
      </trkpt>
      <trkpt lat="44.20978" lon="5.26851">
        <ele>438.20001220703</ele>
        <time>2011-04-17T07:48:25.000Z</time>
      </trkpt>
      <trkpt lat="44.20979" lon="5.26843">
        <ele>438.60000610352</ele>
        <time>2011-04-17T07:48:30.000Z</time>
      </trkpt>
      <trkpt lat="44.20981" lon="5.26829">
        <ele>438.79998779297</ele>
        <time>2011-04-17T07:48:38.000Z</time>
      </trkpt>
      <trkpt lat="44.20981" lon="5.26814">
        <ele>439</ele>
        <time>2011-04-17T07:48:46.000Z</time>
      </trkpt>
      <trkpt lat="44.20983" lon="5.268">
        <ele>438.79998779297</ele>
        <time>2011-04-17T07:48:54.000Z</time>
      </trkpt>
      <trkpt lat="44.20979" lon="5.26781">
        <ele>441.39999389648</ele>
        <time>2011-04-17T07:49:04.000Z</time>
      </trkpt>
      <trkpt lat="44.20975" lon="5.26763">
        <ele>444.79998779297</ele>
        <time>2011-04-17T07:49:13.000Z</time>
      </trkpt>
      <trkpt lat="44.20971" lon="5.26742">
        <ele>447.39999389648</ele>
        <time>2011-04-17T07:49:24.000Z</time>
      </trkpt>
      <trkpt lat="44.20969" lon="5.26726">
        <ele>446.60000610352</ele>
        <time>2011-04-17T07:49:32.000Z</time>
      </trkpt>
      <trkpt lat="44.20968" lon="5.26709">
        <ele>445.20001220703</ele>
        <time>2011-04-17T07:49:40.000Z</time>
      </trkpt>
      <trkpt lat="44.20966" lon="5.26698">
        <ele>445</ele>
        <time>2011-04-17T07:49:46.000Z</time>
      </trkpt>
      <trkpt lat="44.20967" lon="5.26698">
        <ele>444.79998779297</ele>
        <time>2011-04-17T07:49:52.000Z</time>
      </trkpt>
      <trkpt lat="44.20966" lon="5.26698">
        <ele>445</ele>
        <time>2011-04-17T07:50:22.000Z</time>
      </trkpt>
      <trkpt lat="44.20965" lon="5.26698">
        <ele>445.60000610352</ele>
        <time>2011-04-17T07:50:28.000Z</time>
      </trkpt>
      <trkpt lat="44.20963" lon="5.26694">
        <ele>446.20001220703</ele>
        <time>2011-04-17T07:50:35.000Z</time>
      </trkpt>
      <trkpt lat="44.20961" lon="5.26688">
        <ele>446.60000610352</ele>
        <time>2011-04-17T07:50:43.000Z</time>
      </trkpt>
      <trkpt lat="44.20961" lon="5.26687">
        <ele>446.79998779297</ele>
        <time>2011-04-17T07:50:50.000Z</time>
      </trkpt>
      <trkpt lat="44.20961" lon="5.26686">
        <ele>446.79998779297</ele>
        <time>2011-04-17T07:50:56.000Z</time>
      </trkpt>
      <trkpt lat="44.2096" lon="5.26685">
        <ele>447</ele>
        <time>2011-04-17T07:51:02.000Z</time>
      </trkpt>
      <trkpt lat="44.20957" lon="5.26678">
        <ele>447.39999389648</ele>
        <time>2011-04-17T07:51:08.000Z</time>
      </trkpt>
      <trkpt lat="44.20956" lon="5.26675">
        <ele>447.60000610352</ele>
        <time>2011-04-17T07:51:16.000Z</time>
      </trkpt>
      <trkpt lat="44.20954" lon="5.26672">
        <ele>448.60000610352</ele>
        <time>2011-04-17T07:51:30.000Z</time>
      </trkpt>
      <trkpt lat="44.20953" lon="5.2667">
        <ele>448.79998779297</ele>
        <time>2011-04-17T07:51:35.000Z</time>
      </trkpt>
      <trkpt lat="44.20952" lon="5.26669">
        <ele>449</ele>
        <time>2011-04-17T07:51:36.000Z</time>
      </trkpt>
      <trkpt lat="44.20943" lon="5.26659">
        <ele>451.39999389648</ele>
        <time>2011-04-17T07:51:44.000Z</time>
      </trkpt>
      <trkpt lat="44.20936" lon="5.26654">
        <ele>453.20001220703</ele>
        <time>2011-04-17T07:51:50.000Z</time>
      </trkpt>
      <trkpt lat="44.20929" lon="5.26648">
        <ele>454.79998779297</ele>
        <time>2011-04-17T07:51:57.000Z</time>
      </trkpt>
      <trkpt lat="44.20921" lon="5.26641">
        <ele>456</ele>
        <time>2011-04-17T07:52:04.000Z</time>
      </trkpt>
      <trkpt lat="44.20913" lon="5.26634">
        <ele>457.60000610352</ele>
        <time>2011-04-17T07:52:11.000Z</time>
      </trkpt>
      <trkpt lat="44.20905" lon="5.26625">
        <ele>458</ele>
        <time>2011-04-17T07:52:19.000Z</time>
      </trkpt>
      <trkpt lat="44.20896" lon="5.26614">
        <ele>458.60000610352</ele>
        <time>2011-04-17T07:52:28.000Z</time>
      </trkpt>
      <trkpt lat="44.20888" lon="5.26606">
        <ele>459.20001220703</ele>
        <time>2011-04-17T07:52:36.000Z</time>
      </trkpt>
      <trkpt lat="44.20883" lon="5.26599">
        <ele>459</ele>
        <time>2011-04-17T07:52:43.000Z</time>
      </trkpt>
      <trkpt lat="44.20879" lon="5.26593">
        <ele>458.79998779297</ele>
        <time>2011-04-17T07:52:49.000Z</time>
      </trkpt>
      <trkpt lat="44.20874" lon="5.26586">
        <ele>458.60000610352</ele>
        <time>2011-04-17T07:52:56.000Z</time>
      </trkpt>
      <trkpt lat="44.20869" lon="5.26583">
        <ele>460.20001220703</ele>
        <time>2011-04-17T07:53:02.000Z</time>
      </trkpt>
      <trkpt lat="44.20861" lon="5.26583">
        <ele>463.39999389648</ele>
        <time>2011-04-17T07:53:09.000Z</time>
      </trkpt>
      <trkpt lat="44.20857" lon="5.26584">
        <ele>465.39999389648</ele>
        <time>2011-04-17T07:53:16.000Z</time>
      </trkpt>
      <trkpt lat="44.20855" lon="5.26585">
        <ele>466.79998779297</ele>
        <time>2011-04-17T07:53:30.000Z</time>
      </trkpt>
      <trkpt lat="44.20849" lon="5.26585">
        <ele>469.39999389648</ele>
        <time>2011-04-17T07:53:38.000Z</time>
      </trkpt>
      <trkpt lat="44.20844" lon="5.26585">
        <ele>471.60000610352</ele>
        <time>2011-04-17T07:53:45.000Z</time>
      </trkpt>
      <trkpt lat="44.20836" lon="5.26584">
        <ele>474.79998779297</ele>
        <time>2011-04-17T07:53:54.000Z</time>
      </trkpt>
      <trkpt lat="44.20831" lon="5.26583">
        <ele>476.60000610352</ele>
        <time>2011-04-17T07:54:01.000Z</time>
      </trkpt>
      <trkpt lat="44.20825" lon="5.26581">
        <ele>478.39999389648</ele>
        <time>2011-04-17T07:54:08.000Z</time>
      </trkpt>
      <trkpt lat="44.20819" lon="5.2658">
        <ele>480</ele>
        <time>2011-04-17T07:54:14.000Z</time>
      </trkpt>
      <trkpt lat="44.20812" lon="5.26578">
        <ele>482.20001220703</ele>
        <time>2011-04-17T07:54:22.000Z</time>
      </trkpt>
      <trkpt lat="44.20804" lon="5.26576">
        <ele>484.79998779297</ele>
        <time>2011-04-17T07:54:32.000Z</time>
      </trkpt>
      <trkpt lat="44.20798" lon="5.26573">
        <ele>486</ele>
        <time>2011-04-17T07:54:39.000Z</time>
      </trkpt>
      <trkpt lat="44.20792" lon="5.2657">
        <ele>487.79998779297</ele>
        <time>2011-04-17T07:54:47.000Z</time>
      </trkpt>
      <trkpt lat="44.20792" lon="5.26571">
        <ele>487.79998779297</ele>
        <time>2011-04-17T07:54:54.000Z</time>
      </trkpt>
      <trkpt lat="44.20792" lon="5.2657">
        <ele>487.60000610352</ele>
        <time>2011-04-17T07:55:13.000Z</time>
      </trkpt>
      <trkpt lat="44.20792" lon="5.2657">
        <ele>487.79998779297</ele>
        <time>2011-04-17T07:55:23.000Z</time>
      </trkpt>
      <trkpt lat="44.20788" lon="5.26569">
        <ele>489</ele>
        <time>2011-04-17T07:55:32.000Z</time>
      </trkpt>
      <trkpt lat="44.20784" lon="5.26566">
        <ele>490</ele>
        <time>2011-04-17T07:55:36.000Z</time>
      </trkpt>
      <trkpt lat="44.2078" lon="5.26565">
        <ele>491.20001220703</ele>
        <time>2011-04-17T07:55:40.000Z</time>
      </trkpt>
      <trkpt lat="44.20775" lon="5.26562">
        <ele>492.60000610352</ele>
        <time>2011-04-17T07:55:46.000Z</time>
      </trkpt>
      <trkpt lat="44.20773" lon="5.26554">
        <ele>492</ele>
        <time>2011-04-17T07:55:53.000Z</time>
      </trkpt>
      <trkpt lat="44.20774" lon="5.26545">
        <ele>490.20001220703</ele>
        <time>2011-04-17T07:55:59.000Z</time>
      </trkpt>
      <trkpt lat="44.20776" lon="5.26528">
        <ele>486.39999389648</ele>
        <time>2011-04-17T07:56:08.000Z</time>
      </trkpt>
      <trkpt lat="44.20779" lon="5.26513">
        <ele>482.60000610352</ele>
        <time>2011-04-17T07:56:16.000Z</time>
      </trkpt>
      <trkpt lat="44.20781" lon="5.26499">
        <ele>479.39999389648</ele>
        <time>2011-04-17T07:56:23.000Z</time>
      </trkpt>
      <trkpt lat="44.20779" lon="5.26485">
        <ele>477.79998779297</ele>
        <time>2011-04-17T07:56:30.000Z</time>
      </trkpt>
      <trkpt lat="44.20775" lon="5.26474">
        <ele>477.60000610352</ele>
        <time>2011-04-17T07:56:38.000Z</time>
      </trkpt>
      <trkpt lat="44.20766" lon="5.26466">
        <ele>479.60000610352</ele>
        <time>2011-04-17T07:56:46.000Z</time>
      </trkpt>
      <trkpt lat="44.20755" lon="5.26461">
        <ele>482.79998779297</ele>
        <time>2011-04-17T07:56:55.000Z</time>
      </trkpt>
      <trkpt lat="44.20747" lon="5.26457">
        <ele>485.60000610352</ele>
        <time>2011-04-17T07:57:03.000Z</time>
      </trkpt>
      <trkpt lat="44.20742" lon="5.26455">
        <ele>487.39999389648</ele>
        <time>2011-04-17T07:57:08.000Z</time>
      </trkpt>
      <trkpt lat="44.20736" lon="5.26451">
        <ele>489.60000610352</ele>
        <time>2011-04-17T07:57:14.000Z</time>
      </trkpt>
      <trkpt lat="44.20728" lon="5.26445">
        <ele>491.79998779297</ele>
        <time>2011-04-17T07:57:21.000Z</time>
      </trkpt>
      <trkpt lat="44.2072" lon="5.2644">
        <ele>494.79998779297</ele>
        <time>2011-04-17T07:57:29.000Z</time>
      </trkpt>
      <trkpt lat="44.20712" lon="5.26437">
        <ele>497.79998779297</ele>
        <time>2011-04-17T07:57:37.000Z</time>
      </trkpt>
      <trkpt lat="44.20705" lon="5.26433">
        <ele>500</ele>
        <time>2011-04-17T07:57:44.000Z</time>
      </trkpt>
      <trkpt lat="44.20699" lon="5.2643">
        <ele>502.20001220703</ele>
        <time>2011-04-17T07:57:50.000Z</time>
      </trkpt>
      <trkpt lat="44.2069" lon="5.26425">
        <ele>505.39999389648</ele>
        <time>2011-04-17T07:57:58.000Z</time>
      </trkpt>
      <trkpt lat="44.2068" lon="5.26416">
        <ele>507.79998779297</ele>
        <time>2011-04-17T07:58:07.000Z</time>
      </trkpt>
      <trkpt lat="44.20676" lon="5.26407">
        <ele>508</ele>
        <time>2011-04-17T07:58:13.000Z</time>
      </trkpt>
      <trkpt lat="44.20673" lon="5.26394">
        <ele>507</ele>
        <time>2011-04-17T07:58:21.000Z</time>
      </trkpt>
      <trkpt lat="44.2067" lon="5.26382">
        <ele>505.60000610352</ele>
        <time>2011-04-17T07:58:28.000Z</time>
      </trkpt>
      <trkpt lat="44.20669" lon="5.26371">
        <ele>504.39999389648</ele>
        <time>2011-04-17T07:58:35.000Z</time>
      </trkpt>
      <trkpt lat="44.20668" lon="5.2637">
        <ele>504.20001220703</ele>
        <time>2011-04-17T07:58:39.000Z</time>
      </trkpt>
      <trkpt lat="44.20668" lon="5.26369">
        <ele>504</ele>
        <time>2011-04-17T07:58:45.000Z</time>
      </trkpt>
      <trkpt lat="44.20669" lon="5.26363">
        <ele>502.79998779297</ele>
        <time>2011-04-17T07:58:52.000Z</time>
      </trkpt>
      <trkpt lat="44.20668" lon="5.26355">
        <ele>501.39999389648</ele>
        <time>2011-04-17T07:58:58.000Z</time>
      </trkpt>
      <trkpt lat="44.20667" lon="5.2635">
        <ele>501</ele>
        <time>2011-04-17T07:59:03.000Z</time>
      </trkpt>
      <trkpt lat="44.20666" lon="5.26343">
        <ele>500</ele>
        <time>2011-04-17T07:59:09.000Z</time>
      </trkpt>
      <trkpt lat="44.20665" lon="5.26339">
        <ele>500.20001220703</ele>
        <time>2011-04-17T07:59:14.000Z</time>
      </trkpt>
      <trkpt lat="44.20663" lon="5.26334">
        <ele>500.39999389648</ele>
        <time>2011-04-17T07:59:20.000Z</time>
      </trkpt>
      <trkpt lat="44.20659" lon="5.26327">
        <ele>502.60000610352</ele>
        <time>2011-04-17T07:59:27.000Z</time>
      </trkpt>
      <trkpt lat="44.20654" lon="5.26319">
        <ele>505.39999389648</ele>
        <time>2011-04-17T07:59:34.000Z</time>
      </trkpt>
      <trkpt lat="44.2065" lon="5.2631">
        <ele>507.39999389648</ele>
        <time>2011-04-17T07:59:42.000Z</time>
      </trkpt>
      <trkpt lat="44.20651" lon="5.2631">
        <ele>507</ele>
        <time>2011-04-17T07:59:47.000Z</time>
      </trkpt>
      <trkpt lat="44.20649" lon="5.2631">
        <ele>508</ele>
        <time>2011-04-17T08:00:05.000Z</time>
      </trkpt>
      <trkpt lat="44.20648" lon="5.26308">
        <ele>508.39999389648</ele>
        <time>2011-04-17T08:00:10.000Z</time>
      </trkpt>
      <trkpt lat="44.20644" lon="5.26301">
        <ele>510.60000610352</ele>
        <time>2011-04-17T08:00:16.000Z</time>
      </trkpt>
      <trkpt lat="44.20639" lon="5.26293">
        <ele>513</ele>
        <time>2011-04-17T08:00:23.000Z</time>
      </trkpt>
      <trkpt lat="44.20636" lon="5.2629">
        <ele>514.40002441406</ele>
        <time>2011-04-17T08:00:26.000Z</time>
      </trkpt>
      <trkpt lat="44.20634" lon="5.26286">
        <ele>515.20001220703</ele>
        <time>2011-04-17T08:00:30.000Z</time>
      </trkpt>
      <trkpt lat="44.20633" lon="5.26282">
        <ele>515.79998779297</ele>
        <time>2011-04-17T08:00:37.000Z</time>
      </trkpt>
      <trkpt lat="44.20632" lon="5.26281">
        <ele>516</ele>
        <time>2011-04-17T08:00:42.000Z</time>
      </trkpt>
      <trkpt lat="44.20632" lon="5.26279">
        <ele>516</ele>
        <time>2011-04-17T08:00:49.000Z</time>
      </trkpt>
      <trkpt lat="44.20632" lon="5.26279">
        <ele>516.20001220703</ele>
        <time>2011-04-17T08:00:59.000Z</time>
      </trkpt>
      <trkpt lat="44.2063" lon="5.26277">
        <ele>516.79998779297</ele>
        <time>2011-04-17T08:01:06.000Z</time>
      </trkpt>
      <trkpt lat="44.20628" lon="5.26275">
        <ele>517.79998779297</ele>
        <time>2011-04-17T08:01:14.000Z</time>
      </trkpt>
      <trkpt lat="44.20625" lon="5.26268">
        <ele>519</ele>
        <time>2011-04-17T08:01:21.000Z</time>
      </trkpt>
      <trkpt lat="44.20622" lon="5.26257">
        <ele>519.59997558594</ele>
        <time>2011-04-17T08:01:28.000Z</time>
      </trkpt>
      <trkpt lat="44.20618" lon="5.26245">
        <ele>521</ele>
        <time>2011-04-17T08:01:35.000Z</time>
      </trkpt>
      <trkpt lat="44.20615" lon="5.2623">
        <ele>521.79998779297</ele>
        <time>2011-04-17T08:01:43.000Z</time>
      </trkpt>
      <trkpt lat="44.20614" lon="5.26225">
        <ele>522.20001220703</ele>
        <time>2011-04-17T08:01:46.000Z</time>
      </trkpt>
      <trkpt lat="44.20617" lon="5.26217">
        <ele>520</ele>
        <time>2011-04-17T08:01:53.000Z</time>
      </trkpt>
      <trkpt lat="44.20621" lon="5.26204">
        <ele>517</ele>
        <time>2011-04-17T08:02:02.000Z</time>
      </trkpt>
      <trkpt lat="44.20618" lon="5.26191">
        <ele>518.59997558594</ele>
        <time>2011-04-17T08:02:10.000Z</time>
      </trkpt>
      <trkpt lat="44.2061" lon="5.26185">
        <ele>522.20001220703</ele>
        <time>2011-04-17T08:02:18.000Z</time>
      </trkpt>
      <trkpt lat="44.20602" lon="5.26182">
        <ele>526.59997558594</ele>
        <time>2011-04-17T08:02:26.000Z</time>
      </trkpt>
      <trkpt lat="44.20595" lon="5.26178">
        <ele>530.20001220703</ele>
        <time>2011-04-17T08:02:34.000Z</time>
      </trkpt>
      <trkpt lat="44.20588" lon="5.26177">
        <ele>533.79998779297</ele>
        <time>2011-04-17T08:02:41.000Z</time>
      </trkpt>
      <trkpt lat="44.20582" lon="5.26176">
        <ele>537.20001220703</ele>
        <time>2011-04-17T08:02:48.000Z</time>
      </trkpt>
      <trkpt lat="44.2058" lon="5.26175">
        <ele>538</ele>
        <time>2011-04-17T08:02:50.000Z</time>
      </trkpt>
      <trkpt lat="44.20577" lon="5.26175">
        <ele>539</ele>
        <time>2011-04-17T08:02:52.000Z</time>
      </trkpt>
      <trkpt lat="44.20574" lon="5.26175">
        <ele>540.20001220703</ele>
        <time>2011-04-17T08:03:00.000Z</time>
      </trkpt>
      <trkpt lat="44.20571" lon="5.26174">
        <ele>541.20001220703</ele>
        <time>2011-04-17T08:03:06.000Z</time>
      </trkpt>
      <trkpt lat="44.20565" lon="5.26172">
        <ele>543.40002441406</ele>
        <time>2011-04-17T08:03:15.000Z</time>
      </trkpt>
      <trkpt lat="44.20557" lon="5.26172">
        <ele>546.40002441406</ele>
        <time>2011-04-17T08:03:25.000Z</time>
      </trkpt>
      <trkpt lat="44.2055" lon="5.26172">
        <ele>549</ele>
        <time>2011-04-17T08:03:34.000Z</time>
      </trkpt>
      <trkpt lat="44.20543" lon="5.26171">
        <ele>551.59997558594</ele>
        <time>2011-04-17T08:03:42.000Z</time>
      </trkpt>
      <trkpt lat="44.20537" lon="5.26172">
        <ele>554.20001220703</ele>
        <time>2011-04-17T08:03:51.000Z</time>
      </trkpt>
      <trkpt lat="44.20534" lon="5.26172">
        <ele>555.20001220703</ele>
        <time>2011-04-17T08:03:59.000Z</time>
      </trkpt>
      <trkpt lat="44.20527" lon="5.26172">
        <ele>557.79998779297</ele>
        <time>2011-04-17T08:04:44.000Z</time>
      </trkpt>
      <trkpt lat="44.20528" lon="5.26175">
        <ele>558.20001220703</ele>
        <time>2011-04-17T08:04:54.000Z</time>
      </trkpt>
      <trkpt lat="44.20528" lon="5.26174">
        <ele>557.79998779297</ele>
        <time>2011-04-17T08:05:05.000Z</time>
      </trkpt>
      <trkpt lat="44.20526" lon="5.26173">
        <ele>558.59997558594</ele>
        <time>2011-04-17T08:05:17.000Z</time>
      </trkpt>
      <trkpt lat="44.20523" lon="5.26174">
        <ele>559.79998779297</ele>
        <time>2011-04-17T08:05:30.000Z</time>
      </trkpt>
      <trkpt lat="44.20523" lon="5.26174">
        <ele>559.79998779297</ele>
        <time>2011-04-17T08:05:39.000Z</time>
      </trkpt>
      <trkpt lat="44.20524" lon="5.26173">
        <ele>559.59997558594</ele>
        <time>2011-04-17T08:05:48.000Z</time>
      </trkpt>
      <trkpt lat="44.20525" lon="5.26173">
        <ele>559</ele>
        <time>2011-04-17T08:05:57.000Z</time>
      </trkpt>
      <trkpt lat="44.20525" lon="5.26173">
        <ele>558.59997558594</ele>
        <time>2011-04-17T08:06:05.000Z</time>
      </trkpt>
      <trkpt lat="44.20527" lon="5.26173">
        <ele>558.20001220703</ele>
        <time>2011-04-17T08:06:13.000Z</time>
      </trkpt>
      <trkpt lat="44.20527" lon="5.26172">
        <ele>558</ele>
        <time>2011-04-17T08:06:19.000Z</time>
      </trkpt>
      <trkpt lat="44.20526" lon="5.26172">
        <ele>558.40002441406</ele>
        <time>2011-04-17T08:06:30.000Z</time>
      </trkpt>
      <trkpt lat="44.20527" lon="5.26174">
        <ele>558.40002441406</ele>
        <time>2011-04-17T08:06:37.000Z</time>
      </trkpt>
      <trkpt lat="44.20526" lon="5.26175">
        <ele>558.79998779297</ele>
        <time>2011-04-17T08:06:49.000Z</time>
      </trkpt>
      <trkpt lat="44.20527" lon="5.2618">
        <ele>558.59997558594</ele>
        <time>2011-04-17T08:07:00.000Z</time>
      </trkpt>
      <trkpt lat="44.20527" lon="5.26178">
        <ele>558.59997558594</ele>
        <time>2011-04-17T08:07:05.000Z</time>
      </trkpt>
      <trkpt lat="44.2053" lon="5.26179">
        <ele>557.59997558594</ele>
        <time>2011-04-17T08:07:14.000Z</time>
      </trkpt>
      <trkpt lat="44.20529" lon="5.26176">
        <ele>557.79998779297</ele>
        <time>2011-04-17T08:07:25.000Z</time>
      </trkpt>
      <trkpt lat="44.20528" lon="5.26171">
        <ele>557.79998779297</ele>
        <time>2011-04-17T08:07:42.000Z</time>
      </trkpt>
      <trkpt lat="44.20521" lon="5.26163">
        <ele>560</ele>
        <time>2011-04-17T08:08:04.000Z</time>
      </trkpt>
      <trkpt lat="44.20521" lon="5.26156">
        <ele>560.59997558594</ele>
        <time>2011-04-17T08:08:10.000Z</time>
      </trkpt>
      <trkpt lat="44.20523" lon="5.26151">
        <ele>560</ele>
        <time>2011-04-17T08:08:20.000Z</time>
      </trkpt>
      <trkpt lat="44.20524" lon="5.26144">
        <ele>559.79998779297</ele>
        <time>2011-04-17T08:08:27.000Z</time>
      </trkpt>
      <trkpt lat="44.20529" lon="5.26137">
        <ele>557.79998779297</ele>
        <time>2011-04-17T08:08:36.000Z</time>
      </trkpt>
      <trkpt lat="44.20532" lon="5.26132">
        <ele>556.59997558594</ele>
        <time>2011-04-17T08:08:44.000Z</time>
      </trkpt>
      <trkpt lat="44.20533" lon="5.26129">
        <ele>556.40002441406</ele>
        <time>2011-04-17T08:08:51.000Z</time>
      </trkpt>
      <trkpt lat="44.20536" lon="5.26122">
        <ele>554.79998779297</ele>
        <time>2011-04-17T08:08:57.000Z</time>
      </trkpt>
      <trkpt lat="44.20537" lon="5.26119">
        <ele>554.40002441406</ele>
        <time>2011-04-17T08:08:59.000Z</time>
      </trkpt>
      <trkpt lat="44.20542" lon="5.26108">
        <ele>552.40002441406</ele>
        <time>2011-04-17T08:09:06.000Z</time>
      </trkpt>
      <trkpt lat="44.20542" lon="5.26105">
        <ele>551.79998779297</ele>
        <time>2011-04-17T08:09:08.000Z</time>
      </trkpt>
      <trkpt lat="44.20543" lon="5.26103">
        <ele>551.40002441406</ele>
        <time>2011-04-17T08:09:10.000Z</time>
      </trkpt>
      <trkpt lat="44.20545" lon="5.26101">
        <ele>550.59997558594</ele>
        <time>2011-04-17T08:09:18.000Z</time>
      </trkpt>
      <trkpt lat="44.20548" lon="5.26091">
        <ele>548.79998779297</ele>
        <time>2011-04-17T08:09:26.000Z</time>
      </trkpt>
      <trkpt lat="44.20551" lon="5.26078">
        <ele>546.40002441406</ele>
        <time>2011-04-17T08:09:34.000Z</time>
      </trkpt>
      <trkpt lat="44.2055" lon="5.26072">
        <ele>546.20001220703</ele>
        <time>2011-04-17T08:09:38.000Z</time>
      </trkpt>
      <trkpt lat="44.20549" lon="5.26067">
        <ele>546.20001220703</ele>
        <time>2011-04-17T08:09:42.000Z</time>
      </trkpt>
      <trkpt lat="44.20548" lon="5.26062">
        <ele>546</ele>
        <time>2011-04-17T08:09:47.000Z</time>
      </trkpt>
      <trkpt lat="44.20548" lon="5.26059">
        <ele>545.40002441406</ele>
        <time>2011-04-17T08:09:53.000Z</time>
      </trkpt>
      <trkpt lat="44.20546" lon="5.2605">
        <ele>545.79998779297</ele>
        <time>2011-04-17T08:10:00.000Z</time>
      </trkpt>
      <trkpt lat="44.20544" lon="5.26043">
        <ele>546</ele>
        <time>2011-04-17T08:10:07.000Z</time>
      </trkpt>
      <trkpt lat="44.20542" lon="5.26039">
        <ele>546.59997558594</ele>
        <time>2011-04-17T08:10:11.000Z</time>
      </trkpt>
      <trkpt lat="44.20538" lon="5.26031">
        <ele>547.59997558594</ele>
        <time>2011-04-17T08:10:18.000Z</time>
      </trkpt>
      <trkpt lat="44.20535" lon="5.26026">
        <ele>548.59997558594</ele>
        <time>2011-04-17T08:10:22.000Z</time>
      </trkpt>
      <trkpt lat="44.20533" lon="5.26024">
        <ele>549.40002441406</ele>
        <time>2011-04-17T08:10:29.000Z</time>
      </trkpt>
      <trkpt lat="44.20531" lon="5.26021">
        <ele>549.79998779297</ele>
        <time>2011-04-17T08:10:35.000Z</time>
      </trkpt>
      <trkpt lat="44.20527" lon="5.26016">
        <ele>551.20001220703</ele>
        <time>2011-04-17T08:10:41.000Z</time>
      </trkpt>
      <trkpt lat="44.20526" lon="5.26013">
        <ele>551.40002441406</ele>
        <time>2011-04-17T08:10:45.000Z</time>
      </trkpt>
      <trkpt lat="44.20524" lon="5.26012">
        <ele>552.20001220703</ele>
        <time>2011-04-17T08:10:52.000Z</time>
      </trkpt>
      <trkpt lat="44.20523" lon="5.26011">
        <ele>552.79998779297</ele>
        <time>2011-04-17T08:11:00.000Z</time>
      </trkpt>
      <trkpt lat="44.20522" lon="5.2601">
        <ele>553.40002441406</ele>
        <time>2011-04-17T08:11:08.000Z</time>
      </trkpt>
      <trkpt lat="44.2052" lon="5.26008">
        <ele>554</ele>
        <time>2011-04-17T08:11:15.000Z</time>
      </trkpt>
      <trkpt lat="44.20519" lon="5.26008">
        <ele>554.40002441406</ele>
        <time>2011-04-17T08:11:25.000Z</time>
      </trkpt>
      <trkpt lat="44.20518" lon="5.26008">
        <ele>554.59997558594</ele>
        <time>2011-04-17T08:12:05.000Z</time>
      </trkpt>
      <trkpt lat="44.20517" lon="5.2601">
        <ele>555.79998779297</ele>
        <time>2011-04-17T08:12:21.000Z</time>
      </trkpt>
      <trkpt lat="44.20517" lon="5.2601">
        <ele>555.59997558594</ele>
        <time>2011-04-17T08:12:33.000Z</time>
      </trkpt>
      <trkpt lat="44.2052" lon="5.2601">
        <ele>554.20001220703</ele>
        <time>2011-04-17T08:12:48.000Z</time>
      </trkpt>
      <trkpt lat="44.2052" lon="5.26009">
        <ele>553.79998779297</ele>
        <time>2011-04-17T08:13:00.000Z</time>
      </trkpt>
      <trkpt lat="44.20519" lon="5.26009">
        <ele>554.40002441406</ele>
        <time>2011-04-17T08:13:14.000Z</time>
      </trkpt>
      <trkpt lat="44.20519" lon="5.26009">
        <ele>554.59997558594</ele>
        <time>2011-04-17T08:13:23.000Z</time>
      </trkpt>
      <trkpt lat="44.20517" lon="5.26007">
        <ele>555</ele>
        <time>2011-04-17T08:13:31.000Z</time>
      </trkpt>
      <trkpt lat="44.20516" lon="5.26003">
        <ele>555.20001220703</ele>
        <time>2011-04-17T08:13:37.000Z</time>
      </trkpt>
      <trkpt lat="44.20514" lon="5.26001">
        <ele>556</ele>
        <time>2011-04-17T08:13:39.000Z</time>
      </trkpt>
      <trkpt lat="44.20502" lon="5.25988">
        <ele>560.40002441406</ele>
        <time>2011-04-17T08:13:48.000Z</time>
      </trkpt>
      <trkpt lat="44.20489" lon="5.25982">
        <ele>563.79998779297</ele>
        <time>2011-04-17T08:13:56.000Z</time>
      </trkpt>
      <trkpt lat="44.20479" lon="5.25974">
        <ele>566</ele>
        <time>2011-04-17T08:14:04.000Z</time>
      </trkpt>
      <trkpt lat="44.20469" lon="5.25964">
        <ele>567.59997558594</ele>
        <time>2011-04-17T08:14:13.000Z</time>
      </trkpt>
      <trkpt lat="44.20459" lon="5.25958">
        <ele>569.79998779297</ele>
        <time>2011-04-17T08:14:21.000Z</time>
      </trkpt>
      <trkpt lat="44.2045" lon="5.25956">
        <ele>572.40002441406</ele>
        <time>2011-04-17T08:14:28.000Z</time>
      </trkpt>
      <trkpt lat="44.20443" lon="5.25955">
        <ele>574.20001220703</ele>
        <time>2011-04-17T08:14:34.000Z</time>
      </trkpt>
      <trkpt lat="44.20439" lon="5.25956">
        <ele>575.59997558594</ele>
        <time>2011-04-17T08:14:38.000Z</time>
      </trkpt>
      <trkpt lat="44.20431" lon="5.25957">
        <ele>578.40002441406</ele>
        <time>2011-04-17T08:14:46.000Z</time>
      </trkpt>
      <trkpt lat="44.20426" lon="5.25958">
        <ele>580.20001220703</ele>
        <time>2011-04-17T08:14:51.000Z</time>
      </trkpt>
      <trkpt lat="44.20415" lon="5.25954">
        <ele>583.20001220703</ele>
        <time>2011-04-17T08:15:00.000Z</time>
      </trkpt>
      <trkpt lat="44.20405" lon="5.25948">
        <ele>587</ele>
        <time>2011-04-17T08:15:08.000Z</time>
      </trkpt>
      <trkpt lat="44.20399" lon="5.25938">
        <ele>588.59997558594</ele>
        <time>2011-04-17T08:15:15.000Z</time>
      </trkpt>
      <trkpt lat="44.20392" lon="5.2593">
        <ele>591.40002441406</ele>
        <time>2011-04-17T08:15:23.000Z</time>
      </trkpt>
      <trkpt lat="44.2039" lon="5.25929">
        <ele>592</ele>
        <time>2011-04-17T08:15:25.000Z</time>
      </trkpt>
      <trkpt lat="44.20387" lon="5.25924">
        <ele>593</ele>
        <time>2011-04-17T08:15:32.000Z</time>
      </trkpt>
      <trkpt lat="44.20381" lon="5.2592">
        <ele>595.40002441406</ele>
        <time>2011-04-17T08:15:42.000Z</time>
      </trkpt>
      <trkpt lat="44.20376" lon="5.25921">
        <ele>597.79998779297</ele>
        <time>2011-04-17T08:15:48.000Z</time>
      </trkpt>
      <trkpt lat="44.20373" lon="5.25922">
        <ele>599.79998779297</ele>
        <time>2011-04-17T08:15:54.000Z</time>
      </trkpt>
      <trkpt lat="44.20371" lon="5.25919">
        <ele>600.20001220703</ele>
        <time>2011-04-17T08:16:00.000Z</time>
      </trkpt>
      <trkpt lat="44.20371" lon="5.25917">
        <ele>599.79998779297</ele>
        <time>2011-04-17T08:16:06.000Z</time>
      </trkpt>
      <trkpt lat="44.20375" lon="5.25911">
        <ele>598.20001220703</ele>
        <time>2011-04-17T08:16:14.000Z</time>
      </trkpt>
      <trkpt lat="44.20379" lon="5.25904">
        <ele>596.59997558594</ele>
        <time>2011-04-17T08:16:22.000Z</time>
      </trkpt>
      <trkpt lat="44.2038" lon="5.25901">
        <ele>596.20001220703</ele>
        <time>2011-04-17T08:16:30.000Z</time>
      </trkpt>
      <trkpt lat="44.2038" lon="5.259">
        <ele>596</ele>
        <time>2011-04-17T08:16:38.000Z</time>
      </trkpt>
      <trkpt lat="44.20381" lon="5.25898">
        <ele>595.59997558594</ele>
        <time>2011-04-17T08:16:40.000Z</time>
      </trkpt>
      <trkpt lat="44.20387" lon="5.25895">
        <ele>592.79998779297</ele>
        <time>2011-04-17T08:16:45.000Z</time>
      </trkpt>
      <trkpt lat="44.20396" lon="5.25892">
        <ele>588.40002441406</ele>
        <time>2011-04-17T08:16:52.000Z</time>
      </trkpt>
      <trkpt lat="44.20406" lon="5.25884">
        <ele>584.20001220703</ele>
        <time>2011-04-17T08:16:59.000Z</time>
      </trkpt>
      <trkpt lat="44.20417" lon="5.25873">
        <ele>579.59997558594</ele>
        <time>2011-04-17T08:17:08.000Z</time>
      </trkpt>
      <trkpt lat="44.2042" lon="5.25864">
        <ele>578.79998779297</ele>
        <time>2011-04-17T08:17:15.000Z</time>
      </trkpt>
      <trkpt lat="44.2042" lon="5.25862">
        <ele>579</ele>
        <time>2011-04-17T08:17:22.000Z</time>
      </trkpt>
      <trkpt lat="44.20419" lon="5.25856">
        <ele>579.59997558594</ele>
        <time>2011-04-17T08:17:32.000Z</time>
      </trkpt>
      <trkpt lat="44.20415" lon="5.25851">
        <ele>581.59997558594</ele>
        <time>2011-04-17T08:17:39.000Z</time>
      </trkpt>
      <trkpt lat="44.20411" lon="5.25845">
        <ele>583.59997558594</ele>
        <time>2011-04-17T08:17:44.000Z</time>
      </trkpt>
      <trkpt lat="44.20411" lon="5.25844">
        <ele>584</ele>
        <time>2011-04-17T08:17:45.000Z</time>
      </trkpt>
      <trkpt lat="44.20403" lon="5.25834">
        <ele>588.20001220703</ele>
        <time>2011-04-17T08:17:54.000Z</time>
      </trkpt>
      <trkpt lat="44.20397" lon="5.25825">
        <ele>590.79998779297</ele>
        <time>2011-04-17T08:18:02.000Z</time>
      </trkpt>
      <trkpt lat="44.20391" lon="5.25816">
        <ele>593.20001220703</ele>
        <time>2011-04-17T08:18:10.000Z</time>
      </trkpt>
      <trkpt lat="44.20385" lon="5.25808">
        <ele>595.79998779297</ele>
        <time>2011-04-17T08:18:17.000Z</time>
      </trkpt>
      <trkpt lat="44.20377" lon="5.25799">
        <ele>598.79998779297</ele>
        <time>2011-04-17T08:18:25.000Z</time>
      </trkpt>
      <trkpt lat="44.20373" lon="5.25787">
        <ele>599.79998779297</ele>
        <time>2011-04-17T08:18:32.000Z</time>
      </trkpt>
      <trkpt lat="44.20371" lon="5.25775">
        <ele>599.79998779297</ele>
        <time>2011-04-17T08:18:39.000Z</time>
      </trkpt>
      <trkpt lat="44.2037" lon="5.25763">
        <ele>599.59997558594</ele>
        <time>2011-04-17T08:18:46.000Z</time>
      </trkpt>
      <trkpt lat="44.20366" lon="5.25752">
        <ele>600.20001220703</ele>
        <time>2011-04-17T08:18:54.000Z</time>
      </trkpt>
      <trkpt lat="44.20365" lon="5.25749">
        <ele>600.40002441406</ele>
        <time>2011-04-17T08:18:56.000Z</time>
      </trkpt>
      <trkpt lat="44.20364" lon="5.25734">
        <ele>601.79998779297</ele>
        <time>2011-04-17T08:19:05.000Z</time>
      </trkpt>
      <trkpt lat="44.2036" lon="5.25719">
        <ele>603.59997558594</ele>
        <time>2011-04-17T08:19:13.000Z</time>
      </trkpt>
      <trkpt lat="44.20358" lon="5.25707">
        <ele>605</ele>
        <time>2011-04-17T08:19:20.000Z</time>
      </trkpt>
      <trkpt lat="44.20354" lon="5.25698">
        <ele>606.40002441406</ele>
        <time>2011-04-17T08:19:26.000Z</time>
      </trkpt>
      <trkpt lat="44.20353" lon="5.25686">
        <ele>607</ele>
        <time>2011-04-17T08:19:33.000Z</time>
      </trkpt>
      <trkpt lat="44.20353" lon="5.2567">
        <ele>607.59997558594</ele>
        <time>2011-04-17T08:19:42.000Z</time>
      </trkpt>
      <trkpt lat="44.20357" lon="5.25653">
        <ele>606.79998779297</ele>
        <time>2011-04-17T08:19:52.000Z</time>
      </trkpt>
      <trkpt lat="44.20359" lon="5.25641">
        <ele>606.20001220703</ele>
        <time>2011-04-17T08:19:59.000Z</time>
      </trkpt>
      <trkpt lat="44.20359" lon="5.25627">
        <ele>606</ele>
        <time>2011-04-17T08:20:07.000Z</time>
      </trkpt>
      <trkpt lat="44.20359" lon="5.25614">
        <ele>606</ele>
        <time>2011-04-17T08:20:14.000Z</time>
      </trkpt>
      <trkpt lat="44.20354" lon="5.256">
        <ele>607.20001220703</ele>
        <time>2011-04-17T08:20:22.000Z</time>
      </trkpt>
      <trkpt lat="44.20345" lon="5.25591">
        <ele>609.59997558594</ele>
        <time>2011-04-17T08:20:30.000Z</time>
      </trkpt>
      <trkpt lat="44.20336" lon="5.25586">
        <ele>612</ele>
        <time>2011-04-17T08:20:37.000Z</time>
      </trkpt>
      <trkpt lat="44.20333" lon="5.25585">
        <ele>613.20001220703</ele>
        <time>2011-04-17T08:20:40.000Z</time>
      </trkpt>
      <trkpt lat="44.20326" lon="5.25581">
        <ele>616.79998779297</ele>
        <time>2011-04-17T08:20:47.000Z</time>
      </trkpt>
      <trkpt lat="44.20325" lon="5.2558">
        <ele>617</ele>
        <time>2011-04-17T08:20:51.000Z</time>
      </trkpt>
      <trkpt lat="44.20325" lon="5.25583">
        <ele>617</ele>
        <time>2011-04-17T08:21:08.000Z</time>
      </trkpt>
      <trkpt lat="44.20325" lon="5.25584">
        <ele>617</ele>
        <time>2011-04-17T08:21:24.000Z</time>
      </trkpt>
      <trkpt lat="44.20324" lon="5.25583">
        <ele>617.40002441406</ele>
        <time>2011-04-17T08:21:36.000Z</time>
      </trkpt>
      <trkpt lat="44.20324" lon="5.25584">
        <ele>617.40002441406</ele>
        <time>2011-04-17T08:21:42.000Z</time>
      </trkpt>
      <trkpt lat="44.20325" lon="5.25588">
        <ele>617</ele>
        <time>2011-04-17T08:21:49.000Z</time>
      </trkpt>
      <trkpt lat="44.20325" lon="5.25601">
        <ele>616.59997558594</ele>
        <time>2011-04-17T08:21:57.000Z</time>
      </trkpt>
      <trkpt lat="44.20326" lon="5.25606">
        <ele>616.40002441406</ele>
        <time>2011-04-17T08:22:00.000Z</time>
      </trkpt>
      <trkpt lat="44.20324" lon="5.25622">
        <ele>616.79998779297</ele>
        <time>2011-04-17T08:22:10.000Z</time>
      </trkpt>
      <trkpt lat="44.20321" lon="5.25633">
        <ele>617.40002441406</ele>
        <time>2011-04-17T08:22:17.000Z</time>
      </trkpt>
      <trkpt lat="44.20317" lon="5.25646">
        <ele>618.79998779297</ele>
        <time>2011-04-17T08:22:25.000Z</time>
      </trkpt>
      <trkpt lat="44.20311" lon="5.25658">
        <ele>621</ele>
        <time>2011-04-17T08:22:33.000Z</time>
      </trkpt>
      <trkpt lat="44.20304" lon="5.25667">
        <ele>623.20001220703</ele>
        <time>2011-04-17T08:22:40.000Z</time>
      </trkpt>
      <trkpt lat="44.20296" lon="5.25679">
        <ele>626.59997558594</ele>
        <time>2011-04-17T08:22:48.000Z</time>
      </trkpt>
      <trkpt lat="44.20291" lon="5.2569">
        <ele>628.79998779297</ele>
        <time>2011-04-17T08:22:55.000Z</time>
      </trkpt>
      <trkpt lat="44.20287" lon="5.25695">
        <ele>630.79998779297</ele>
        <time>2011-04-17T08:22:59.000Z</time>
      </trkpt>
      <trkpt lat="44.20282" lon="5.25691">
        <ele>632.59997558594</ele>
        <time>2011-04-17T08:23:04.000Z</time>
      </trkpt>
      <trkpt lat="44.20284" lon="5.25677">
        <ele>631.40002441406</ele>
        <time>2011-04-17T08:23:12.000Z</time>
      </trkpt>
      <trkpt lat="44.2029" lon="5.25667">
        <ele>628.79998779297</ele>
        <time>2011-04-17T08:23:20.000Z</time>
      </trkpt>
      <trkpt lat="44.20292" lon="5.25653">
        <ele>628.79998779297</ele>
        <time>2011-04-17T08:23:28.000Z</time>
      </trkpt>
      <trkpt lat="44.2029" lon="5.25641">
        <ele>630.59997558594</ele>
        <time>2011-04-17T08:23:35.000Z</time>
      </trkpt>
      <trkpt lat="44.20284" lon="5.25629">
        <ele>633.79998779297</ele>
        <time>2011-04-17T08:23:43.000Z</time>
      </trkpt>
      <trkpt lat="44.20282" lon="5.25613">
        <ele>636.20001220703</ele>
        <time>2011-04-17T08:23:51.000Z</time>
      </trkpt>
      <trkpt lat="44.20281" lon="5.25599">
        <ele>637.79998779297</ele>
        <time>2011-04-17T08:23:58.000Z</time>
      </trkpt>
      <trkpt lat="44.2028" lon="5.25582">
        <ele>639.79998779297</ele>
        <time>2011-04-17T08:24:08.000Z</time>
      </trkpt>
      <trkpt lat="44.20277" lon="5.25569">
        <ele>641.79998779297</ele>
        <time>2011-04-17T08:24:16.000Z</time>
      </trkpt>
      <trkpt lat="44.20273" lon="5.2556">
        <ele>643.79998779297</ele>
        <time>2011-04-17T08:24:23.000Z</time>
      </trkpt>
      <trkpt lat="44.20267" lon="5.25547">
        <ele>647</ele>
        <time>2011-04-17T08:24:32.000Z</time>
      </trkpt>
      <trkpt lat="44.20264" lon="5.25534">
        <ele>649.20001220703</ele>
        <time>2011-04-17T08:24:40.000Z</time>
      </trkpt>
      <trkpt lat="44.20261" lon="5.25519">
        <ele>650.79998779297</ele>
        <time>2011-04-17T08:24:48.000Z</time>
      </trkpt>
      <trkpt lat="44.20259" lon="5.25502">
        <ele>652.20001220703</ele>
        <time>2011-04-17T08:24:57.000Z</time>
      </trkpt>
      <trkpt lat="44.20258" lon="5.25484">
        <ele>653.40002441406</ele>
        <time>2011-04-17T08:25:06.000Z</time>
      </trkpt>
      <trkpt lat="44.20259" lon="5.25467">
        <ele>653.79998779297</ele>
        <time>2011-04-17T08:25:15.000Z</time>
      </trkpt>
      <trkpt lat="44.2026" lon="5.25453">
        <ele>654</ele>
        <time>2011-04-17T08:25:23.000Z</time>
      </trkpt>
      <trkpt lat="44.20261" lon="5.25441">
        <ele>654.20001220703</ele>
        <time>2011-04-17T08:25:30.000Z</time>
      </trkpt>
      <trkpt lat="44.20261" lon="5.25428">
        <ele>654.59997558594</ele>
        <time>2011-04-17T08:25:37.000Z</time>
      </trkpt>
      <trkpt lat="44.20261" lon="5.25409">
        <ele>654.59997558594</ele>
        <time>2011-04-17T08:25:46.000Z</time>
      </trkpt>
      <trkpt lat="44.20258" lon="5.25389">
        <ele>653.79998779297</ele>
        <time>2011-04-17T08:25:56.000Z</time>
      </trkpt>
      <trkpt lat="44.20254" lon="5.25376">
        <ele>653.79998779297</ele>
        <time>2011-04-17T08:26:04.000Z</time>
      </trkpt>
      <trkpt lat="44.20248" lon="5.25364">
        <ele>655.20001220703</ele>
        <time>2011-04-17T08:26:12.000Z</time>
      </trkpt>
      <trkpt lat="44.20242" lon="5.25351">
        <ele>657.40002441406</ele>
        <time>2011-04-17T08:26:20.000Z</time>
      </trkpt>
      <trkpt lat="44.20235" lon="5.25336">
        <ele>659.40002441406</ele>
        <time>2011-04-17T08:26:29.000Z</time>
      </trkpt>
      <trkpt lat="44.20228" lon="5.25321">
        <ele>664</ele>
        <time>2011-04-17T08:26:38.000Z</time>
      </trkpt>
      <trkpt lat="44.20222" lon="5.25306">
        <ele>668</ele>
        <time>2011-04-17T08:26:47.000Z</time>
      </trkpt>
      <trkpt lat="44.20217" lon="5.25293">
        <ele>671.20001220703</ele>
        <time>2011-04-17T08:26:55.000Z</time>
      </trkpt>
      <trkpt lat="44.20213" lon="5.25281">
        <ele>673.20001220703</ele>
        <time>2011-04-17T08:27:03.000Z</time>
      </trkpt>
      <trkpt lat="44.20213" lon="5.25277">
        <ele>673.79998779297</ele>
        <time>2011-04-17T08:27:06.000Z</time>
      </trkpt>
      <trkpt lat="44.20213" lon="5.25265">
        <ele>674.20001220703</ele>
        <time>2011-04-17T08:27:13.000Z</time>
      </trkpt>
      <trkpt lat="44.20217" lon="5.25254">
        <ele>673</ele>
        <time>2011-04-17T08:27:21.000Z</time>
      </trkpt>
      <trkpt lat="44.20218" lon="5.25253">
        <ele>673</ele>
        <time>2011-04-17T08:27:22.000Z</time>
      </trkpt>
      <trkpt lat="44.2022" lon="5.25252">
        <ele>672.20001220703</ele>
        <time>2011-04-17T08:27:29.000Z</time>
      </trkpt>
      <trkpt lat="44.20222" lon="5.25248">
        <ele>671.79998779297</ele>
        <time>2011-04-17T08:27:36.000Z</time>
      </trkpt>
      <trkpt lat="44.20227" lon="5.25243">
        <ele>671.79998779297</ele>
        <time>2011-04-17T08:27:42.000Z</time>
      </trkpt>
      <trkpt lat="44.2023" lon="5.25239">
        <ele>671.59997558594</ele>
        <time>2011-04-17T08:27:46.000Z</time>
      </trkpt>
      <trkpt lat="44.20239" lon="5.25227">
        <ele>671.20001220703</ele>
        <time>2011-04-17T08:27:56.000Z</time>
      </trkpt>
      <trkpt lat="44.20245" lon="5.25221">
        <ele>670.20001220703</ele>
        <time>2011-04-17T08:28:03.000Z</time>
      </trkpt>
      <trkpt lat="44.20254" lon="5.25219">
        <ele>668</ele>
        <time>2011-04-17T08:28:10.000Z</time>
      </trkpt>
      <trkpt lat="44.20263" lon="5.25212">
        <ele>666.59997558594</ele>
        <time>2011-04-17T08:28:17.000Z</time>
      </trkpt>
      <trkpt lat="44.20269" lon="5.25203">
        <ele>667</ele>
        <time>2011-04-17T08:28:24.000Z</time>
      </trkpt>
      <trkpt lat="44.20272" lon="5.2519">
        <ele>668.20001220703</ele>
        <time>2011-04-17T08:28:32.000Z</time>
      </trkpt>
      <trkpt lat="44.20273" lon="5.25176">
        <ele>670.79998779297</ele>
        <time>2011-04-17T08:28:40.000Z</time>
      </trkpt>
      <trkpt lat="44.20273" lon="5.25174">
        <ele>671.20001220703</ele>
        <time>2011-04-17T08:28:41.000Z</time>
      </trkpt>
      <trkpt lat="44.20272" lon="5.25161">
        <ele>673.40002441406</ele>
        <time>2011-04-17T08:28:49.000Z</time>
      </trkpt>
      <trkpt lat="44.2027" lon="5.25151">
        <ele>674.59997558594</ele>
        <time>2011-04-17T08:28:56.000Z</time>
      </trkpt>
      <trkpt lat="44.20267" lon="5.25137">
        <ele>676.40002441406</ele>
        <time>2011-04-17T08:29:05.000Z</time>
      </trkpt>
      <trkpt lat="44.20265" lon="5.25122">
        <ele>678</ele>
        <time>2011-04-17T08:29:14.000Z</time>
      </trkpt>
      <trkpt lat="44.20263" lon="5.25115">
        <ele>678.79998779297</ele>
        <time>2011-04-17T08:29:19.000Z</time>
      </trkpt>
      <trkpt lat="44.20264" lon="5.25101">
        <ele>679.20001220703</ele>
        <time>2011-04-17T08:29:27.000Z</time>
      </trkpt>
      <trkpt lat="44.20264" lon="5.25098">
        <ele>679.40002441406</ele>
        <time>2011-04-17T08:29:29.000Z</time>
      </trkpt>
      <trkpt lat="44.20262" lon="5.25086">
        <ele>680.79998779297</ele>
        <time>2011-04-17T08:29:37.000Z</time>
      </trkpt>
      <trkpt lat="44.20259" lon="5.25081">
        <ele>681.59997558594</ele>
        <time>2011-04-17T08:29:41.000Z</time>
      </trkpt>
      <trkpt lat="44.20253" lon="5.2507">
        <ele>682.40002441406</ele>
        <time>2011-04-17T08:29:49.000Z</time>
      </trkpt>
      <trkpt lat="44.20245" lon="5.25065">
        <ele>685.20001220703</ele>
        <time>2011-04-17T08:29:56.000Z</time>
      </trkpt>
      <trkpt lat="44.20237" lon="5.25059">
        <ele>689.20001220703</ele>
        <time>2011-04-17T08:30:04.000Z</time>
      </trkpt>
      <trkpt lat="44.20228" lon="5.2505">
        <ele>693</ele>
        <time>2011-04-17T08:30:13.000Z</time>
      </trkpt>
      <trkpt lat="44.20221" lon="5.2504">
        <ele>695.40002441406</ele>
        <time>2011-04-17T08:30:21.000Z</time>
      </trkpt>
      <trkpt lat="44.20217" lon="5.25031">
        <ele>696.79998779297</ele>
        <time>2011-04-17T08:30:27.000Z</time>
      </trkpt>
      <trkpt lat="44.20213" lon="5.25023">
        <ele>698</ele>
        <time>2011-04-17T08:30:33.000Z</time>
      </trkpt>
      <trkpt lat="44.20208" lon="5.25012">
        <ele>699</ele>
        <time>2011-04-17T08:30:40.000Z</time>
      </trkpt>
      <trkpt lat="44.20203" lon="5.24997">
        <ele>700.40002441406</ele>
        <time>2011-04-17T08:30:49.000Z</time>
      </trkpt>
      <trkpt lat="44.20199" lon="5.24986">
        <ele>702.20001220703</ele>
        <time>2011-04-17T08:30:56.000Z</time>
      </trkpt>
      <trkpt lat="44.20195" lon="5.24975">
        <ele>703.79998779297</ele>
        <time>2011-04-17T08:31:03.000Z</time>
      </trkpt>
      <trkpt lat="44.20191" lon="5.24963">
        <ele>705.40002441406</ele>
        <time>2011-04-17T08:31:10.000Z</time>
      </trkpt>
      <trkpt lat="44.20188" lon="5.24953">
        <ele>706.59997558594</ele>
        <time>2011-04-17T08:31:17.000Z</time>
      </trkpt>
      <trkpt lat="44.20188" lon="5.2494">
        <ele>706.40002441406</ele>
        <time>2011-04-17T08:31:25.000Z</time>
      </trkpt>
      <trkpt lat="44.20185" lon="5.24927">
        <ele>707</ele>
        <time>2011-04-17T08:31:34.000Z</time>
      </trkpt>
      <trkpt lat="44.20185" lon="5.24922">
        <ele>707.20001220703</ele>
        <time>2011-04-17T08:31:37.000Z</time>
      </trkpt>
      <trkpt lat="44.20188" lon="5.24906">
        <ele>707.40002441406</ele>
        <time>2011-04-17T08:31:47.000Z</time>
      </trkpt>
      <trkpt lat="44.20189" lon="5.24891">
        <ele>709</ele>
        <time>2011-04-17T08:31:56.000Z</time>
      </trkpt>
      <trkpt lat="44.20187" lon="5.24879">
        <ele>711.20001220703</ele>
        <time>2011-04-17T08:32:04.000Z</time>
      </trkpt>
      <trkpt lat="44.2019" lon="5.24868">
        <ele>712</ele>
        <time>2011-04-17T08:32:11.000Z</time>
      </trkpt>
      <trkpt lat="44.20195" lon="5.24857">
        <ele>712.59997558594</ele>
        <time>2011-04-17T08:32:19.000Z</time>
      </trkpt>
      <trkpt lat="44.20198" lon="5.24845">
        <ele>714</ele>
        <time>2011-04-17T08:32:27.000Z</time>
      </trkpt>
      <trkpt lat="44.20196" lon="5.24841">
        <ele>714.79998779297</ele>
        <time>2011-04-17T08:32:30.000Z</time>
      </trkpt>
      <trkpt lat="44.2019" lon="5.2484">
        <ele>715.79998779297</ele>
        <time>2011-04-17T08:32:37.000Z</time>
      </trkpt>
      <trkpt lat="44.20189" lon="5.24841">
        <ele>715.79998779297</ele>
        <time>2011-04-17T08:32:38.000Z</time>
      </trkpt>
      <trkpt lat="44.20184" lon="5.24849">
        <ele>715.79998779297</ele>
        <time>2011-04-17T08:32:46.000Z</time>
      </trkpt>
      <trkpt lat="44.20178" lon="5.24858">
        <ele>715.59997558594</ele>
        <time>2011-04-17T08:32:54.000Z</time>
      </trkpt>
      <trkpt lat="44.20173" lon="5.24865">
        <ele>716</ele>
        <time>2011-04-17T08:33:03.000Z</time>
      </trkpt>
      <trkpt lat="44.20172" lon="5.24865">
        <ele>716</ele>
        <time>2011-04-17T08:33:15.000Z</time>
      </trkpt>
      <trkpt lat="44.20173" lon="5.24863">
        <ele>716.20001220703</ele>
        <time>2011-04-17T08:34:01.000Z</time>
      </trkpt>
      <trkpt lat="44.20172" lon="5.24865">
        <ele>716.20001220703</ele>
        <time>2011-04-17T08:34:17.000Z</time>
      </trkpt>
      <trkpt lat="44.20172" lon="5.24866">
        <ele>716.20001220703</ele>
        <time>2011-04-17T08:34:31.000Z</time>
      </trkpt>
      <trkpt lat="44.2017" lon="5.24868">
        <ele>716.40002441406</ele>
        <time>2011-04-17T08:34:38.000Z</time>
      </trkpt>
      <trkpt lat="44.20168" lon="5.24867">
        <ele>716.79998779297</ele>
        <time>2011-04-17T08:35:38.000Z</time>
      </trkpt>
      <trkpt lat="44.20167" lon="5.24867">
        <ele>717</ele>
        <time>2011-04-17T08:35:52.000Z</time>
      </trkpt>
      <trkpt lat="44.20168" lon="5.24866">
        <ele>716.79998779297</ele>
        <time>2011-04-17T08:36:11.000Z</time>
      </trkpt>
      <trkpt lat="44.2017" lon="5.24866">
        <ele>716.40002441406</ele>
        <time>2011-04-17T08:36:29.000Z</time>
      </trkpt>
      <trkpt lat="44.20171" lon="5.24868">
        <ele>716.20001220703</ele>
        <time>2011-04-17T08:36:44.000Z</time>
      </trkpt>
      <trkpt lat="44.20169" lon="5.24869">
        <ele>716.40002441406</ele>
        <time>2011-04-17T08:37:21.000Z</time>
      </trkpt>
      <trkpt lat="44.20168" lon="5.24868">
        <ele>716.79998779297</ele>
        <time>2011-04-17T08:37:53.000Z</time>
      </trkpt>
      <trkpt lat="44.20168" lon="5.24866">
        <ele>716.79998779297</ele>
        <time>2011-04-17T08:38:18.000Z</time>
      </trkpt>
      <trkpt lat="44.20168" lon="5.24866">
        <ele>716.79998779297</ele>
        <time>2011-04-17T08:38:26.000Z</time>
      </trkpt>
      <trkpt lat="44.20169" lon="5.24866">
        <ele>716.59997558594</ele>
        <time>2011-04-17T08:38:40.000Z</time>
      </trkpt>
      <trkpt lat="44.20167" lon="5.24866">
        <ele>717</ele>
        <time>2011-04-17T08:39:00.000Z</time>
      </trkpt>
      <trkpt lat="44.20166" lon="5.24865">
        <ele>717.40002441406</ele>
        <time>2011-04-17T08:39:27.000Z</time>
      </trkpt>
      <trkpt lat="44.20165" lon="5.24869">
        <ele>717.40002441406</ele>
        <time>2011-04-17T08:39:48.000Z</time>
      </trkpt>
      <trkpt lat="44.20157" lon="5.24877">
        <ele>719.79998779297</ele>
        <time>2011-04-17T08:39:59.000Z</time>
      </trkpt>
      <trkpt lat="44.20153" lon="5.2488">
        <ele>721.40002441406</ele>
        <time>2011-04-17T08:40:05.000Z</time>
      </trkpt>
      <trkpt lat="44.20148" lon="5.24883">
        <ele>723.20001220703</ele>
        <time>2011-04-17T08:40:11.000Z</time>
      </trkpt>
      <trkpt lat="44.20141" lon="5.24885">
        <ele>725.79998779297</ele>
        <time>2011-04-17T08:40:19.000Z</time>
      </trkpt>
      <trkpt lat="44.20135" lon="5.24886">
        <ele>728</ele>
        <time>2011-04-17T08:40:25.000Z</time>
      </trkpt>
      <trkpt lat="44.20129" lon="5.24891">
        <ele>730.40002441406</ele>
        <time>2011-04-17T08:40:33.000Z</time>
      </trkpt>
      <trkpt lat="44.20126" lon="5.24901">
        <ele>731.59997558594</ele>
        <time>2011-04-17T08:40:41.000Z</time>
      </trkpt>
      <trkpt lat="44.20126" lon="5.24902">
        <ele>731.40002441406</ele>
        <time>2011-04-17T08:40:42.000Z</time>
      </trkpt>
      <trkpt lat="44.20125" lon="5.24908">
        <ele>731.40002441406</ele>
        <time>2011-04-17T08:40:46.000Z</time>
      </trkpt>
      <trkpt lat="44.20127" lon="5.24923">
        <ele>731.20001220703</ele>
        <time>2011-04-17T08:40:57.000Z</time>
      </trkpt>
      <trkpt lat="44.20129" lon="5.24935">
        <ele>732.40002441406</ele>
        <time>2011-04-17T08:41:05.000Z</time>
      </trkpt>
      <trkpt lat="44.2013" lon="5.24946">
        <ele>733.40002441406</ele>
        <time>2011-04-17T08:41:13.000Z</time>
      </trkpt>
      <trkpt lat="44.20132" lon="5.2496">
        <ele>734.40002441406</ele>
        <time>2011-04-17T08:41:22.000Z</time>
      </trkpt>
      <trkpt lat="44.20134" lon="5.24972">
        <ele>734.59997558594</ele>
        <time>2011-04-17T08:41:30.000Z</time>
      </trkpt>
      <trkpt lat="44.20137" lon="5.24987">
        <ele>734.59997558594</ele>
        <time>2011-04-17T08:41:39.000Z</time>
      </trkpt>
      <trkpt lat="44.20142" lon="5.24999">
        <ele>733.40002441406</ele>
        <time>2011-04-17T08:41:46.000Z</time>
      </trkpt>
      <trkpt lat="44.20145" lon="5.25013">
        <ele>732.79998779297</ele>
        <time>2011-04-17T08:41:54.000Z</time>
      </trkpt>
      <trkpt lat="44.20149" lon="5.25027">
        <ele>732</ele>
        <time>2011-04-17T08:42:02.000Z</time>
      </trkpt>
      <trkpt lat="44.2015" lon="5.25043">
        <ele>732.79998779297</ele>
        <time>2011-04-17T08:42:11.000Z</time>
      </trkpt>
      <trkpt lat="44.20152" lon="5.25059">
        <ele>734</ele>
        <time>2011-04-17T08:42:20.000Z</time>
      </trkpt>
      <trkpt lat="44.20153" lon="5.25073">
        <ele>735.20001220703</ele>
        <time>2011-04-17T08:42:29.000Z</time>
      </trkpt>
      <trkpt lat="44.20153" lon="5.25087">
        <ele>735.40002441406</ele>
        <time>2011-04-17T08:42:38.000Z</time>
      </trkpt>
      <trkpt lat="44.20153" lon="5.25096">
        <ele>733.79998779297</ele>
        <time>2011-04-17T08:42:44.000Z</time>
      </trkpt>
      <trkpt lat="44.2015" lon="5.25107">
        <ele>733</ele>
        <time>2011-04-17T08:42:52.000Z</time>
      </trkpt>
      <trkpt lat="44.20145" lon="5.25118">
        <ele>733.79998779297</ele>
        <time>2011-04-17T08:43:01.000Z</time>
      </trkpt>
      <trkpt lat="44.20138" lon="5.25127">
        <ele>735.20001220703</ele>
        <time>2011-04-17T08:43:10.000Z</time>
      </trkpt>
      <trkpt lat="44.20132" lon="5.25132">
        <ele>737</ele>
        <time>2011-04-17T08:43:18.000Z</time>
      </trkpt>
      <trkpt lat="44.20126" lon="5.25136">
        <ele>739</ele>
        <time>2011-04-17T08:43:26.000Z</time>
      </trkpt>
      <trkpt lat="44.20119" lon="5.2514">
        <ele>741.40002441406</ele>
        <time>2011-04-17T08:43:34.000Z</time>
      </trkpt>
      <trkpt lat="44.20114" lon="5.25144">
        <ele>742.79998779297</ele>
        <time>2011-04-17T08:43:41.000Z</time>
      </trkpt>
      <trkpt lat="44.20112" lon="5.25145">
        <ele>743.59997558594</ele>
        <time>2011-04-17T08:43:43.000Z</time>
      </trkpt>
      <trkpt lat="44.20104" lon="5.25146">
        <ele>746.40002441406</ele>
        <time>2011-04-17T08:43:51.000Z</time>
      </trkpt>
      <trkpt lat="44.20097" lon="5.2515">
        <ele>749</ele>
        <time>2011-04-17T08:43:59.000Z</time>
      </trkpt>
      <trkpt lat="44.2009" lon="5.25154">
        <ele>750.40002441406</ele>
        <time>2011-04-17T08:44:06.000Z</time>
      </trkpt>
      <trkpt lat="44.20083" lon="5.25156">
        <ele>752.59997558594</ele>
        <time>2011-04-17T08:44:12.000Z</time>
      </trkpt>
      <trkpt lat="44.20072" lon="5.25162">
        <ele>757.40002441406</ele>
        <time>2011-04-17T08:44:22.000Z</time>
      </trkpt>
      <trkpt lat="44.20062" lon="5.25168">
        <ele>762.20001220703</ele>
        <time>2011-04-17T08:44:32.000Z</time>
      </trkpt>
      <trkpt lat="44.20055" lon="5.25174">
        <ele>766</ele>
        <time>2011-04-17T08:44:40.000Z</time>
      </trkpt>
      <trkpt lat="44.20047" lon="5.25182">
        <ele>770</ele>
        <time>2011-04-17T08:44:47.000Z</time>
      </trkpt>
      <trkpt lat="44.20043" lon="5.25192">
        <ele>771.79998779297</ele>
        <time>2011-04-17T08:44:54.000Z</time>
      </trkpt>
      <trkpt lat="44.20042" lon="5.25211">
        <ele>770.40002441406</ele>
        <time>2011-04-17T08:45:03.000Z</time>
      </trkpt>
      <trkpt lat="44.20042" lon="5.25234">
        <ele>768.40002441406</ele>
        <time>2011-04-17T08:45:12.000Z</time>
      </trkpt>
      <trkpt lat="44.20042" lon="5.25255">
        <ele>767.40002441406</ele>
        <time>2011-04-17T08:45:21.000Z</time>
      </trkpt>
      <trkpt lat="44.20046" lon="5.25273">
        <ele>768</ele>
        <time>2011-04-17T08:45:29.000Z</time>
      </trkpt>
      <trkpt lat="44.2005" lon="5.25294">
        <ele>768</ele>
        <time>2011-04-17T08:45:38.000Z</time>
      </trkpt>
      <trkpt lat="44.20055" lon="5.25313">
        <ele>768</ele>
        <time>2011-04-17T08:45:46.000Z</time>
      </trkpt>
      <trkpt lat="44.2006" lon="5.25324">
        <ele>766.20001220703</ele>
        <time>2011-04-17T08:45:52.000Z</time>
      </trkpt>
      <trkpt lat="44.20067" lon="5.25345">
        <ele>764.59997558594</ele>
        <time>2011-04-17T08:46:02.000Z</time>
      </trkpt>
      <trkpt lat="44.20072" lon="5.25356">
        <ele>763.40002441406</ele>
        <time>2011-04-17T08:46:08.000Z</time>
      </trkpt>
      <trkpt lat="44.20077" lon="5.25375">
        <ele>762.59997558594</ele>
        <time>2011-04-17T08:46:17.000Z</time>
      </trkpt>
      <trkpt lat="44.20079" lon="5.25384">
        <ele>763</ele>
        <time>2011-04-17T08:46:21.000Z</time>
      </trkpt>
      <trkpt lat="44.2008" lon="5.254">
        <ele>765.20001220703</ele>
        <time>2011-04-17T08:46:29.000Z</time>
      </trkpt>
      <trkpt lat="44.20081" lon="5.25415">
        <ele>766.59997558594</ele>
        <time>2011-04-17T08:46:37.000Z</time>
      </trkpt>
      <trkpt lat="44.20083" lon="5.25428">
        <ele>765.59997558594</ele>
        <time>2011-04-17T08:46:44.000Z</time>
      </trkpt>
      <trkpt lat="44.20084" lon="5.25443">
        <ele>764.40002441406</ele>
        <time>2011-04-17T08:46:52.000Z</time>
      </trkpt>
      <trkpt lat="44.20085" lon="5.25455">
        <ele>763.59997558594</ele>
        <time>2011-04-17T08:46:59.000Z</time>
      </trkpt>
      <trkpt lat="44.20082" lon="5.25467">
        <ele>764.59997558594</ele>
        <time>2011-04-17T08:47:06.000Z</time>
      </trkpt>
      <trkpt lat="44.20075" lon="5.25488">
        <ele>766.59997558594</ele>
        <time>2011-04-17T08:47:18.000Z</time>
      </trkpt>
      <trkpt lat="44.20069" lon="5.25498">
        <ele>768.40002441406</ele>
        <time>2011-04-17T08:47:25.000Z</time>
      </trkpt>
      <trkpt lat="44.20059" lon="5.2551">
        <ele>769.59997558594</ele>
        <time>2011-04-17T08:47:36.000Z</time>
      </trkpt>
      <trkpt lat="44.20053" lon="5.25516">
        <ele>770.20001220703</ele>
        <time>2011-04-17T08:47:43.000Z</time>
      </trkpt>
      <trkpt lat="44.20046" lon="5.25521">
        <ele>771.40002441406</ele>
        <time>2011-04-17T08:47:50.000Z</time>
      </trkpt>
      <trkpt lat="44.20039" lon="5.25525">
        <ele>773.20001220703</ele>
        <time>2011-04-17T08:47:57.000Z</time>
      </trkpt>
      <trkpt lat="44.20031" lon="5.25526">
        <ele>775.40002441406</ele>
        <time>2011-04-17T08:48:04.000Z</time>
      </trkpt>
      <trkpt lat="44.20022" lon="5.25528">
        <ele>778.40002441406</ele>
        <time>2011-04-17T08:48:12.000Z</time>
      </trkpt>
      <trkpt lat="44.20018" lon="5.25527">
        <ele>779.79998779297</ele>
        <time>2011-04-17T08:48:15.000Z</time>
      </trkpt>
      <trkpt lat="44.20011" lon="5.25526">
        <ele>782.79998779297</ele>
        <time>2011-04-17T08:48:22.000Z</time>
      </trkpt>
      <trkpt lat="44.20004" lon="5.25524">
        <ele>786</ele>
        <time>2011-04-17T08:48:29.000Z</time>
      </trkpt>
      <trkpt lat="44.19996" lon="5.25523">
        <ele>789</ele>
        <time>2011-04-17T08:48:36.000Z</time>
      </trkpt>
      <trkpt lat="44.19989" lon="5.25521">
        <ele>792.20001220703</ele>
        <time>2011-04-17T08:48:43.000Z</time>
      </trkpt>
      <trkpt lat="44.19989" lon="5.25521">
        <ele>792.40002441406</ele>
        <time>2011-04-17T08:48:50.000Z</time>
      </trkpt>
      <trkpt lat="44.19989" lon="5.25523">
        <ele>792</ele>
        <time>2011-04-17T08:49:04.000Z</time>
      </trkpt>
      <trkpt lat="44.19986" lon="5.25525">
        <ele>792.59997558594</ele>
        <time>2011-04-17T08:49:07.000Z</time>
      </trkpt>
      <trkpt lat="44.19978" lon="5.25531">
        <ele>794.20001220703</ele>
        <time>2011-04-17T08:49:14.000Z</time>
      </trkpt>
      <trkpt lat="44.19967" lon="5.25542">
        <ele>795.79998779297</ele>
        <time>2011-04-17T08:49:23.000Z</time>
      </trkpt>
      <trkpt lat="44.19961" lon="5.25549">
        <ele>797</ele>
        <time>2011-04-17T08:49:30.000Z</time>
      </trkpt>
      <trkpt lat="44.19953" lon="5.25565">
        <ele>797.79998779297</ele>
        <time>2011-04-17T08:49:40.000Z</time>
      </trkpt>
      <trkpt lat="44.19946" lon="5.25581">
        <ele>798.40002441406</ele>
        <time>2011-04-17T08:49:49.000Z</time>
      </trkpt>
      <trkpt lat="44.19945" lon="5.25582">
        <ele>798.79998779297</ele>
        <time>2011-04-17T08:49:50.000Z</time>
      </trkpt>
      <trkpt lat="44.19943" lon="5.25589">
        <ele>799.20001220703</ele>
        <time>2011-04-17T08:49:54.000Z</time>
      </trkpt>
      <trkpt lat="44.19939" lon="5.25613">
        <ele>800.40002441406</ele>
        <time>2011-04-17T08:50:07.000Z</time>
      </trkpt>
      <trkpt lat="44.19935" lon="5.25631">
        <ele>802</ele>
        <time>2011-04-17T08:50:17.000Z</time>
      </trkpt>
      <trkpt lat="44.19931" lon="5.25647">
        <ele>803.79998779297</ele>
        <time>2011-04-17T08:50:27.000Z</time>
      </trkpt>
      <trkpt lat="44.19928" lon="5.2566">
        <ele>805</ele>
        <time>2011-04-17T08:50:36.000Z</time>
      </trkpt>
      <trkpt lat="44.19925" lon="5.25672">
        <ele>808</ele>
        <time>2011-04-17T08:50:45.000Z</time>
      </trkpt>
      <trkpt lat="44.19922" lon="5.25684">
        <ele>812.20001220703</ele>
        <time>2011-04-17T08:50:53.000Z</time>
      </trkpt>
      <trkpt lat="44.19923" lon="5.25694">
        <ele>814</ele>
        <time>2011-04-17T08:50:59.000Z</time>
      </trkpt>
      <trkpt lat="44.19927" lon="5.25703">
        <ele>814.59997558594</ele>
        <time>2011-04-17T08:51:06.000Z</time>
      </trkpt>
      <trkpt lat="44.19932" lon="5.25712">
        <ele>813.79998779297</ele>
        <time>2011-04-17T08:51:13.000Z</time>
      </trkpt>
      <trkpt lat="44.1994" lon="5.25722">
        <ele>811.40002441406</ele>
        <time>2011-04-17T08:51:22.000Z</time>
      </trkpt>
      <trkpt lat="44.19946" lon="5.25734">
        <ele>810</ele>
        <time>2011-04-17T08:51:30.000Z</time>
      </trkpt>
      <trkpt lat="44.19951" lon="5.25747">
        <ele>809.79998779297</ele>
        <time>2011-04-17T08:51:38.000Z</time>
      </trkpt>
      <trkpt lat="44.19954" lon="5.25759">
        <ele>811</ele>
        <time>2011-04-17T08:51:45.000Z</time>
      </trkpt>
      <trkpt lat="44.19958" lon="5.25775">
        <ele>813.20001220703</ele>
        <time>2011-04-17T08:51:54.000Z</time>
      </trkpt>
      <trkpt lat="44.19962" lon="5.25794">
        <ele>815.40002441406</ele>
        <time>2011-04-17T08:52:04.000Z</time>
      </trkpt>
      <trkpt lat="44.19964" lon="5.25804">
        <ele>817</ele>
        <time>2011-04-17T08:52:10.000Z</time>
      </trkpt>
      <trkpt lat="44.19965" lon="5.25807">
        <ele>817.20001220703</ele>
        <time>2011-04-17T08:52:17.000Z</time>
      </trkpt>
      <trkpt lat="44.19965" lon="5.25809">
        <ele>817.59997558594</ele>
        <time>2011-04-17T08:52:25.000Z</time>
      </trkpt>
      <trkpt lat="44.19965" lon="5.25814">
        <ele>818.79998779297</ele>
        <time>2011-04-17T08:52:33.000Z</time>
      </trkpt>
      <trkpt lat="44.19965" lon="5.25816">
        <ele>820</ele>
        <time>2011-04-17T08:52:39.000Z</time>
      </trkpt>
      <trkpt lat="44.19965" lon="5.25816">
        <ele>819.40002441406</ele>
        <time>2011-04-17T08:52:50.000Z</time>
      </trkpt>
      <trkpt lat="44.19964" lon="5.25815">
        <ele>820</ele>
        <time>2011-04-17T08:53:18.000Z</time>
      </trkpt>
      <trkpt lat="44.19963" lon="5.25814">
        <ele>820.40002441406</ele>
        <time>2011-04-17T08:53:35.000Z</time>
      </trkpt>
      <trkpt lat="44.19959" lon="5.25821">
        <ele>825.40002441406</ele>
        <time>2011-04-17T08:54:20.000Z</time>
      </trkpt>
      <trkpt lat="44.19962" lon="5.25816">
        <ele>822</ele>
        <time>2011-04-17T08:54:34.000Z</time>
      </trkpt>
      <trkpt lat="44.19958" lon="5.25809">
        <ele>822.40002441406</ele>
        <time>2011-04-17T08:54:40.000Z</time>
      </trkpt>
      <trkpt lat="44.19956" lon="5.25803">
        <ele>822.59997558594</ele>
        <time>2011-04-17T08:54:44.000Z</time>
      </trkpt>
      <trkpt lat="44.19954" lon="5.25796">
        <ele>821.79998779297</ele>
        <time>2011-04-17T08:54:49.000Z</time>
      </trkpt>
      <trkpt lat="44.1995" lon="5.25787">
        <ele>821.79998779297</ele>
        <time>2011-04-17T08:54:56.000Z</time>
      </trkpt>
      <trkpt lat="44.19946" lon="5.25778">
        <ele>822.20001220703</ele>
        <time>2011-04-17T08:55:03.000Z</time>
      </trkpt>
      <trkpt lat="44.19941" lon="5.25769">
        <ele>823.20001220703</ele>
        <time>2011-04-17T08:55:11.000Z</time>
      </trkpt>
      <trkpt lat="44.19936" lon="5.25762">
        <ele>824.20001220703</ele>
        <time>2011-04-17T08:55:18.000Z</time>
      </trkpt>
      <trkpt lat="44.1993" lon="5.25756">
        <ele>826.20001220703</ele>
        <time>2011-04-17T08:55:27.000Z</time>
      </trkpt>
      <trkpt lat="44.19925" lon="5.25751">
        <ele>827.59997558594</ele>
        <time>2011-04-17T08:55:33.000Z</time>
      </trkpt>
      <trkpt lat="44.19924" lon="5.25749">
        <ele>828.20001220703</ele>
        <time>2011-04-17T08:55:39.000Z</time>
      </trkpt>
      <trkpt lat="44.19921" lon="5.25744">
        <ele>829</ele>
        <time>2011-04-17T08:55:44.000Z</time>
      </trkpt>
      <trkpt lat="44.19915" lon="5.2574">
        <ele>831.20001220703</ele>
        <time>2011-04-17T08:55:51.000Z</time>
      </trkpt>
      <trkpt lat="44.19907" lon="5.25734">
        <ele>833.59997558594</ele>
        <time>2011-04-17T08:56:00.000Z</time>
      </trkpt>
      <trkpt lat="44.19906" lon="5.25734">
        <ele>834</ele>
        <time>2011-04-17T08:56:01.000Z</time>
      </trkpt>
      <trkpt lat="44.199" lon="5.2573">
        <ele>836</ele>
        <time>2011-04-17T08:56:07.000Z</time>
      </trkpt>
      <trkpt lat="44.19896" lon="5.25728">
        <ele>837.59997558594</ele>
        <time>2011-04-17T08:56:11.000Z</time>
      </trkpt>
      <trkpt lat="44.19889" lon="5.25726">
        <ele>840.59997558594</ele>
        <time>2011-04-17T08:56:18.000Z</time>
      </trkpt>
      <trkpt lat="44.19884" lon="5.2572">
        <ele>842</ele>
        <time>2011-04-17T08:56:25.000Z</time>
      </trkpt>
      <trkpt lat="44.19881" lon="5.25708">
        <ele>840.79998779297</ele>
        <time>2011-04-17T08:56:32.000Z</time>
      </trkpt>
      <trkpt lat="44.1988" lon="5.25696">
        <ele>838.59997558594</ele>
        <time>2011-04-17T08:56:39.000Z</time>
      </trkpt>
      <trkpt lat="44.19879" lon="5.25683">
        <ele>836.79998779297</ele>
        <time>2011-04-17T08:56:47.000Z</time>
      </trkpt>
      <trkpt lat="44.19876" lon="5.25673">
        <ele>836.20001220703</ele>
        <time>2011-04-17T08:56:54.000Z</time>
      </trkpt>
      <trkpt lat="44.19874" lon="5.25665">
        <ele>836.20001220703</ele>
        <time>2011-04-17T08:57:00.000Z</time>
      </trkpt>
      <trkpt lat="44.1987" lon="5.2565">
        <ele>839.20001220703</ele>
        <time>2011-04-17T08:57:11.000Z</time>
      </trkpt>
      <trkpt lat="44.19868" lon="5.25636">
        <ele>841.20001220703</ele>
        <time>2011-04-17T08:57:21.000Z</time>
      </trkpt>
      <trkpt lat="44.19868" lon="5.25623">
        <ele>842</ele>
        <time>2011-04-17T08:57:29.000Z</time>
      </trkpt>
      <trkpt lat="44.19868" lon="5.25605">
        <ele>843.20001220703</ele>
        <time>2011-04-17T08:57:40.000Z</time>
      </trkpt>
      <trkpt lat="44.19868" lon="5.25593">
        <ele>844.40002441406</ele>
        <time>2011-04-17T08:57:47.000Z</time>
      </trkpt>
      <trkpt lat="44.19867" lon="5.25575">
        <ele>846</ele>
        <time>2011-04-17T08:57:57.000Z</time>
      </trkpt>
      <trkpt lat="44.19867" lon="5.25557">
        <ele>847</ele>
        <time>2011-04-17T08:58:07.000Z</time>
      </trkpt>
      <trkpt lat="44.19867" lon="5.25545">
        <ele>847.40002441406</ele>
        <time>2011-04-17T08:58:14.000Z</time>
      </trkpt>
      <trkpt lat="44.19868" lon="5.25526">
        <ele>847.59997558594</ele>
        <time>2011-04-17T08:58:24.000Z</time>
      </trkpt>
      <trkpt lat="44.19869" lon="5.25514">
        <ele>847.79998779297</ele>
        <time>2011-04-17T08:58:31.000Z</time>
      </trkpt>
      <trkpt lat="44.1987" lon="5.25496">
        <ele>848.40002441406</ele>
        <time>2011-04-17T08:58:41.000Z</time>
      </trkpt>
      <trkpt lat="44.19871" lon="5.2548">
        <ele>849.79998779297</ele>
        <time>2011-04-17T08:58:50.000Z</time>
      </trkpt>
      <trkpt lat="44.19871" lon="5.25462">
        <ele>852</ele>
        <time>2011-04-17T08:59:00.000Z</time>
      </trkpt>
      <trkpt lat="44.19871" lon="5.25454">
        <ele>852.79998779297</ele>
        <time>2011-04-17T08:59:05.000Z</time>
      </trkpt>
      <trkpt lat="44.19871" lon="5.25452">
        <ele>853.20001220703</ele>
        <time>2011-04-17T08:59:11.000Z</time>
      </trkpt>
      <trkpt lat="44.19871" lon="5.25452">
        <ele>853.20001220703</ele>
        <time>2011-04-17T08:59:23.000Z</time>
      </trkpt>
      <trkpt lat="44.19871" lon="5.25452">
        <ele>853.20001220703</ele>
        <time>2011-04-17T08:59:28.000Z</time>
      </trkpt>
      <trkpt lat="44.19869" lon="5.25453">
        <ele>854.40002441406</ele>
        <time>2011-04-17T08:59:43.000Z</time>
      </trkpt>
      <trkpt lat="44.19868" lon="5.25454">
        <ele>854.59997558594</ele>
        <time>2011-04-17T08:59:49.000Z</time>
      </trkpt>
      <trkpt lat="44.19866" lon="5.25466">
        <ele>854.40002441406</ele>
        <time>2011-04-17T08:59:56.000Z</time>
      </trkpt>
      <trkpt lat="44.19864" lon="5.25476">
        <ele>854.20001220703</ele>
        <time>2011-04-17T09:00:02.000Z</time>
      </trkpt>
      <trkpt lat="44.19859" lon="5.2549">
        <ele>855.20001220703</ele>
        <time>2011-04-17T09:00:11.000Z</time>
      </trkpt>
      <trkpt lat="44.19855" lon="5.25501">
        <ele>856.59997558594</ele>
        <time>2011-04-17T09:00:19.000Z</time>
      </trkpt>
      <trkpt lat="44.1985" lon="5.25515">
        <ele>859</ele>
        <time>2011-04-17T09:00:28.000Z</time>
      </trkpt>
      <trkpt lat="44.19845" lon="5.25527">
        <ele>861</ele>
        <time>2011-04-17T09:00:36.000Z</time>
      </trkpt>
      <trkpt lat="44.19841" lon="5.25541">
        <ele>863.59997558594</ele>
        <time>2011-04-17T09:00:45.000Z</time>
      </trkpt>
      <trkpt lat="44.19837" lon="5.25553">
        <ele>865.40002441406</ele>
        <time>2011-04-17T09:00:52.000Z</time>
      </trkpt>
      <trkpt lat="44.19832" lon="5.25569">
        <ele>868.20001220703</ele>
        <time>2011-04-17T09:01:01.000Z</time>
      </trkpt>
      <trkpt lat="44.19827" lon="5.25584">
        <ele>871</ele>
        <time>2011-04-17T09:01:10.000Z</time>
      </trkpt>
      <trkpt lat="44.19823" lon="5.25597">
        <ele>872.59997558594</ele>
        <time>2011-04-17T09:01:19.000Z</time>
      </trkpt>
      <trkpt lat="44.1982" lon="5.25607">
        <ele>873.59997558594</ele>
        <time>2011-04-17T09:01:26.000Z</time>
      </trkpt>
      <trkpt lat="44.19817" lon="5.25619">
        <ele>874.79998779297</ele>
        <time>2011-04-17T09:01:34.000Z</time>
      </trkpt>
      <trkpt lat="44.19814" lon="5.25629">
        <ele>876</ele>
        <time>2011-04-17T09:01:41.000Z</time>
      </trkpt>
      <trkpt lat="44.1981" lon="5.25643">
        <ele>877</ele>
        <time>2011-04-17T09:01:50.000Z</time>
      </trkpt>
      <trkpt lat="44.19807" lon="5.25659">
        <ele>877.79998779297</ele>
        <time>2011-04-17T09:02:00.000Z</time>
      </trkpt>
      <trkpt lat="44.19805" lon="5.2567">
        <ele>878.79998779297</ele>
        <time>2011-04-17T09:02:07.000Z</time>
      </trkpt>
      <trkpt lat="44.19802" lon="5.25683">
        <ele>882.20001220703</ele>
        <time>2011-04-17T09:02:15.000Z</time>
      </trkpt>
      <trkpt lat="44.19799" lon="5.25697">
        <ele>885.79998779297</ele>
        <time>2011-04-17T09:02:24.000Z</time>
      </trkpt>
      <trkpt lat="44.19799" lon="5.25706">
        <ele>886.40002441406</ele>
        <time>2011-04-17T09:02:30.000Z</time>
      </trkpt>
      <trkpt lat="44.198" lon="5.25719">
        <ele>886.79998779297</ele>
        <time>2011-04-17T09:02:38.000Z</time>
      </trkpt>
      <trkpt lat="44.19801" lon="5.25731">
        <ele>887.40002441406</ele>
        <time>2011-04-17T09:02:45.000Z</time>
      </trkpt>
      <trkpt lat="44.19803" lon="5.2574">
        <ele>887.59997558594</ele>
        <time>2011-04-17T09:02:51.000Z</time>
      </trkpt>
      <trkpt lat="44.19805" lon="5.25755">
        <ele>888.59997558594</ele>
        <time>2011-04-17T09:03:01.000Z</time>
      </trkpt>
      <trkpt lat="44.19807" lon="5.25769">
        <ele>890.59997558594</ele>
        <time>2011-04-17T09:03:10.000Z</time>
      </trkpt>
      <trkpt lat="44.19808" lon="5.25774">
        <ele>891.40002441406</ele>
        <time>2011-04-17T09:03:14.000Z</time>
      </trkpt>
      <trkpt lat="44.19808" lon="5.25776">
        <ele>892</ele>
        <time>2011-04-17T09:03:19.000Z</time>
      </trkpt>
      <trkpt lat="44.19809" lon="5.25777">
        <ele>891.59997558594</ele>
        <time>2011-04-17T09:03:25.000Z</time>
      </trkpt>
      <trkpt lat="44.19809" lon="5.25782">
        <ele>893</ele>
        <time>2011-04-17T09:03:31.000Z</time>
      </trkpt>
      <trkpt lat="44.19809" lon="5.2579">
        <ele>894.40002441406</ele>
        <time>2011-04-17T09:03:38.000Z</time>
      </trkpt>
      <trkpt lat="44.19812" lon="5.25797">
        <ele>895</ele>
        <time>2011-04-17T09:03:44.000Z</time>
      </trkpt>
      <trkpt lat="44.19816" lon="5.25807">
        <ele>895.40002441406</ele>
        <time>2011-04-17T09:03:52.000Z</time>
      </trkpt>
      <trkpt lat="44.19817" lon="5.2581">
        <ele>895.59997558594</ele>
        <time>2011-04-17T09:03:54.000Z</time>
      </trkpt>
      <trkpt lat="44.19823" lon="5.25821">
        <ele>895.79998779297</ele>
        <time>2011-04-17T09:04:03.000Z</time>
      </trkpt>
      <trkpt lat="44.1983" lon="5.2583">
        <ele>895</ele>
        <time>2011-04-17T09:04:12.000Z</time>
      </trkpt>
      <trkpt lat="44.19834" lon="5.25836">
        <ele>895.20001220703</ele>
        <time>2011-04-17T09:04:19.000Z</time>
      </trkpt>
      <trkpt lat="44.19834" lon="5.25837">
        <ele>895.40002441406</ele>
        <time>2011-04-17T09:04:26.000Z</time>
      </trkpt>
      <trkpt lat="44.19832" lon="5.25836">
        <ele>896</ele>
        <time>2011-04-17T09:04:39.000Z</time>
      </trkpt>
      <trkpt lat="44.1983" lon="5.25837">
        <ele>896.59997558594</ele>
        <time>2011-04-17T09:05:14.000Z</time>
      </trkpt>
      <trkpt lat="44.19827" lon="5.25835">
        <ele>897.59997558594</ele>
        <time>2011-04-17T09:05:21.000Z</time>
      </trkpt>
      <trkpt lat="44.19822" lon="5.25832">
        <ele>899.20001220703</ele>
        <time>2011-04-17T09:05:26.000Z</time>
      </trkpt>
      <trkpt lat="44.19813" lon="5.25827">
        <ele>901.20001220703</ele>
        <time>2011-04-17T09:05:35.000Z</time>
      </trkpt>
      <trkpt lat="44.19805" lon="5.2582">
        <ele>902.59997558594</ele>
        <time>2011-04-17T09:05:43.000Z</time>
      </trkpt>
      <trkpt lat="44.198" lon="5.25816">
        <ele>903.79998779297</ele>
        <time>2011-04-17T09:05:49.000Z</time>
      </trkpt>
      <trkpt lat="44.19797" lon="5.25812">
        <ele>904.40002441406</ele>
        <time>2011-04-17T09:05:53.000Z</time>
      </trkpt>
      <trkpt lat="44.19791" lon="5.25806">
        <ele>906</ele>
        <time>2011-04-17T09:06:00.000Z</time>
      </trkpt>
      <trkpt lat="44.19787" lon="5.25801">
        <ele>906.79998779297</ele>
        <time>2011-04-17T09:06:05.000Z</time>
      </trkpt>
      <trkpt lat="44.19778" lon="5.25792">
        <ele>908.59997558594</ele>
        <time>2011-04-17T09:06:15.000Z</time>
      </trkpt>
      <trkpt lat="44.19771" lon="5.25779">
        <ele>909.79998779297</ele>
        <time>2011-04-17T09:06:25.000Z</time>
      </trkpt>
      <trkpt lat="44.19768" lon="5.25772">
        <ele>910.40002441406</ele>
        <time>2011-04-17T09:06:31.000Z</time>
      </trkpt>
      <trkpt lat="44.19764" lon="5.25763">
        <ele>910.79998779297</ele>
        <time>2011-04-17T09:06:39.000Z</time>
      </trkpt>
      <trkpt lat="44.1976" lon="5.25752">
        <ele>911.20001220703</ele>
        <time>2011-04-17T09:06:48.000Z</time>
      </trkpt>
      <trkpt lat="44.19757" lon="5.25744">
        <ele>912.20001220703</ele>
        <time>2011-04-17T09:06:54.000Z</time>
      </trkpt>
      <trkpt lat="44.19755" lon="5.25735">
        <ele>913.20001220703</ele>
        <time>2011-04-17T09:06:59.000Z</time>
      </trkpt>
      <trkpt lat="44.19752" lon="5.2572">
        <ele>914.20001220703</ele>
        <time>2011-04-17T09:07:09.000Z</time>
      </trkpt>
      <trkpt lat="44.19749" lon="5.25707">
        <ele>916.20001220703</ele>
        <time>2011-04-17T09:07:18.000Z</time>
      </trkpt>
      <trkpt lat="44.19748" lon="5.25704">
        <ele>916.79998779297</ele>
        <time>2011-04-17T09:07:23.000Z</time>
      </trkpt>
      <trkpt lat="44.19748" lon="5.25701">
        <ele>917</ele>
        <time>2011-04-17T09:07:30.000Z</time>
      </trkpt>
      <trkpt lat="44.19747" lon="5.25697">
        <ele>917.59997558594</ele>
        <time>2011-04-17T09:07:44.000Z</time>
      </trkpt>
      <trkpt lat="44.19746" lon="5.25693">
        <ele>918.40002441406</ele>
        <time>2011-04-17T09:07:49.000Z</time>
      </trkpt>
      <trkpt lat="44.19744" lon="5.25686">
        <ele>919.79998779297</ele>
        <time>2011-04-17T09:07:57.000Z</time>
      </trkpt>
      <trkpt lat="44.19741" lon="5.25679">
        <ele>922</ele>
        <time>2011-04-17T09:08:06.000Z</time>
      </trkpt>
      <trkpt lat="44.19741" lon="5.2567">
        <ele>922.20001220703</ele>
        <time>2011-04-17T09:08:15.000Z</time>
      </trkpt>
      <trkpt lat="44.19739" lon="5.25661">
        <ele>923.79998779297</ele>
        <time>2011-04-17T09:08:24.000Z</time>
      </trkpt>
      <trkpt lat="44.19739" lon="5.25654">
        <ele>924.59997558594</ele>
        <time>2011-04-17T09:08:30.000Z</time>
      </trkpt>
      <trkpt lat="44.19737" lon="5.25645">
        <ele>927</ele>
        <time>2011-04-17T09:08:37.000Z</time>
      </trkpt>
      <trkpt lat="44.19737" lon="5.2564">
        <ele>927.40002441406</ele>
        <time>2011-04-17T09:08:44.000Z</time>
      </trkpt>
      <trkpt lat="44.19737" lon="5.25632">
        <ele>928</ele>
        <time>2011-04-17T09:09:04.000Z</time>
      </trkpt>
      <trkpt lat="44.19737" lon="5.25623">
        <ele>928.59997558594</ele>
        <time>2011-04-17T09:09:12.000Z</time>
      </trkpt>
      <trkpt lat="44.19736" lon="5.25615">
        <ele>929.59997558594</ele>
        <time>2011-04-17T09:09:20.000Z</time>
      </trkpt>
      <trkpt lat="44.19735" lon="5.25607">
        <ele>931.59997558594</ele>
        <time>2011-04-17T09:09:29.000Z</time>
      </trkpt>
      <trkpt lat="44.19734" lon="5.25596">
        <ele>933</ele>
        <time>2011-04-17T09:09:38.000Z</time>
      </trkpt>
      <trkpt lat="44.19736" lon="5.25582">
        <ele>932.59997558594</ele>
        <time>2011-04-17T09:09:48.000Z</time>
      </trkpt>
      <trkpt lat="44.19736" lon="5.25576">
        <ele>932.79998779297</ele>
        <time>2011-04-17T09:09:54.000Z</time>
      </trkpt>
      <trkpt lat="44.19735" lon="5.25567">
        <ele>934</ele>
        <time>2011-04-17T09:10:01.000Z</time>
      </trkpt>
      <trkpt lat="44.19735" lon="5.25555">
        <ele>935</ele>
        <time>2011-04-17T09:10:11.000Z</time>
      </trkpt>
      <trkpt lat="44.19735" lon="5.25554">
        <ele>934.79998779297</ele>
        <time>2011-04-17T09:10:18.000Z</time>
      </trkpt>
      <trkpt lat="44.19734" lon="5.25554">
        <ele>935.40002441406</ele>
        <time>2011-04-17T09:10:25.000Z</time>
      </trkpt>
      <trkpt lat="44.19733" lon="5.25551">
        <ele>936.40002441406</ele>
        <time>2011-04-17T09:10:38.000Z</time>
      </trkpt>
      <trkpt lat="44.19731" lon="5.25538">
        <ele>938.20001220703</ele>
        <time>2011-04-17T09:10:48.000Z</time>
      </trkpt>
      <trkpt lat="44.19729" lon="5.25526">
        <ele>940.40002441406</ele>
        <time>2011-04-17T09:10:57.000Z</time>
      </trkpt>
      <trkpt lat="44.19729" lon="5.25524">
        <ele>940.79998779297</ele>
        <time>2011-04-17T09:11:04.000Z</time>
      </trkpt>
      <trkpt lat="44.19725" lon="5.25514">
        <ele>944</ele>
        <time>2011-04-17T09:11:14.000Z</time>
      </trkpt>
      <trkpt lat="44.19724" lon="5.25506">
        <ele>945</ele>
        <time>2011-04-17T09:11:22.000Z</time>
      </trkpt>
      <trkpt lat="44.19723" lon="5.25494">
        <ele>946</ele>
        <time>2011-04-17T09:11:32.000Z</time>
      </trkpt>
      <trkpt lat="44.19724" lon="5.25484">
        <ele>946.20001220703</ele>
        <time>2011-04-17T09:11:42.000Z</time>
      </trkpt>
      <trkpt lat="44.19724" lon="5.25479">
        <ele>945.79998779297</ele>
        <time>2011-04-17T09:11:51.000Z</time>
      </trkpt>
      <trkpt lat="44.19724" lon="5.25472">
        <ele>946</ele>
        <time>2011-04-17T09:11:59.000Z</time>
      </trkpt>
      <trkpt lat="44.19723" lon="5.25464">
        <ele>946.79998779297</ele>
        <time>2011-04-17T09:12:07.000Z</time>
      </trkpt>
      <trkpt lat="44.19722" lon="5.25456">
        <ele>948.20001220703</ele>
        <time>2011-04-17T09:12:16.000Z</time>
      </trkpt>
      <trkpt lat="44.1972" lon="5.25451">
        <ele>949.20001220703</ele>
        <time>2011-04-17T09:12:22.000Z</time>
      </trkpt>
      <trkpt lat="44.1972" lon="5.25441">
        <ele>949.40002441406</ele>
        <time>2011-04-17T09:12:31.000Z</time>
      </trkpt>
      <trkpt lat="44.1972" lon="5.25431">
        <ele>949.59997558594</ele>
        <time>2011-04-17T09:12:40.000Z</time>
      </trkpt>
      <trkpt lat="44.1972" lon="5.25428">
        <ele>949.79998779297</ele>
        <time>2011-04-17T09:12:48.000Z</time>
      </trkpt>
      <trkpt lat="44.19719" lon="5.25422">
        <ele>950.59997558594</ele>
        <time>2011-04-17T09:12:57.000Z</time>
      </trkpt>
      <trkpt lat="44.19718" lon="5.25413">
        <ele>951.79998779297</ele>
        <time>2011-04-17T09:13:06.000Z</time>
      </trkpt>
      <trkpt lat="44.19719" lon="5.25411">
        <ele>951.20001220703</ele>
        <time>2011-04-17T09:13:13.000Z</time>
      </trkpt>
      <trkpt lat="44.19717" lon="5.25402">
        <ele>952.79998779297</ele>
        <time>2011-04-17T09:13:19.000Z</time>
      </trkpt>
      <trkpt lat="44.19715" lon="5.2539">
        <ele>954.59997558594</ele>
        <time>2011-04-17T09:13:27.000Z</time>
      </trkpt>
      <trkpt lat="44.19713" lon="5.25375">
        <ele>956.59997558594</ele>
        <time>2011-04-17T09:13:37.000Z</time>
      </trkpt>
      <trkpt lat="44.19712" lon="5.25369">
        <ele>957.40002441406</ele>
        <time>2011-04-17T09:13:44.000Z</time>
      </trkpt>
      <trkpt lat="44.19711" lon="5.25364">
        <ele>958.20001220703</ele>
        <time>2011-04-17T09:13:55.000Z</time>
      </trkpt>
      <trkpt lat="44.19708" lon="5.25353">
        <ele>960.20001220703</ele>
        <time>2011-04-17T09:14:05.000Z</time>
      </trkpt>
      <trkpt lat="44.19705" lon="5.25344">
        <ele>962.20001220703</ele>
        <time>2011-04-17T09:14:13.000Z</time>
      </trkpt>
      <trkpt lat="44.19703" lon="5.25335">
        <ele>964</ele>
        <time>2011-04-17T09:14:21.000Z</time>
      </trkpt>
      <trkpt lat="44.19702" lon="5.2533">
        <ele>964.79998779297</ele>
        <time>2011-04-17T09:14:29.000Z</time>
      </trkpt>
      <trkpt lat="44.19703" lon="5.25324">
        <ele>965</ele>
        <time>2011-04-17T09:14:38.000Z</time>
      </trkpt>
      <trkpt lat="44.19701" lon="5.25313">
        <ele>966.79998779297</ele>
        <time>2011-04-17T09:14:46.000Z</time>
      </trkpt>
      <trkpt lat="44.19702" lon="5.25304">
        <ele>967.59997558594</ele>
        <time>2011-04-17T09:14:53.000Z</time>
      </trkpt>
      <trkpt lat="44.19702" lon="5.25291">
        <ele>968.40002441406</ele>
        <time>2011-04-17T09:15:01.000Z</time>
      </trkpt>
      <trkpt lat="44.19704" lon="5.25283">
        <ele>968.40002441406</ele>
        <time>2011-04-17T09:15:06.000Z</time>
      </trkpt>
      <trkpt lat="44.19705" lon="5.25272">
        <ele>968.40002441406</ele>
        <time>2011-04-17T09:15:14.000Z</time>
      </trkpt>
      <trkpt lat="44.19706" lon="5.25269">
        <ele>968.59997558594</ele>
        <time>2011-04-17T09:15:20.000Z</time>
      </trkpt>
      <trkpt lat="44.19708" lon="5.25262">
        <ele>967.79998779297</ele>
        <time>2011-04-17T09:15:28.000Z</time>
      </trkpt>
      <trkpt lat="44.19709" lon="5.2525">
        <ele>968.40002441406</ele>
        <time>2011-04-17T09:15:39.000Z</time>
      </trkpt>
      <trkpt lat="44.19708" lon="5.25242">
        <ele>969</ele>
        <time>2011-04-17T09:15:46.000Z</time>
      </trkpt>
      <trkpt lat="44.19706" lon="5.25233">
        <ele>969.59997558594</ele>
        <time>2011-04-17T09:15:54.000Z</time>
      </trkpt>
      <trkpt lat="44.19703" lon="5.25227">
        <ele>971.20001220703</ele>
        <time>2011-04-17T09:16:02.000Z</time>
      </trkpt>
      <trkpt lat="44.19703" lon="5.25228">
        <ele>971</ele>
        <time>2011-04-17T09:16:09.000Z</time>
      </trkpt>
      <trkpt lat="44.19701" lon="5.25227">
        <ele>972</ele>
        <time>2011-04-17T09:16:23.000Z</time>
      </trkpt>
      <trkpt lat="44.19698" lon="5.25221">
        <ele>973.40002441406</ele>
        <time>2011-04-17T09:16:30.000Z</time>
      </trkpt>
      <trkpt lat="44.19694" lon="5.25214">
        <ele>975.40002441406</ele>
        <time>2011-04-17T09:16:38.000Z</time>
      </trkpt>
      <trkpt lat="44.19692" lon="5.25206">
        <ele>976.40002441406</ele>
        <time>2011-04-17T09:16:45.000Z</time>
      </trkpt>
      <trkpt lat="44.19688" lon="5.25198">
        <ele>978</ele>
        <time>2011-04-17T09:16:53.000Z</time>
      </trkpt>
      <trkpt lat="44.19685" lon="5.25191">
        <ele>979.59997558594</ele>
        <time>2011-04-17T09:17:00.000Z</time>
      </trkpt>
      <trkpt lat="44.1968" lon="5.25183">
        <ele>981.59997558594</ele>
        <time>2011-04-17T09:17:08.000Z</time>
      </trkpt>
      <trkpt lat="44.19677" lon="5.25175">
        <ele>983</ele>
        <time>2011-04-17T09:17:15.000Z</time>
      </trkpt>
      <trkpt lat="44.19671" lon="5.25164">
        <ele>985.59997558594</ele>
        <time>2011-04-17T09:17:25.000Z</time>
      </trkpt>
      <trkpt lat="44.1967" lon="5.25162">
        <ele>986</ele>
        <time>2011-04-17T09:17:27.000Z</time>
      </trkpt>
      <trkpt lat="44.19668" lon="5.25153">
        <ele>986.59997558594</ele>
        <time>2011-04-17T09:17:36.000Z</time>
      </trkpt>
      <trkpt lat="44.19667" lon="5.25147">
        <ele>986.40002441406</ele>
        <time>2011-04-17T09:17:42.000Z</time>
      </trkpt>
      <trkpt lat="44.19666" lon="5.25141">
        <ele>986.79998779297</ele>
        <time>2011-04-17T09:17:48.000Z</time>
      </trkpt>
      <trkpt lat="44.19663" lon="5.2513">
        <ele>987.20001220703</ele>
        <time>2011-04-17T09:17:57.000Z</time>
      </trkpt>
      <trkpt lat="44.19661" lon="5.25123">
        <ele>987.79998779297</ele>
        <time>2011-04-17T09:18:05.000Z</time>
      </trkpt>
      <trkpt lat="44.19659" lon="5.25113">
        <ele>988</ele>
        <time>2011-04-17T09:18:14.000Z</time>
      </trkpt>
      <trkpt lat="44.19656" lon="5.25104">
        <ele>988.79998779297</ele>
        <time>2011-04-17T09:18:22.000Z</time>
      </trkpt>
      <trkpt lat="44.19653" lon="5.25092">
        <ele>989.40002441406</ele>
        <time>2011-04-17T09:18:31.000Z</time>
      </trkpt>
      <trkpt lat="44.1965" lon="5.25086">
        <ele>990.59997558594</ele>
        <time>2011-04-17T09:18:39.000Z</time>
      </trkpt>
      <trkpt lat="44.19647" lon="5.25085">
        <ele>991.59997558594</ele>
        <time>2011-04-17T09:18:47.000Z</time>
      </trkpt>
      <trkpt lat="44.19648" lon="5.25085">
        <ele>991.40002441406</ele>
        <time>2011-04-17T09:18:56.000Z</time>
      </trkpt>
      <trkpt lat="44.19648" lon="5.25086">
        <ele>991.40002441406</ele>
        <time>2011-04-17T09:19:03.000Z</time>
      </trkpt>
      <trkpt lat="44.19647" lon="5.25085">
        <ele>991.79998779297</ele>
        <time>2011-04-17T09:19:10.000Z</time>
      </trkpt>
      <trkpt lat="44.19644" lon="5.25076">
        <ele>992.40002441406</ele>
        <time>2011-04-17T09:19:16.000Z</time>
      </trkpt>
      <trkpt lat="44.19642" lon="5.25062">
        <ele>992.79998779297</ele>
        <time>2011-04-17T09:19:22.000Z</time>
      </trkpt>
      <trkpt lat="44.19638" lon="5.25039">
        <ele>993.40002441406</ele>
        <time>2011-04-17T09:19:30.000Z</time>
      </trkpt>
      <trkpt lat="44.19635" lon="5.25009">
        <ele>994</ele>
        <time>2011-04-17T09:19:39.000Z</time>
      </trkpt>
      <trkpt lat="44.19632" lon="5.24969">
        <ele>997.40002441406</ele>
        <time>2011-04-17T09:19:50.000Z</time>
      </trkpt>
      <trkpt lat="44.19634" lon="5.24943">
        <ele>998.20001220703</ele>
        <time>2011-04-17T09:19:57.000Z</time>
      </trkpt>
      <trkpt lat="44.19639" lon="5.24917">
        <ele>997.79998779297</ele>
        <time>2011-04-17T09:20:04.000Z</time>
      </trkpt>
      <trkpt lat="44.19643" lon="5.24888">
        <ele>999</ele>
        <time>2011-04-17T09:20:12.000Z</time>
      </trkpt>
      <trkpt lat="44.19646" lon="5.24861">
        <ele>1000.200012207</ele>
        <time>2011-04-17T09:20:19.000Z</time>
      </trkpt>
      <trkpt lat="44.19654" lon="5.2484">
        <ele>998.20001220703</ele>
        <time>2011-04-17T09:20:25.000Z</time>
      </trkpt>
      <trkpt lat="44.19669" lon="5.2481">
        <ele>997</ele>
        <time>2011-04-17T09:20:34.000Z</time>
      </trkpt>
      <trkpt lat="44.19682" lon="5.24794">
        <ele>993.79998779297</ele>
        <time>2011-04-17T09:20:40.000Z</time>
      </trkpt>
      <trkpt lat="44.19698" lon="5.24773">
        <ele>990.20001220703</ele>
        <time>2011-04-17T09:20:48.000Z</time>
      </trkpt>
      <trkpt lat="44.1971" lon="5.24747">
        <ele>988.40002441406</ele>
        <time>2011-04-17T09:20:56.000Z</time>
      </trkpt>
      <trkpt lat="44.19715" lon="5.24725">
        <ele>986.59997558594</ele>
        <time>2011-04-17T09:21:02.000Z</time>
      </trkpt>
      <trkpt lat="44.19717" lon="5.24704">
        <ele>986.79998779297</ele>
        <time>2011-04-17T09:21:08.000Z</time>
      </trkpt>
      <trkpt lat="44.19714" lon="5.24685">
        <ele>989.40002441406</ele>
        <time>2011-04-17T09:21:14.000Z</time>
      </trkpt>
      <trkpt lat="44.19711" lon="5.24664">
        <ele>992.40002441406</ele>
        <time>2011-04-17T09:21:21.000Z</time>
      </trkpt>
      <trkpt lat="44.1971" lon="5.24641">
        <ele>990</ele>
        <time>2011-04-17T09:21:28.000Z</time>
      </trkpt>
      <trkpt lat="44.19706" lon="5.24627">
        <ele>990.59997558594</ele>
        <time>2011-04-17T09:21:34.000Z</time>
      </trkpt>
      <trkpt lat="44.19697" lon="5.24607">
        <ele>994.40002441406</ele>
        <time>2011-04-17T09:21:42.000Z</time>
      </trkpt>
      <trkpt lat="44.19688" lon="5.24588">
        <ele>999.20001220703</ele>
        <time>2011-04-17T09:21:50.000Z</time>
      </trkpt>
      <trkpt lat="44.19676" lon="5.2456">
        <ele>1001.200012207</ele>
        <time>2011-04-17T09:22:01.000Z</time>
      </trkpt>
      <trkpt lat="44.19667" lon="5.2453">
        <ele>998.79998779297</ele>
        <time>2011-04-17T09:22:11.000Z</time>
      </trkpt>
      <trkpt lat="44.19657" lon="5.24502">
        <ele>997.59997558594</ele>
        <time>2011-04-17T09:22:21.000Z</time>
      </trkpt>
      <trkpt lat="44.19647" lon="5.24476">
        <ele>1000.799987793</ele>
        <time>2011-04-17T09:22:31.000Z</time>
      </trkpt>
      <trkpt lat="44.19635" lon="5.2445">
        <ele>1004.200012207</ele>
        <time>2011-04-17T09:22:41.000Z</time>
      </trkpt>
      <trkpt lat="44.19627" lon="5.24424">
        <ele>1004.5999755859</ele>
        <time>2011-04-17T09:22:50.000Z</time>
      </trkpt>
      <trkpt lat="44.19619" lon="5.2439">
        <ele>1007.200012207</ele>
        <time>2011-04-17T09:23:01.000Z</time>
      </trkpt>
      <trkpt lat="44.19612" lon="5.24361">
        <ele>1009.5999755859</ele>
        <time>2011-04-17T09:23:10.000Z</time>
      </trkpt>
      <trkpt lat="44.19608" lon="5.24342">
        <ele>1010.799987793</ele>
        <time>2011-04-17T09:23:16.000Z</time>
      </trkpt>
      <trkpt lat="44.19605" lon="5.24319">
        <ele>1012.200012207</ele>
        <time>2011-04-17T09:23:23.000Z</time>
      </trkpt>
      <trkpt lat="44.19599" lon="5.24289">
        <ele>1014.799987793</ele>
        <time>2011-04-17T09:23:32.000Z</time>
      </trkpt>
      <trkpt lat="44.19594" lon="5.24255">
        <ele>1016</ele>
        <time>2011-04-17T09:23:42.000Z</time>
      </trkpt>
      <trkpt lat="44.1959" lon="5.24245">
        <ele>1016.5999755859</ele>
        <time>2011-04-17T09:23:46.000Z</time>
      </trkpt>
      <trkpt lat="44.19591" lon="5.24239">
        <ele>1016</ele>
        <time>2011-04-17T09:23:50.000Z</time>
      </trkpt>
      <trkpt lat="44.19593" lon="5.24234">
        <ele>1015</ele>
        <time>2011-04-17T09:23:53.000Z</time>
      </trkpt>
      <trkpt lat="44.1959" lon="5.24227">
        <ele>1014.799987793</ele>
        <time>2011-04-17T09:23:57.000Z</time>
      </trkpt>
      <trkpt lat="44.19589" lon="5.24222">
        <ele>1014.4000244141</ele>
        <time>2011-04-17T09:24:03.000Z</time>
      </trkpt>
      <trkpt lat="44.19589" lon="5.24221">
        <ele>1014.4000244141</ele>
        <time>2011-04-17T09:24:09.000Z</time>
      </trkpt>
      <trkpt lat="44.1959" lon="5.24214">
        <ele>1013.5999755859</ele>
        <time>2011-04-17T09:24:15.000Z</time>
      </trkpt>
      <trkpt lat="44.1959" lon="5.24213">
        <ele>1013.4000244141</ele>
        <time>2011-04-17T09:24:19.000Z</time>
      </trkpt>
      <trkpt lat="44.19589" lon="5.2422">
        <ele>1014.200012207</ele>
        <time>2011-04-17T09:24:23.000Z</time>
      </trkpt>
      <trkpt lat="44.19588" lon="5.24224">
        <ele>1014.799987793</ele>
        <time>2011-04-17T09:24:28.000Z</time>
      </trkpt>
      <trkpt lat="44.19587" lon="5.24227">
        <ele>1015.4000244141</ele>
        <time>2011-04-17T09:24:37.000Z</time>
      </trkpt>
      <trkpt lat="44.1959" lon="5.24225">
        <ele>1014.5999755859</ele>
        <time>2011-04-17T09:24:52.000Z</time>
      </trkpt>
      <trkpt lat="44.19591" lon="5.24224">
        <ele>1014.4000244141</ele>
        <time>2011-04-17T09:25:02.000Z</time>
      </trkpt>
      <trkpt lat="44.19589" lon="5.24224">
        <ele>1014.5999755859</ele>
        <time>2011-04-17T09:25:22.000Z</time>
      </trkpt>
      <trkpt lat="44.19587" lon="5.24226">
        <ele>1015.200012207</ele>
        <time>2011-04-17T09:25:37.000Z</time>
      </trkpt>
      <trkpt lat="44.19588" lon="5.24226">
        <ele>1015</ele>
        <time>2011-04-17T09:25:47.000Z</time>
      </trkpt>
      <trkpt lat="44.1959" lon="5.24222">
        <ele>1014.4000244141</ele>
        <time>2011-04-17T09:26:03.000Z</time>
      </trkpt>
      <trkpt lat="44.19589" lon="5.2422">
        <ele>1014.200012207</ele>
        <time>2011-04-17T09:26:14.000Z</time>
      </trkpt>
      <trkpt lat="44.19588" lon="5.24219">
        <ele>1014.200012207</ele>
        <time>2011-04-17T09:26:25.000Z</time>
      </trkpt>
      <trkpt lat="44.19588" lon="5.2422">
        <ele>1014.4000244141</ele>
        <time>2011-04-17T09:26:32.000Z</time>
      </trkpt>
      <trkpt lat="44.19588" lon="5.24219">
        <ele>1014.4000244141</ele>
        <time>2011-04-17T09:26:43.000Z</time>
      </trkpt>
      <trkpt lat="44.19589" lon="5.2422">
        <ele>1014.200012207</ele>
        <time>2011-04-17T09:27:01.000Z</time>
      </trkpt>
      <trkpt lat="44.19591" lon="5.24221">
        <ele>1014.200012207</ele>
        <time>2011-04-17T09:27:12.000Z</time>
      </trkpt>
      <trkpt lat="44.1959" lon="5.24221">
        <ele>1014.200012207</ele>
        <time>2011-04-17T09:27:20.000Z</time>
      </trkpt>
      <trkpt lat="44.19587" lon="5.24223">
        <ele>1014.799987793</ele>
        <time>2011-04-17T09:27:38.000Z</time>
      </trkpt>
      <trkpt lat="44.19587" lon="5.24224">
        <ele>1015</ele>
        <time>2011-04-17T09:27:44.000Z</time>
      </trkpt>
      <trkpt lat="44.19587" lon="5.24222">
        <ele>1014.799987793</ele>
        <time>2011-04-17T09:27:51.000Z</time>
      </trkpt>
      <trkpt lat="44.19587" lon="5.24221">
        <ele>1014.5999755859</ele>
        <time>2011-04-17T09:27:56.000Z</time>
      </trkpt>
      <trkpt lat="44.19589" lon="5.24221">
        <ele>1014.4000244141</ele>
        <time>2011-04-17T09:28:01.000Z</time>
      </trkpt>
      <trkpt lat="44.19589" lon="5.24213">
        <ele>1013.5999755859</ele>
        <time>2011-04-17T09:28:06.000Z</time>
      </trkpt>
      <trkpt lat="44.1959" lon="5.2421">
        <ele>1013.200012207</ele>
        <time>2011-04-17T09:28:08.000Z</time>
      </trkpt>
      <trkpt lat="44.19588" lon="5.24196">
        <ele>1011.799987793</ele>
        <time>2011-04-17T09:28:16.000Z</time>
      </trkpt>
      <trkpt lat="44.19584" lon="5.24184">
        <ele>1010.200012207</ele>
        <time>2011-04-17T09:28:23.000Z</time>
      </trkpt>
      <trkpt lat="44.19582" lon="5.24175">
        <ele>1008.799987793</ele>
        <time>2011-04-17T09:28:30.000Z</time>
      </trkpt>
      <trkpt lat="44.19582" lon="5.24171">
        <ele>1008.200012207</ele>
        <time>2011-04-17T09:28:32.000Z</time>
      </trkpt>
      <trkpt lat="44.19582" lon="5.24165">
        <ele>1007.4000244141</ele>
        <time>2011-04-17T09:28:36.000Z</time>
      </trkpt>
      <trkpt lat="44.19581" lon="5.24162">
        <ele>1007</ele>
        <time>2011-04-17T09:28:45.000Z</time>
      </trkpt>
      <trkpt lat="44.1958" lon="5.24163">
        <ele>1007</ele>
        <time>2011-04-17T09:29:03.000Z</time>
      </trkpt>
      <trkpt lat="44.19582" lon="5.24162">
        <ele>1007.200012207</ele>
        <time>2011-04-17T09:29:22.000Z</time>
      </trkpt>
      <trkpt lat="44.19579" lon="5.24163">
        <ele>1006.799987793</ele>
        <time>2011-04-17T09:29:40.000Z</time>
      </trkpt>
      <trkpt lat="44.19579" lon="5.24161">
        <ele>1006.5999755859</ele>
        <time>2011-04-17T09:30:15.000Z</time>
      </trkpt>
      <trkpt lat="44.1958" lon="5.2416">
        <ele>1006.799987793</ele>
        <time>2011-04-17T09:30:24.000Z</time>
      </trkpt>
      <trkpt lat="44.19581" lon="5.2416">
        <ele>1007</ele>
        <time>2011-04-17T09:30:33.000Z</time>
      </trkpt>
      <trkpt lat="44.19582" lon="5.24159">
        <ele>1007.200012207</ele>
        <time>2011-04-17T09:30:50.000Z</time>
      </trkpt>
      <trkpt lat="44.19582" lon="5.24158">
        <ele>1007</ele>
        <time>2011-04-17T09:30:58.000Z</time>
      </trkpt>
      <trkpt lat="44.19587" lon="5.24158">
        <ele>1008</ele>
        <time>2011-04-17T09:31:08.000Z</time>
      </trkpt>
      <trkpt lat="44.19589" lon="5.24159">
        <ele>1008.5999755859</ele>
        <time>2011-04-17T09:31:16.000Z</time>
      </trkpt>
      <trkpt lat="44.19585" lon="5.24161">
        <ele>1007.799987793</ele>
        <time>2011-04-17T09:31:24.000Z</time>
      </trkpt>
      <trkpt lat="44.19583" lon="5.24163">
        <ele>1007.5999755859</ele>
        <time>2011-04-17T09:31:28.000Z</time>
      </trkpt>
      <trkpt lat="44.19582" lon="5.24164">
        <ele>1007.4000244141</ele>
        <time>2011-04-17T09:31:33.000Z</time>
      </trkpt>
      <trkpt lat="44.19582" lon="5.24163">
        <ele>1007.4000244141</ele>
        <time>2011-04-17T09:31:42.000Z</time>
      </trkpt>
      <trkpt lat="44.19581" lon="5.24163">
        <ele>1007.200012207</ele>
        <time>2011-04-17T09:32:00.000Z</time>
      </trkpt>
    </trkseg>
  </trk>
</gpx>